<?xml version="1.0" encoding="UTF-8" standalone="no" ?>
<gpx xmlns="http://www.topografix.com/GPX/1/1" xmlns:xsi="http://www.w3.org/2001/XMLSchema-instance" xsi:schemaLocation="http://www.topografix.com/GPX/1/1 http://www.topografix.com/GPX/1/1/gpx.xsd" version="1.1" creator="VisuGPX - https://www.visugpx.com">
  <metadata>
    <name>9 avril 2023 grand parcours</name>
    <desc><![CDATA[[b]9 avril 2023 grand parcours[/b]]]></desc>
  </metadata>
  <trk>
    <name><![CDATA[3 avril 2023]]></name>
    <extensions>
      <line xmlns="http://www.topografix.com/GPX/gpx_style/0/2">
        <color>0000FF</color>
        <width>4</width>
      </line>
    </extensions>
    <trkseg>
      <trkpt lat="43.22441" lon="6.14074">
        <ele>81.8</ele>
        <time>2023-04-05T13:52:33.000Z</time>
      </trkpt>
      <trkpt lat="43.22438" lon="6.14069">
        <ele>81.3</ele>
        <time>2023-04-05T13:52:33.655Z</time>
      </trkpt>
      <trkpt lat="43.22434" lon="6.14066">
        <ele>80.5</ele>
        <time>2023-04-05T13:52:34.411Z</time>
      </trkpt>
      <trkpt lat="43.22434" lon="6.14062">
        <ele>80.3</ele>
        <time>2023-04-05T13:52:34.870Z</time>
      </trkpt>
      <trkpt lat="43.22435" lon="6.14056">
        <ele>80.3</ele>
        <time>2023-04-05T13:52:35.536Z</time>
      </trkpt>
      <trkpt lat="43.22435" lon="6.14044">
        <ele>79.8</ele>
        <time>2023-04-05T13:52:36.899Z</time>
      </trkpt>
      <trkpt lat="43.22437" lon="6.1403">
        <ele>79.3</ele>
        <time>2023-04-05T13:52:38.532Z</time>
      </trkpt>
      <trkpt lat="43.22441" lon="6.14014">
        <ele>79</ele>
        <time>2023-04-05T13:52:40.380Z</time>
      </trkpt>
      <trkpt lat="43.22475" lon="6.1387">
        <ele>72</ele>
        <time>2023-04-05T13:52:57.357Z</time>
      </trkpt>
      <trkpt lat="43.22479" lon="6.13852">
        <ele>70.8</ele>
        <time>2023-04-05T13:52:59.486Z</time>
      </trkpt>
      <trkpt lat="43.22485" lon="6.13833">
        <ele>70</ele>
        <time>2023-04-05T13:53:01.844Z</time>
      </trkpt>
      <trkpt lat="43.22511" lon="6.13723">
        <ele>65.3</ele>
        <time>2023-04-05T13:53:14.754Z</time>
      </trkpt>
      <trkpt lat="43.22521" lon="6.13685">
        <ele>63.3</ele>
        <time>2023-04-05T13:53:19.271Z</time>
      </trkpt>
      <trkpt lat="43.22536" lon="6.13636">
        <ele>61.3</ele>
        <time>2023-04-05T13:53:25.297Z</time>
      </trkpt>
      <trkpt lat="43.22558" lon="6.13584">
        <ele>59.3</ele>
        <time>2023-04-05T13:53:32.073Z</time>
      </trkpt>
      <trkpt lat="43.22574" lon="6.1354">
        <ele>56</ele>
        <time>2023-04-05T13:53:37.626Z</time>
      </trkpt>
      <trkpt lat="43.22578" lon="6.13531">
        <ele>55.5</ele>
        <time>2023-04-05T13:53:38.716Z</time>
      </trkpt>
      <trkpt lat="43.2258" lon="6.13527">
        <ele>55</ele>
        <time>2023-04-05T13:53:39.243Z</time>
      </trkpt>
      <trkpt lat="43.22587" lon="6.13518">
        <ele>54</ele>
        <time>2023-04-05T13:53:40.704Z</time>
      </trkpt>
      <trkpt lat="43.22589" lon="6.13515">
        <ele>53.8</ele>
        <time>2023-04-05T13:53:41.222Z</time>
      </trkpt>
      <trkpt lat="43.2259" lon="6.1351">
        <ele>53.3</ele>
        <time>2023-04-05T13:53:41.750Z</time>
      </trkpt>
      <trkpt lat="43.22591" lon="6.13504">
        <ele>52.5</ele>
        <time>2023-04-05T13:53:42.509Z</time>
      </trkpt>
      <trkpt lat="43.22593" lon="6.13497">
        <ele>52</ele>
        <time>2023-04-05T13:53:43.295Z</time>
      </trkpt>
      <trkpt lat="43.22594" lon="6.13491">
        <ele>52</ele>
        <time>2023-04-05T13:53:43.964Z</time>
      </trkpt>
      <trkpt lat="43.22598" lon="6.13486">
        <ele>52</ele>
        <time>2023-04-05T13:53:44.814Z</time>
      </trkpt>
      <trkpt lat="43.22599" lon="6.13482">
        <ele>51.8</ele>
        <time>2023-04-05T13:53:45.241Z</time>
      </trkpt>
      <trkpt lat="43.226" lon="6.13477">
        <ele>51.8</ele>
        <time>2023-04-05T13:53:45.851Z</time>
      </trkpt>
      <trkpt lat="43.22599" lon="6.13472">
        <ele>51.8</ele>
        <time>2023-04-05T13:53:46.458Z</time>
      </trkpt>
      <trkpt lat="43.22597" lon="6.13467">
        <ele>51.8</ele>
        <time>2023-04-05T13:53:47.068Z</time>
      </trkpt>
      <trkpt lat="43.22596" lon="6.13459">
        <ele>51.5</ele>
        <time>2023-04-05T13:53:48.020Z</time>
      </trkpt>
      <trkpt lat="43.22596" lon="6.13449">
        <ele>51.5</ele>
        <time>2023-04-05T13:53:49.052Z</time>
      </trkpt>
      <trkpt lat="43.22612" lon="6.1338">
        <ele>51.8</ele>
        <time>2023-04-05T13:53:57.284Z</time>
      </trkpt>
      <trkpt lat="43.22618" lon="6.13351">
        <ele>52</ele>
        <time>2023-04-05T13:54:00.614Z</time>
      </trkpt>
      <trkpt lat="43.22624" lon="6.13321">
        <ele>52</ele>
        <time>2023-04-05T13:54:04.132Z</time>
      </trkpt>
      <trkpt lat="43.22629" lon="6.1329">
        <ele>52.3</ele>
        <time>2023-04-05T13:54:07.722Z</time>
      </trkpt>
      <trkpt lat="43.2263" lon="6.13267">
        <ele>52.8</ele>
        <time>2023-04-05T13:54:10.208Z</time>
      </trkpt>
      <trkpt lat="43.2263" lon="6.13252">
        <ele>52.8</ele>
        <time>2023-04-05T13:54:11.892Z</time>
      </trkpt>
      <trkpt lat="43.22628" lon="6.13237">
        <ele>53</ele>
        <time>2023-04-05T13:54:13.682Z</time>
      </trkpt>
      <trkpt lat="43.22622" lon="6.13216">
        <ele>53.3</ele>
        <time>2023-04-05T13:54:16.143Z</time>
      </trkpt>
      <trkpt lat="43.22613" lon="6.13193">
        <ele>53.5</ele>
        <time>2023-04-05T13:54:19.061Z</time>
      </trkpt>
      <trkpt lat="43.22583" lon="6.13126">
        <ele>54.3</ele>
        <time>2023-04-05T13:54:27.925Z</time>
      </trkpt>
      <trkpt lat="43.22572" lon="6.13102">
        <ele>54.8</ele>
        <time>2023-04-05T13:54:31.069Z</time>
      </trkpt>
      <trkpt lat="43.2256" lon="6.13063">
        <ele>55</ele>
        <time>2023-04-05T13:54:35.876Z</time>
      </trkpt>
      <trkpt lat="43.22554" lon="6.13029">
        <ele>55</ele>
        <time>2023-04-05T13:54:39.742Z</time>
      </trkpt>
      <trkpt lat="43.22551" lon="6.12998">
        <ele>55.3</ele>
        <time>2023-04-05T13:54:43.312Z</time>
      </trkpt>
      <trkpt lat="43.22552" lon="6.12963">
        <ele>56.5</ele>
        <time>2023-04-05T13:54:47.162Z</time>
      </trkpt>
      <trkpt lat="43.22555" lon="6.12932">
        <ele>57.5</ele>
        <time>2023-04-05T13:54:50.748Z</time>
      </trkpt>
      <trkpt lat="43.22561" lon="6.12899">
        <ele>58.3</ele>
        <time>2023-04-05T13:54:54.527Z</time>
      </trkpt>
      <trkpt lat="43.22576" lon="6.12845">
        <ele>59.5</ele>
        <time>2023-04-05T13:55:00.962Z</time>
      </trkpt>
      <trkpt lat="43.22585" lon="6.12809">
        <ele>60.3</ele>
        <time>2023-04-05T13:55:05.263Z</time>
      </trkpt>
      <trkpt lat="43.22592" lon="6.12773">
        <ele>60.5</ele>
        <time>2023-04-05T13:55:09.465Z</time>
      </trkpt>
      <trkpt lat="43.22601" lon="6.12722">
        <ele>61</ele>
        <time>2023-04-05T13:55:15.371Z</time>
      </trkpt>
      <trkpt lat="43.22605" lon="6.12667">
        <ele>61</ele>
        <time>2023-04-05T13:55:21.538Z</time>
      </trkpt>
      <trkpt lat="43.22607" lon="6.12644">
        <ele>61.3</ele>
        <time>2023-04-05T13:55:24.083Z</time>
      </trkpt>
      <trkpt lat="43.22612" lon="6.12605">
        <ele>62.5</ele>
        <time>2023-04-05T13:55:28.627Z</time>
      </trkpt>
      <trkpt lat="43.2262" lon="6.12563">
        <ele>63.5</ele>
        <time>2023-04-05T13:55:33.420Z</time>
      </trkpt>
      <trkpt lat="43.22635" lon="6.12502">
        <ele>65.3</ele>
        <time>2023-04-05T13:55:40.711Z</time>
      </trkpt>
      <trkpt lat="43.22637" lon="6.12493">
        <ele>65.3</ele>
        <time>2023-04-05T13:55:41.707Z</time>
      </trkpt>
      <trkpt lat="43.22647" lon="6.12448">
        <ele>65</ele>
        <time>2023-04-05T13:55:47.044Z</time>
      </trkpt>
      <trkpt lat="43.22656" lon="6.12401">
        <ele>64.8</ele>
        <time>2023-04-05T13:55:52.484Z</time>
      </trkpt>
      <trkpt lat="43.22666" lon="6.12334">
        <ele>64.8</ele>
        <time>2023-04-05T13:56:00.143Z</time>
      </trkpt>
      <trkpt lat="43.22673" lon="6.12279">
        <ele>65</ele>
        <time>2023-04-05T13:56:06.403Z</time>
      </trkpt>
      <trkpt lat="43.22682" lon="6.12232">
        <ele>65.5</ele>
        <time>2023-04-05T13:56:11.806Z</time>
      </trkpt>
      <trkpt lat="43.22689" lon="6.12202">
        <ele>66</ele>
        <time>2023-04-05T13:56:15.385Z</time>
      </trkpt>
      <trkpt lat="43.22699" lon="6.12169">
        <ele>66.8</ele>
        <time>2023-04-05T13:56:19.388Z</time>
      </trkpt>
      <trkpt lat="43.22719" lon="6.12111">
        <ele>68.3</ele>
        <time>2023-04-05T13:56:26.556Z</time>
      </trkpt>
      <trkpt lat="43.22729" lon="6.12078">
        <ele>69</ele>
        <time>2023-04-05T13:56:30.627Z</time>
      </trkpt>
      <trkpt lat="43.2276" lon="6.11947">
        <ele>70</ele>
        <time>2023-04-05T13:56:46.039Z</time>
      </trkpt>
      <trkpt lat="43.22782" lon="6.1188">
        <ele>71</ele>
        <time>2023-04-05T13:56:54.233Z</time>
      </trkpt>
      <trkpt lat="43.22793" lon="6.11852">
        <ele>71.8</ele>
        <time>2023-04-05T13:56:57.902Z</time>
      </trkpt>
      <trkpt lat="43.22803" lon="6.11825">
        <ele>72.3</ele>
        <time>2023-04-05T13:57:01.184Z</time>
      </trkpt>
      <trkpt lat="43.22808" lon="6.11808">
        <ele>73</ele>
        <time>2023-04-05T13:57:03.338Z</time>
      </trkpt>
      <trkpt lat="43.2282" lon="6.11771">
        <ele>74</ele>
        <time>2023-04-05T13:57:07.805Z</time>
      </trkpt>
      <trkpt lat="43.22835" lon="6.11725">
        <ele>75</ele>
        <time>2023-04-05T13:57:13.458Z</time>
      </trkpt>
      <trkpt lat="43.22912" lon="6.11461">
        <ele>78.3</ele>
        <time>2023-04-05T13:57:45.315Z</time>
      </trkpt>
      <trkpt lat="43.22925" lon="6.11418">
        <ele>78.8</ele>
        <time>2023-04-05T13:57:50.533Z</time>
      </trkpt>
      <trkpt lat="43.2294" lon="6.11376">
        <ele>79.5</ele>
        <time>2023-04-05T13:57:55.870Z</time>
      </trkpt>
      <trkpt lat="43.22965" lon="6.11314">
        <ele>80.5</ele>
        <time>2023-04-05T13:58:03.775Z</time>
      </trkpt>
      <trkpt lat="43.23065" lon="6.11097">
        <ele>84</ele>
        <time>2023-04-05T13:58:32.577Z</time>
      </trkpt>
      <trkpt lat="43.23106" lon="6.11012">
        <ele>85.5</ele>
        <time>2023-04-05T13:58:44.086Z</time>
      </trkpt>
      <trkpt lat="43.23209" lon="6.1079">
        <ele>88.8</ele>
        <time>2023-04-05T13:59:13.579Z</time>
      </trkpt>
      <trkpt lat="43.23222" lon="6.10765">
        <ele>89.3</ele>
        <time>2023-04-05T13:59:16.970Z</time>
      </trkpt>
      <trkpt lat="43.23236" lon="6.1074">
        <ele>90</ele>
        <time>2023-04-05T13:59:20.508Z</time>
      </trkpt>
      <trkpt lat="43.23249" lon="6.1072">
        <ele>90.3</ele>
        <time>2023-04-05T13:59:23.514Z</time>
      </trkpt>
      <trkpt lat="43.23264" lon="6.107">
        <ele>89.8</ele>
        <time>2023-04-05T13:59:26.767Z</time>
      </trkpt>
      <trkpt lat="43.23295" lon="6.10662">
        <ele>90</ele>
        <time>2023-04-05T13:59:33.200Z</time>
      </trkpt>
      <trkpt lat="43.23457" lon="6.10473">
        <ele>92.3</ele>
        <time>2023-04-05T14:00:05.849Z</time>
      </trkpt>
      <trkpt lat="43.23468" lon="6.10461">
        <ele>92.3</ele>
        <time>2023-04-05T14:00:08.074Z</time>
      </trkpt>
      <trkpt lat="43.23496" lon="6.10431">
        <ele>92.8</ele>
        <time>2023-04-05T14:00:13.440Z</time>
      </trkpt>
      <trkpt lat="43.23568" lon="6.10359">
        <ele>94.3</ele>
        <time>2023-04-05T14:00:27.180Z</time>
      </trkpt>
      <trkpt lat="43.23582" lon="6.10351">
        <ele>94.5</ele>
        <time>2023-04-05T14:00:29.542Z</time>
      </trkpt>
      <trkpt lat="43.23591" lon="6.10347">
        <ele>94.5</ele>
        <time>2023-04-05T14:00:30.995Z</time>
      </trkpt>
      <trkpt lat="43.23596" lon="6.10344">
        <ele>94.5</ele>
        <time>2023-04-05T14:00:31.879Z</time>
      </trkpt>
      <trkpt lat="43.23601" lon="6.10346">
        <ele>94.5</ele>
        <time>2023-04-05T14:00:32.582Z</time>
      </trkpt>
      <trkpt lat="43.23605" lon="6.10346">
        <ele>94.5</ele>
        <time>2023-04-05T14:00:33.307Z</time>
      </trkpt>
      <trkpt lat="43.23609" lon="6.10344">
        <ele>94.5</ele>
        <time>2023-04-05T14:00:33.896Z</time>
      </trkpt>
      <trkpt lat="43.23612" lon="6.10341">
        <ele>94.5</ele>
        <time>2023-04-05T14:00:34.499Z</time>
      </trkpt>
      <trkpt lat="43.23615" lon="6.10337">
        <ele>94.5</ele>
        <time>2023-04-05T14:00:35.088Z</time>
      </trkpt>
      <trkpt lat="43.23616" lon="6.10332">
        <ele>94.5</ele>
        <time>2023-04-05T14:00:35.680Z</time>
      </trkpt>
      <trkpt lat="43.23617" lon="6.10328">
        <ele>94.5</ele>
        <time>2023-04-05T14:00:36.160Z</time>
      </trkpt>
      <trkpt lat="43.23616" lon="6.10321">
        <ele>94.5</ele>
        <time>2023-04-05T14:00:36.891Z</time>
      </trkpt>
      <trkpt lat="43.23614" lon="6.10315">
        <ele>94.5</ele>
        <time>2023-04-05T14:00:37.624Z</time>
      </trkpt>
      <trkpt lat="43.23611" lon="6.1031">
        <ele>94.8</ele>
        <time>2023-04-05T14:00:38.364Z</time>
      </trkpt>
      <trkpt lat="43.23607" lon="6.10307">
        <ele>94.8</ele>
        <time>2023-04-05T14:00:39.098Z</time>
      </trkpt>
      <trkpt lat="43.23604" lon="6.10306">
        <ele>94.8</ele>
        <time>2023-04-05T14:00:39.603Z</time>
      </trkpt>
      <trkpt lat="43.236" lon="6.10306">
        <ele>94.8</ele>
        <time>2023-04-05T14:00:40.111Z</time>
      </trkpt>
      <trkpt lat="43.23593" lon="6.10303">
        <ele>94.8</ele>
        <time>2023-04-05T14:00:41.251Z</time>
      </trkpt>
      <trkpt lat="43.23583" lon="6.10297">
        <ele>95</ele>
        <time>2023-04-05T14:00:42.959Z</time>
      </trkpt>
      <trkpt lat="43.23571" lon="6.10287">
        <ele>95</ele>
        <time>2023-04-05T14:00:45.202Z</time>
      </trkpt>
      <trkpt lat="43.23556" lon="6.10267">
        <ele>95</ele>
        <time>2023-04-05T14:00:48.340Z</time>
      </trkpt>
      <trkpt lat="43.23488" lon="6.10179">
        <ele>95.8</ele>
        <time>2023-04-05T14:01:02.759Z</time>
      </trkpt>
      <trkpt lat="43.23455" lon="6.10136">
        <ele>96.5</ele>
        <time>2023-04-05T14:01:09.797Z</time>
      </trkpt>
      <trkpt lat="43.23444" lon="6.10118">
        <ele>96.8</ele>
        <time>2023-04-05T14:01:12.428Z</time>
      </trkpt>
      <trkpt lat="43.23436" lon="6.10099">
        <ele>97</ele>
        <time>2023-04-05T14:01:14.881Z</time>
      </trkpt>
      <trkpt lat="43.23431" lon="6.10074">
        <ele>97.3</ele>
        <time>2023-04-05T14:01:17.739Z</time>
      </trkpt>
      <trkpt lat="43.23427" lon="6.10043">
        <ele>98.3</ele>
        <time>2023-04-05T14:01:21.248Z</time>
      </trkpt>
      <trkpt lat="43.2342" lon="6.09947">
        <ele>100.5</ele>
        <time>2023-04-05T14:01:32.106Z</time>
      </trkpt>
      <trkpt lat="43.23416" lon="6.098">
        <ele>101.8</ele>
        <time>2023-04-05T14:01:48.595Z</time>
      </trkpt>
      <trkpt lat="43.23415" lon="6.09685">
        <ele>104.5</ele>
        <time>2023-04-05T14:02:01.495Z</time>
      </trkpt>
      <trkpt lat="43.23417" lon="6.09545">
        <ele>105.8</ele>
        <time>2023-04-05T14:02:17.191Z</time>
      </trkpt>
      <trkpt lat="43.23419" lon="6.0951">
        <ele>106</ele>
        <time>2023-04-05T14:02:21.158Z</time>
      </trkpt>
      <trkpt lat="43.23421" lon="6.0948">
        <ele>106</ele>
        <time>2023-04-05T14:02:24.554Z</time>
      </trkpt>
      <trkpt lat="43.23433" lon="6.09394">
        <ele>106.8</ele>
        <time>2023-04-05T14:02:34.334Z</time>
      </trkpt>
      <trkpt lat="43.23441" lon="6.09343">
        <ele>108.3</ele>
        <time>2023-04-05T14:02:40.140Z</time>
      </trkpt>
      <trkpt lat="43.23441" lon="6.0934">
        <ele>108.5</ele>
        <time>2023-04-05T14:02:40.485Z</time>
      </trkpt>
      <trkpt lat="43.23447" lon="6.093">
        <ele>109.5</ele>
        <time>2023-04-05T14:02:45.156Z</time>
      </trkpt>
      <trkpt lat="43.23456" lon="6.09254">
        <ele>110.8</ele>
        <time>2023-04-05T14:02:50.462Z</time>
      </trkpt>
      <trkpt lat="43.23498" lon="6.09072">
        <ele>112</ele>
        <time>2023-04-05T14:03:11.890Z</time>
      </trkpt>
      <trkpt lat="43.2354" lon="6.08916">
        <ele>113.8</ele>
        <time>2023-04-05T14:03:30.534Z</time>
      </trkpt>
      <trkpt lat="43.2355" lon="6.08873">
        <ele>114.5</ele>
        <time>2023-04-05T14:03:35.526Z</time>
      </trkpt>
      <trkpt lat="43.23569" lon="6.08796">
        <ele>116.5</ele>
        <time>2023-04-05T14:03:44.755Z</time>
      </trkpt>
      <trkpt lat="43.23573" lon="6.08777">
        <ele>116.8</ele>
        <time>2023-04-05T14:03:46.881Z</time>
      </trkpt>
      <trkpt lat="43.23574" lon="6.08764">
        <ele>116.8</ele>
        <time>2023-04-05T14:03:48.350Z</time>
      </trkpt>
      <trkpt lat="43.23574" lon="6.08754">
        <ele>116.8</ele>
        <time>2023-04-05T14:03:49.505Z</time>
      </trkpt>
      <trkpt lat="43.2357" lon="6.08721">
        <ele>117.3</ele>
        <time>2023-04-05T14:03:53.258Z</time>
      </trkpt>
      <trkpt lat="43.23569" lon="6.087">
        <ele>117.8</ele>
        <time>2023-04-05T14:03:55.550Z</time>
      </trkpt>
      <trkpt lat="43.2357" lon="6.08684">
        <ele>118.3</ele>
        <time>2023-04-05T14:03:57.401Z</time>
      </trkpt>
      <trkpt lat="43.23573" lon="6.08572">
        <ele>121</ele>
        <time>2023-04-05T14:04:09.941Z</time>
      </trkpt>
      <trkpt lat="43.23575" lon="6.08546">
        <ele>122</ele>
        <time>2023-04-05T14:04:12.884Z</time>
      </trkpt>
      <trkpt lat="43.23576" lon="6.08542">
        <ele>122</ele>
        <time>2023-04-05T14:04:13.336Z</time>
      </trkpt>
      <trkpt lat="43.23579" lon="6.08522">
        <ele>123</ele>
        <time>2023-04-05T14:04:15.670Z</time>
      </trkpt>
      <trkpt lat="43.23579" lon="6.08518">
        <ele>123</ele>
        <time>2023-04-05T14:04:16.081Z</time>
      </trkpt>
      <trkpt lat="43.2358" lon="6.0851">
        <ele>123.5</ele>
        <time>2023-04-05T14:04:17.033Z</time>
      </trkpt>
      <trkpt lat="43.23582" lon="6.085">
        <ele>123.8</ele>
        <time>2023-04-05T14:04:18.117Z</time>
      </trkpt>
      <trkpt lat="43.23583" lon="6.08493">
        <ele>123.8</ele>
        <time>2023-04-05T14:04:18.958Z</time>
      </trkpt>
      <trkpt lat="43.23583" lon="6.08481">
        <ele>123.8</ele>
        <time>2023-04-05T14:04:20.259Z</time>
      </trkpt>
      <trkpt lat="43.23581" lon="6.08474">
        <ele>123.8</ele>
        <time>2023-04-05T14:04:21.127Z</time>
      </trkpt>
      <trkpt lat="43.23577" lon="6.0846">
        <ele>123.8</ele>
        <time>2023-04-05T14:04:22.783Z</time>
      </trkpt>
      <trkpt lat="43.23573" lon="6.08453">
        <ele>123.8</ele>
        <time>2023-04-05T14:04:23.762Z</time>
      </trkpt>
      <trkpt lat="43.23568" lon="6.08448">
        <ele>123.5</ele>
        <time>2023-04-05T14:04:24.784Z</time>
      </trkpt>
      <trkpt lat="43.23563" lon="6.08445">
        <ele>123.5</ele>
        <time>2023-04-05T14:04:25.642Z</time>
      </trkpt>
      <trkpt lat="43.23555" lon="6.08443">
        <ele>123.3</ele>
        <time>2023-04-05T14:04:26.791Z</time>
      </trkpt>
      <trkpt lat="43.23547" lon="6.08442">
        <ele>123.3</ele>
        <time>2023-04-05T14:04:28.073Z</time>
      </trkpt>
      <trkpt lat="43.2354" lon="6.08443">
        <ele>123</ele>
        <time>2023-04-05T14:04:29.216Z</time>
      </trkpt>
      <trkpt lat="43.23533" lon="6.08445">
        <ele>122.8</ele>
        <time>2023-04-05T14:04:30.225Z</time>
      </trkpt>
      <trkpt lat="43.23526" lon="6.08447">
        <ele>122.8</ele>
        <time>2023-04-05T14:04:31.440Z</time>
      </trkpt>
      <trkpt lat="43.23518" lon="6.08447">
        <ele>122.5</ele>
        <time>2023-04-05T14:04:32.579Z</time>
      </trkpt>
      <trkpt lat="43.23511" lon="6.08446">
        <ele>122.5</ele>
        <time>2023-04-05T14:04:33.692Z</time>
      </trkpt>
      <trkpt lat="43.23504" lon="6.08443">
        <ele>122.3</ele>
        <time>2023-04-05T14:04:34.849Z</time>
      </trkpt>
      <trkpt lat="43.23493" lon="6.08435">
        <ele>122.3</ele>
        <time>2023-04-05T14:04:36.787Z</time>
      </trkpt>
      <trkpt lat="43.23489" lon="6.08431">
        <ele>122.3</ele>
        <time>2023-04-05T14:04:37.580Z</time>
      </trkpt>
      <trkpt lat="43.2348" lon="6.08416">
        <ele>122.3</ele>
        <time>2023-04-05T14:04:39.703Z</time>
      </trkpt>
      <trkpt lat="43.23475" lon="6.08395">
        <ele>122.3</ele>
        <time>2023-04-05T14:04:42.169Z</time>
      </trkpt>
      <trkpt lat="43.23474" lon="6.08381">
        <ele>122.3</ele>
        <time>2023-04-05T14:04:43.729Z</time>
      </trkpt>
      <trkpt lat="43.23476" lon="6.08369">
        <ele>122.5</ele>
        <time>2023-04-05T14:04:45.125Z</time>
      </trkpt>
      <trkpt lat="43.23479" lon="6.08355">
        <ele>122.8</ele>
        <time>2023-04-05T14:04:46.749Z</time>
      </trkpt>
      <trkpt lat="43.2349" lon="6.08325">
        <ele>123.8</ele>
        <time>2023-04-05T14:04:50.527Z</time>
      </trkpt>
      <trkpt lat="43.23495" lon="6.08315">
        <ele>124</ele>
        <time>2023-04-05T14:04:51.914Z</time>
      </trkpt>
      <trkpt lat="43.23507" lon="6.08302">
        <ele>124.3</ele>
        <time>2023-04-05T14:04:54.276Z</time>
      </trkpt>
      <trkpt lat="43.23519" lon="6.08292">
        <ele>124.5</ele>
        <time>2023-04-05T14:04:56.303Z</time>
      </trkpt>
      <trkpt lat="43.23526" lon="6.08287">
        <ele>124.8</ele>
        <time>2023-04-05T14:04:57.554Z</time>
      </trkpt>
      <trkpt lat="43.23541" lon="6.0828">
        <ele>125</ele>
        <time>2023-04-05T14:04:59.996Z</time>
      </trkpt>
      <trkpt lat="43.23546" lon="6.0828">
        <ele>125</ele>
        <time>2023-04-05T14:05:00.799Z</time>
      </trkpt>
      <trkpt lat="43.23554" lon="6.08282">
        <ele>125.3</ele>
        <time>2023-04-05T14:05:01.989Z</time>
      </trkpt>
      <trkpt lat="43.23561" lon="6.08286">
        <ele>125.3</ele>
        <time>2023-04-05T14:05:03.197Z</time>
      </trkpt>
      <trkpt lat="43.23568" lon="6.08295">
        <ele>125.3</ele>
        <time>2023-04-05T14:05:04.658Z</time>
      </trkpt>
      <trkpt lat="43.23571" lon="6.08307">
        <ele>125</ele>
        <time>2023-04-05T14:05:06.092Z</time>
      </trkpt>
      <trkpt lat="43.23573" lon="6.08323">
        <ele>124.8</ele>
        <time>2023-04-05T14:05:07.957Z</time>
      </trkpt>
      <trkpt lat="43.23576" lon="6.08334">
        <ele>124.8</ele>
        <time>2023-04-05T14:05:09.223Z</time>
      </trkpt>
      <trkpt lat="43.23581" lon="6.08344">
        <ele>124.8</ele>
        <time>2023-04-05T14:05:10.592Z</time>
      </trkpt>
      <trkpt lat="43.23585" lon="6.08351">
        <ele>124.8</ele>
        <time>2023-04-05T14:05:11.614Z</time>
      </trkpt>
      <trkpt lat="43.23589" lon="6.08354">
        <ele>124.5</ele>
        <time>2023-04-05T14:05:12.332Z</time>
      </trkpt>
      <trkpt lat="43.23593" lon="6.08358">
        <ele>124.5</ele>
        <time>2023-04-05T14:05:13.037Z</time>
      </trkpt>
      <trkpt lat="43.23612" lon="6.08366">
        <ele>124.5</ele>
        <time>2023-04-05T14:05:16.022Z</time>
      </trkpt>
      <trkpt lat="43.2362" lon="6.08366">
        <ele>124.5</ele>
        <time>2023-04-05T14:05:17.284Z</time>
      </trkpt>
      <trkpt lat="43.23627" lon="6.08364">
        <ele>124.5</ele>
        <time>2023-04-05T14:05:18.419Z</time>
      </trkpt>
      <trkpt lat="43.23632" lon="6.0836">
        <ele>124.5</ele>
        <time>2023-04-05T14:05:19.293Z</time>
      </trkpt>
      <trkpt lat="43.23636" lon="6.08353">
        <ele>124.8</ele>
        <time>2023-04-05T14:05:20.308Z</time>
      </trkpt>
      <trkpt lat="43.23651" lon="6.08312">
        <ele>125.5</ele>
        <time>2023-04-05T14:05:25.455Z</time>
      </trkpt>
      <trkpt lat="43.23689" lon="6.0822">
        <ele>128</ele>
        <time>2023-04-05T14:05:37.352Z</time>
      </trkpt>
      <trkpt lat="43.23699" lon="6.08197">
        <ele>128</ele>
        <time>2023-04-05T14:05:40.273Z</time>
      </trkpt>
      <trkpt lat="43.23708" lon="6.08174">
        <ele>128.3</ele>
        <time>2023-04-05T14:05:43.240Z</time>
      </trkpt>
      <trkpt lat="43.23712" lon="6.08164">
        <ele>128.5</ele>
        <time>2023-04-05T14:05:44.512Z</time>
      </trkpt>
      <trkpt lat="43.23778" lon="6.08001">
        <ele>130.8</ele>
        <time>2023-04-05T14:06:05.421Z</time>
      </trkpt>
      <trkpt lat="43.23792" lon="6.07966">
        <ele>131.5</ele>
        <time>2023-04-05T14:06:09.924Z</time>
      </trkpt>
      <trkpt lat="43.23798" lon="6.07953">
        <ele>131.8</ele>
        <time>2023-04-05T14:06:11.678Z</time>
      </trkpt>
      <trkpt lat="43.23808" lon="6.07926">
        <ele>132.8</ele>
        <time>2023-04-05T14:06:15.120Z</time>
      </trkpt>
      <trkpt lat="43.2386" lon="6.078">
        <ele>134.8</ele>
        <time>2023-04-05T14:06:31.294Z</time>
      </trkpt>
      <trkpt lat="43.23901" lon="6.07697">
        <ele>136</ele>
        <time>2023-04-05T14:06:44.483Z</time>
      </trkpt>
      <trkpt lat="43.23912" lon="6.07669">
        <ele>136.8</ele>
        <time>2023-04-05T14:06:47.968Z</time>
      </trkpt>
      <trkpt lat="43.23957" lon="6.07549">
        <ele>139.5</ele>
        <time>2023-04-05T14:07:03.161Z</time>
      </trkpt>
      <trkpt lat="43.23964" lon="6.07527">
        <ele>140</ele>
        <time>2023-04-05T14:07:05.862Z</time>
      </trkpt>
      <trkpt lat="43.23982" lon="6.07463">
        <ele>141</ele>
        <time>2023-04-05T14:07:13.561Z</time>
      </trkpt>
      <trkpt lat="43.23983" lon="6.07459">
        <ele>141.3</ele>
        <time>2023-04-05T14:07:13.999Z</time>
      </trkpt>
      <trkpt lat="43.23984" lon="6.07457">
        <ele>141.3</ele>
        <time>2023-04-05T14:07:14.281Z</time>
      </trkpt>
      <trkpt lat="43.23979" lon="6.07451">
        <ele>141.3</ele>
        <time>2023-04-05T14:07:15.361Z</time>
      </trkpt>
      <trkpt lat="43.23962" lon="6.07426">
        <ele>141.3</ele>
        <time>2023-04-05T14:07:19.199Z</time>
      </trkpt>
      <trkpt lat="43.23947" lon="6.07403">
        <ele>141.3</ele>
        <time>2023-04-05T14:07:22.707Z</time>
      </trkpt>
      <trkpt lat="43.2395" lon="6.07398">
        <ele>141.5</ele>
        <time>2023-04-05T14:07:23.415Z</time>
      </trkpt>
      <trkpt lat="43.23964" lon="6.07379">
        <ele>141.8</ele>
        <time>2023-04-05T14:07:26.515Z</time>
      </trkpt>
      <trkpt lat="43.23967" lon="6.07374">
        <ele>141.8</ele>
        <time>2023-04-05T14:07:27.255Z</time>
      </trkpt>
      <trkpt lat="43.23975" lon="6.07363">
        <ele>141.8</ele>
        <time>2023-04-05T14:07:28.947Z</time>
      </trkpt>
      <trkpt lat="43.23986" lon="6.07345">
        <ele>141.8</ele>
        <time>2023-04-05T14:07:31.593Z</time>
      </trkpt>
      <trkpt lat="43.23992" lon="6.07339">
        <ele>141.8</ele>
        <time>2023-04-05T14:07:32.686Z</time>
      </trkpt>
      <trkpt lat="43.23998" lon="6.07333">
        <ele>142</ele>
        <time>2023-04-05T14:07:33.849Z</time>
      </trkpt>
      <trkpt lat="43.24004" lon="6.07328">
        <ele>142</ele>
        <time>2023-04-05T14:07:34.947Z</time>
      </trkpt>
      <trkpt lat="43.2401" lon="6.07324">
        <ele>142</ele>
        <time>2023-04-05T14:07:35.969Z</time>
      </trkpt>
      <trkpt lat="43.24013" lon="6.07323">
        <ele>142.3</ele>
        <time>2023-04-05T14:07:36.402Z</time>
      </trkpt>
      <trkpt lat="43.24015" lon="6.07326">
        <ele>142.3</ele>
        <time>2023-04-05T14:07:36.905Z</time>
      </trkpt>
      <trkpt lat="43.24017" lon="6.07326">
        <ele>142.3</ele>
        <time>2023-04-05T14:07:37.168Z</time>
      </trkpt>
      <trkpt lat="43.2402" lon="6.07324">
        <ele>142.3</ele>
        <time>2023-04-05T14:07:37.672Z</time>
      </trkpt>
      <trkpt lat="43.24021" lon="6.0732">
        <ele>142.3</ele>
        <time>2023-04-05T14:07:38.173Z</time>
      </trkpt>
      <trkpt lat="43.24019" lon="6.07316">
        <ele>142.3</ele>
        <time>2023-04-05T14:07:38.675Z</time>
      </trkpt>
      <trkpt lat="43.24021" lon="6.07312">
        <ele>142.5</ele>
        <time>2023-04-05T14:07:39.210Z</time>
      </trkpt>
      <trkpt lat="43.24042" lon="6.07292">
        <ele>143.3</ele>
        <time>2023-04-05T14:07:43.145Z</time>
      </trkpt>
      <trkpt lat="43.24101" lon="6.0723">
        <ele>145.5</ele>
        <time>2023-04-05T14:07:54.556Z</time>
      </trkpt>
      <trkpt lat="43.24112" lon="6.0722">
        <ele>146</ele>
        <time>2023-04-05T14:07:56.657Z</time>
      </trkpt>
      <trkpt lat="43.24131" lon="6.07203">
        <ele>146.5</ele>
        <time>2023-04-05T14:08:00.130Z</time>
      </trkpt>
      <trkpt lat="43.24147" lon="6.07194">
        <ele>147</ele>
        <time>2023-04-05T14:08:02.798Z</time>
      </trkpt>
      <trkpt lat="43.24175" lon="6.07183">
        <ele>147.8</ele>
        <time>2023-04-05T14:08:07.217Z</time>
      </trkpt>
      <trkpt lat="43.24181" lon="6.0718">
        <ele>148</ele>
        <time>2023-04-05T14:08:08.185Z</time>
      </trkpt>
      <trkpt lat="43.24212" lon="6.07167">
        <ele>148.5</ele>
        <time>2023-04-05T14:08:13.152Z</time>
      </trkpt>
      <trkpt lat="43.2424" lon="6.07154">
        <ele>148.8</ele>
        <time>2023-04-05T14:08:17.746Z</time>
      </trkpt>
      <trkpt lat="43.2426" lon="6.07143">
        <ele>149</ele>
        <time>2023-04-05T14:08:21.097Z</time>
      </trkpt>
      <trkpt lat="43.24292" lon="6.07113">
        <ele>149.5</ele>
        <time>2023-04-05T14:08:27.031Z</time>
      </trkpt>
      <trkpt lat="43.24297" lon="6.07108">
        <ele>149.5</ele>
        <time>2023-04-05T14:08:27.971Z</time>
      </trkpt>
      <trkpt lat="43.24323" lon="6.07079">
        <ele>149.8</ele>
        <time>2023-04-05T14:08:33.154Z</time>
      </trkpt>
      <trkpt lat="43.24332" lon="6.07064">
        <ele>150</ele>
        <time>2023-04-05T14:08:35.294Z</time>
      </trkpt>
      <trkpt lat="43.24334" lon="6.07055">
        <ele>150.3</ele>
        <time>2023-04-05T14:08:36.327Z</time>
      </trkpt>
      <trkpt lat="43.24334" lon="6.07046">
        <ele>150.3</ele>
        <time>2023-04-05T14:08:37.439Z</time>
      </trkpt>
      <trkpt lat="43.24333" lon="6.07034">
        <ele>150.5</ele>
        <time>2023-04-05T14:08:38.760Z</time>
      </trkpt>
      <trkpt lat="43.24333" lon="6.07006">
        <ele>150.8</ele>
        <time>2023-04-05T14:08:41.855Z</time>
      </trkpt>
      <trkpt lat="43.24333" lon="6.07001">
        <ele>150.8</ele>
        <time>2023-04-05T14:08:42.404Z</time>
      </trkpt>
      <trkpt lat="43.24333" lon="6.06998">
        <ele>151</ele>
        <time>2023-04-05T14:08:42.796Z</time>
      </trkpt>
      <trkpt lat="43.24336" lon="6.06994">
        <ele>151</ele>
        <time>2023-04-05T14:08:43.353Z</time>
      </trkpt>
      <trkpt lat="43.24337" lon="6.0699">
        <ele>151.3</ele>
        <time>2023-04-05T14:08:43.928Z</time>
      </trkpt>
      <trkpt lat="43.24337" lon="6.06985">
        <ele>151.3</ele>
        <time>2023-04-05T14:08:44.488Z</time>
      </trkpt>
      <trkpt lat="43.24349" lon="6.06966">
        <ele>152.3</ele>
        <time>2023-04-05T14:08:47.288Z</time>
      </trkpt>
      <trkpt lat="43.24374" lon="6.06945">
        <ele>153.5</ele>
        <time>2023-04-05T14:08:51.754Z</time>
      </trkpt>
      <trkpt lat="43.24402" lon="6.06931">
        <ele>154.8</ele>
        <time>2023-04-05T14:08:56.251Z</time>
      </trkpt>
      <trkpt lat="43.24423" lon="6.06923">
        <ele>156.5</ele>
        <time>2023-04-05T14:08:59.758Z</time>
      </trkpt>
      <trkpt lat="43.24434" lon="6.06924">
        <ele>157.5</ele>
        <time>2023-04-05T14:09:01.440Z</time>
      </trkpt>
      <trkpt lat="43.24442" lon="6.06928">
        <ele>158.3</ele>
        <time>2023-04-05T14:09:02.725Z</time>
      </trkpt>
      <trkpt lat="43.24448" lon="6.06935">
        <ele>158.5</ele>
        <time>2023-04-05T14:09:03.908Z</time>
      </trkpt>
      <trkpt lat="43.24469" lon="6.06971">
        <ele>159.5</ele>
        <time>2023-04-05T14:09:09.086Z</time>
      </trkpt>
      <trkpt lat="43.24488" lon="6.06999">
        <ele>160.8</ele>
        <time>2023-04-05T14:09:13.395Z</time>
      </trkpt>
      <trkpt lat="43.24499" lon="6.07012">
        <ele>161.3</ele>
        <time>2023-04-05T14:09:15.594Z</time>
      </trkpt>
      <trkpt lat="43.24511" lon="6.07023">
        <ele>162</ele>
        <time>2023-04-05T14:09:17.822Z</time>
      </trkpt>
      <trkpt lat="43.24528" lon="6.07035">
        <ele>163.5</ele>
        <time>2023-04-05T14:09:20.856Z</time>
      </trkpt>
      <trkpt lat="43.24565" lon="6.07052">
        <ele>166.8</ele>
        <time>2023-04-05T14:09:26.731Z</time>
      </trkpt>
      <trkpt lat="43.24577" lon="6.07056">
        <ele>168</ele>
        <time>2023-04-05T14:09:28.697Z</time>
      </trkpt>
      <trkpt lat="43.2459" lon="6.07056">
        <ele>169.3</ele>
        <time>2023-04-05T14:09:30.654Z</time>
      </trkpt>
      <trkpt lat="43.24601" lon="6.07055">
        <ele>170.3</ele>
        <time>2023-04-05T14:09:32.398Z</time>
      </trkpt>
      <trkpt lat="43.24612" lon="6.07052">
        <ele>171.5</ele>
        <time>2023-04-05T14:09:34.159Z</time>
      </trkpt>
      <trkpt lat="43.24631" lon="6.07043">
        <ele>173.8</ele>
        <time>2023-04-05T14:09:37.144Z</time>
      </trkpt>
      <trkpt lat="43.24652" lon="6.07024">
        <ele>176.5</ele>
        <time>2023-04-05T14:09:41.016Z</time>
      </trkpt>
      <trkpt lat="43.24666" lon="6.07009">
        <ele>178.5</ele>
        <time>2023-04-05T14:09:43.795Z</time>
      </trkpt>
      <trkpt lat="43.24675" lon="6.06994">
        <ele>179.8</ele>
        <time>2023-04-05T14:09:45.978Z</time>
      </trkpt>
      <trkpt lat="43.24712" lon="6.06915">
        <ele>179.3</ele>
        <time>2023-04-05T14:09:56.493Z</time>
      </trkpt>
      <trkpt lat="43.24729" lon="6.06875">
        <ele>180.3</ele>
        <time>2023-04-05T14:10:01.737Z</time>
      </trkpt>
      <trkpt lat="43.24735" lon="6.06859">
        <ele>180.3</ele>
        <time>2023-04-05T14:10:03.782Z</time>
      </trkpt>
      <trkpt lat="43.2474" lon="6.06847">
        <ele>180.5</ele>
        <time>2023-04-05T14:10:05.346Z</time>
      </trkpt>
      <trkpt lat="43.24752" lon="6.06825">
        <ele>181</ele>
        <time>2023-04-05T14:10:08.455Z</time>
      </trkpt>
      <trkpt lat="43.24764" lon="6.0681">
        <ele>180.5</ele>
        <time>2023-04-05T14:10:10.851Z</time>
      </trkpt>
      <trkpt lat="43.24782" lon="6.06792">
        <ele>179.5</ele>
        <time>2023-04-05T14:10:14.300Z</time>
      </trkpt>
      <trkpt lat="43.24802" lon="6.06777">
        <ele>177.8</ele>
        <time>2023-04-05T14:10:17.840Z</time>
      </trkpt>
      <trkpt lat="43.24818" lon="6.06768">
        <ele>176.5</ele>
        <time>2023-04-05T14:10:20.487Z</time>
      </trkpt>
      <trkpt lat="43.24955" lon="6.06688">
        <ele>173</ele>
        <time>2023-04-05T14:10:43.388Z</time>
      </trkpt>
      <trkpt lat="43.25005" lon="6.06659">
        <ele>173.3</ele>
        <time>2023-04-05T14:10:51.805Z</time>
      </trkpt>
      <trkpt lat="43.25068" lon="6.06622">
        <ele>176</ele>
        <time>2023-04-05T14:11:02.309Z</time>
      </trkpt>
      <trkpt lat="43.25096" lon="6.06613">
        <ele>177.3</ele>
        <time>2023-04-05T14:11:06.680Z</time>
      </trkpt>
      <trkpt lat="43.25107" lon="6.06605">
        <ele>178.3</ele>
        <time>2023-04-05T14:11:08.654Z</time>
      </trkpt>
      <trkpt lat="43.25119" lon="6.06595">
        <ele>179</ele>
        <time>2023-04-05T14:11:10.736Z</time>
      </trkpt>
      <trkpt lat="43.25162" lon="6.0654">
        <ele>181.8</ele>
        <time>2023-04-05T14:11:19.818Z</time>
      </trkpt>
      <trkpt lat="43.25189" lon="6.06512">
        <ele>182.8</ele>
        <time>2023-04-05T14:11:25.000Z</time>
      </trkpt>
      <trkpt lat="43.25253" lon="6.06456">
        <ele>185</ele>
        <time>2023-04-05T14:11:36.710Z</time>
      </trkpt>
      <trkpt lat="43.25284" lon="6.06428">
        <ele>186</ele>
        <time>2023-04-05T14:11:42.403Z</time>
      </trkpt>
      <trkpt lat="43.25294" lon="6.06415">
        <ele>186.5</ele>
        <time>2023-04-05T14:11:44.633Z</time>
      </trkpt>
      <trkpt lat="43.25303" lon="6.064">
        <ele>187</ele>
        <time>2023-04-05T14:11:46.702Z</time>
      </trkpt>
      <trkpt lat="43.25312" lon="6.06397">
        <ele>187.5</ele>
        <time>2023-04-05T14:11:48.142Z</time>
      </trkpt>
      <trkpt lat="43.25317" lon="6.06399">
        <ele>187.5</ele>
        <time>2023-04-05T14:11:48.937Z</time>
      </trkpt>
      <trkpt lat="43.25321" lon="6.06403">
        <ele>187.8</ele>
        <time>2023-04-05T14:11:49.717Z</time>
      </trkpt>
      <trkpt lat="43.25324" lon="6.06408">
        <ele>187.8</ele>
        <time>2023-04-05T14:11:50.484Z</time>
      </trkpt>
      <trkpt lat="43.25324" lon="6.06415">
        <ele>187.5</ele>
        <time>2023-04-05T14:11:51.268Z</time>
      </trkpt>
      <trkpt lat="43.25326" lon="6.0642">
        <ele>187.5</ele>
        <time>2023-04-05T14:11:51.947Z</time>
      </trkpt>
      <trkpt lat="43.25328" lon="6.06425">
        <ele>187.5</ele>
        <time>2023-04-05T14:11:52.608Z</time>
      </trkpt>
      <trkpt lat="43.25332" lon="6.06429">
        <ele>187.8</ele>
        <time>2023-04-05T14:11:53.300Z</time>
      </trkpt>
      <trkpt lat="43.25336" lon="6.06431">
        <ele>187.8</ele>
        <time>2023-04-05T14:11:54.017Z</time>
      </trkpt>
      <trkpt lat="43.25341" lon="6.06431">
        <ele>188.3</ele>
        <time>2023-04-05T14:11:54.740Z</time>
      </trkpt>
      <trkpt lat="43.25348" lon="6.06438">
        <ele>188.5</ele>
        <time>2023-04-05T14:11:56.110Z</time>
      </trkpt>
      <trkpt lat="43.25369" lon="6.06464">
        <ele>189.3</ele>
        <time>2023-04-05T14:12:00.372Z</time>
      </trkpt>
      <trkpt lat="43.25378" lon="6.06476">
        <ele>189.5</ele>
        <time>2023-04-05T14:12:02.348Z</time>
      </trkpt>
      <trkpt lat="43.25433" lon="6.06536">
        <ele>193</ele>
        <time>2023-04-05T14:12:13.129Z</time>
      </trkpt>
      <trkpt lat="43.25454" lon="6.06561">
        <ele>196.8</ele>
        <time>2023-04-05T14:12:17.409Z</time>
      </trkpt>
      <trkpt lat="43.25462" lon="6.06594">
        <ele>198.8</ele>
        <time>2023-04-05T14:12:21.331Z</time>
      </trkpt>
      <trkpt lat="43.2546" lon="6.06641">
        <ele>199.8</ele>
        <time>2023-04-05T14:12:26.629Z</time>
      </trkpt>
      <trkpt lat="43.25449" lon="6.06721">
        <ele>199.5</ele>
        <time>2023-04-05T14:12:35.822Z</time>
      </trkpt>
      <trkpt lat="43.25441" lon="6.06792">
        <ele>200.3</ele>
        <time>2023-04-05T14:12:43.851Z</time>
      </trkpt>
      <trkpt lat="43.2543" lon="6.0687">
        <ele>200.5</ele>
        <time>2023-04-05T14:12:52.682Z</time>
      </trkpt>
      <trkpt lat="43.25431" lon="6.06897">
        <ele>202.3</ele>
        <time>2023-04-05T14:12:55.820Z</time>
      </trkpt>
      <trkpt lat="43.25442" lon="6.06936">
        <ele>207.5</ele>
        <time>2023-04-05T14:13:00.424Z</time>
      </trkpt>
      <trkpt lat="43.25442" lon="6.06985">
        <ele>209.5</ele>
        <time>2023-04-05T14:13:05.963Z</time>
      </trkpt>
      <trkpt lat="43.25438" lon="6.07008">
        <ele>209.3</ele>
        <time>2023-04-05T14:13:08.560Z</time>
      </trkpt>
      <trkpt lat="43.25431" lon="6.07027">
        <ele>209</ele>
        <time>2023-04-05T14:13:10.977Z</time>
      </trkpt>
      <trkpt lat="43.25413" lon="6.07052">
        <ele>206</ele>
        <time>2023-04-05T14:13:14.895Z</time>
      </trkpt>
      <trkpt lat="43.25398" lon="6.07076">
        <ele>204.8</ele>
        <time>2023-04-05T14:13:18.387Z</time>
      </trkpt>
      <trkpt lat="43.2539" lon="6.07092">
        <ele>203</ele>
        <time>2023-04-05T14:13:20.555Z</time>
      </trkpt>
      <trkpt lat="43.25391" lon="6.07117">
        <ele>203.3</ele>
        <time>2023-04-05T14:13:23.446Z</time>
      </trkpt>
      <trkpt lat="43.25397" lon="6.07147">
        <ele>204.5</ele>
        <time>2023-04-05T14:13:26.925Z</time>
      </trkpt>
      <trkpt lat="43.25416" lon="6.07189">
        <ele>207</ele>
        <time>2023-04-05T14:13:32.491Z</time>
      </trkpt>
      <trkpt lat="43.25439" lon="6.07206">
        <ele>209</ele>
        <time>2023-04-05T14:13:36.482Z</time>
      </trkpt>
      <trkpt lat="43.25469" lon="6.07223">
        <ele>212.8</ele>
        <time>2023-04-05T14:13:41.398Z</time>
      </trkpt>
      <trkpt lat="43.25497" lon="6.07218">
        <ele>219.5</ele>
        <time>2023-04-05T14:13:45.751Z</time>
      </trkpt>
      <trkpt lat="43.25518" lon="6.07213">
        <ele>225.8</ele>
        <time>2023-04-05T14:13:49.055Z</time>
      </trkpt>
      <trkpt lat="43.25531" lon="6.07218">
        <ele>228.3</ele>
        <time>2023-04-05T14:13:51.072Z</time>
      </trkpt>
      <trkpt lat="43.25534" lon="6.07236">
        <ele>226.8</ele>
        <time>2023-04-05T14:13:53.199Z</time>
      </trkpt>
      <trkpt lat="43.2553" lon="6.07265">
        <ele>223.3</ele>
        <time>2023-04-05T14:13:56.530Z</time>
      </trkpt>
      <trkpt lat="43.2552" lon="6.07306">
        <ele>218.8</ele>
        <time>2023-04-05T14:14:01.362Z</time>
      </trkpt>
      <trkpt lat="43.2552" lon="6.07408">
        <ele>215.8</ele>
        <time>2023-04-05T14:14:12.788Z</time>
      </trkpt>
      <trkpt lat="43.25526" lon="6.07456">
        <ele>212.3</ele>
        <time>2023-04-05T14:14:18.287Z</time>
      </trkpt>
      <trkpt lat="43.25542" lon="6.07479">
        <ele>215</ele>
        <time>2023-04-05T14:14:21.781Z</time>
      </trkpt>
      <trkpt lat="43.25563" lon="6.07493">
        <ele>221</ele>
        <time>2023-04-05T14:14:25.384Z</time>
      </trkpt>
      <trkpt lat="43.25604" lon="6.07505">
        <ele>234.3</ele>
        <time>2023-04-05T14:14:31.893Z</time>
      </trkpt>
      <trkpt lat="43.25611" lon="6.07516">
        <ele>236</ele>
        <time>2023-04-05T14:14:33.580Z</time>
      </trkpt>
      <trkpt lat="43.25613" lon="6.07521">
        <ele>236.8</ele>
        <time>2023-04-05T14:14:34.206Z</time>
      </trkpt>
      <trkpt lat="43.25615" lon="6.07544">
        <ele>236.3</ele>
        <time>2023-04-05T14:14:36.862Z</time>
      </trkpt>
      <trkpt lat="43.25612" lon="6.07568">
        <ele>233.8</ele>
        <time>2023-04-05T14:14:39.550Z</time>
      </trkpt>
      <trkpt lat="43.256" lon="6.07598">
        <ele>226.5</ele>
        <time>2023-04-05T14:14:43.375Z</time>
      </trkpt>
      <trkpt lat="43.25597" lon="6.07629">
        <ele>223.3</ele>
        <time>2023-04-05T14:14:46.896Z</time>
      </trkpt>
      <trkpt lat="43.25604" lon="6.0767">
        <ele>224.5</ele>
        <time>2023-04-05T14:14:51.599Z</time>
      </trkpt>
      <trkpt lat="43.25618" lon="6.07716">
        <ele>223.5</ele>
        <time>2023-04-05T14:14:57.199Z</time>
      </trkpt>
      <trkpt lat="43.25645" lon="6.07749">
        <ele>228.5</ele>
        <time>2023-04-05T14:15:02.832Z</time>
      </trkpt>
      <trkpt lat="43.25685" lon="6.07779">
        <ele>236.3</ele>
        <time>2023-04-05T14:15:09.728Z</time>
      </trkpt>
      <trkpt lat="43.25699" lon="6.07794">
        <ele>237.5</ele>
        <time>2023-04-05T14:15:12.462Z</time>
      </trkpt>
      <trkpt lat="43.25705" lon="6.07822">
        <ele>233.8</ele>
        <time>2023-04-05T14:15:15.737Z</time>
      </trkpt>
      <trkpt lat="43.2573" lon="6.07854">
        <ele>234.5</ele>
        <time>2023-04-05T14:15:21.014Z</time>
      </trkpt>
      <trkpt lat="43.25759" lon="6.07882">
        <ele>238</ele>
        <time>2023-04-05T14:15:26.453Z</time>
      </trkpt>
      <trkpt lat="43.25779" lon="6.07911">
        <ele>240</ele>
        <time>2023-04-05T14:15:30.979Z</time>
      </trkpt>
      <trkpt lat="43.25805" lon="6.07947">
        <ele>242.5</ele>
        <time>2023-04-05T14:15:36.577Z</time>
      </trkpt>
      <trkpt lat="43.25836" lon="6.08008">
        <ele>243.3</ele>
        <time>2023-04-05T14:15:44.944Z</time>
      </trkpt>
      <trkpt lat="43.25874" lon="6.08079">
        <ele>239.8</ele>
        <time>2023-04-05T14:15:54.760Z</time>
      </trkpt>
      <trkpt lat="43.25894" lon="6.08106">
        <ele>239.5</ele>
        <time>2023-04-05T14:15:59.217Z</time>
      </trkpt>
      <trkpt lat="43.25915" lon="6.08112">
        <ele>243.8</ele>
        <time>2023-04-05T14:16:02.532Z</time>
      </trkpt>
      <trkpt lat="43.25934" lon="6.08111">
        <ele>244.5</ele>
        <time>2023-04-05T14:16:05.396Z</time>
      </trkpt>
      <trkpt lat="43.25946" lon="6.08107">
        <ele>245.5</ele>
        <time>2023-04-05T14:16:07.281Z</time>
      </trkpt>
      <trkpt lat="43.25986" lon="6.08077">
        <ele>249.8</ele>
        <time>2023-04-05T14:16:14.349Z</time>
      </trkpt>
      <trkpt lat="43.25995" lon="6.08024">
        <ele>253.5</ele>
        <time>2023-04-05T14:16:20.428Z</time>
      </trkpt>
      <trkpt lat="43.25998" lon="6.07966">
        <ele>257.5</ele>
        <time>2023-04-05T14:16:26.919Z</time>
      </trkpt>
      <trkpt lat="43.25993" lon="6.07918">
        <ele>262</ele>
        <time>2023-04-05T14:16:32.395Z</time>
      </trkpt>
      <trkpt lat="43.25993" lon="6.07905">
        <ele>263.3</ele>
        <time>2023-04-05T14:16:33.803Z</time>
      </trkpt>
      <trkpt lat="43.25999" lon="6.07899">
        <ele>263.5</ele>
        <time>2023-04-05T14:16:34.885Z</time>
      </trkpt>
      <trkpt lat="43.26009" lon="6.07901">
        <ele>263.5</ele>
        <time>2023-04-05T14:16:36.488Z</time>
      </trkpt>
      <trkpt lat="43.26044" lon="6.07925">
        <ele>262.3</ele>
        <time>2023-04-05T14:16:42.478Z</time>
      </trkpt>
      <trkpt lat="43.26074" lon="6.07957">
        <ele>259.8</ele>
        <time>2023-04-05T14:16:48.356Z</time>
      </trkpt>
      <trkpt lat="43.26087" lon="6.07965">
        <ele>258.8</ele>
        <time>2023-04-05T14:16:50.572Z</time>
      </trkpt>
      <trkpt lat="43.26101" lon="6.07962">
        <ele>257.3</ele>
        <time>2023-04-05T14:16:52.701Z</time>
      </trkpt>
      <trkpt lat="43.26117" lon="6.07947">
        <ele>257</ele>
        <time>2023-04-05T14:16:55.721Z</time>
      </trkpt>
      <trkpt lat="43.26123" lon="6.07933">
        <ele>257.8</ele>
        <time>2023-04-05T14:16:57.518Z</time>
      </trkpt>
      <trkpt lat="43.26125" lon="6.07904">
        <ele>260.8</ele>
        <time>2023-04-05T14:17:00.833Z</time>
      </trkpt>
      <trkpt lat="43.26133" lon="6.07848">
        <ele>265.3</ele>
        <time>2023-04-05T14:17:07.208Z</time>
      </trkpt>
      <trkpt lat="43.26145" lon="6.07804">
        <ele>269.3</ele>
        <time>2023-04-05T14:17:12.465Z</time>
      </trkpt>
      <trkpt lat="43.26162" lon="6.07766">
        <ele>272.3</ele>
        <time>2023-04-05T14:17:17.473Z</time>
      </trkpt>
      <trkpt lat="43.26171" lon="6.07759">
        <ele>272.8</ele>
        <time>2023-04-05T14:17:19.088Z</time>
      </trkpt>
      <trkpt lat="43.26184" lon="6.07757">
        <ele>274</ele>
        <time>2023-04-05T14:17:21.178Z</time>
      </trkpt>
      <trkpt lat="43.26198" lon="6.07762">
        <ele>274.3</ele>
        <time>2023-04-05T14:17:23.346Z</time>
      </trkpt>
      <trkpt lat="43.26217" lon="6.07783">
        <ele>272.5</ele>
        <time>2023-04-05T14:17:27.035Z</time>
      </trkpt>
      <trkpt lat="43.26231" lon="6.07795">
        <ele>271.5</ele>
        <time>2023-04-05T14:17:29.593Z</time>
      </trkpt>
      <trkpt lat="43.26257" lon="6.07798">
        <ele>273.8</ele>
        <time>2023-04-05T14:17:33.699Z</time>
      </trkpt>
      <trkpt lat="43.2627" lon="6.07802">
        <ele>275.5</ele>
        <time>2023-04-05T14:17:35.759Z</time>
      </trkpt>
      <trkpt lat="43.26285" lon="6.07823">
        <ele>275.3</ele>
        <time>2023-04-05T14:17:38.984Z</time>
      </trkpt>
      <trkpt lat="43.263" lon="6.07858">
        <ele>273.8</ele>
        <time>2023-04-05T14:17:43.554Z</time>
      </trkpt>
      <trkpt lat="43.26319" lon="6.07888">
        <ele>273.5</ele>
        <time>2023-04-05T14:17:47.962Z</time>
      </trkpt>
      <trkpt lat="43.26332" lon="6.079">
        <ele>274</ele>
        <time>2023-04-05T14:17:50.405Z</time>
      </trkpt>
      <trkpt lat="43.26337" lon="6.07905">
        <ele>274.3</ele>
        <time>2023-04-05T14:17:51.339Z</time>
      </trkpt>
      <trkpt lat="43.26394" lon="6.07941">
        <ele>279.3</ele>
        <time>2023-04-05T14:18:01.040Z</time>
      </trkpt>
      <trkpt lat="43.26429" lon="6.07972">
        <ele>281</ele>
        <time>2023-04-05T14:18:07.484Z</time>
      </trkpt>
      <trkpt lat="43.26458" lon="6.08009">
        <ele>279.5</ele>
        <time>2023-04-05T14:18:13.529Z</time>
      </trkpt>
      <trkpt lat="43.26483" lon="6.08022">
        <ele>281</ele>
        <time>2023-04-05T14:18:17.640Z</time>
      </trkpt>
      <trkpt lat="43.26513" lon="6.08021">
        <ele>284.5</ele>
        <time>2023-04-05T14:18:22.214Z</time>
      </trkpt>
      <trkpt lat="43.26556" lon="6.08">
        <ele>290.5</ele>
        <time>2023-04-05T14:18:29.320Z</time>
      </trkpt>
      <trkpt lat="43.26571" lon="6.08007">
        <ele>291.5</ele>
        <time>2023-04-05T14:18:31.606Z</time>
      </trkpt>
      <trkpt lat="43.26574" lon="6.08029">
        <ele>291.5</ele>
        <time>2023-04-05T14:18:34.209Z</time>
      </trkpt>
      <trkpt lat="43.26584" lon="6.08125">
        <ele>292</ele>
        <time>2023-04-05T14:18:45.013Z</time>
      </trkpt>
      <trkpt lat="43.2659" lon="6.08198">
        <ele>292</ele>
        <time>2023-04-05T14:18:53.241Z</time>
      </trkpt>
      <trkpt lat="43.26599" lon="6.08225">
        <ele>292.3</ele>
        <time>2023-04-05T14:18:56.524Z</time>
      </trkpt>
      <trkpt lat="43.26634" lon="6.08242">
        <ele>294.3</ele>
        <time>2023-04-05T14:19:02.261Z</time>
      </trkpt>
      <trkpt lat="43.2668" lon="6.08256">
        <ele>295.5</ele>
        <time>2023-04-05T14:19:09.530Z</time>
      </trkpt>
      <trkpt lat="43.26723" lon="6.08251">
        <ele>298.3</ele>
        <time>2023-04-05T14:19:16.167Z</time>
      </trkpt>
      <trkpt lat="43.26746" lon="6.08248">
        <ele>300</ele>
        <time>2023-04-05T14:19:19.788Z</time>
      </trkpt>
      <trkpt lat="43.26765" lon="6.08271">
        <ele>299</ele>
        <time>2023-04-05T14:19:23.634Z</time>
      </trkpt>
      <trkpt lat="43.26787" lon="6.08295">
        <ele>298.3</ele>
        <time>2023-04-05T14:19:27.990Z</time>
      </trkpt>
      <trkpt lat="43.26839" lon="6.0831">
        <ele>301.8</ele>
        <time>2023-04-05T14:19:36.218Z</time>
      </trkpt>
      <trkpt lat="43.26904" lon="6.0832">
        <ele>309</ele>
        <time>2023-04-05T14:19:46.267Z</time>
      </trkpt>
      <trkpt lat="43.26913" lon="6.08325">
        <ele>309.5</ele>
        <time>2023-04-05T14:19:47.776Z</time>
      </trkpt>
      <trkpt lat="43.26918" lon="6.08338">
        <ele>309.3</ele>
        <time>2023-04-05T14:19:49.335Z</time>
      </trkpt>
      <trkpt lat="43.26916" lon="6.08348">
        <ele>310</ele>
        <time>2023-04-05T14:19:50.522Z</time>
      </trkpt>
      <trkpt lat="43.2691" lon="6.08359">
        <ele>309.8</ele>
        <time>2023-04-05T14:19:52.063Z</time>
      </trkpt>
      <trkpt lat="43.269" lon="6.08368">
        <ele>309</ele>
        <time>2023-04-05T14:19:53.916Z</time>
      </trkpt>
      <trkpt lat="43.26874" lon="6.08391">
        <ele>305.8</ele>
        <time>2023-04-05T14:19:58.563Z</time>
      </trkpt>
      <trkpt lat="43.26852" lon="6.08417">
        <ele>302.5</ele>
        <time>2023-04-05T14:20:03.099Z</time>
      </trkpt>
      <trkpt lat="43.26833" lon="6.08452">
        <ele>303</ele>
        <time>2023-04-05T14:20:08.001Z</time>
      </trkpt>
      <trkpt lat="43.26812" lon="6.08516">
        <ele>305.8</ele>
        <time>2023-04-05T14:20:15.917Z</time>
      </trkpt>
      <trkpt lat="43.26813" lon="6.08556">
        <ele>307.5</ele>
        <time>2023-04-05T14:20:20.373Z</time>
      </trkpt>
      <trkpt lat="43.26824" lon="6.08612">
        <ele>311.3</ele>
        <time>2023-04-05T14:20:26.811Z</time>
      </trkpt>
      <trkpt lat="43.2681" lon="6.08667">
        <ele>311</ele>
        <time>2023-04-05T14:20:33.286Z</time>
      </trkpt>
      <trkpt lat="43.26792" lon="6.08723">
        <ele>313</ele>
        <time>2023-04-05T14:20:40.230Z</time>
      </trkpt>
      <trkpt lat="43.26787" lon="6.08771">
        <ele>314.3</ele>
        <time>2023-04-05T14:20:45.586Z</time>
      </trkpt>
      <trkpt lat="43.26788" lon="6.08819">
        <ele>313.3</ele>
        <time>2023-04-05T14:20:51.005Z</time>
      </trkpt>
      <trkpt lat="43.26792" lon="6.08822">
        <ele>313.3</ele>
        <time>2023-04-05T14:20:51.678Z</time>
      </trkpt>
      <trkpt lat="43.26802" lon="6.0883">
        <ele>313.3</ele>
        <time>2023-04-05T14:20:53.393Z</time>
      </trkpt>
      <trkpt lat="43.26811" lon="6.08838">
        <ele>312</ele>
        <time>2023-04-05T14:20:55.114Z</time>
      </trkpt>
      <trkpt lat="43.26849" lon="6.08841">
        <ele>311.5</ele>
        <time>2023-04-05T14:21:00.898Z</time>
      </trkpt>
      <trkpt lat="43.2687" lon="6.08847">
        <ele>309.8</ele>
        <time>2023-04-05T14:21:04.318Z</time>
      </trkpt>
      <trkpt lat="43.26892" lon="6.08853">
        <ele>307.8</ele>
        <time>2023-04-05T14:21:07.754Z</time>
      </trkpt>
      <trkpt lat="43.26929" lon="6.0885">
        <ele>306</ele>
        <time>2023-04-05T14:21:13.431Z</time>
      </trkpt>
      <trkpt lat="43.26946" lon="6.08829">
        <ele>307.5</ele>
        <time>2023-04-05T14:21:16.992Z</time>
      </trkpt>
      <trkpt lat="43.26963" lon="6.08773">
        <ele>312.8</ele>
        <time>2023-04-05T14:21:23.737Z</time>
      </trkpt>
      <trkpt lat="43.27001" lon="6.08711">
        <ele>318.8</ele>
        <time>2023-04-05T14:21:32.869Z</time>
      </trkpt>
      <trkpt lat="43.27028" lon="6.08686">
        <ele>320.3</ele>
        <time>2023-04-05T14:21:37.812Z</time>
      </trkpt>
      <trkpt lat="43.27094" lon="6.08646">
        <ele>325.3</ele>
        <time>2023-04-05T14:21:48.961Z</time>
      </trkpt>
      <trkpt lat="43.27142" lon="6.08648">
        <ele>328.8</ele>
        <time>2023-04-05T14:21:56.416Z</time>
      </trkpt>
      <trkpt lat="43.2721" lon="6.08697">
        <ele>325.5</ele>
        <time>2023-04-05T14:22:08.093Z</time>
      </trkpt>
      <trkpt lat="43.27251" lon="6.08725">
        <ele>325.3</ele>
        <time>2023-04-05T14:22:15.193Z</time>
      </trkpt>
      <trkpt lat="43.27288" lon="6.08726">
        <ele>330.8</ele>
        <time>2023-04-05T14:22:20.844Z</time>
      </trkpt>
      <trkpt lat="43.27322" lon="6.08745">
        <ele>332</ele>
        <time>2023-04-05T14:22:26.565Z</time>
      </trkpt>
      <trkpt lat="43.27347" lon="6.08747">
        <ele>337.3</ele>
        <time>2023-04-05T14:22:30.421Z</time>
      </trkpt>
      <trkpt lat="43.27367" lon="6.08791">
        <ele>336</ele>
        <time>2023-04-05T14:22:36.195Z</time>
      </trkpt>
      <trkpt lat="43.2738" lon="6.08839">
        <ele>332.3</ele>
        <time>2023-04-05T14:22:41.983Z</time>
      </trkpt>
      <trkpt lat="43.27414" lon="6.08883">
        <ele>332.3</ele>
        <time>2023-04-05T14:22:49.220Z</time>
      </trkpt>
      <trkpt lat="43.27461" lon="6.08909">
        <ele>336.8</ele>
        <time>2023-04-05T14:22:56.980Z</time>
      </trkpt>
      <trkpt lat="43.27505" lon="6.08928">
        <ele>342</ele>
        <time>2023-04-05T14:23:04.065Z</time>
      </trkpt>
      <trkpt lat="43.27545" lon="6.08928">
        <ele>347.3</ele>
        <time>2023-04-05T14:23:10.315Z</time>
      </trkpt>
      <trkpt lat="43.27558" lon="6.08936">
        <ele>348.5</ele>
        <time>2023-04-05T14:23:12.415Z</time>
      </trkpt>
      <trkpt lat="43.27562" lon="6.08963">
        <ele>348.5</ele>
        <time>2023-04-05T14:23:15.478Z</time>
      </trkpt>
      <trkpt lat="43.27561" lon="6.08994">
        <ele>347.8</ele>
        <time>2023-04-05T14:23:18.966Z</time>
      </trkpt>
      <trkpt lat="43.27544" lon="6.09014">
        <ele>344.8</ele>
        <time>2023-04-05T14:23:22.464Z</time>
      </trkpt>
      <trkpt lat="43.27516" lon="6.09037">
        <ele>339.8</ele>
        <time>2023-04-05T14:23:27.471Z</time>
      </trkpt>
      <trkpt lat="43.27495" lon="6.09059">
        <ele>335.8</ele>
        <time>2023-04-05T14:23:31.583Z</time>
      </trkpt>
      <trkpt lat="43.27492" lon="6.09109">
        <ele>336.3</ele>
        <time>2023-04-05T14:23:37.131Z</time>
      </trkpt>
      <trkpt lat="43.27509" lon="6.09157">
        <ele>340.3</ele>
        <time>2023-04-05T14:23:43.105Z</time>
      </trkpt>
      <trkpt lat="43.27528" lon="6.09188">
        <ele>341.8</ele>
        <time>2023-04-05T14:23:47.705Z</time>
      </trkpt>
      <trkpt lat="43.2757" lon="6.09209">
        <ele>348</ele>
        <time>2023-04-05T14:23:54.515Z</time>
      </trkpt>
      <trkpt lat="43.27607" lon="6.09215">
        <ele>354</ele>
        <time>2023-04-05T14:24:00.320Z</time>
      </trkpt>
      <trkpt lat="43.2762" lon="6.09241">
        <ele>353</ele>
        <time>2023-04-05T14:24:03.793Z</time>
      </trkpt>
      <trkpt lat="43.27623" lon="6.09271">
        <ele>350</ele>
        <time>2023-04-05T14:24:07.189Z</time>
      </trkpt>
      <trkpt lat="43.27635" lon="6.09292">
        <ele>349.8</ele>
        <time>2023-04-05T14:24:10.273Z</time>
      </trkpt>
      <trkpt lat="43.27667" lon="6.09308">
        <ele>353.8</ele>
        <time>2023-04-05T14:24:15.418Z</time>
      </trkpt>
      <trkpt lat="43.27709" lon="6.09316">
        <ele>357.5</ele>
        <time>2023-04-05T14:24:22.076Z</time>
      </trkpt>
      <trkpt lat="43.27741" lon="6.09314">
        <ele>361.3</ele>
        <time>2023-04-05T14:24:26.901Z</time>
      </trkpt>
      <trkpt lat="43.27756" lon="6.09323">
        <ele>361.8</ele>
        <time>2023-04-05T14:24:29.425Z</time>
      </trkpt>
      <trkpt lat="43.27769" lon="6.09361">
        <ele>359</ele>
        <time>2023-04-05T14:24:34.100Z</time>
      </trkpt>
      <trkpt lat="43.27779" lon="6.0938">
        <ele>359.3</ele>
        <time>2023-04-05T14:24:36.764Z</time>
      </trkpt>
      <trkpt lat="43.278" lon="6.09404">
        <ele>362.8</ele>
        <time>2023-04-05T14:24:40.953Z</time>
      </trkpt>
      <trkpt lat="43.27804" lon="6.09442">
        <ele>361.5</ele>
        <time>2023-04-05T14:24:45.332Z</time>
      </trkpt>
      <trkpt lat="43.27801" lon="6.0949">
        <ele>358</ele>
        <time>2023-04-05T14:24:50.644Z</time>
      </trkpt>
      <trkpt lat="43.27797" lon="6.0953">
        <ele>352.3</ele>
        <time>2023-04-05T14:24:55.245Z</time>
      </trkpt>
      <trkpt lat="43.27813" lon="6.0956">
        <ele>355.3</ele>
        <time>2023-04-05T14:24:59.459Z</time>
      </trkpt>
      <trkpt lat="43.27841" lon="6.09601">
        <ele>358.8</ele>
        <time>2023-04-05T14:25:05.672Z</time>
      </trkpt>
      <trkpt lat="43.27865" lon="6.09633">
        <ele>358.8</ele>
        <time>2023-04-05T14:25:10.859Z</time>
      </trkpt>
      <trkpt lat="43.27877" lon="6.09664">
        <ele>356.3</ele>
        <time>2023-04-05T14:25:14.782Z</time>
      </trkpt>
      <trkpt lat="43.27912" lon="6.09701">
        <ele>357.8</ele>
        <time>2023-04-05T14:25:21.560Z</time>
      </trkpt>
      <trkpt lat="43.27973" lon="6.09763">
        <ele>358.3</ele>
        <time>2023-04-05T14:25:33.349Z</time>
      </trkpt>
      <trkpt lat="43.27988" lon="6.09777">
        <ele>358.5</ele>
        <time>2023-04-05T14:25:36.122Z</time>
      </trkpt>
      <trkpt lat="43.28043" lon="6.09815">
        <ele>359.3</ele>
        <time>2023-04-05T14:25:45.539Z</time>
      </trkpt>
      <trkpt lat="43.28072" lon="6.09823">
        <ele>362.8</ele>
        <time>2023-04-05T14:25:50.089Z</time>
      </trkpt>
      <trkpt lat="43.28099" lon="6.09803">
        <ele>365.3</ele>
        <time>2023-04-05T14:25:54.868Z</time>
      </trkpt>
      <trkpt lat="43.2813" lon="6.09737">
        <ele>371.5</ele>
        <time>2023-04-05T14:26:03.582Z</time>
      </trkpt>
      <trkpt lat="43.28155" lon="6.09671">
        <ele>376.3</ele>
        <time>2023-04-05T14:26:12.020Z</time>
      </trkpt>
      <trkpt lat="43.28237" lon="6.09531">
        <ele>380.8</ele>
        <time>2023-04-05T14:26:32.116Z</time>
      </trkpt>
      <trkpt lat="43.28252" lon="6.09494">
        <ele>385.3</ele>
        <time>2023-04-05T14:26:36.846Z</time>
      </trkpt>
      <trkpt lat="43.2827" lon="6.09487">
        <ele>389.5</ele>
        <time>2023-04-05T14:26:39.815Z</time>
      </trkpt>
      <trkpt lat="43.28291" lon="6.09506">
        <ele>388.8</ele>
        <time>2023-04-05T14:26:43.566Z</time>
      </trkpt>
      <trkpt lat="43.28309" lon="6.09539">
        <ele>385</ele>
        <time>2023-04-05T14:26:48.270Z</time>
      </trkpt>
      <trkpt lat="43.28341" lon="6.09561">
        <ele>386.5</ele>
        <time>2023-04-05T14:26:53.700Z</time>
      </trkpt>
      <trkpt lat="43.28355" lon="6.09596">
        <ele>385.8</ele>
        <time>2023-04-05T14:26:58.114Z</time>
      </trkpt>
      <trkpt lat="43.28357" lon="6.09652">
        <ele>379</ele>
        <time>2023-04-05T14:27:04.378Z</time>
      </trkpt>
      <trkpt lat="43.28369" lon="6.09682">
        <ele>377.8</ele>
        <time>2023-04-05T14:27:08.252Z</time>
      </trkpt>
      <trkpt lat="43.2838" lon="6.09692">
        <ele>378.8</ele>
        <time>2023-04-05T14:27:10.327Z</time>
      </trkpt>
      <trkpt lat="43.2841" lon="6.09698">
        <ele>386</ele>
        <time>2023-04-05T14:27:14.924Z</time>
      </trkpt>
      <trkpt lat="43.28437" lon="6.09711">
        <ele>388.3</ele>
        <time>2023-04-05T14:27:19.267Z</time>
      </trkpt>
      <trkpt lat="43.28467" lon="6.09721">
        <ele>391</ele>
        <time>2023-04-05T14:27:24.132Z</time>
      </trkpt>
      <trkpt lat="43.28522" lon="6.09732">
        <ele>400</ele>
        <time>2023-04-05T14:27:32.590Z</time>
      </trkpt>
      <trkpt lat="43.28531" lon="6.09739">
        <ele>401</ele>
        <time>2023-04-05T14:27:34.152Z</time>
      </trkpt>
      <trkpt lat="43.28529" lon="6.09788">
        <ele>393.8</ele>
        <time>2023-04-05T14:27:39.672Z</time>
      </trkpt>
      <trkpt lat="43.28532" lon="6.09829">
        <ele>390</ele>
        <time>2023-04-05T14:27:44.228Z</time>
      </trkpt>
      <trkpt lat="43.2854" lon="6.09858">
        <ele>389.5</ele>
        <time>2023-04-05T14:27:47.804Z</time>
      </trkpt>
      <trkpt lat="43.28564" lon="6.09872">
        <ele>393.8</ele>
        <time>2023-04-05T14:27:51.702Z</time>
      </trkpt>
      <trkpt lat="43.28581" lon="6.0988">
        <ele>396.8</ele>
        <time>2023-04-05T14:27:54.538Z</time>
      </trkpt>
      <trkpt lat="43.28612" lon="6.09925">
        <ele>400.8</ele>
        <time>2023-04-05T14:28:01.460Z</time>
      </trkpt>
      <trkpt lat="43.28644" lon="6.09976">
        <ele>403.5</ele>
        <time>2023-04-05T14:28:09.075Z</time>
      </trkpt>
      <trkpt lat="43.28651" lon="6.1">
        <ele>402.5</ele>
        <time>2023-04-05T14:28:11.897Z</time>
      </trkpt>
      <trkpt lat="43.28656" lon="6.10053">
        <ele>400.8</ele>
        <time>2023-04-05T14:28:17.897Z</time>
      </trkpt>
      <trkpt lat="43.28665" lon="6.1011">
        <ele>399.5</ele>
        <time>2023-04-05T14:28:24.480Z</time>
      </trkpt>
      <trkpt lat="43.28701" lon="6.10184">
        <ele>410.5</ele>
        <time>2023-04-05T14:28:34.446Z</time>
      </trkpt>
      <trkpt lat="43.28702" lon="6.10197">
        <ele>411.3</ele>
        <time>2023-04-05T14:28:35.870Z</time>
      </trkpt>
      <trkpt lat="43.28678" lon="6.10318">
        <ele>406.8</ele>
        <time>2023-04-05T14:28:49.886Z</time>
      </trkpt>
      <trkpt lat="43.28672" lon="6.1037">
        <ele>405.8</ele>
        <time>2023-04-05T14:28:55.868Z</time>
      </trkpt>
      <trkpt lat="43.28674" lon="6.10384">
        <ele>406.5</ele>
        <time>2023-04-05T14:28:57.459Z</time>
      </trkpt>
      <trkpt lat="43.28679" lon="6.10397">
        <ele>408.3</ele>
        <time>2023-04-05T14:28:59.095Z</time>
      </trkpt>
      <trkpt lat="43.28712" lon="6.10451">
        <ele>412.3</ele>
        <time>2023-04-05T14:29:07.007Z</time>
      </trkpt>
      <trkpt lat="43.28761" lon="6.10525">
        <ele>411.5</ele>
        <time>2023-04-05T14:29:18.239Z</time>
      </trkpt>
      <trkpt lat="43.28807" lon="6.10562">
        <ele>410.3</ele>
        <time>2023-04-05T14:29:26.431Z</time>
      </trkpt>
      <trkpt lat="43.28837" lon="6.10563">
        <ele>415</ele>
        <time>2023-04-05T14:29:31.052Z</time>
      </trkpt>
      <trkpt lat="43.28863" lon="6.1053">
        <ele>421.3</ele>
        <time>2023-04-05T14:29:36.551Z</time>
      </trkpt>
      <trkpt lat="43.28878" lon="6.10506">
        <ele>425.5</ele>
        <time>2023-04-05T14:29:40.042Z</time>
      </trkpt>
      <trkpt lat="43.28901" lon="6.10492">
        <ele>427</ele>
        <time>2023-04-05T14:29:43.981Z</time>
      </trkpt>
      <trkpt lat="43.28945" lon="6.10478">
        <ele>427.3</ele>
        <time>2023-04-05T14:29:50.889Z</time>
      </trkpt>
      <trkpt lat="43.2899" lon="6.10457">
        <ele>429</ele>
        <time>2023-04-05T14:29:58.147Z</time>
      </trkpt>
      <trkpt lat="43.29031" lon="6.10447">
        <ele>428</ele>
        <time>2023-04-05T14:30:04.613Z</time>
      </trkpt>
      <trkpt lat="43.29069" lon="6.10442">
        <ele>426</ele>
        <time>2023-04-05T14:30:10.539Z</time>
      </trkpt>
      <trkpt lat="43.29105" lon="6.10405">
        <ele>429.5</ele>
        <time>2023-04-05T14:30:17.342Z</time>
      </trkpt>
      <trkpt lat="43.2912" lon="6.10386">
        <ele>430</ele>
        <time>2023-04-05T14:30:20.517Z</time>
      </trkpt>
      <trkpt lat="43.29159" lon="6.10338">
        <ele>432</ele>
        <time>2023-04-05T14:30:28.669Z</time>
      </trkpt>
      <trkpt lat="43.29208" lon="6.10303">
        <ele>432.3</ele>
        <time>2023-04-05T14:30:37.195Z</time>
      </trkpt>
      <trkpt lat="43.29243" lon="6.1024">
        <ele>435.8</ele>
        <time>2023-04-05T14:30:45.967Z</time>
      </trkpt>
      <trkpt lat="43.29261" lon="6.10197">
        <ele>441.5</ele>
        <time>2023-04-05T14:30:51.560Z</time>
      </trkpt>
      <trkpt lat="43.29282" lon="6.10176">
        <ele>443.3</ele>
        <time>2023-04-05T14:30:55.558Z</time>
      </trkpt>
      <trkpt lat="43.29312" lon="6.10158">
        <ele>442.3</ele>
        <time>2023-04-05T14:31:00.673Z</time>
      </trkpt>
      <trkpt lat="43.2933" lon="6.10158">
        <ele>440.3</ele>
        <time>2023-04-05T14:31:03.336Z</time>
      </trkpt>
      <trkpt lat="43.29372" lon="6.10128">
        <ele>440</ele>
        <time>2023-04-05T14:31:10.658Z</time>
      </trkpt>
      <trkpt lat="43.294" lon="6.10094">
        <ele>440</ele>
        <time>2023-04-05T14:31:16.452Z</time>
      </trkpt>
      <trkpt lat="43.29457" lon="6.1">
        <ele>435.5</ele>
        <time>2023-04-05T14:31:30.163Z</time>
      </trkpt>
      <trkpt lat="43.29516" lon="6.09899">
        <ele>429.3</ele>
        <time>2023-04-05T14:31:44.637Z</time>
      </trkpt>
      <trkpt lat="43.29672" lon="6.09588">
        <ele>409.8</ele>
        <time>2023-04-05T14:32:26.880Z</time>
      </trkpt>
      <trkpt lat="43.29694" lon="6.09548">
        <ele>407.5</ele>
        <time>2023-04-05T14:32:32.551Z</time>
      </trkpt>
      <trkpt lat="43.29727" lon="6.09512">
        <ele>405</ele>
        <time>2023-04-05T14:32:39.056Z</time>
      </trkpt>
      <trkpt lat="43.29757" lon="6.09489">
        <ele>404</ele>
        <time>2023-04-05T14:32:44.340Z</time>
      </trkpt>
      <trkpt lat="43.29776" lon="6.09468">
        <ele>405.3</ele>
        <time>2023-04-05T14:32:48.065Z</time>
      </trkpt>
      <trkpt lat="43.29908" lon="6.09246">
        <ele>397.3</ele>
        <time>2023-04-05T14:33:20.154Z</time>
      </trkpt>
      <trkpt lat="43.2991" lon="6.09244">
        <ele>397.3</ele>
        <time>2023-04-05T14:33:20.560Z</time>
      </trkpt>
      <trkpt lat="43.29925" lon="6.09224">
        <ele>396.5</ele>
        <time>2023-04-05T14:33:23.822Z</time>
      </trkpt>
      <trkpt lat="43.29956" lon="6.09195">
        <ele>396</ele>
        <time>2023-04-05T14:33:29.520Z</time>
      </trkpt>
      <trkpt lat="43.30007" lon="6.09152">
        <ele>394.5</ele>
        <time>2023-04-05T14:33:38.811Z</time>
      </trkpt>
      <trkpt lat="43.30057" lon="6.09116">
        <ele>393.3</ele>
        <time>2023-04-05T14:33:47.490Z</time>
      </trkpt>
      <trkpt lat="43.30083" lon="6.09092">
        <ele>391.3</ele>
        <time>2023-04-05T14:33:52.306Z</time>
      </trkpt>
      <trkpt lat="43.30089" lon="6.09084">
        <ele>389.8</ele>
        <time>2023-04-05T14:33:53.570Z</time>
      </trkpt>
      <trkpt lat="43.30095" lon="6.09074">
        <ele>388</ele>
        <time>2023-04-05T14:33:55.037Z</time>
      </trkpt>
      <trkpt lat="43.301" lon="6.09053">
        <ele>384.8</ele>
        <time>2023-04-05T14:33:57.555Z</time>
      </trkpt>
      <trkpt lat="43.30104" lon="6.09042">
        <ele>383.3</ele>
        <time>2023-04-05T14:33:58.886Z</time>
      </trkpt>
      <trkpt lat="43.30108" lon="6.09033">
        <ele>382</ele>
        <time>2023-04-05T14:34:00.091Z</time>
      </trkpt>
      <trkpt lat="43.30115" lon="6.09025">
        <ele>381.3</ele>
        <time>2023-04-05T14:34:01.405Z</time>
      </trkpt>
      <trkpt lat="43.3012" lon="6.0902">
        <ele>380.5</ele>
        <time>2023-04-05T14:34:02.502Z</time>
      </trkpt>
      <trkpt lat="43.30133" lon="6.09012">
        <ele>380</ele>
        <time>2023-04-05T14:34:04.671Z</time>
      </trkpt>
      <trkpt lat="43.30179" lon="6.08978">
        <ele>378</ele>
        <time>2023-04-05T14:34:12.678Z</time>
      </trkpt>
      <trkpt lat="43.30186" lon="6.08974">
        <ele>377.5</ele>
        <time>2023-04-05T14:34:13.776Z</time>
      </trkpt>
      <trkpt lat="43.3024" lon="6.08935">
        <ele>375.5</ele>
        <time>2023-04-05T14:34:23.178Z</time>
      </trkpt>
      <trkpt lat="43.30246" lon="6.08931">
        <ele>375.3</ele>
        <time>2023-04-05T14:34:24.256Z</time>
      </trkpt>
      <trkpt lat="43.30263" lon="6.08926">
        <ele>374.5</ele>
        <time>2023-04-05T14:34:26.877Z</time>
      </trkpt>
      <trkpt lat="43.30297" lon="6.0892">
        <ele>372.3</ele>
        <time>2023-04-05T14:34:32.135Z</time>
      </trkpt>
      <trkpt lat="43.30321" lon="6.08917">
        <ele>370.8</ele>
        <time>2023-04-05T14:34:35.936Z</time>
      </trkpt>
      <trkpt lat="43.30329" lon="6.08918">
        <ele>370.3</ele>
        <time>2023-04-05T14:34:37.185Z</time>
      </trkpt>
      <trkpt lat="43.30333" lon="6.08919">
        <ele>370</ele>
        <time>2023-04-05T14:34:37.822Z</time>
      </trkpt>
      <trkpt lat="43.30341" lon="6.08923">
        <ele>370.3</ele>
        <time>2023-04-05T14:34:39.031Z</time>
      </trkpt>
      <trkpt lat="43.3035" lon="6.08928">
        <ele>370.5</ele>
        <time>2023-04-05T14:34:40.644Z</time>
      </trkpt>
      <trkpt lat="43.3036" lon="6.08928">
        <ele>370.8</ele>
        <time>2023-04-05T14:34:42.183Z</time>
      </trkpt>
      <trkpt lat="43.30366" lon="6.08926">
        <ele>370.8</ele>
        <time>2023-04-05T14:34:43.121Z</time>
      </trkpt>
      <trkpt lat="43.30383" lon="6.08916">
        <ele>370.5</ele>
        <time>2023-04-05T14:34:45.932Z</time>
      </trkpt>
      <trkpt lat="43.30395" lon="6.08912">
        <ele>370.3</ele>
        <time>2023-04-05T14:34:47.740Z</time>
      </trkpt>
      <trkpt lat="43.30413" lon="6.08902">
        <ele>370</ele>
        <time>2023-04-05T14:34:50.737Z</time>
      </trkpt>
      <trkpt lat="43.30433" lon="6.08894">
        <ele>369.3</ele>
        <time>2023-04-05T14:34:53.927Z</time>
      </trkpt>
      <trkpt lat="43.30442" lon="6.08889">
        <ele>369</ele>
        <time>2023-04-05T14:34:55.528Z</time>
      </trkpt>
      <trkpt lat="43.30445" lon="6.08888">
        <ele>369</ele>
        <time>2023-04-05T14:34:55.899Z</time>
      </trkpt>
      <trkpt lat="43.30457" lon="6.08883">
        <ele>368.5</ele>
        <time>2023-04-05T14:34:57.862Z</time>
      </trkpt>
      <trkpt lat="43.3046" lon="6.08883">
        <ele>368.5</ele>
        <time>2023-04-05T14:34:58.341Z</time>
      </trkpt>
      <trkpt lat="43.30463" lon="6.08884">
        <ele>368.5</ele>
        <time>2023-04-05T14:34:58.831Z</time>
      </trkpt>
      <trkpt lat="43.30467" lon="6.08882">
        <ele>368.5</ele>
        <time>2023-04-05T14:34:59.406Z</time>
      </trkpt>
      <trkpt lat="43.30468" lon="6.0888">
        <ele>368.3</ele>
        <time>2023-04-05T14:34:59.759Z</time>
      </trkpt>
      <trkpt lat="43.30469" lon="6.08877">
        <ele>368.3</ele>
        <time>2023-04-05T14:35:00.101Z</time>
      </trkpt>
      <trkpt lat="43.3047" lon="6.08874">
        <ele>368</ele>
        <time>2023-04-05T14:35:00.455Z</time>
      </trkpt>
      <trkpt lat="43.30474" lon="6.08868">
        <ele>367.8</ele>
        <time>2023-04-05T14:35:01.327Z</time>
      </trkpt>
      <trkpt lat="43.30476" lon="6.08863">
        <ele>367.5</ele>
        <time>2023-04-05T14:35:02.018Z</time>
      </trkpt>
      <trkpt lat="43.30495" lon="6.08834">
        <ele>366</ele>
        <time>2023-04-05T14:35:06.379Z</time>
      </trkpt>
      <trkpt lat="43.30512" lon="6.0881">
        <ele>364.5</ele>
        <time>2023-04-05T14:35:10.067Z</time>
      </trkpt>
      <trkpt lat="43.30535" lon="6.08779">
        <ele>362.8</ele>
        <time>2023-04-05T14:35:15.059Z</time>
      </trkpt>
      <trkpt lat="43.30554" lon="6.08757">
        <ele>361.5</ele>
        <time>2023-04-05T14:35:18.942Z</time>
      </trkpt>
      <trkpt lat="43.30565" lon="6.08741">
        <ele>360.8</ele>
        <time>2023-04-05T14:35:21.378Z</time>
      </trkpt>
      <trkpt lat="43.30589" lon="6.08692">
        <ele>359.3</ele>
        <time>2023-04-05T14:35:27.949Z</time>
      </trkpt>
      <trkpt lat="43.30594" lon="6.08683">
        <ele>359</ele>
        <time>2023-04-05T14:35:29.289Z</time>
      </trkpt>
      <trkpt lat="43.30601" lon="6.08672">
        <ele>358.5</ele>
        <time>2023-04-05T14:35:30.916Z</time>
      </trkpt>
      <trkpt lat="43.30608" lon="6.08664">
        <ele>358.3</ele>
        <time>2023-04-05T14:35:32.322Z</time>
      </trkpt>
      <trkpt lat="43.30618" lon="6.08657">
        <ele>357.8</ele>
        <time>2023-04-05T14:35:34.006Z</time>
      </trkpt>
      <trkpt lat="43.30628" lon="6.08649">
        <ele>357.5</ele>
        <time>2023-04-05T14:35:35.798Z</time>
      </trkpt>
      <trkpt lat="43.30659" lon="6.08634">
        <ele>356.5</ele>
        <time>2023-04-05T14:35:40.793Z</time>
      </trkpt>
      <trkpt lat="43.30677" lon="6.08625">
        <ele>356</ele>
        <time>2023-04-05T14:35:43.818Z</time>
      </trkpt>
      <trkpt lat="43.30693" lon="6.08615">
        <ele>355.8</ele>
        <time>2023-04-05T14:35:46.454Z</time>
      </trkpt>
      <trkpt lat="43.30706" lon="6.08604">
        <ele>355.3</ele>
        <time>2023-04-05T14:35:48.908Z</time>
      </trkpt>
      <trkpt lat="43.30719" lon="6.08592">
        <ele>354.8</ele>
        <time>2023-04-05T14:35:51.250Z</time>
      </trkpt>
      <trkpt lat="43.30732" lon="6.08576">
        <ele>353.8</ele>
        <time>2023-04-05T14:35:53.933Z</time>
      </trkpt>
      <trkpt lat="43.30754" lon="6.08549">
        <ele>351.8</ele>
        <time>2023-04-05T14:35:58.565Z</time>
      </trkpt>
      <trkpt lat="43.3082" lon="6.08475">
        <ele>346.5</ele>
        <time>2023-04-05T14:36:11.565Z</time>
      </trkpt>
      <trkpt lat="43.30823" lon="6.0847">
        <ele>346.5</ele>
        <time>2023-04-05T14:36:12.287Z</time>
      </trkpt>
      <trkpt lat="43.30827" lon="6.08465">
        <ele>346.3</ele>
        <time>2023-04-05T14:36:13.135Z</time>
      </trkpt>
      <trkpt lat="43.30847" lon="6.08441">
        <ele>345.5</ele>
        <time>2023-04-05T14:36:17.180Z</time>
      </trkpt>
      <trkpt lat="43.30866" lon="6.08415">
        <ele>344.8</ele>
        <time>2023-04-05T14:36:21.348Z</time>
      </trkpt>
      <trkpt lat="43.30894" lon="6.08375">
        <ele>344.5</ele>
        <time>2023-04-05T14:36:27.528Z</time>
      </trkpt>
      <trkpt lat="43.30921" lon="6.08339">
        <ele>343.8</ele>
        <time>2023-04-05T14:36:33.338Z</time>
      </trkpt>
      <trkpt lat="43.3093" lon="6.0833">
        <ele>343.8</ele>
        <time>2023-04-05T14:36:35.062Z</time>
      </trkpt>
      <trkpt lat="43.30939" lon="6.08322">
        <ele>343.8</ele>
        <time>2023-04-05T14:36:36.712Z</time>
      </trkpt>
      <trkpt lat="43.30947" lon="6.08316">
        <ele>343.8</ele>
        <time>2023-04-05T14:36:38.108Z</time>
      </trkpt>
      <trkpt lat="43.30958" lon="6.08309">
        <ele>343.8</ele>
        <time>2023-04-05T14:36:39.979Z</time>
      </trkpt>
      <trkpt lat="43.30985" lon="6.08298">
        <ele>343.5</ele>
        <time>2023-04-05T14:36:44.349Z</time>
      </trkpt>
      <trkpt lat="43.30998" lon="6.08293">
        <ele>343.3</ele>
        <time>2023-04-05T14:36:46.474Z</time>
      </trkpt>
      <trkpt lat="43.31004" lon="6.08291">
        <ele>343.3</ele>
        <time>2023-04-05T14:36:47.338Z</time>
      </trkpt>
      <trkpt lat="43.31032" lon="6.0828">
        <ele>342.3</ele>
        <time>2023-04-05T14:36:51.931Z</time>
      </trkpt>
      <trkpt lat="43.31044" lon="6.08275">
        <ele>342</ele>
        <time>2023-04-05T14:36:53.770Z</time>
      </trkpt>
      <trkpt lat="43.31069" lon="6.08264">
        <ele>341</ele>
        <time>2023-04-05T14:36:57.793Z</time>
      </trkpt>
      <trkpt lat="43.31101" lon="6.08247">
        <ele>340</ele>
        <time>2023-04-05T14:37:03.036Z</time>
      </trkpt>
      <trkpt lat="43.31114" lon="6.0824">
        <ele>339.8</ele>
        <time>2023-04-05T14:37:05.290Z</time>
      </trkpt>
      <trkpt lat="43.31138" lon="6.08221">
        <ele>339.3</ele>
        <time>2023-04-05T14:37:09.491Z</time>
      </trkpt>
      <trkpt lat="43.31151" lon="6.08209">
        <ele>339.3</ele>
        <time>2023-04-05T14:37:11.985Z</time>
      </trkpt>
      <trkpt lat="43.31166" lon="6.08195">
        <ele>339.3</ele>
        <time>2023-04-05T14:37:14.675Z</time>
      </trkpt>
      <trkpt lat="43.31179" lon="6.08181">
        <ele>339</ele>
        <time>2023-04-05T14:37:17.243Z</time>
      </trkpt>
      <trkpt lat="43.31199" lon="6.08158">
        <ele>338.5</ele>
        <time>2023-04-05T14:37:21.240Z</time>
      </trkpt>
      <trkpt lat="43.31227" lon="6.08122">
        <ele>337.3</ele>
        <time>2023-04-05T14:37:27.188Z</time>
      </trkpt>
      <trkpt lat="43.31304" lon="6.08027">
        <ele>334</ele>
        <time>2023-04-05T14:37:43.084Z</time>
      </trkpt>
      <trkpt lat="43.31324" lon="6.08001">
        <ele>332.8</ele>
        <time>2023-04-05T14:37:47.262Z</time>
      </trkpt>
      <trkpt lat="43.31352" lon="6.07963">
        <ele>331.5</ele>
        <time>2023-04-05T14:37:53.383Z</time>
      </trkpt>
      <trkpt lat="43.31365" lon="6.07944">
        <ele>331.3</ele>
        <time>2023-04-05T14:37:56.379Z</time>
      </trkpt>
      <trkpt lat="43.31375" lon="6.07931">
        <ele>330.8</ele>
        <time>2023-04-05T14:37:58.418Z</time>
      </trkpt>
      <trkpt lat="43.31394" lon="6.07905">
        <ele>330</ele>
        <time>2023-04-05T14:38:02.597Z</time>
      </trkpt>
      <trkpt lat="43.31416" lon="6.07872">
        <ele>328.3</ele>
        <time>2023-04-05T14:38:07.662Z</time>
      </trkpt>
      <trkpt lat="43.31426" lon="6.07856">
        <ele>328</ele>
        <time>2023-04-05T14:38:09.966Z</time>
      </trkpt>
      <trkpt lat="43.31466" lon="6.07771">
        <ele>326.3</ele>
        <time>2023-04-05T14:38:21.307Z</time>
      </trkpt>
      <trkpt lat="43.31476" lon="6.07752">
        <ele>325.5</ele>
        <time>2023-04-05T14:38:23.852Z</time>
      </trkpt>
      <trkpt lat="43.31491" lon="6.07729">
        <ele>324.3</ele>
        <time>2023-04-05T14:38:27.396Z</time>
      </trkpt>
      <trkpt lat="43.31496" lon="6.07723">
        <ele>323.8</ele>
        <time>2023-04-05T14:38:28.369Z</time>
      </trkpt>
      <trkpt lat="43.31508" lon="6.07706">
        <ele>323.3</ele>
        <time>2023-04-05T14:38:31.015Z</time>
      </trkpt>
      <trkpt lat="43.3153" lon="6.07678">
        <ele>322.5</ele>
        <time>2023-04-05T14:38:35.695Z</time>
      </trkpt>
      <trkpt lat="43.31559" lon="6.07645">
        <ele>322</ele>
        <time>2023-04-05T14:38:41.477Z</time>
      </trkpt>
      <trkpt lat="43.31569" lon="6.0764">
        <ele>321.8</ele>
        <time>2023-04-05T14:38:43.100Z</time>
      </trkpt>
      <trkpt lat="43.31574" lon="6.07638">
        <ele>321.8</ele>
        <time>2023-04-05T14:38:43.964Z</time>
      </trkpt>
      <trkpt lat="43.31578" lon="6.0764">
        <ele>321.8</ele>
        <time>2023-04-05T14:38:44.561Z</time>
      </trkpt>
      <trkpt lat="43.31582" lon="6.0764">
        <ele>321.5</ele>
        <time>2023-04-05T14:38:45.161Z</time>
      </trkpt>
      <trkpt lat="43.31586" lon="6.07638">
        <ele>321.5</ele>
        <time>2023-04-05T14:38:45.754Z</time>
      </trkpt>
      <trkpt lat="43.31589" lon="6.07635">
        <ele>321.5</ele>
        <time>2023-04-05T14:38:46.344Z</time>
      </trkpt>
      <trkpt lat="43.31592" lon="6.07631">
        <ele>321.8</ele>
        <time>2023-04-05T14:38:46.944Z</time>
      </trkpt>
      <trkpt lat="43.31593" lon="6.07627">
        <ele>321.8</ele>
        <time>2023-04-05T14:38:47.518Z</time>
      </trkpt>
      <trkpt lat="43.31594" lon="6.07622">
        <ele>322</ele>
        <time>2023-04-05T14:38:48.083Z</time>
      </trkpt>
      <trkpt lat="43.31593" lon="6.07617">
        <ele>322</ele>
        <time>2023-04-05T14:38:48.648Z</time>
      </trkpt>
      <trkpt lat="43.31596" lon="6.07606">
        <ele>322.3</ele>
        <time>2023-04-05T14:38:49.943Z</time>
      </trkpt>
      <trkpt lat="43.31599" lon="6.07596">
        <ele>322.3</ele>
        <time>2023-04-05T14:38:51.186Z</time>
      </trkpt>
      <trkpt lat="43.31628" lon="6.07556">
        <ele>322.3</ele>
        <time>2023-04-05T14:38:57.425Z</time>
      </trkpt>
      <trkpt lat="43.31638" lon="6.07545">
        <ele>322.3</ele>
        <time>2023-04-05T14:38:59.431Z</time>
      </trkpt>
      <trkpt lat="43.31643" lon="6.0754">
        <ele>322</ele>
        <time>2023-04-05T14:39:00.419Z</time>
      </trkpt>
      <trkpt lat="43.31652" lon="6.07531">
        <ele>322</ele>
        <time>2023-04-05T14:39:02.157Z</time>
      </trkpt>
      <trkpt lat="43.31655" lon="6.07529">
        <ele>322</ele>
        <time>2023-04-05T14:39:02.691Z</time>
      </trkpt>
      <trkpt lat="43.31661" lon="6.0753">
        <ele>321.8</ele>
        <time>2023-04-05T14:39:03.609Z</time>
      </trkpt>
      <trkpt lat="43.31667" lon="6.07529">
        <ele>321.5</ele>
        <time>2023-04-05T14:39:04.522Z</time>
      </trkpt>
      <trkpt lat="43.31673" lon="6.07526">
        <ele>321.5</ele>
        <time>2023-04-05T14:39:05.443Z</time>
      </trkpt>
      <trkpt lat="43.31678" lon="6.07521">
        <ele>321.5</ele>
        <time>2023-04-05T14:39:06.362Z</time>
      </trkpt>
      <trkpt lat="43.3168" lon="6.07517">
        <ele>321.5</ele>
        <time>2023-04-05T14:39:07.000Z</time>
      </trkpt>
      <trkpt lat="43.31683" lon="6.07512">
        <ele>321.5</ele>
        <time>2023-04-05T14:39:07.635Z</time>
      </trkpt>
      <trkpt lat="43.31685" lon="6.07501">
        <ele>321.8</ele>
        <time>2023-04-05T14:39:08.910Z</time>
      </trkpt>
      <trkpt lat="43.31685" lon="6.07496">
        <ele>321.8</ele>
        <time>2023-04-05T14:39:09.548Z</time>
      </trkpt>
      <trkpt lat="43.31684" lon="6.07488">
        <ele>322.3</ele>
        <time>2023-04-05T14:39:10.413Z</time>
      </trkpt>
      <trkpt lat="43.31687" lon="6.07478">
        <ele>322.5</ele>
        <time>2023-04-05T14:39:11.639Z</time>
      </trkpt>
      <trkpt lat="43.31691" lon="6.07471">
        <ele>322.8</ele>
        <time>2023-04-05T14:39:12.654Z</time>
      </trkpt>
      <trkpt lat="43.31697" lon="6.07464">
        <ele>322.8</ele>
        <time>2023-04-05T14:39:13.842Z</time>
      </trkpt>
      <trkpt lat="43.31707" lon="6.0745">
        <ele>322.8</ele>
        <time>2023-04-05T14:39:16.066Z</time>
      </trkpt>
      <trkpt lat="43.31726" lon="6.07415">
        <ele>322</ele>
        <time>2023-04-05T14:39:21.002Z</time>
      </trkpt>
      <trkpt lat="43.3174" lon="6.07388">
        <ele>323.3</ele>
        <time>2023-04-05T14:39:24.643Z</time>
      </trkpt>
      <trkpt lat="43.31748" lon="6.07371">
        <ele>324</ele>
        <time>2023-04-05T14:39:26.935Z</time>
      </trkpt>
      <trkpt lat="43.31751" lon="6.07361">
        <ele>324.5</ele>
        <time>2023-04-05T14:39:28.151Z</time>
      </trkpt>
      <trkpt lat="43.31758" lon="6.07342">
        <ele>325.5</ele>
        <time>2023-04-05T14:39:30.536Z</time>
      </trkpt>
      <trkpt lat="43.31776" lon="6.07283">
        <ele>327.5</ele>
        <time>2023-04-05T14:39:37.712Z</time>
      </trkpt>
      <trkpt lat="43.31838" lon="6.07099">
        <ele>322.8</ele>
        <time>2023-04-05T14:40:00.432Z</time>
      </trkpt>
      <trkpt lat="43.31913" lon="6.06883">
        <ele>315.5</ele>
        <time>2023-04-05T14:40:27.244Z</time>
      </trkpt>
      <trkpt lat="43.31938" lon="6.06808">
        <ele>313.5</ele>
        <time>2023-04-05T14:40:36.377Z</time>
      </trkpt>
      <trkpt lat="43.31954" lon="6.06756">
        <ele>312.3</ele>
        <time>2023-04-05T14:40:42.772Z</time>
      </trkpt>
      <trkpt lat="43.31971" lon="6.06689">
        <ele>311.3</ele>
        <time>2023-04-05T14:40:50.708Z</time>
      </trkpt>
      <trkpt lat="43.31991" lon="6.06613">
        <ele>311</ele>
        <time>2023-04-05T14:40:59.797Z</time>
      </trkpt>
      <trkpt lat="43.32008" lon="6.06554">
        <ele>311</ele>
        <time>2023-04-05T14:41:06.866Z</time>
      </trkpt>
      <trkpt lat="43.3201" lon="6.06544">
        <ele>311.3</ele>
        <time>2023-04-05T14:41:08.092Z</time>
      </trkpt>
      <trkpt lat="43.32036" lon="6.0646">
        <ele>311.3</ele>
        <time>2023-04-05T14:41:18.228Z</time>
      </trkpt>
      <trkpt lat="43.32048" lon="6.06414">
        <ele>310.8</ele>
        <time>2023-04-05T14:41:23.691Z</time>
      </trkpt>
      <trkpt lat="43.32055" lon="6.06376">
        <ele>310.5</ele>
        <time>2023-04-05T14:41:28.083Z</time>
      </trkpt>
      <trkpt lat="43.32056" lon="6.06368">
        <ele>310.5</ele>
        <time>2023-04-05T14:41:29.022Z</time>
      </trkpt>
      <trkpt lat="43.32066" lon="6.06293">
        <ele>309.5</ele>
        <time>2023-04-05T14:41:37.568Z</time>
      </trkpt>
      <trkpt lat="43.32073" lon="6.06258">
        <ele>309.3</ele>
        <time>2023-04-05T14:41:41.629Z</time>
      </trkpt>
      <trkpt lat="43.32087" lon="6.0621">
        <ele>308.5</ele>
        <time>2023-04-05T14:41:47.425Z</time>
      </trkpt>
      <trkpt lat="43.32108" lon="6.06147">
        <ele>309.3</ele>
        <time>2023-04-05T14:41:55.182Z</time>
      </trkpt>
      <trkpt lat="43.32116" lon="6.06122">
        <ele>309.8</ele>
        <time>2023-04-05T14:41:58.239Z</time>
      </trkpt>
      <trkpt lat="43.32139" lon="6.06055">
        <ele>311.5</ele>
        <time>2023-04-05T14:42:06.561Z</time>
      </trkpt>
      <trkpt lat="43.32153" lon="6.06007">
        <ele>313.5</ele>
        <time>2023-04-05T14:42:12.310Z</time>
      </trkpt>
      <trkpt lat="43.3216" lon="6.05977">
        <ele>313.5</ele>
        <time>2023-04-05T14:42:15.878Z</time>
      </trkpt>
      <trkpt lat="43.32168" lon="6.05941">
        <ele>313</ele>
        <time>2023-04-05T14:42:20.126Z</time>
      </trkpt>
      <trkpt lat="43.32188" lon="6.05874">
        <ele>310</ele>
        <time>2023-04-05T14:42:28.169Z</time>
      </trkpt>
      <trkpt lat="43.32208" lon="6.05813">
        <ele>307.3</ele>
        <time>2023-04-05T14:42:35.699Z</time>
      </trkpt>
      <trkpt lat="43.32298" lon="6.0554">
        <ele>306</ele>
        <time>2023-04-05T14:43:09.200Z</time>
      </trkpt>
      <trkpt lat="43.32313" lon="6.05492">
        <ele>306.8</ele>
        <time>2023-04-05T14:43:15.102Z</time>
      </trkpt>
      <trkpt lat="43.32326" lon="6.0544">
        <ele>305.5</ele>
        <time>2023-04-05T14:43:21.233Z</time>
      </trkpt>
      <trkpt lat="43.32329" lon="6.05424">
        <ele>305.3</ele>
        <time>2023-04-05T14:43:23.082Z</time>
      </trkpt>
      <trkpt lat="43.32341" lon="6.05365">
        <ele>304.3</ele>
        <time>2023-04-05T14:43:29.995Z</time>
      </trkpt>
      <trkpt lat="43.32343" lon="6.05355">
        <ele>304</ele>
        <time>2023-04-05T14:43:31.065Z</time>
      </trkpt>
      <trkpt lat="43.32347" lon="6.05323">
        <ele>303.8</ele>
        <time>2023-04-05T14:43:34.745Z</time>
      </trkpt>
      <trkpt lat="43.32348" lon="6.05298">
        <ele>303.5</ele>
        <time>2023-04-05T14:43:37.503Z</time>
      </trkpt>
      <trkpt lat="43.32346" lon="6.0528">
        <ele>303.3</ele>
        <time>2023-04-05T14:43:39.547Z</time>
      </trkpt>
      <trkpt lat="43.32342" lon="6.05262">
        <ele>303</ele>
        <time>2023-04-05T14:43:41.616Z</time>
      </trkpt>
      <trkpt lat="43.3234" lon="6.05254">
        <ele>303</ele>
        <time>2023-04-05T14:43:42.658Z</time>
      </trkpt>
      <trkpt lat="43.32313" lon="6.05182">
        <ele>301.8</ele>
        <time>2023-04-05T14:43:51.732Z</time>
      </trkpt>
      <trkpt lat="43.32285" lon="6.05098">
        <ele>301</ele>
        <time>2023-04-05T14:44:02.043Z</time>
      </trkpt>
      <trkpt lat="43.32265" lon="6.05023">
        <ele>301.3</ele>
        <time>2023-04-05T14:44:11.006Z</time>
      </trkpt>
      <trkpt lat="43.32255" lon="6.04985">
        <ele>301</ele>
        <time>2023-04-05T14:44:15.512Z</time>
      </trkpt>
      <trkpt lat="43.32251" lon="6.04969">
        <ele>301</ele>
        <time>2023-04-05T14:44:17.417Z</time>
      </trkpt>
      <trkpt lat="43.32241" lon="6.04934">
        <ele>301</ele>
        <time>2023-04-05T14:44:21.601Z</time>
      </trkpt>
      <trkpt lat="43.32215" lon="6.04853">
        <ele>301.8</ele>
        <time>2023-04-05T14:44:31.581Z</time>
      </trkpt>
      <trkpt lat="43.32168" lon="6.04691">
        <ele>305.3</ele>
        <time>2023-04-05T14:44:51.060Z</time>
      </trkpt>
      <trkpt lat="43.32165" lon="6.0468">
        <ele>305.8</ele>
        <time>2023-04-05T14:44:52.360Z</time>
      </trkpt>
      <trkpt lat="43.32105" lon="6.04466">
        <ele>302.8</ele>
        <time>2023-04-05T14:45:18.127Z</time>
      </trkpt>
      <trkpt lat="43.32085" lon="6.04389">
        <ele>303.5</ele>
        <time>2023-04-05T14:45:27.232Z</time>
      </trkpt>
      <trkpt lat="43.32078" lon="6.04337">
        <ele>303</ele>
        <time>2023-04-05T14:45:33.240Z</time>
      </trkpt>
      <trkpt lat="43.32077" lon="6.04292">
        <ele>303</ele>
        <time>2023-04-05T14:45:38.202Z</time>
      </trkpt>
      <trkpt lat="43.32081" lon="6.04248">
        <ele>303</ele>
        <time>2023-04-05T14:45:43.152Z</time>
      </trkpt>
      <trkpt lat="43.32091" lon="6.04204">
        <ele>303</ele>
        <time>2023-04-05T14:45:48.297Z</time>
      </trkpt>
      <trkpt lat="43.32105" lon="6.04164">
        <ele>303</ele>
        <time>2023-04-05T14:45:53.353Z</time>
      </trkpt>
      <trkpt lat="43.32114" lon="6.04143">
        <ele>303.3</ele>
        <time>2023-04-05T14:45:56.054Z</time>
      </trkpt>
      <trkpt lat="43.32131" lon="6.04113">
        <ele>304</ele>
        <time>2023-04-05T14:46:00.295Z</time>
      </trkpt>
      <trkpt lat="43.32152" lon="6.04084">
        <ele>304.8</ele>
        <time>2023-04-05T14:46:04.983Z</time>
      </trkpt>
      <trkpt lat="43.32168" lon="6.04067">
        <ele>305</ele>
        <time>2023-04-05T14:46:08.093Z</time>
      </trkpt>
      <trkpt lat="43.32176" lon="6.04059">
        <ele>305</ele>
        <time>2023-04-05T14:46:09.578Z</time>
      </trkpt>
      <trkpt lat="43.32197" lon="6.04044">
        <ele>305</ele>
        <time>2023-04-05T14:46:13.204Z</time>
      </trkpt>
      <trkpt lat="43.32317" lon="6.03967">
        <ele>306.5</ele>
        <time>2023-04-05T14:46:33.644Z</time>
      </trkpt>
      <trkpt lat="43.3232" lon="6.03965">
        <ele>306.5</ele>
        <time>2023-04-05T14:46:34.153Z</time>
      </trkpt>
      <trkpt lat="43.32326" lon="6.03961">
        <ele>306.3</ele>
        <time>2023-04-05T14:46:35.170Z</time>
      </trkpt>
      <trkpt lat="43.32335" lon="6.03955">
        <ele>306.3</ele>
        <time>2023-04-05T14:46:36.746Z</time>
      </trkpt>
      <trkpt lat="43.32345" lon="6.03949">
        <ele>306</ele>
        <time>2023-04-05T14:46:38.314Z</time>
      </trkpt>
      <trkpt lat="43.32492" lon="6.03835">
        <ele>309.5</ele>
        <time>2023-04-05T14:47:04.277Z</time>
      </trkpt>
      <trkpt lat="43.32528" lon="6.0381">
        <ele>310.8</ele>
        <time>2023-04-05T14:47:10.546Z</time>
      </trkpt>
      <trkpt lat="43.32632" lon="6.03736">
        <ele>313.3</ele>
        <time>2023-04-05T14:47:28.545Z</time>
      </trkpt>
      <trkpt lat="43.32655" lon="6.03724">
        <ele>313.8</ele>
        <time>2023-04-05T14:47:32.283Z</time>
      </trkpt>
      <trkpt lat="43.32668" lon="6.0372">
        <ele>314</ele>
        <time>2023-04-05T14:47:34.396Z</time>
      </trkpt>
      <trkpt lat="43.32673" lon="6.03719">
        <ele>314</ele>
        <time>2023-04-05T14:47:35.143Z</time>
      </trkpt>
      <trkpt lat="43.32677" lon="6.03724">
        <ele>314</ele>
        <time>2023-04-05T14:47:36.013Z</time>
      </trkpt>
      <trkpt lat="43.32682" lon="6.03727">
        <ele>314</ele>
        <time>2023-04-05T14:47:36.871Z</time>
      </trkpt>
      <trkpt lat="43.32688" lon="6.03728">
        <ele>314</ele>
        <time>2023-04-05T14:47:37.730Z</time>
      </trkpt>
      <trkpt lat="43.32693" lon="6.03728">
        <ele>314</ele>
        <time>2023-04-05T14:47:38.531Z</time>
      </trkpt>
      <trkpt lat="43.32698" lon="6.03726">
        <ele>314</ele>
        <time>2023-04-05T14:47:39.335Z</time>
      </trkpt>
      <trkpt lat="43.32703" lon="6.03722">
        <ele>314.3</ele>
        <time>2023-04-05T14:47:40.131Z</time>
      </trkpt>
      <trkpt lat="43.32706" lon="6.03717">
        <ele>314.3</ele>
        <time>2023-04-05T14:47:40.925Z</time>
      </trkpt>
      <trkpt lat="43.3271" lon="6.03709">
        <ele>314.5</ele>
        <time>2023-04-05T14:47:42.096Z</time>
      </trkpt>
      <trkpt lat="43.32712" lon="6.03698">
        <ele>314.5</ele>
        <time>2023-04-05T14:47:43.264Z</time>
      </trkpt>
      <trkpt lat="43.32719" lon="6.03687">
        <ele>314.8</ele>
        <time>2023-04-05T14:47:44.870Z</time>
      </trkpt>
      <trkpt lat="43.32745" lon="6.03662">
        <ele>315.8</ele>
        <time>2023-04-05T14:47:49.843Z</time>
      </trkpt>
      <trkpt lat="43.32855" lon="6.03584">
        <ele>318.5</ele>
        <time>2023-04-05T14:48:08.817Z</time>
      </trkpt>
      <trkpt lat="43.32888" lon="6.03559">
        <ele>319.8</ele>
        <time>2023-04-05T14:48:14.718Z</time>
      </trkpt>
      <trkpt lat="43.32902" lon="6.03545">
        <ele>320.5</ele>
        <time>2023-04-05T14:48:17.319Z</time>
      </trkpt>
      <trkpt lat="43.32909" lon="6.03536">
        <ele>320.8</ele>
        <time>2023-04-05T14:48:18.779Z</time>
      </trkpt>
      <trkpt lat="43.32915" lon="6.03524">
        <ele>321.3</ele>
        <time>2023-04-05T14:48:20.400Z</time>
      </trkpt>
      <trkpt lat="43.3292" lon="6.03515">
        <ele>321.5</ele>
        <time>2023-04-05T14:48:21.631Z</time>
      </trkpt>
      <trkpt lat="43.32928" lon="6.03493">
        <ele>321.8</ele>
        <time>2023-04-05T14:48:24.440Z</time>
      </trkpt>
      <trkpt lat="43.32933" lon="6.03474">
        <ele>322.3</ele>
        <time>2023-04-05T14:48:26.739Z</time>
      </trkpt>
      <trkpt lat="43.32939" lon="6.03447">
        <ele>322.8</ele>
        <time>2023-04-05T14:48:29.889Z</time>
      </trkpt>
      <trkpt lat="43.3294" lon="6.03431">
        <ele>323.3</ele>
        <time>2023-04-05T14:48:31.620Z</time>
      </trkpt>
      <trkpt lat="43.32956" lon="6.03345">
        <ele>325</ele>
        <time>2023-04-05T14:48:41.597Z</time>
      </trkpt>
      <trkpt lat="43.32997" lon="6.0311">
        <ele>328.3</ele>
        <time>2023-04-05T14:49:08.622Z</time>
      </trkpt>
      <trkpt lat="43.33002" lon="6.02988">
        <ele>330</ele>
        <time>2023-04-05T14:49:22.358Z</time>
      </trkpt>
      <trkpt lat="43.3301" lon="6.0287">
        <ele>331.8</ele>
        <time>2023-04-05T14:49:35.608Z</time>
      </trkpt>
      <trkpt lat="43.33029" lon="6.02738">
        <ele>334.5</ele>
        <time>2023-04-05T14:49:50.724Z</time>
      </trkpt>
      <trkpt lat="43.33045" lon="6.02658">
        <ele>336.3</ele>
        <time>2023-04-05T14:49:59.987Z</time>
      </trkpt>
      <trkpt lat="43.33071" lon="6.02578">
        <ele>336.8</ele>
        <time>2023-04-05T14:50:09.750Z</time>
      </trkpt>
      <trkpt lat="43.33104" lon="6.0248">
        <ele>339.5</ele>
        <time>2023-04-05T14:50:21.879Z</time>
      </trkpt>
      <trkpt lat="43.3314" lon="6.02371">
        <ele>342</ele>
        <time>2023-04-05T14:50:35.251Z</time>
      </trkpt>
      <trkpt lat="43.33187" lon="6.0223">
        <ele>344</ele>
        <time>2023-04-05T14:50:52.684Z</time>
      </trkpt>
      <trkpt lat="43.33194" lon="6.02183">
        <ele>345.5</ele>
        <time>2023-04-05T14:50:58.047Z</time>
      </trkpt>
      <trkpt lat="43.33195" lon="6.02144">
        <ele>346.3</ele>
        <time>2023-04-05T14:51:02.382Z</time>
      </trkpt>
      <trkpt lat="43.33192" lon="6.02109">
        <ele>346.5</ele>
        <time>2023-04-05T14:51:06.368Z</time>
      </trkpt>
      <trkpt lat="43.33184" lon="6.02064">
        <ele>346.3</ele>
        <time>2023-04-05T14:51:11.523Z</time>
      </trkpt>
      <trkpt lat="43.33118" lon="6.01857">
        <ele>342</ele>
        <time>2023-04-05T14:51:36.813Z</time>
      </trkpt>
      <trkpt lat="43.33095" lon="6.01731">
        <ele>340.3</ele>
        <time>2023-04-05T14:51:51.411Z</time>
      </trkpt>
      <trkpt lat="43.3309" lon="6.01687">
        <ele>341</ele>
        <time>2023-04-05T14:51:56.416Z</time>
      </trkpt>
      <trkpt lat="43.33057" lon="6.01473">
        <ele>340.5</ele>
        <time>2023-04-05T14:52:20.879Z</time>
      </trkpt>
      <trkpt lat="43.33027" lon="6.01252">
        <ele>337.5</ele>
        <time>2023-04-05T14:52:46.070Z</time>
      </trkpt>
      <trkpt lat="43.33025" lon="6.01196">
        <ele>337</ele>
        <time>2023-04-05T14:52:52.286Z</time>
      </trkpt>
      <trkpt lat="43.33029" lon="6.01133">
        <ele>335.8</ele>
        <time>2023-04-05T14:52:59.424Z</time>
      </trkpt>
      <trkpt lat="43.33061" lon="6.0095">
        <ele>331.5</ele>
        <time>2023-04-05T14:53:20.477Z</time>
      </trkpt>
      <trkpt lat="43.33064" lon="6.00917">
        <ele>331.8</ele>
        <time>2023-04-05T14:53:24.152Z</time>
      </trkpt>
      <trkpt lat="43.33063" lon="6.0089">
        <ele>333.8</ele>
        <time>2023-04-05T14:53:27.190Z</time>
      </trkpt>
      <trkpt lat="43.33024" lon="6.00713">
        <ele>338</ele>
        <time>2023-04-05T14:53:47.978Z</time>
      </trkpt>
      <trkpt lat="43.33015" lon="6.00654">
        <ele>337.3</ele>
        <time>2023-04-05T14:53:54.757Z</time>
      </trkpt>
      <trkpt lat="43.33017" lon="6.00598">
        <ele>337</ele>
        <time>2023-04-05T14:54:01.001Z</time>
      </trkpt>
      <trkpt lat="43.33024" lon="6.00551">
        <ele>337.8</ele>
        <time>2023-04-05T14:54:06.348Z</time>
      </trkpt>
      <trkpt lat="43.33039" lon="6.00505">
        <ele>339.3</ele>
        <time>2023-04-05T14:54:11.969Z</time>
      </trkpt>
      <trkpt lat="43.33065" lon="6.00443">
        <ele>340.3</ele>
        <time>2023-04-05T14:54:20.061Z</time>
      </trkpt>
      <trkpt lat="43.33074" lon="6.0041">
        <ele>340.5</ele>
        <time>2023-04-05T14:54:23.960Z</time>
      </trkpt>
      <trkpt lat="43.3308" lon="6.00372">
        <ele>341.3</ele>
        <time>2023-04-05T14:54:28.339Z</time>
      </trkpt>
      <trkpt lat="43.3309" lon="6.00246">
        <ele>343</ele>
        <time>2023-04-05T14:54:42.579Z</time>
      </trkpt>
      <trkpt lat="43.33096" lon="6.00194">
        <ele>343.3</ele>
        <time>2023-04-05T14:54:48.495Z</time>
      </trkpt>
      <trkpt lat="43.33112" lon="6.00132">
        <ele>343.8</ele>
        <time>2023-04-05T14:54:55.799Z</time>
      </trkpt>
      <trkpt lat="43.33164" lon="5.99976">
        <ele>347</ele>
        <time>2023-04-05T14:55:15.026Z</time>
      </trkpt>
      <trkpt lat="43.33197" lon="5.99881">
        <ele>348.5</ele>
        <time>2023-04-05T14:55:26.777Z</time>
      </trkpt>
      <trkpt lat="43.33206" lon="5.99841">
        <ele>348.8</ele>
        <time>2023-04-05T14:55:31.487Z</time>
      </trkpt>
      <trkpt lat="43.3321" lon="5.99803">
        <ele>348.8</ele>
        <time>2023-04-05T14:55:35.813Z</time>
      </trkpt>
      <trkpt lat="43.33214" lon="5.9974">
        <ele>348.5</ele>
        <time>2023-04-05T14:55:42.821Z</time>
      </trkpt>
      <trkpt lat="43.33215" lon="5.99725">
        <ele>348.5</ele>
        <time>2023-04-05T14:55:44.499Z</time>
      </trkpt>
      <trkpt lat="43.33219" lon="5.99661">
        <ele>348.5</ele>
        <time>2023-04-05T14:55:51.794Z</time>
      </trkpt>
      <trkpt lat="43.33228" lon="5.99495">
        <ele>349</ele>
        <time>2023-04-05T14:56:10.342Z</time>
      </trkpt>
      <trkpt lat="43.33234" lon="5.99446">
        <ele>348.8</ele>
        <time>2023-04-05T14:56:15.970Z</time>
      </trkpt>
      <trkpt lat="43.33244" lon="5.99397">
        <ele>348</ele>
        <time>2023-04-05T14:56:21.695Z</time>
      </trkpt>
      <trkpt lat="43.33258" lon="5.99344">
        <ele>346.3</ele>
        <time>2023-04-05T14:56:27.978Z</time>
      </trkpt>
      <trkpt lat="43.33265" lon="5.99316">
        <ele>345.5</ele>
        <time>2023-04-05T14:56:31.214Z</time>
      </trkpt>
      <trkpt lat="43.3327" lon="5.99292">
        <ele>344.8</ele>
        <time>2023-04-05T14:56:34.097Z</time>
      </trkpt>
      <trkpt lat="43.33296" lon="5.99076">
        <ele>343.8</ele>
        <time>2023-04-05T14:56:58.599Z</time>
      </trkpt>
      <trkpt lat="43.33305" lon="5.99036">
        <ele>344</ele>
        <time>2023-04-05T14:57:03.242Z</time>
      </trkpt>
      <trkpt lat="43.33318" lon="5.98995">
        <ele>344.5</ele>
        <time>2023-04-05T14:57:08.232Z</time>
      </trkpt>
      <trkpt lat="43.33384" lon="5.9886">
        <ele>348.3</ele>
        <time>2023-04-05T14:57:26.475Z</time>
      </trkpt>
      <trkpt lat="43.33398" lon="5.98827">
        <ele>348.8</ele>
        <time>2023-04-05T14:57:30.762Z</time>
      </trkpt>
      <trkpt lat="43.33408" lon="5.98791">
        <ele>348.8</ele>
        <time>2023-04-05T14:57:35.057Z</time>
      </trkpt>
      <trkpt lat="43.33412" lon="5.98772">
        <ele>348.8</ele>
        <time>2023-04-05T14:57:37.282Z</time>
      </trkpt>
      <trkpt lat="43.33416" lon="5.98756">
        <ele>348.8</ele>
        <time>2023-04-05T14:57:39.170Z</time>
      </trkpt>
      <trkpt lat="43.33419" lon="5.98723">
        <ele>349.5</ele>
        <time>2023-04-05T14:57:42.940Z</time>
      </trkpt>
      <trkpt lat="43.33421" lon="5.98679">
        <ele>350.5</ele>
        <time>2023-04-05T14:57:47.907Z</time>
      </trkpt>
      <trkpt lat="43.33409" lon="5.98385">
        <ele>352</ele>
        <time>2023-04-05T14:58:20.866Z</time>
      </trkpt>
      <trkpt lat="43.33409" lon="5.98377">
        <ele>352.3</ele>
        <time>2023-04-05T14:58:21.695Z</time>
      </trkpt>
      <trkpt lat="43.33409" lon="5.98344">
        <ele>352.5</ele>
        <time>2023-04-05T14:58:25.457Z</time>
      </trkpt>
      <trkpt lat="43.3341" lon="5.98327">
        <ele>352.8</ele>
        <time>2023-04-05T14:58:27.372Z</time>
      </trkpt>
      <trkpt lat="43.33413" lon="5.98311">
        <ele>352.8</ele>
        <time>2023-04-05T14:58:29.189Z</time>
      </trkpt>
      <trkpt lat="43.33416" lon="5.98297">
        <ele>352.8</ele>
        <time>2023-04-05T14:58:30.832Z</time>
      </trkpt>
      <trkpt lat="43.33421" lon="5.98282">
        <ele>353</ele>
        <time>2023-04-05T14:58:32.640Z</time>
      </trkpt>
      <trkpt lat="43.33428" lon="5.98263">
        <ele>353.3</ele>
        <time>2023-04-05T14:58:35.066Z</time>
      </trkpt>
      <trkpt lat="43.33463" lon="5.98201">
        <ele>354.8</ele>
        <time>2023-04-05T14:58:43.843Z</time>
      </trkpt>
      <trkpt lat="43.33484" lon="5.98164">
        <ele>355.5</ele>
        <time>2023-04-05T14:58:49.146Z</time>
      </trkpt>
      <trkpt lat="43.33516" lon="5.98115">
        <ele>356.5</ele>
        <time>2023-04-05T14:58:56.413Z</time>
      </trkpt>
      <trkpt lat="43.33639" lon="5.97862">
        <ele>358.9</ele>
        <time>2023-04-05T14:59:36.796Z</time>
      </trkpt>
      <trkpt lat="43.33679" lon="5.97764">
        <ele>359.8</ele>
        <time>2023-04-05T14:59:38.838Z</time>
      </trkpt>
      <trkpt lat="43.33781" lon="5.97536">
        <ele>371.8</ele>
        <time>2023-04-05T15:00:14.539Z</time>
      </trkpt>
      <trkpt lat="43.33791" lon="5.97513">
        <ele>375.3</ele>
        <time>2023-04-05T15:00:17.588Z</time>
      </trkpt>
      <trkpt lat="43.33806" lon="5.97485">
        <ele>377.8</ele>
        <time>2023-04-05T15:00:21.491Z</time>
      </trkpt>
      <trkpt lat="43.33824" lon="5.97455">
        <ele>378.5</ele>
        <time>2023-04-05T15:00:25.865Z</time>
      </trkpt>
      <trkpt lat="43.33837" lon="5.97436">
        <ele>378.5</ele>
        <time>2023-04-05T15:00:28.786Z</time>
      </trkpt>
      <trkpt lat="43.33851" lon="5.9742">
        <ele>378.3</ele>
        <time>2023-04-05T15:00:31.533Z</time>
      </trkpt>
      <trkpt lat="43.33854" lon="5.97416">
        <ele>378.3</ele>
        <time>2023-04-05T15:00:32.207Z</time>
      </trkpt>
      <trkpt lat="43.33865" lon="5.97404">
        <ele>378.8</ele>
        <time>2023-04-05T15:00:34.330Z</time>
      </trkpt>
      <trkpt lat="43.33889" lon="5.97381">
        <ele>378</ele>
        <time>2023-04-05T15:00:38.865Z</time>
      </trkpt>
      <trkpt lat="43.33908" lon="5.97366">
        <ele>376</ele>
        <time>2023-04-05T15:00:42.169Z</time>
      </trkpt>
      <trkpt lat="43.33912" lon="5.97363">
        <ele>375.5</ele>
        <time>2023-04-05T15:00:42.938Z</time>
      </trkpt>
      <trkpt lat="43.33914" lon="5.97362">
        <ele>375</ele>
        <time>2023-04-05T15:00:43.213Z</time>
      </trkpt>
      <trkpt lat="43.33934" lon="5.9735">
        <ele>374.8</ele>
        <time>2023-04-05T15:00:46.638Z</time>
      </trkpt>
      <trkpt lat="43.33957" lon="5.97339">
        <ele>374.3</ele>
        <time>2023-04-05T15:00:50.297Z</time>
      </trkpt>
      <trkpt lat="43.33969" lon="5.97333">
        <ele>373.8</ele>
        <time>2023-04-05T15:00:52.280Z</time>
      </trkpt>
      <trkpt lat="43.33983" lon="5.97329">
        <ele>373.5</ele>
        <time>2023-04-05T15:00:54.521Z</time>
      </trkpt>
      <trkpt lat="43.34012" lon="5.97324">
        <ele>372.5</ele>
        <time>2023-04-05T15:00:59.093Z</time>
      </trkpt>
      <trkpt lat="43.34043" lon="5.97321">
        <ele>372.5</ele>
        <time>2023-04-05T15:01:03.771Z</time>
      </trkpt>
      <trkpt lat="43.34055" lon="5.97319">
        <ele>372.5</ele>
        <time>2023-04-05T15:01:05.684Z</time>
      </trkpt>
      <trkpt lat="43.34061" lon="5.97322">
        <ele>372.3</ele>
        <time>2023-04-05T15:01:06.675Z</time>
      </trkpt>
      <trkpt lat="43.34067" lon="5.97324">
        <ele>372.3</ele>
        <time>2023-04-05T15:01:07.500Z</time>
      </trkpt>
      <trkpt lat="43.34069" lon="5.97329">
        <ele>372</ele>
        <time>2023-04-05T15:01:08.233Z</time>
      </trkpt>
      <trkpt lat="43.34073" lon="5.97332">
        <ele>372</ele>
        <time>2023-04-05T15:01:08.893Z</time>
      </trkpt>
      <trkpt lat="43.34077" lon="5.97334">
        <ele>371.8</ele>
        <time>2023-04-05T15:01:09.552Z</time>
      </trkpt>
      <trkpt lat="43.34081" lon="5.97334">
        <ele>371.8</ele>
        <time>2023-04-05T15:01:10.214Z</time>
      </trkpt>
      <trkpt lat="43.34087" lon="5.9733">
        <ele>371.8</ele>
        <time>2023-04-05T15:01:11.198Z</time>
      </trkpt>
      <trkpt lat="43.3409" lon="5.97327">
        <ele>371.8</ele>
        <time>2023-04-05T15:01:11.697Z</time>
      </trkpt>
      <trkpt lat="43.34092" lon="5.97323">
        <ele>371.8</ele>
        <time>2023-04-05T15:01:12.313Z</time>
      </trkpt>
      <trkpt lat="43.34093" lon="5.97317">
        <ele>372</ele>
        <time>2023-04-05T15:01:12.934Z</time>
      </trkpt>
      <trkpt lat="43.34093" lon="5.97312">
        <ele>372</ele>
        <time>2023-04-05T15:01:13.549Z</time>
      </trkpt>
      <trkpt lat="43.34092" lon="5.97306">
        <ele>372</ele>
        <time>2023-04-05T15:01:14.176Z</time>
      </trkpt>
      <trkpt lat="43.34089" lon="5.97301">
        <ele>372.3</ele>
        <time>2023-04-05T15:01:14.901Z</time>
      </trkpt>
      <trkpt lat="43.3409" lon="5.97284">
        <ele>372.5</ele>
        <time>2023-04-05T15:01:16.764Z</time>
      </trkpt>
      <trkpt lat="43.34092" lon="5.97274">
        <ele>372.5</ele>
        <time>2023-04-05T15:01:17.926Z</time>
      </trkpt>
      <trkpt lat="43.34095" lon="5.97259">
        <ele>372.8</ele>
        <time>2023-04-05T15:01:19.738Z</time>
      </trkpt>
      <trkpt lat="43.34108" lon="5.97215">
        <ele>373</ele>
        <time>2023-04-05T15:01:24.996Z</time>
      </trkpt>
      <trkpt lat="43.3411" lon="5.97207">
        <ele>373</ele>
        <time>2023-04-05T15:01:25.916Z</time>
      </trkpt>
      <trkpt lat="43.34113" lon="5.97183">
        <ele>373.3</ele>
        <time>2023-04-05T15:01:28.728Z</time>
      </trkpt>
      <trkpt lat="43.34113" lon="5.97156">
        <ele>373.8</ele>
        <time>2023-04-05T15:01:31.662Z</time>
      </trkpt>
      <trkpt lat="43.34113" lon="5.9715">
        <ele>374</ele>
        <time>2023-04-05T15:01:32.412Z</time>
      </trkpt>
      <trkpt lat="43.34112" lon="5.97135">
        <ele>374.5</ele>
        <time>2023-04-05T15:01:34.111Z</time>
      </trkpt>
      <trkpt lat="43.34111" lon="5.9712">
        <ele>375</ele>
        <time>2023-04-05T15:01:35.785Z</time>
      </trkpt>
      <trkpt lat="43.34111" lon="5.97109">
        <ele>375.5</ele>
        <time>2023-04-05T15:01:36.949Z</time>
      </trkpt>
      <trkpt lat="43.34111" lon="5.97104">
        <ele>375.8</ele>
        <time>2023-04-05T15:01:37.520Z</time>
      </trkpt>
      <trkpt lat="43.34111" lon="5.97092">
        <ele>376.3</ele>
        <time>2023-04-05T15:01:38.830Z</time>
      </trkpt>
      <trkpt lat="43.34111" lon="5.97089">
        <ele>376.3</ele>
        <time>2023-04-05T15:01:39.255Z</time>
      </trkpt>
      <trkpt lat="43.34116" lon="5.97054">
        <ele>378.3</ele>
        <time>2023-04-05T15:01:43.210Z</time>
      </trkpt>
      <trkpt lat="43.3412" lon="5.97036">
        <ele>379</ele>
        <time>2023-04-05T15:01:45.354Z</time>
      </trkpt>
      <trkpt lat="43.34124" lon="5.97018">
        <ele>379.8</ele>
        <time>2023-04-05T15:01:47.403Z</time>
      </trkpt>
      <trkpt lat="43.34127" lon="5.97007">
        <ele>380.3</ele>
        <time>2023-04-05T15:01:48.745Z</time>
      </trkpt>
      <trkpt lat="43.34135" lon="5.96971">
        <ele>383</ele>
        <time>2023-04-05T15:01:52.935Z</time>
      </trkpt>
      <trkpt lat="43.34149" lon="5.96929">
        <ele>386</ele>
        <time>2023-04-05T15:01:58.127Z</time>
      </trkpt>
      <trkpt lat="43.34165" lon="5.96895">
        <ele>386.3</ele>
        <time>2023-04-05T15:02:02.591Z</time>
      </trkpt>
      <trkpt lat="43.34202" lon="5.96835">
        <ele>390.5</ele>
        <time>2023-04-05T15:02:11.449Z</time>
      </trkpt>
      <trkpt lat="43.34218" lon="5.96798">
        <ele>393.5</ele>
        <time>2023-04-05T15:02:16.304Z</time>
      </trkpt>
      <trkpt lat="43.34225" lon="5.96778">
        <ele>395</ele>
        <time>2023-04-05T15:02:18.705Z</time>
      </trkpt>
      <trkpt lat="43.34226" lon="5.96761">
        <ele>395.8</ele>
        <time>2023-04-05T15:02:20.587Z</time>
      </trkpt>
      <trkpt lat="43.34222" lon="5.96729">
        <ele>397</ele>
        <time>2023-04-05T15:02:24.253Z</time>
      </trkpt>
      <trkpt lat="43.34218" lon="5.96707">
        <ele>398</ele>
        <time>2023-04-05T15:02:26.792Z</time>
      </trkpt>
      <trkpt lat="43.34182" lon="5.96631">
        <ele>394.3</ele>
        <time>2023-04-05T15:02:36.947Z</time>
      </trkpt>
      <trkpt lat="43.3417" lon="5.9659">
        <ele>391.8</ele>
        <time>2023-04-05T15:02:41.895Z</time>
      </trkpt>
      <trkpt lat="43.34161" lon="5.96548">
        <ele>394.3</ele>
        <time>2023-04-05T15:02:46.797Z</time>
      </trkpt>
      <trkpt lat="43.34159" lon="5.96532">
        <ele>395.5</ele>
        <time>2023-04-05T15:02:48.614Z</time>
      </trkpt>
      <trkpt lat="43.34156" lon="5.9649">
        <ele>397.8</ele>
        <time>2023-04-05T15:02:53.339Z</time>
      </trkpt>
      <trkpt lat="43.34157" lon="5.96431">
        <ele>398.5</ele>
        <time>2023-04-05T15:02:59.947Z</time>
      </trkpt>
      <trkpt lat="43.34162" lon="5.96375">
        <ele>399.5</ele>
        <time>2023-04-05T15:03:06.264Z</time>
      </trkpt>
      <trkpt lat="43.34178" lon="5.96305">
        <ele>406.3</ele>
        <time>2023-04-05T15:03:14.480Z</time>
      </trkpt>
      <trkpt lat="43.34178" lon="5.96293">
        <ele>406.8</ele>
        <time>2023-04-05T15:03:15.823Z</time>
      </trkpt>
      <trkpt lat="43.34175" lon="5.96269">
        <ele>406.5</ele>
        <time>2023-04-05T15:03:18.549Z</time>
      </trkpt>
      <trkpt lat="43.34162" lon="5.96223">
        <ele>405.8</ele>
        <time>2023-04-05T15:03:24.074Z</time>
      </trkpt>
      <trkpt lat="43.34148" lon="5.96194">
        <ele>407.3</ele>
        <time>2023-04-05T15:03:27.971Z</time>
      </trkpt>
      <trkpt lat="43.34114" lon="5.9615">
        <ele>407.8</ele>
        <time>2023-04-05T15:03:35.159Z</time>
      </trkpt>
      <trkpt lat="43.34109" lon="5.96143">
        <ele>407.8</ele>
        <time>2023-04-05T15:03:36.269Z</time>
      </trkpt>
      <trkpt lat="43.34101" lon="5.9613">
        <ele>407.5</ele>
        <time>2023-04-05T15:03:38.162Z</time>
      </trkpt>
      <trkpt lat="43.34089" lon="5.96109">
        <ele>406</ele>
        <time>2023-04-05T15:03:41.152Z</time>
      </trkpt>
      <trkpt lat="43.34058" lon="5.96039">
        <ele>409.8</ele>
        <time>2023-04-05T15:03:50.329Z</time>
      </trkpt>
      <trkpt lat="43.34046" lon="5.9602">
        <ele>409.8</ele>
        <time>2023-04-05T15:03:53.146Z</time>
      </trkpt>
      <trkpt lat="43.34032" lon="5.96005">
        <ele>408.8</ele>
        <time>2023-04-05T15:03:55.878Z</time>
      </trkpt>
      <trkpt lat="43.34018" lon="5.95994">
        <ele>408.8</ele>
        <time>2023-04-05T15:03:58.360Z</time>
      </trkpt>
      <trkpt lat="43.34004" lon="5.95987">
        <ele>408.8</ele>
        <time>2023-04-05T15:04:00.653Z</time>
      </trkpt>
      <trkpt lat="43.33995" lon="5.95986">
        <ele>408.8</ele>
        <time>2023-04-05T15:04:02.043Z</time>
      </trkpt>
      <trkpt lat="43.33987" lon="5.95989">
        <ele>408.5</ele>
        <time>2023-04-05T15:04:03.319Z</time>
      </trkpt>
      <trkpt lat="43.3396" lon="5.96005">
        <ele>409</ele>
        <time>2023-04-05T15:04:07.845Z</time>
      </trkpt>
      <trkpt lat="43.33947" lon="5.96003">
        <ele>409.5</ele>
        <time>2023-04-05T15:04:09.858Z</time>
      </trkpt>
      <trkpt lat="43.33936" lon="5.95991">
        <ele>410.3</ele>
        <time>2023-04-05T15:04:12.019Z</time>
      </trkpt>
      <trkpt lat="43.33924" lon="5.95962">
        <ele>411.5</ele>
        <time>2023-04-05T15:04:15.761Z</time>
      </trkpt>
      <trkpt lat="43.33917" lon="5.95937">
        <ele>411.8</ele>
        <time>2023-04-05T15:04:18.715Z</time>
      </trkpt>
      <trkpt lat="43.33913" lon="5.959">
        <ele>415</ele>
        <time>2023-04-05T15:04:23.004Z</time>
      </trkpt>
      <trkpt lat="43.3391" lon="5.95882">
        <ele>417.8</ele>
        <time>2023-04-05T15:04:24.957Z</time>
      </trkpt>
      <trkpt lat="43.33912" lon="5.95874">
        <ele>418.8</ele>
        <time>2023-04-05T15:04:25.937Z</time>
      </trkpt>
      <trkpt lat="43.33915" lon="5.95867">
        <ele>419.3</ele>
        <time>2023-04-05T15:04:26.871Z</time>
      </trkpt>
      <trkpt lat="43.3392" lon="5.9586">
        <ele>420</ele>
        <time>2023-04-05T15:04:27.934Z</time>
      </trkpt>
      <trkpt lat="43.33961" lon="5.95819">
        <ele>422</ele>
        <time>2023-04-05T15:04:35.759Z</time>
      </trkpt>
      <trkpt lat="43.3398" lon="5.95805">
        <ele>420.5</ele>
        <time>2023-04-05T15:04:39.070Z</time>
      </trkpt>
      <trkpt lat="43.33987" lon="5.95788">
        <ele>420</ele>
        <time>2023-04-05T15:04:41.257Z</time>
      </trkpt>
      <trkpt lat="43.34008" lon="5.95708">
        <ele>419</ele>
        <time>2023-04-05T15:04:50.780Z</time>
      </trkpt>
      <trkpt lat="43.34012" lon="5.95678">
        <ele>419.8</ele>
        <time>2023-04-05T15:04:54.195Z</time>
      </trkpt>
      <trkpt lat="43.34015" lon="5.95609">
        <ele>420.5</ele>
        <time>2023-04-05T15:05:01.936Z</time>
      </trkpt>
      <trkpt lat="43.34019" lon="5.95547">
        <ele>420.8</ele>
        <time>2023-04-05T15:05:08.957Z</time>
      </trkpt>
      <trkpt lat="43.34022" lon="5.95514">
        <ele>420.8</ele>
        <time>2023-04-05T15:05:12.707Z</time>
      </trkpt>
      <trkpt lat="43.34025" lon="5.95489">
        <ele>420.8</ele>
        <time>2023-04-05T15:05:15.510Z</time>
      </trkpt>
      <trkpt lat="43.34028" lon="5.95456">
        <ele>421.3</ele>
        <time>2023-04-05T15:05:19.251Z</time>
      </trkpt>
      <trkpt lat="43.34038" lon="5.95256">
        <ele>422</ele>
        <time>2023-04-05T15:05:41.664Z</time>
      </trkpt>
      <trkpt lat="43.34042" lon="5.95217">
        <ele>422.3</ele>
        <time>2023-04-05T15:05:46.116Z</time>
      </trkpt>
      <trkpt lat="43.34056" lon="5.95131">
        <ele>420.3</ele>
        <time>2023-04-05T15:05:55.979Z</time>
      </trkpt>
      <trkpt lat="43.3406" lon="5.95042">
        <ele>421.3</ele>
        <time>2023-04-05T15:06:05.984Z</time>
      </trkpt>
      <trkpt lat="43.34062" lon="5.95022">
        <ele>421.8</ele>
        <time>2023-04-05T15:06:08.194Z</time>
      </trkpt>
      <trkpt lat="43.34063" lon="5.95018">
        <ele>421.8</ele>
        <time>2023-04-05T15:06:08.647Z</time>
      </trkpt>
      <trkpt lat="43.34067" lon="5.95">
        <ele>422</ele>
        <time>2023-04-05T15:06:10.812Z</time>
      </trkpt>
      <trkpt lat="43.34086" lon="5.94946">
        <ele>426.8</ele>
        <time>2023-04-05T15:06:17.482Z</time>
      </trkpt>
      <trkpt lat="43.341" lon="5.94924">
        <ele>428.3</ele>
        <time>2023-04-05T15:06:20.776Z</time>
      </trkpt>
      <trkpt lat="43.34132" lon="5.94886">
        <ele>428.8</ele>
        <time>2023-04-05T15:06:27.271Z</time>
      </trkpt>
      <trkpt lat="43.34191" lon="5.94824">
        <ele>428</ele>
        <time>2023-04-05T15:06:38.710Z</time>
      </trkpt>
      <trkpt lat="43.34206" lon="5.94802">
        <ele>428.8</ele>
        <time>2023-04-05T15:06:42.070Z</time>
      </trkpt>
      <trkpt lat="43.34216" lon="5.94781">
        <ele>429.5</ele>
        <time>2023-04-05T15:06:44.848Z</time>
      </trkpt>
      <trkpt lat="43.34244" lon="5.94699">
        <ele>432</ele>
        <time>2023-04-05T15:06:55.064Z</time>
      </trkpt>
      <trkpt lat="43.34258" lon="5.94658">
        <ele>433.8</ele>
        <time>2023-04-05T15:07:00.072Z</time>
      </trkpt>
      <trkpt lat="43.34266" lon="5.94623">
        <ele>435.5</ele>
        <time>2023-04-05T15:07:04.229Z</time>
      </trkpt>
      <trkpt lat="43.3427" lon="5.94593">
        <ele>437.3</ele>
        <time>2023-04-05T15:07:07.655Z</time>
      </trkpt>
      <trkpt lat="43.34271" lon="5.94546">
        <ele>438.8</ele>
        <time>2023-04-05T15:07:12.918Z</time>
      </trkpt>
      <trkpt lat="43.3427" lon="5.94426">
        <ele>441</ele>
        <time>2023-04-05T15:07:26.355Z</time>
      </trkpt>
      <trkpt lat="43.34268" lon="5.94369">
        <ele>441.5</ele>
        <time>2023-04-05T15:07:32.744Z</time>
      </trkpt>
      <trkpt lat="43.34263" lon="5.94327">
        <ele>442</ele>
        <time>2023-04-05T15:07:37.476Z</time>
      </trkpt>
      <trkpt lat="43.34263" lon="5.94308">
        <ele>442</ele>
        <time>2023-04-05T15:07:39.614Z</time>
      </trkpt>
      <trkpt lat="43.34265" lon="5.94299">
        <ele>442</ele>
        <time>2023-04-05T15:07:40.702Z</time>
      </trkpt>
      <trkpt lat="43.34269" lon="5.94288">
        <ele>441.8</ele>
        <time>2023-04-05T15:07:42.110Z</time>
      </trkpt>
      <trkpt lat="43.34288" lon="5.94266">
        <ele>440.5</ele>
        <time>2023-04-05T15:07:45.915Z</time>
      </trkpt>
      <trkpt lat="43.34296" lon="5.9426">
        <ele>440</ele>
        <time>2023-04-05T15:07:47.277Z</time>
      </trkpt>
      <trkpt lat="43.34298" lon="5.94258">
        <ele>440</ele>
        <time>2023-04-05T15:07:47.786Z</time>
      </trkpt>
      <trkpt lat="43.34305" lon="5.94257">
        <ele>439.5</ele>
        <time>2023-04-05T15:07:48.791Z</time>
      </trkpt>
      <trkpt lat="43.34321" lon="5.94257">
        <ele>438.5</ele>
        <time>2023-04-05T15:07:51.331Z</time>
      </trkpt>
      <trkpt lat="43.3433" lon="5.94252">
        <ele>438</ele>
        <time>2023-04-05T15:07:52.714Z</time>
      </trkpt>
      <trkpt lat="43.3434" lon="5.94238">
        <ele>439.8</ele>
        <time>2023-04-05T15:07:54.949Z</time>
      </trkpt>
      <trkpt lat="43.34351" lon="5.94215">
        <ele>442.5</ele>
        <time>2023-04-05T15:07:57.976Z</time>
      </trkpt>
      <trkpt lat="43.34373" lon="5.94165">
        <ele>447</ele>
        <time>2023-04-05T15:08:04.546Z</time>
      </trkpt>
      <trkpt lat="43.34395" lon="5.94107">
        <ele>448</ele>
        <time>2023-04-05T15:08:11.889Z</time>
      </trkpt>
      <trkpt lat="43.34409" lon="5.94081">
        <ele>447</ele>
        <time>2023-04-05T15:08:15.556Z</time>
      </trkpt>
      <trkpt lat="43.34436" lon="5.94051">
        <ele>450.5</ele>
        <time>2023-04-05T15:08:20.913Z</time>
      </trkpt>
      <trkpt lat="43.34446" lon="5.94033">
        <ele>452.8</ele>
        <time>2023-04-05T15:08:23.376Z</time>
      </trkpt>
      <trkpt lat="43.34491" lon="5.93913">
        <ele>458.3</ele>
        <time>2023-04-05T15:08:38.517Z</time>
      </trkpt>
      <trkpt lat="43.34523" lon="5.93819">
        <ele>463.8</ele>
        <time>2023-04-05T15:08:50.161Z</time>
      </trkpt>
      <trkpt lat="43.34539" lon="5.93768">
        <ele>466.8</ele>
        <time>2023-04-05T15:08:56.361Z</time>
      </trkpt>
      <trkpt lat="43.34546" lon="5.93743">
        <ele>467.8</ele>
        <time>2023-04-05T15:08:59.397Z</time>
      </trkpt>
      <trkpt lat="43.34567" lon="5.93685">
        <ele>467.8</ele>
        <time>2023-04-05T15:09:06.610Z</time>
      </trkpt>
      <trkpt lat="43.34577" lon="5.93672">
        <ele>466.8</ele>
        <time>2023-04-05T15:09:08.778Z</time>
      </trkpt>
      <trkpt lat="43.34595" lon="5.93658">
        <ele>468.8</ele>
        <time>2023-04-05T15:09:11.878Z</time>
      </trkpt>
      <trkpt lat="43.34603" lon="5.93647">
        <ele>471.3</ele>
        <time>2023-04-05T15:09:13.694Z</time>
      </trkpt>
      <trkpt lat="43.34605" lon="5.93638">
        <ele>472.3</ele>
        <time>2023-04-05T15:09:14.710Z</time>
      </trkpt>
      <trkpt lat="43.34606" lon="5.93634">
        <ele>472.8</ele>
        <time>2023-04-05T15:09:15.215Z</time>
      </trkpt>
      <trkpt lat="43.34609" lon="5.93609">
        <ele>474.8</ele>
        <time>2023-04-05T15:09:18.031Z</time>
      </trkpt>
      <trkpt lat="43.3461" lon="5.93546">
        <ele>480.5</ele>
        <time>2023-04-05T15:09:25.074Z</time>
      </trkpt>
      <trkpt lat="43.34608" lon="5.93493">
        <ele>485.5</ele>
        <time>2023-04-05T15:09:31.078Z</time>
      </trkpt>
      <trkpt lat="43.34608" lon="5.93488">
        <ele>486.3</ele>
        <time>2023-04-05T15:09:31.638Z</time>
      </trkpt>
      <trkpt lat="43.34606" lon="5.93462">
        <ele>487.5</ele>
        <time>2023-04-05T15:09:34.463Z</time>
      </trkpt>
      <trkpt lat="43.34608" lon="5.93428">
        <ele>490.8</ele>
        <time>2023-04-05T15:09:38.346Z</time>
      </trkpt>
      <trkpt lat="43.34614" lon="5.93373">
        <ele>493.3</ele>
        <time>2023-04-05T15:09:44.592Z</time>
      </trkpt>
      <trkpt lat="43.3462" lon="5.93337">
        <ele>494.8</ele>
        <time>2023-04-05T15:09:48.720Z</time>
      </trkpt>
      <trkpt lat="43.34631" lon="5.93293">
        <ele>495.5</ele>
        <time>2023-04-05T15:09:53.871Z</time>
      </trkpt>
      <trkpt lat="43.34639" lon="5.9328">
        <ele>496</ele>
        <time>2023-04-05T15:09:55.791Z</time>
      </trkpt>
      <trkpt lat="43.34681" lon="5.93246">
        <ele>500.3</ele>
        <time>2023-04-05T15:10:03.380Z</time>
      </trkpt>
      <trkpt lat="43.34697" lon="5.9323">
        <ele>502.3</ele>
        <time>2023-04-05T15:10:06.418Z</time>
      </trkpt>
      <trkpt lat="43.347" lon="5.93226">
        <ele>502.5</ele>
        <time>2023-04-05T15:10:07.034Z</time>
      </trkpt>
      <trkpt lat="43.34704" lon="5.93216">
        <ele>502.8</ele>
        <time>2023-04-05T15:10:08.240Z</time>
      </trkpt>
      <trkpt lat="43.34705" lon="5.93208">
        <ele>502.5</ele>
        <time>2023-04-05T15:10:09.190Z</time>
      </trkpt>
      <trkpt lat="43.34703" lon="5.932">
        <ele>502</ele>
        <time>2023-04-05T15:10:10.173Z</time>
      </trkpt>
      <trkpt lat="43.34694" lon="5.93175">
        <ele>501</ele>
        <time>2023-04-05T15:10:13.269Z</time>
      </trkpt>
      <trkpt lat="43.34691" lon="5.9316">
        <ele>500.5</ele>
        <time>2023-04-05T15:10:14.955Z</time>
      </trkpt>
      <trkpt lat="43.34692" lon="5.93146">
        <ele>500.3</ele>
        <time>2023-04-05T15:10:16.571Z</time>
      </trkpt>
      <trkpt lat="43.34697" lon="5.93127">
        <ele>499.8</ele>
        <time>2023-04-05T15:10:18.780Z</time>
      </trkpt>
      <trkpt lat="43.34718" lon="5.93073">
        <ele>498.5</ele>
        <time>2023-04-05T15:10:25.631Z</time>
      </trkpt>
      <trkpt lat="43.34748" lon="5.92981">
        <ele>492.5</ele>
        <time>2023-04-05T15:10:36.982Z</time>
      </trkpt>
      <trkpt lat="43.34755" lon="5.92961">
        <ele>491.5</ele>
        <time>2023-04-05T15:10:39.440Z</time>
      </trkpt>
      <trkpt lat="43.34765" lon="5.92947">
        <ele>491.3</ele>
        <time>2023-04-05T15:10:41.718Z</time>
      </trkpt>
      <trkpt lat="43.34796" lon="5.92932">
        <ele>492.5</ele>
        <time>2023-04-05T15:10:46.676Z</time>
      </trkpt>
      <trkpt lat="43.34807" lon="5.9292">
        <ele>493</ele>
        <time>2023-04-05T15:10:48.909Z</time>
      </trkpt>
      <trkpt lat="43.34813" lon="5.92896">
        <ele>492</ele>
        <time>2023-04-05T15:10:51.704Z</time>
      </trkpt>
      <trkpt lat="43.34815" lon="5.92844">
        <ele>489.5</ele>
        <time>2023-04-05T15:10:57.536Z</time>
      </trkpt>
      <trkpt lat="43.34815" lon="5.92792">
        <ele>487.5</ele>
        <time>2023-04-05T15:11:03.369Z</time>
      </trkpt>
      <trkpt lat="43.34812" lon="5.92763">
        <ele>486</ele>
        <time>2023-04-05T15:11:06.651Z</time>
      </trkpt>
      <trkpt lat="43.34798" lon="5.92707">
        <ele>482.8</ele>
        <time>2023-04-05T15:11:13.266Z</time>
      </trkpt>
      <trkpt lat="43.34795" lon="5.92687">
        <ele>481.5</ele>
        <time>2023-04-05T15:11:15.535Z</time>
      </trkpt>
      <trkpt lat="43.34795" lon="5.92657">
        <ele>479.3</ele>
        <time>2023-04-05T15:11:18.961Z</time>
      </trkpt>
      <trkpt lat="43.34799" lon="5.92604">
        <ele>473.5</ele>
        <time>2023-04-05T15:11:24.904Z</time>
      </trkpt>
      <trkpt lat="43.34801" lon="5.92582">
        <ele>471</ele>
        <time>2023-04-05T15:11:27.395Z</time>
      </trkpt>
      <trkpt lat="43.348" lon="5.92563">
        <ele>468.8</ele>
        <time>2023-04-05T15:11:29.512Z</time>
      </trkpt>
      <trkpt lat="43.34798" lon="5.92552">
        <ele>467.3</ele>
        <time>2023-04-05T15:11:30.803Z</time>
      </trkpt>
      <trkpt lat="43.34796" lon="5.92541">
        <ele>465.5</ele>
        <time>2023-04-05T15:11:32.071Z</time>
      </trkpt>
      <trkpt lat="43.34782" lon="5.92508">
        <ele>458.3</ele>
        <time>2023-04-05T15:11:36.352Z</time>
      </trkpt>
      <trkpt lat="43.34779" lon="5.92499">
        <ele>456.3</ele>
        <time>2023-04-05T15:11:37.423Z</time>
      </trkpt>
      <trkpt lat="43.34777" lon="5.9249">
        <ele>454.3</ele>
        <time>2023-04-05T15:11:38.450Z</time>
      </trkpt>
      <trkpt lat="43.34776" lon="5.92481">
        <ele>452.3</ele>
        <time>2023-04-05T15:11:39.531Z</time>
      </trkpt>
      <trkpt lat="43.34777" lon="5.92473">
        <ele>451</ele>
        <time>2023-04-05T15:11:40.364Z</time>
      </trkpt>
      <trkpt lat="43.34779" lon="5.92467">
        <ele>450.3</ele>
        <time>2023-04-05T15:11:41.132Z</time>
      </trkpt>
      <trkpt lat="43.34781" lon="5.92462">
        <ele>449.8</ele>
        <time>2023-04-05T15:11:41.784Z</time>
      </trkpt>
      <trkpt lat="43.34784" lon="5.92458">
        <ele>449.8</ele>
        <time>2023-04-05T15:11:42.363Z</time>
      </trkpt>
      <trkpt lat="43.34788" lon="5.92455">
        <ele>449.8</ele>
        <time>2023-04-05T15:11:43.099Z</time>
      </trkpt>
      <trkpt lat="43.34793" lon="5.92452">
        <ele>450.5</ele>
        <time>2023-04-05T15:11:44.031Z</time>
      </trkpt>
      <trkpt lat="43.34822" lon="5.92448">
        <ele>455.3</ele>
        <time>2023-04-05T15:11:48.501Z</time>
      </trkpt>
      <trkpt lat="43.34857" lon="5.92436">
        <ele>452</ele>
        <time>2023-04-05T15:11:54.044Z</time>
      </trkpt>
      <trkpt lat="43.34868" lon="5.92433">
        <ele>450.5</ele>
        <time>2023-04-05T15:11:55.753Z</time>
      </trkpt>
      <trkpt lat="43.34879" lon="5.92433">
        <ele>449.8</ele>
        <time>2023-04-05T15:11:57.432Z</time>
      </trkpt>
      <trkpt lat="43.34886" lon="5.92437">
        <ele>450.3</ele>
        <time>2023-04-05T15:11:58.633Z</time>
      </trkpt>
      <trkpt lat="43.34892" lon="5.92441">
        <ele>451</ele>
        <time>2023-04-05T15:11:59.620Z</time>
      </trkpt>
      <trkpt lat="43.34912" lon="5.92461">
        <ele>454.5</ele>
        <time>2023-04-05T15:12:03.452Z</time>
      </trkpt>
      <trkpt lat="43.34927" lon="5.92472">
        <ele>455</ele>
        <time>2023-04-05T15:12:06.021Z</time>
      </trkpt>
      <trkpt lat="43.34971" lon="5.92489">
        <ele>451</ele>
        <time>2023-04-05T15:12:13.108Z</time>
      </trkpt>
      <trkpt lat="43.34997" lon="5.92502">
        <ele>448.8</ele>
        <time>2023-04-05T15:12:17.392Z</time>
      </trkpt>
      <trkpt lat="43.35012" lon="5.92511">
        <ele>447.8</ele>
        <time>2023-04-05T15:12:19.847Z</time>
      </trkpt>
      <trkpt lat="43.35028" lon="5.92521">
        <ele>447.3</ele>
        <time>2023-04-05T15:12:22.568Z</time>
      </trkpt>
      <trkpt lat="43.35036" lon="5.92528">
        <ele>447.3</ele>
        <time>2023-04-05T15:12:23.979Z</time>
      </trkpt>
      <trkpt lat="43.35039" lon="5.92529">
        <ele>446.8</ele>
        <time>2023-04-05T15:12:24.469Z</time>
      </trkpt>
      <trkpt lat="43.35042" lon="5.92528">
        <ele>446.3</ele>
        <time>2023-04-05T15:12:24.976Z</time>
      </trkpt>
      <trkpt lat="43.35044" lon="5.92527">
        <ele>445.5</ele>
        <time>2023-04-05T15:12:25.283Z</time>
      </trkpt>
      <trkpt lat="43.35045" lon="5.92524">
        <ele>445</ele>
        <time>2023-04-05T15:12:25.639Z</time>
      </trkpt>
      <trkpt lat="43.35046" lon="5.92521">
        <ele>444.3</ele>
        <time>2023-04-05T15:12:26.038Z</time>
      </trkpt>
      <trkpt lat="43.35045" lon="5.92518">
        <ele>443.8</ele>
        <time>2023-04-05T15:12:26.348Z</time>
      </trkpt>
      <trkpt lat="43.35043" lon="5.92514">
        <ele>443.3</ele>
        <time>2023-04-05T15:12:26.981Z</time>
      </trkpt>
      <trkpt lat="43.35039" lon="5.92508">
        <ele>443</ele>
        <time>2023-04-05T15:12:27.851Z</time>
      </trkpt>
      <trkpt lat="43.35004" lon="5.92478">
        <ele>442.8</ele>
        <time>2023-04-05T15:12:34.229Z</time>
      </trkpt>
      <trkpt lat="43.34973" lon="5.92455">
        <ele>443.3</ele>
        <time>2023-04-05T15:12:39.653Z</time>
      </trkpt>
      <trkpt lat="43.34968" lon="5.9245">
        <ele>442.8</ele>
        <time>2023-04-05T15:12:40.572Z</time>
      </trkpt>
      <trkpt lat="43.34966" lon="5.92444">
        <ele>441.8</ele>
        <time>2023-04-05T15:12:41.282Z</time>
      </trkpt>
      <trkpt lat="43.34968" lon="5.92436">
        <ele>439.8</ele>
        <time>2023-04-05T15:12:42.171Z</time>
      </trkpt>
      <trkpt lat="43.34972" lon="5.92433">
        <ele>438.5</ele>
        <time>2023-04-05T15:12:42.799Z</time>
      </trkpt>
      <trkpt lat="43.34976" lon="5.92433">
        <ele>437.8</ele>
        <time>2023-04-05T15:12:43.450Z</time>
      </trkpt>
      <trkpt lat="43.34981" lon="5.92434">
        <ele>437.3</ele>
        <time>2023-04-05T15:12:44.197Z</time>
      </trkpt>
      <trkpt lat="43.34986" lon="5.92437">
        <ele>437.3</ele>
        <time>2023-04-05T15:12:45.176Z</time>
      </trkpt>
      <trkpt lat="43.34998" lon="5.92449">
        <ele>437.8</ele>
        <time>2023-04-05T15:12:47.436Z</time>
      </trkpt>
      <trkpt lat="43.35005" lon="5.92455">
        <ele>438</ele>
        <time>2023-04-05T15:12:48.745Z</time>
      </trkpt>
      <trkpt lat="43.35009" lon="5.92456">
        <ele>437.5</ele>
        <time>2023-04-05T15:12:49.370Z</time>
      </trkpt>
      <trkpt lat="43.35012" lon="5.92456">
        <ele>437</ele>
        <time>2023-04-05T15:12:49.762Z</time>
      </trkpt>
      <trkpt lat="43.35014" lon="5.92452">
        <ele>435.8</ele>
        <time>2023-04-05T15:12:50.296Z</time>
      </trkpt>
      <trkpt lat="43.35015" lon="5.92447">
        <ele>434.8</ele>
        <time>2023-04-05T15:12:50.874Z</time>
      </trkpt>
      <trkpt lat="43.35013" lon="5.92443">
        <ele>434.3</ele>
        <time>2023-04-05T15:12:51.373Z</time>
      </trkpt>
      <trkpt lat="43.35005" lon="5.92433">
        <ele>433.5</ele>
        <time>2023-04-05T15:12:52.977Z</time>
      </trkpt>
      <trkpt lat="43.34982" lon="5.92412">
        <ele>432.8</ele>
        <time>2023-04-05T15:12:57.271Z</time>
      </trkpt>
      <trkpt lat="43.3497" lon="5.92405">
        <ele>433.3</ele>
        <time>2023-04-05T15:12:59.295Z</time>
      </trkpt>
      <trkpt lat="43.34956" lon="5.924">
        <ele>434</ele>
        <time>2023-04-05T15:13:01.474Z</time>
      </trkpt>
      <trkpt lat="43.34946" lon="5.92397">
        <ele>434.8</ele>
        <time>2023-04-05T15:13:03.069Z</time>
      </trkpt>
      <trkpt lat="43.34929" lon="5.92391">
        <ele>435.3</ele>
        <time>2023-04-05T15:13:05.776Z</time>
      </trkpt>
      <trkpt lat="43.34919" lon="5.92381">
        <ele>434</ele>
        <time>2023-04-05T15:13:07.642Z</time>
      </trkpt>
      <trkpt lat="43.34916" lon="5.92369">
        <ele>431.3</ele>
        <time>2023-04-05T15:13:09.101Z</time>
      </trkpt>
      <trkpt lat="43.34916" lon="5.92341">
        <ele>424.5</ele>
        <time>2023-04-05T15:13:12.227Z</time>
      </trkpt>
      <trkpt lat="43.34914" lon="5.92319">
        <ele>421.5</ele>
        <time>2023-04-05T15:13:14.642Z</time>
      </trkpt>
      <trkpt lat="43.34911" lon="5.92312">
        <ele>420.8</ele>
        <time>2023-04-05T15:13:15.644Z</time>
      </trkpt>
      <trkpt lat="43.34903" lon="5.92304">
        <ele>419.8</ele>
        <time>2023-04-05T15:13:17.154Z</time>
      </trkpt>
      <trkpt lat="43.34895" lon="5.92301">
        <ele>419.5</ele>
        <time>2023-04-05T15:13:18.352Z</time>
      </trkpt>
      <trkpt lat="43.34876" lon="5.92298">
        <ele>419</ele>
        <time>2023-04-05T15:13:21.372Z</time>
      </trkpt>
      <trkpt lat="43.3479" lon="5.92278">
        <ele>417.8</ele>
        <time>2023-04-05T15:13:34.721Z</time>
      </trkpt>
      <trkpt lat="43.34771" lon="5.92271">
        <ele>418</ele>
        <time>2023-04-05T15:13:37.807Z</time>
      </trkpt>
      <trkpt lat="43.34763" lon="5.92267">
        <ele>418</ele>
        <time>2023-04-05T15:13:39.158Z</time>
      </trkpt>
      <trkpt lat="43.34762" lon="5.92267">
        <ele>418</ele>
        <time>2023-04-05T15:13:39.274Z</time>
      </trkpt>
      <trkpt lat="43.34758" lon="5.92262">
        <ele>417.8</ele>
        <time>2023-04-05T15:13:40.080Z</time>
      </trkpt>
      <trkpt lat="43.34756" lon="5.92256">
        <ele>417.3</ele>
        <time>2023-04-05T15:13:40.769Z</time>
      </trkpt>
      <trkpt lat="43.34758" lon="5.92253">
        <ele>416.8</ele>
        <time>2023-04-05T15:13:41.278Z</time>
      </trkpt>
      <trkpt lat="43.3476" lon="5.92249">
        <ele>416.3</ele>
        <time>2023-04-05T15:13:41.828Z</time>
      </trkpt>
      <trkpt lat="43.34763" lon="5.92237">
        <ele>415.8</ele>
        <time>2023-04-05T15:13:43.254Z</time>
      </trkpt>
      <trkpt lat="43.34766" lon="5.92224">
        <ele>415.5</ele>
        <time>2023-04-05T15:13:44.716Z</time>
      </trkpt>
      <trkpt lat="43.34758" lon="5.9222">
        <ele>416</ele>
        <time>2023-04-05T15:13:46.121Z</time>
      </trkpt>
      <trkpt lat="43.34744" lon="5.92215">
        <ele>417.3</ele>
        <time>2023-04-05T15:13:48.243Z</time>
      </trkpt>
      <trkpt lat="43.34735" lon="5.92216">
        <ele>418.5</ele>
        <time>2023-04-05T15:13:49.706Z</time>
      </trkpt>
      <trkpt lat="43.34725" lon="5.9222">
        <ele>419.8</ele>
        <time>2023-04-05T15:13:51.206Z</time>
      </trkpt>
      <trkpt lat="43.34724" lon="5.92214">
        <ele>420.3</ele>
        <time>2023-04-05T15:13:51.906Z</time>
      </trkpt>
      <trkpt lat="43.34722" lon="5.92202">
        <ele>420.8</ele>
        <time>2023-04-05T15:13:53.233Z</time>
      </trkpt>
      <trkpt lat="43.34718" lon="5.92196">
        <ele>421.8</ele>
        <time>2023-04-05T15:13:54.102Z</time>
      </trkpt>
      <trkpt lat="43.34737" lon="5.92182">
        <ele>418.5</ele>
        <time>2023-04-05T15:13:57.405Z</time>
      </trkpt>
      <trkpt lat="43.34747" lon="5.92174">
        <ele>416.8</ele>
        <time>2023-04-05T15:13:59.155Z</time>
      </trkpt>
      <trkpt lat="43.34755" lon="5.92164">
        <ele>415.8</ele>
        <time>2023-04-05T15:14:00.813Z</time>
      </trkpt>
      <trkpt lat="43.34766" lon="5.92155">
        <ele>415.3</ele>
        <time>2023-04-05T15:14:02.874Z</time>
      </trkpt>
      <trkpt lat="43.3478" lon="5.92147">
        <ele>414.5</ele>
        <time>2023-04-05T15:14:05.108Z</time>
      </trkpt>
      <trkpt lat="43.34805" lon="5.92126">
        <ele>412.8</ele>
        <time>2023-04-05T15:14:09.631Z</time>
      </trkpt>
      <trkpt lat="43.3481" lon="5.92117">
        <ele>412.5</ele>
        <time>2023-04-05T15:14:10.921Z</time>
      </trkpt>
      <trkpt lat="43.34876" lon="5.91959">
        <ele>407</ele>
        <time>2023-04-05T15:14:31.331Z</time>
      </trkpt>
      <trkpt lat="43.34918" lon="5.91856">
        <ele>399.5</ele>
        <time>2023-04-05T15:14:44.530Z</time>
      </trkpt>
      <trkpt lat="43.34937" lon="5.91812">
        <ele>398.5</ele>
        <time>2023-04-05T15:14:50.257Z</time>
      </trkpt>
      <trkpt lat="43.34954" lon="5.91771">
        <ele>398.5</ele>
        <time>2023-04-05T15:14:55.523Z</time>
      </trkpt>
      <trkpt lat="43.34974" lon="5.91724">
        <ele>398.5</ele>
        <time>2023-04-05T15:15:01.583Z</time>
      </trkpt>
      <trkpt lat="43.35014" lon="5.91634">
        <ele>397.3</ele>
        <time>2023-04-05T15:15:13.420Z</time>
      </trkpt>
      <trkpt lat="43.35016" lon="5.91629">
        <ele>397</ele>
        <time>2023-04-05T15:15:14.117Z</time>
      </trkpt>
      <trkpt lat="43.35025" lon="5.91611">
        <ele>396.3</ele>
        <time>2023-04-05T15:15:16.490Z</time>
      </trkpt>
      <trkpt lat="43.35043" lon="5.91573">
        <ele>394</ele>
        <time>2023-04-05T15:15:21.636Z</time>
      </trkpt>
      <trkpt lat="43.35123" lon="5.91407">
        <ele>388.5</ele>
        <time>2023-04-05T15:15:43.951Z</time>
      </trkpt>
      <trkpt lat="43.35128" lon="5.91398">
        <ele>388.3</ele>
        <time>2023-04-05T15:15:45.200Z</time>
      </trkpt>
      <trkpt lat="43.35136" lon="5.91393">
        <ele>388.3</ele>
        <time>2023-04-05T15:15:46.482Z</time>
      </trkpt>
      <trkpt lat="43.35166" lon="5.91384">
        <ele>387.5</ele>
        <time>2023-04-05T15:15:51.171Z</time>
      </trkpt>
      <trkpt lat="43.35177" lon="5.91378">
        <ele>387.3</ele>
        <time>2023-04-05T15:15:52.980Z</time>
      </trkpt>
      <trkpt lat="43.35243" lon="5.91326">
        <ele>387</ele>
        <time>2023-04-05T15:16:04.776Z</time>
      </trkpt>
      <trkpt lat="43.35257" lon="5.91318">
        <ele>386.8</ele>
        <time>2023-04-05T15:16:07.090Z</time>
      </trkpt>
      <trkpt lat="43.35309" lon="5.91292">
        <ele>386.5</ele>
        <time>2023-04-05T15:16:15.583Z</time>
      </trkpt>
      <trkpt lat="43.35319" lon="5.91294">
        <ele>386.5</ele>
        <time>2023-04-05T15:16:17.242Z</time>
      </trkpt>
      <trkpt lat="43.3534" lon="5.913">
        <ele>386.5</ele>
        <time>2023-04-05T15:16:20.531Z</time>
      </trkpt>
      <trkpt lat="43.35366" lon="5.91319">
        <ele>386.3</ele>
        <time>2023-04-05T15:16:25.086Z</time>
      </trkpt>
      <trkpt lat="43.35388" lon="5.91341">
        <ele>386.3</ele>
        <time>2023-04-05T15:16:29.293Z</time>
      </trkpt>
      <trkpt lat="43.35396" lon="5.91348">
        <ele>386.5</ele>
        <time>2023-04-05T15:16:30.727Z</time>
      </trkpt>
      <trkpt lat="43.35411" lon="5.91356">
        <ele>386.5</ele>
        <time>2023-04-05T15:16:33.210Z</time>
      </trkpt>
      <trkpt lat="43.35433" lon="5.91362">
        <ele>386</ele>
        <time>2023-04-05T15:16:36.537Z</time>
      </trkpt>
      <trkpt lat="43.35517" lon="5.91376">
        <ele>382.5</ele>
        <time>2023-04-05T15:16:49.692Z</time>
      </trkpt>
      <trkpt lat="43.35544" lon="5.91381">
        <ele>380.8</ele>
        <time>2023-04-05T15:16:53.850Z</time>
      </trkpt>
      <trkpt lat="43.35626" lon="5.91397">
        <ele>377</ele>
        <time>2023-04-05T15:17:06.541Z</time>
      </trkpt>
      <trkpt lat="43.35937" lon="5.91454">
        <ele>370.3</ele>
        <time>2023-04-05T15:17:54.878Z</time>
      </trkpt>
      <trkpt lat="43.35956" lon="5.91458">
        <ele>370.3</ele>
        <time>2023-04-05T15:17:57.829Z</time>
      </trkpt>
      <trkpt lat="43.36029" lon="5.91469">
        <ele>372.3</ele>
        <time>2023-04-05T15:18:09.199Z</time>
      </trkpt>
      <trkpt lat="43.36058" lon="5.91474">
        <ele>374</ele>
        <time>2023-04-05T15:18:13.698Z</time>
      </trkpt>
      <trkpt lat="43.36133" lon="5.91489">
        <ele>374.8</ele>
        <time>2023-04-05T15:18:25.310Z</time>
      </trkpt>
      <trkpt lat="43.36158" lon="5.9149">
        <ele>374.5</ele>
        <time>2023-04-05T15:18:29.207Z</time>
      </trkpt>
      <trkpt lat="43.36183" lon="5.91488">
        <ele>372.3</ele>
        <time>2023-04-05T15:18:33.003Z</time>
      </trkpt>
      <trkpt lat="43.3621" lon="5.91479">
        <ele>369.5</ele>
        <time>2023-04-05T15:18:37.276Z</time>
      </trkpt>
      <trkpt lat="43.36357" lon="5.91396">
        <ele>365.5</ele>
        <time>2023-04-05T15:19:01.716Z</time>
      </trkpt>
      <trkpt lat="43.36375" lon="5.91385">
        <ele>365</ele>
        <time>2023-04-05T15:19:04.766Z</time>
      </trkpt>
      <trkpt lat="43.36428" lon="5.91356">
        <ele>363</ele>
        <time>2023-04-05T15:19:13.509Z</time>
      </trkpt>
      <trkpt lat="43.36441" lon="5.91349">
        <ele>363.3</ele>
        <time>2023-04-05T15:19:15.660Z</time>
      </trkpt>
      <trkpt lat="43.3646" lon="5.91338">
        <ele>363.5</ele>
        <time>2023-04-05T15:19:18.899Z</time>
      </trkpt>
      <trkpt lat="43.36471" lon="5.91331">
        <ele>363.5</ele>
        <time>2023-04-05T15:19:20.747Z</time>
      </trkpt>
      <trkpt lat="43.36497" lon="5.91317">
        <ele>364</ele>
        <time>2023-04-05T15:19:25.069Z</time>
      </trkpt>
      <trkpt lat="43.36517" lon="5.91309">
        <ele>365.3</ele>
        <time>2023-04-05T15:19:28.266Z</time>
      </trkpt>
      <trkpt lat="43.3653" lon="5.91301">
        <ele>366.3</ele>
        <time>2023-04-05T15:19:30.469Z</time>
      </trkpt>
      <trkpt lat="43.36539" lon="5.91296">
        <ele>366.8</ele>
        <time>2023-04-05T15:19:31.943Z</time>
      </trkpt>
      <trkpt lat="43.3656" lon="5.91277">
        <ele>368</ele>
        <time>2023-04-05T15:19:35.819Z</time>
      </trkpt>
      <trkpt lat="43.36576" lon="5.91248">
        <ele>368.5</ele>
        <time>2023-04-05T15:19:39.884Z</time>
      </trkpt>
      <trkpt lat="43.36618" lon="5.91161">
        <ele>372</ele>
        <time>2023-04-05T15:19:51.617Z</time>
      </trkpt>
      <trkpt lat="43.36621" lon="5.91156">
        <ele>372</ele>
        <time>2023-04-05T15:19:52.305Z</time>
      </trkpt>
      <trkpt lat="43.36639" lon="5.9113">
        <ele>373.3</ele>
        <time>2023-04-05T15:19:56.323Z</time>
      </trkpt>
      <trkpt lat="43.36674" lon="5.91086">
        <ele>375</ele>
        <time>2023-04-05T15:20:03.623Z</time>
      </trkpt>
      <trkpt lat="43.36731" lon="5.91019">
        <ele>377.3</ele>
        <time>2023-04-05T15:20:15.166Z</time>
      </trkpt>
      <trkpt lat="43.36815" lon="5.90919">
        <ele>384</ele>
        <time>2023-04-05T15:20:32.211Z</time>
      </trkpt>
      <trkpt lat="43.36875" lon="5.90872">
        <ele>387.8</ele>
        <time>2023-04-05T15:20:42.927Z</time>
      </trkpt>
      <trkpt lat="43.36903" lon="5.90838">
        <ele>390.3</ele>
        <time>2023-04-05T15:20:48.677Z</time>
      </trkpt>
      <trkpt lat="43.36916" lon="5.90821">
        <ele>391.3</ele>
        <time>2023-04-05T15:20:51.428Z</time>
      </trkpt>
      <trkpt lat="43.36931" lon="5.90808">
        <ele>392.3</ele>
        <time>2023-04-05T15:20:54.236Z</time>
      </trkpt>
      <trkpt lat="43.36937" lon="5.90804">
        <ele>392.5</ele>
        <time>2023-04-05T15:20:55.127Z</time>
      </trkpt>
      <trkpt lat="43.3695" lon="5.90797">
        <ele>393</ele>
        <time>2023-04-05T15:20:57.338Z</time>
      </trkpt>
      <trkpt lat="43.3697" lon="5.9079">
        <ele>393.8</ele>
        <time>2023-04-05T15:21:00.562Z</time>
      </trkpt>
      <trkpt lat="43.37" lon="5.9078">
        <ele>394.5</ele>
        <time>2023-04-05T15:21:05.309Z</time>
      </trkpt>
      <trkpt lat="43.37017" lon="5.9077">
        <ele>395</ele>
        <time>2023-04-05T15:21:08.146Z</time>
      </trkpt>
      <trkpt lat="43.37043" lon="5.90747">
        <ele>396</ele>
        <time>2023-04-05T15:21:12.846Z</time>
      </trkpt>
      <trkpt lat="43.3706" lon="5.90732">
        <ele>396.5</ele>
        <time>2023-04-05T15:21:16.008Z</time>
      </trkpt>
      <trkpt lat="43.37113" lon="5.90665">
        <ele>397</ele>
        <time>2023-04-05T15:21:27.063Z</time>
      </trkpt>
      <trkpt lat="43.37132" lon="5.90642">
        <ele>397</ele>
        <time>2023-04-05T15:21:30.959Z</time>
      </trkpt>
      <trkpt lat="43.37158" lon="5.90604">
        <ele>397</ele>
        <time>2023-04-05T15:21:36.799Z</time>
      </trkpt>
      <trkpt lat="43.37187" lon="5.90565">
        <ele>399.5</ele>
        <time>2023-04-05T15:21:43.063Z</time>
      </trkpt>
      <trkpt lat="43.3722" lon="5.90519">
        <ele>403.5</ele>
        <time>2023-04-05T15:21:50.213Z</time>
      </trkpt>
      <trkpt lat="43.37234" lon="5.90498">
        <ele>405</ele>
        <time>2023-04-05T15:21:53.454Z</time>
      </trkpt>
      <trkpt lat="43.37253" lon="5.90471">
        <ele>406</ele>
        <time>2023-04-05T15:21:57.652Z</time>
      </trkpt>
      <trkpt lat="43.37263" lon="5.90455">
        <ele>407</ele>
        <time>2023-04-05T15:22:00.052Z</time>
      </trkpt>
      <trkpt lat="43.37277" lon="5.90432">
        <ele>408.3</ele>
        <time>2023-04-05T15:22:03.426Z</time>
      </trkpt>
      <trkpt lat="43.37288" lon="5.90409">
        <ele>409.3</ele>
        <time>2023-04-05T15:22:06.458Z</time>
      </trkpt>
      <trkpt lat="43.37292" lon="5.90387">
        <ele>410.3</ele>
        <time>2023-04-05T15:22:09.056Z</time>
      </trkpt>
      <trkpt lat="43.37293" lon="5.90328">
        <ele>411.8</ele>
        <time>2023-04-05T15:22:15.593Z</time>
      </trkpt>
      <trkpt lat="43.37292" lon="5.90216">
        <ele>416</ele>
        <time>2023-04-05T15:22:28.197Z</time>
      </trkpt>
      <trkpt lat="43.37294" lon="5.90199">
        <ele>416.5</ele>
        <time>2023-04-05T15:22:30.113Z</time>
      </trkpt>
      <trkpt lat="43.373" lon="5.90181">
        <ele>417.8</ele>
        <time>2023-04-05T15:22:32.288Z</time>
      </trkpt>
      <trkpt lat="43.37325" lon="5.90136">
        <ele>421</ele>
        <time>2023-04-05T15:22:38.755Z</time>
      </trkpt>
      <trkpt lat="43.37327" lon="5.90113">
        <ele>421.5</ele>
        <time>2023-04-05T15:22:41.303Z</time>
      </trkpt>
      <trkpt lat="43.3732" lon="5.90095">
        <ele>421.5</ele>
        <time>2023-04-05T15:22:43.556Z</time>
      </trkpt>
      <trkpt lat="43.37289" lon="5.90075">
        <ele>419.5</ele>
        <time>2023-04-05T15:22:48.822Z</time>
      </trkpt>
      <trkpt lat="43.37283" lon="5.90069">
        <ele>419.3</ele>
        <time>2023-04-05T15:22:49.907Z</time>
      </trkpt>
      <trkpt lat="43.37279" lon="5.90052">
        <ele>419.3</ele>
        <time>2023-04-05T15:22:51.953Z</time>
      </trkpt>
      <trkpt lat="43.37279" lon="5.90037">
        <ele>419.8</ele>
        <time>2023-04-05T15:22:53.689Z</time>
      </trkpt>
      <trkpt lat="43.37287" lon="5.90015">
        <ele>421.5</ele>
        <time>2023-04-05T15:22:56.401Z</time>
      </trkpt>
      <trkpt lat="43.37294" lon="5.89999">
        <ele>423.3</ele>
        <time>2023-04-05T15:22:58.513Z</time>
      </trkpt>
      <trkpt lat="43.37305" lon="5.8999">
        <ele>425.3</ele>
        <time>2023-04-05T15:23:00.381Z</time>
      </trkpt>
      <trkpt lat="43.37315" lon="5.89989">
        <ele>426.8</ele>
        <time>2023-04-05T15:23:01.990Z</time>
      </trkpt>
      <trkpt lat="43.37331" lon="5.90002">
        <ele>428.5</ele>
        <time>2023-04-05T15:23:04.875Z</time>
      </trkpt>
      <trkpt lat="43.3735" lon="5.90011">
        <ele>428.8</ele>
        <time>2023-04-05T15:23:07.968Z</time>
      </trkpt>
      <trkpt lat="43.37361" lon="5.90012">
        <ele>429</ele>
        <time>2023-04-05T15:23:09.665Z</time>
      </trkpt>
      <trkpt lat="43.37382" lon="5.9001">
        <ele>430</ele>
        <time>2023-04-05T15:23:12.905Z</time>
      </trkpt>
      <trkpt lat="43.37392" lon="5.90007">
        <ele>430.5</ele>
        <time>2023-04-05T15:23:14.480Z</time>
      </trkpt>
      <trkpt lat="43.37401" lon="5.90002">
        <ele>431.3</ele>
        <time>2023-04-05T15:23:15.974Z</time>
      </trkpt>
      <trkpt lat="43.37418" lon="5.89984">
        <ele>433</ele>
        <time>2023-04-05T15:23:19.276Z</time>
      </trkpt>
      <trkpt lat="43.3746" lon="5.89919">
        <ele>438.3</ele>
        <time>2023-04-05T15:23:29.008Z</time>
      </trkpt>
      <trkpt lat="43.37473" lon="5.89902">
        <ele>439</ele>
        <time>2023-04-05T15:23:31.769Z</time>
      </trkpt>
      <trkpt lat="43.3748" lon="5.89897">
        <ele>439.3</ele>
        <time>2023-04-05T15:23:32.983Z</time>
      </trkpt>
      <trkpt lat="43.37495" lon="5.89892">
        <ele>439.5</ele>
        <time>2023-04-05T15:23:35.359Z</time>
      </trkpt>
      <trkpt lat="43.37511" lon="5.89895">
        <ele>440.3</ele>
        <time>2023-04-05T15:23:37.845Z</time>
      </trkpt>
      <trkpt lat="43.37536" lon="5.89902">
        <ele>442.3</ele>
        <time>2023-04-05T15:23:41.695Z</time>
      </trkpt>
      <trkpt lat="43.37542" lon="5.89908">
        <ele>442.5</ele>
        <time>2023-04-05T15:23:42.837Z</time>
      </trkpt>
      <trkpt lat="43.37546" lon="5.89915">
        <ele>442.8</ele>
        <time>2023-04-05T15:23:43.833Z</time>
      </trkpt>
      <trkpt lat="43.37549" lon="5.89925">
        <ele>442.8</ele>
        <time>2023-04-05T15:23:45.043Z</time>
      </trkpt>
      <trkpt lat="43.37546" lon="5.8999">
        <ele>441</ele>
        <time>2023-04-05T15:23:52.381Z</time>
      </trkpt>
      <trkpt lat="43.3755" lon="5.89999">
        <ele>441</ele>
        <time>2023-04-05T15:23:53.520Z</time>
      </trkpt>
      <trkpt lat="43.37559" lon="5.90014">
        <ele>441.8</ele>
        <time>2023-04-05T15:23:55.696Z</time>
      </trkpt>
      <trkpt lat="43.37573" lon="5.9002">
        <ele>442.8</ele>
        <time>2023-04-05T15:23:57.953Z</time>
      </trkpt>
      <trkpt lat="43.37583" lon="5.90017">
        <ele>443.5</ele>
        <time>2023-04-05T15:23:59.528Z</time>
      </trkpt>
      <trkpt lat="43.37591" lon="5.90011">
        <ele>444</ele>
        <time>2023-04-05T15:24:00.930Z</time>
      </trkpt>
      <trkpt lat="43.37615" lon="5.89982">
        <ele>445.8</ele>
        <time>2023-04-05T15:24:05.946Z</time>
      </trkpt>
      <trkpt lat="43.3766" lon="5.89948">
        <ele>448.8</ele>
        <time>2023-04-05T15:24:13.769Z</time>
      </trkpt>
      <trkpt lat="43.37679" lon="5.89932">
        <ele>448.8</ele>
        <time>2023-04-05T15:24:17.252Z</time>
      </trkpt>
      <trkpt lat="43.37708" lon="5.89894">
        <ele>448</ele>
        <time>2023-04-05T15:24:23.319Z</time>
      </trkpt>
      <trkpt lat="43.37831" lon="5.89755">
        <ele>444</ele>
        <time>2023-04-05T15:24:47.963Z</time>
      </trkpt>
      <trkpt lat="43.3787" lon="5.8971">
        <ele>445.5</ele>
        <time>2023-04-05T15:24:55.702Z</time>
      </trkpt>
      <trkpt lat="43.37892" lon="5.89685">
        <ele>446</ele>
        <time>2023-04-05T15:25:00.097Z</time>
      </trkpt>
      <trkpt lat="43.37904" lon="5.89668">
        <ele>446.3</ele>
        <time>2023-04-05T15:25:02.842Z</time>
      </trkpt>
      <trkpt lat="43.3792" lon="5.89639">
        <ele>446.5</ele>
        <time>2023-04-05T15:25:06.788Z</time>
      </trkpt>
      <trkpt lat="43.37933" lon="5.89604">
        <ele>446.5</ele>
        <time>2023-04-05T15:25:11.220Z</time>
      </trkpt>
      <trkpt lat="43.37952" lon="5.89545">
        <ele>444</ele>
        <time>2023-04-05T15:25:18.493Z</time>
      </trkpt>
      <trkpt lat="43.37971" lon="5.89487">
        <ele>440.5</ele>
        <time>2023-04-05T15:25:25.584Z</time>
      </trkpt>
      <trkpt lat="43.37982" lon="5.89457">
        <ele>438.3</ele>
        <time>2023-04-05T15:25:29.366Z</time>
      </trkpt>
      <trkpt lat="43.37988" lon="5.8945">
        <ele>437.5</ele>
        <time>2023-04-05T15:25:30.497Z</time>
      </trkpt>
      <trkpt lat="43.37991" lon="5.89449">
        <ele>436.8</ele>
        <time>2023-04-05T15:25:31.079Z</time>
      </trkpt>
      <trkpt lat="43.38" lon="5.8945">
        <ele>435.5</ele>
        <time>2023-04-05T15:25:32.470Z</time>
      </trkpt>
      <trkpt lat="43.38006" lon="5.89457">
        <ele>434.5</ele>
        <time>2023-04-05T15:25:33.729Z</time>
      </trkpt>
      <trkpt lat="43.38009" lon="5.89467">
        <ele>434</ele>
        <time>2023-04-05T15:25:34.898Z</time>
      </trkpt>
      <trkpt lat="43.3801" lon="5.89486">
        <ele>434.5</ele>
        <time>2023-04-05T15:25:37.058Z</time>
      </trkpt>
      <trkpt lat="43.38007" lon="5.89509">
        <ele>435.8</ele>
        <time>2023-04-05T15:25:39.644Z</time>
      </trkpt>
      <trkpt lat="43.38007" lon="5.89532">
        <ele>437</ele>
        <time>2023-04-05T15:25:42.139Z</time>
      </trkpt>
      <trkpt lat="43.38012" lon="5.89544">
        <ele>436.8</ele>
        <time>2023-04-05T15:25:43.735Z</time>
      </trkpt>
      <trkpt lat="43.38023" lon="5.89561">
        <ele>435.5</ele>
        <time>2023-04-05T15:25:46.281Z</time>
      </trkpt>
      <trkpt lat="43.38051" lon="5.89577">
        <ele>431.8</ele>
        <time>2023-04-05T15:25:50.948Z</time>
      </trkpt>
      <trkpt lat="43.38084" lon="5.89589">
        <ele>428</ele>
        <time>2023-04-05T15:25:56.203Z</time>
      </trkpt>
      <trkpt lat="43.38132" lon="5.89614">
        <ele>425.8</ele>
        <time>2023-04-05T15:26:04.104Z</time>
      </trkpt>
      <trkpt lat="43.38142" lon="5.89621">
        <ele>425.3</ele>
        <time>2023-04-05T15:26:05.831Z</time>
      </trkpt>
      <trkpt lat="43.38161" lon="5.89637">
        <ele>425</ele>
        <time>2023-04-05T15:26:09.215Z</time>
      </trkpt>
      <trkpt lat="43.38177" lon="5.89653">
        <ele>423.8</ele>
        <time>2023-04-05T15:26:12.317Z</time>
      </trkpt>
      <trkpt lat="43.38195" lon="5.89681">
        <ele>422.5</ele>
        <time>2023-04-05T15:26:16.407Z</time>
      </trkpt>
      <trkpt lat="43.38206" lon="5.89705">
        <ele>422</ele>
        <time>2023-04-05T15:26:19.596Z</time>
      </trkpt>
      <trkpt lat="43.38219" lon="5.89751">
        <ele>423.5</ele>
        <time>2023-04-05T15:26:25.175Z</time>
      </trkpt>
      <trkpt lat="43.38232" lon="5.89817">
        <ele>422.8</ele>
        <time>2023-04-05T15:26:32.849Z</time>
      </trkpt>
      <trkpt lat="43.38238" lon="5.89836">
        <ele>421.8</ele>
        <time>2023-04-05T15:26:35.074Z</time>
      </trkpt>
      <trkpt lat="43.38246" lon="5.8986">
        <ele>419.5</ele>
        <time>2023-04-05T15:26:38.018Z</time>
      </trkpt>
      <trkpt lat="43.38259" lon="5.89895">
        <ele>418.5</ele>
        <time>2023-04-05T15:26:42.523Z</time>
      </trkpt>
      <trkpt lat="43.38264" lon="5.89905">
        <ele>418.3</ele>
        <time>2023-04-05T15:26:43.889Z</time>
      </trkpt>
      <trkpt lat="43.3827" lon="5.89911">
        <ele>417.8</ele>
        <time>2023-04-05T15:26:44.998Z</time>
      </trkpt>
      <trkpt lat="43.38278" lon="5.89912">
        <ele>417.3</ele>
        <time>2023-04-05T15:26:46.210Z</time>
      </trkpt>
      <trkpt lat="43.38284" lon="5.89911">
        <ele>416.8</ele>
        <time>2023-04-05T15:26:47.120Z</time>
      </trkpt>
      <trkpt lat="43.38291" lon="5.89903">
        <ele>416.3</ele>
        <time>2023-04-05T15:26:48.497Z</time>
      </trkpt>
      <trkpt lat="43.38294" lon="5.89894">
        <ele>416</ele>
        <time>2023-04-05T15:26:49.572Z</time>
      </trkpt>
      <trkpt lat="43.38296" lon="5.89882">
        <ele>416.3</ele>
        <time>2023-04-05T15:26:50.949Z</time>
      </trkpt>
      <trkpt lat="43.38296" lon="5.89864">
        <ele>416.8</ele>
        <time>2023-04-05T15:26:52.997Z</time>
      </trkpt>
      <trkpt lat="43.38291" lon="5.89798">
        <ele>415.8</ele>
        <time>2023-04-05T15:27:00.408Z</time>
      </trkpt>
      <trkpt lat="43.38283" lon="5.89725">
        <ele>411</ele>
        <time>2023-04-05T15:27:08.726Z</time>
      </trkpt>
      <trkpt lat="43.3827" lon="5.89598">
        <ele>404</ele>
        <time>2023-04-05T15:27:23.024Z</time>
      </trkpt>
      <trkpt lat="43.38267" lon="5.89559">
        <ele>402.3</ele>
        <time>2023-04-05T15:27:27.386Z</time>
      </trkpt>
      <trkpt lat="43.38271" lon="5.89533">
        <ele>400.8</ele>
        <time>2023-04-05T15:27:30.444Z</time>
      </trkpt>
      <trkpt lat="43.38306" lon="5.8942">
        <ele>396</ele>
        <time>2023-04-05T15:27:44.160Z</time>
      </trkpt>
      <trkpt lat="43.38317" lon="5.89395">
        <ele>394.3</ele>
        <time>2023-04-05T15:27:47.393Z</time>
      </trkpt>
      <trkpt lat="43.38329" lon="5.89378">
        <ele>392.8</ele>
        <time>2023-04-05T15:27:50.004Z</time>
      </trkpt>
      <trkpt lat="43.38346" lon="5.89357">
        <ele>390.8</ele>
        <time>2023-04-05T15:27:53.604Z</time>
      </trkpt>
      <trkpt lat="43.38465" lon="5.89221">
        <ele>386.5</ele>
        <time>2023-04-05T15:28:17.316Z</time>
      </trkpt>
      <trkpt lat="43.38529" lon="5.8915">
        <ele>384</ele>
        <time>2023-04-05T15:28:29.954Z</time>
      </trkpt>
      <trkpt lat="43.38564" lon="5.8911">
        <ele>382.3</ele>
        <time>2023-04-05T15:28:37.039Z</time>
      </trkpt>
      <trkpt lat="43.38572" lon="5.891">
        <ele>381.8</ele>
        <time>2023-04-05T15:28:38.703Z</time>
      </trkpt>
      <trkpt lat="43.38577" lon="5.89094">
        <ele>381.3</ele>
        <time>2023-04-05T15:28:39.788Z</time>
      </trkpt>
      <trkpt lat="43.38668" lon="5.88989">
        <ele>379</ele>
        <time>2023-04-05T15:28:58.010Z</time>
      </trkpt>
      <trkpt lat="43.38677" lon="5.8898">
        <ele>378.8</ele>
        <time>2023-04-05T15:28:59.748Z</time>
      </trkpt>
      <trkpt lat="43.38684" lon="5.88975">
        <ele>378.5</ele>
        <time>2023-04-05T15:29:00.926Z</time>
      </trkpt>
      <trkpt lat="43.38691" lon="5.8897">
        <ele>378.3</ele>
        <time>2023-04-05T15:29:02.087Z</time>
      </trkpt>
      <trkpt lat="43.38697" lon="5.88968">
        <ele>378</ele>
        <time>2023-04-05T15:29:03.126Z</time>
      </trkpt>
      <trkpt lat="43.38709" lon="5.88966">
        <ele>377.8</ele>
        <time>2023-04-05T15:29:04.956Z</time>
      </trkpt>
      <trkpt lat="43.38804" lon="5.88987">
        <ele>372.8</ele>
        <time>2023-04-05T15:29:19.743Z</time>
      </trkpt>
      <trkpt lat="43.38865" lon="5.88999">
        <ele>371.3</ele>
        <time>2023-04-05T15:29:29.306Z</time>
      </trkpt>
      <trkpt lat="43.38915" lon="5.89005">
        <ele>371.8</ele>
        <time>2023-04-05T15:29:36.943Z</time>
      </trkpt>
      <trkpt lat="43.39027" lon="5.89018">
        <ele>370</ele>
        <time>2023-04-05T15:29:54.263Z</time>
      </trkpt>
      <trkpt lat="43.39057" lon="5.89021">
        <ele>369.3</ele>
        <time>2023-04-05T15:29:58.858Z</time>
      </trkpt>
      <trkpt lat="43.3908" lon="5.89018">
        <ele>368.8</ele>
        <time>2023-04-05T15:30:02.469Z</time>
      </trkpt>
      <trkpt lat="43.39104" lon="5.89013">
        <ele>368.3</ele>
        <time>2023-04-05T15:30:06.285Z</time>
      </trkpt>
      <trkpt lat="43.39149" lon="5.89001">
        <ele>367.3</ele>
        <time>2023-04-05T15:30:13.268Z</time>
      </trkpt>
      <trkpt lat="43.39182" lon="5.88994">
        <ele>366</ele>
        <time>2023-04-05T15:30:18.373Z</time>
      </trkpt>
      <trkpt lat="43.39211" lon="5.88992">
        <ele>364.5</ele>
        <time>2023-04-05T15:30:22.814Z</time>
      </trkpt>
      <trkpt lat="43.3923" lon="5.88988">
        <ele>363.3</ele>
        <time>2023-04-05T15:30:25.883Z</time>
      </trkpt>
      <trkpt lat="43.39246" lon="5.8898">
        <ele>362.3</ele>
        <time>2023-04-05T15:30:28.438Z</time>
      </trkpt>
      <trkpt lat="43.39257" lon="5.88972">
        <ele>361.3</ele>
        <time>2023-04-05T15:30:30.447Z</time>
      </trkpt>
      <trkpt lat="43.39267" lon="5.8896">
        <ele>360.5</ele>
        <time>2023-04-05T15:30:32.466Z</time>
      </trkpt>
      <trkpt lat="43.39276" lon="5.88944">
        <ele>359.8</ele>
        <time>2023-04-05T15:30:34.689Z</time>
      </trkpt>
      <trkpt lat="43.39286" lon="5.88928">
        <ele>359</ele>
        <time>2023-04-05T15:30:37.051Z</time>
      </trkpt>
      <trkpt lat="43.39296" lon="5.88907">
        <ele>358.8</ele>
        <time>2023-04-05T15:30:39.804Z</time>
      </trkpt>
      <trkpt lat="43.39315" lon="5.88868">
        <ele>358.5</ele>
        <time>2023-04-05T15:30:45.104Z</time>
      </trkpt>
      <trkpt lat="43.39344" lon="5.88779">
        <ele>356.3</ele>
        <time>2023-04-05T15:30:56.006Z</time>
      </trkpt>
      <trkpt lat="43.39354" lon="5.88757">
        <ele>355.5</ele>
        <time>2023-04-05T15:30:58.832Z</time>
      </trkpt>
      <trkpt lat="43.39364" lon="5.8874">
        <ele>355.3</ele>
        <time>2023-04-05T15:31:01.335Z</time>
      </trkpt>
      <trkpt lat="43.39375" lon="5.88723">
        <ele>355</ele>
        <time>2023-04-05T15:31:03.893Z</time>
      </trkpt>
      <trkpt lat="43.39402" lon="5.88697">
        <ele>353.5</ele>
        <time>2023-04-05T15:31:08.992Z</time>
      </trkpt>
      <trkpt lat="43.39421" lon="5.88681">
        <ele>352</ele>
        <time>2023-04-05T15:31:12.350Z</time>
      </trkpt>
      <trkpt lat="43.3946" lon="5.88647">
        <ele>349.3</ele>
        <time>2023-04-05T15:31:19.523Z</time>
      </trkpt>
      <trkpt lat="43.39537" lon="5.88578">
        <ele>347.5</ele>
        <time>2023-04-05T15:31:33.618Z</time>
      </trkpt>
      <trkpt lat="43.39571" lon="5.8855">
        <ele>346.8</ele>
        <time>2023-04-05T15:31:39.753Z</time>
      </trkpt>
      <trkpt lat="43.39604" lon="5.88524">
        <ele>345.8</ele>
        <time>2023-04-05T15:31:45.523Z</time>
      </trkpt>
      <trkpt lat="43.39639" lon="5.88503">
        <ele>345.5</ele>
        <time>2023-04-05T15:31:51.402Z</time>
      </trkpt>
      <trkpt lat="43.39679" lon="5.88487">
        <ele>344.5</ele>
        <time>2023-04-05T15:31:57.887Z</time>
      </trkpt>
      <trkpt lat="43.3972" lon="5.8846">
        <ele>342</ele>
        <time>2023-04-05T15:32:04.880Z</time>
      </trkpt>
      <trkpt lat="43.39759" lon="5.88437">
        <ele>341.5</ele>
        <time>2023-04-05T15:32:11.348Z</time>
      </trkpt>
      <trkpt lat="43.39851" lon="5.88419">
        <ele>341.5</ele>
        <time>2023-04-05T15:32:25.683Z</time>
      </trkpt>
      <trkpt lat="43.39855" lon="5.88418">
        <ele>341.3</ele>
        <time>2023-04-05T15:32:26.322Z</time>
      </trkpt>
      <trkpt lat="43.3984" lon="5.88282">
        <ele>342</ele>
        <time>2023-04-05T15:32:41.654Z</time>
      </trkpt>
      <trkpt lat="43.39835" lon="5.88234">
        <ele>342.8</ele>
        <time>2023-04-05T15:32:47.061Z</time>
      </trkpt>
      <trkpt lat="43.39829" lon="5.88206">
        <ele>343</ele>
        <time>2023-04-05T15:32:50.348Z</time>
      </trkpt>
      <trkpt lat="43.39822" lon="5.88178">
        <ele>342.8</ele>
        <time>2023-04-05T15:32:53.687Z</time>
      </trkpt>
      <trkpt lat="43.39631" lon="5.87461">
        <ele>334.8</ele>
        <time>2023-04-05T15:34:19.081Z</time>
      </trkpt>
      <trkpt lat="43.39565" lon="5.87217">
        <ele>335.3</ele>
        <time>2023-04-05T15:34:48.228Z</time>
      </trkpt>
      <trkpt lat="43.39521" lon="5.87063">
        <ele>336.3</ele>
        <time>2023-04-05T15:35:06.746Z</time>
      </trkpt>
      <trkpt lat="43.39512" lon="5.87025">
        <ele>336</ele>
        <time>2023-04-05T15:35:11.179Z</time>
      </trkpt>
      <trkpt lat="43.39506" lon="5.86988">
        <ele>336.3</ele>
        <time>2023-04-05T15:35:15.423Z</time>
      </trkpt>
      <trkpt lat="43.39496" lon="5.86925">
        <ele>338.8</ele>
        <time>2023-04-05T15:35:22.694Z</time>
      </trkpt>
      <trkpt lat="43.39488" lon="5.86879">
        <ele>339.8</ele>
        <time>2023-04-05T15:35:27.898Z</time>
      </trkpt>
      <trkpt lat="43.39469" lon="5.86795">
        <ele>339.5</ele>
        <time>2023-04-05T15:35:37.780Z</time>
      </trkpt>
      <trkpt lat="43.3946" lon="5.86754">
        <ele>339.8</ele>
        <time>2023-04-05T15:35:42.603Z</time>
      </trkpt>
      <trkpt lat="43.39457" lon="5.86729">
        <ele>340.3</ele>
        <time>2023-04-05T15:35:45.470Z</time>
      </trkpt>
      <trkpt lat="43.39456" lon="5.86705">
        <ele>340.8</ele>
        <time>2023-04-05T15:35:48.160Z</time>
      </trkpt>
      <trkpt lat="43.39456" lon="5.86677">
        <ele>341</ele>
        <time>2023-04-05T15:35:51.237Z</time>
      </trkpt>
      <trkpt lat="43.39458" lon="5.8666">
        <ele>341.3</ele>
        <time>2023-04-05T15:35:53.214Z</time>
      </trkpt>
      <trkpt lat="43.39511" lon="5.86433">
        <ele>345.5</ele>
        <time>2023-04-05T15:36:19.798Z</time>
      </trkpt>
      <trkpt lat="43.39515" lon="5.86411">
        <ele>345.3</ele>
        <time>2023-04-05T15:36:22.347Z</time>
      </trkpt>
      <trkpt lat="43.39516" lon="5.8639">
        <ele>344.5</ele>
        <time>2023-04-05T15:36:24.734Z</time>
      </trkpt>
      <trkpt lat="43.39515" lon="5.86372">
        <ele>344.3</ele>
        <time>2023-04-05T15:36:26.671Z</time>
      </trkpt>
      <trkpt lat="43.39513" lon="5.86355">
        <ele>343.8</ele>
        <time>2023-04-05T15:36:28.590Z</time>
      </trkpt>
      <trkpt lat="43.39508" lon="5.86335">
        <ele>343.5</ele>
        <time>2023-04-05T15:36:31.019Z</time>
      </trkpt>
      <trkpt lat="43.395" lon="5.86308">
        <ele>343.5</ele>
        <time>2023-04-05T15:36:34.310Z</time>
      </trkpt>
      <trkpt lat="43.3947" lon="5.86252">
        <ele>344.3</ele>
        <time>2023-04-05T15:36:42.030Z</time>
      </trkpt>
      <trkpt lat="43.39455" lon="5.86219">
        <ele>345.8</ele>
        <time>2023-04-05T15:36:46.387Z</time>
      </trkpt>
      <trkpt lat="43.39446" lon="5.86189">
        <ele>347</ele>
        <time>2023-04-05T15:36:50.054Z</time>
      </trkpt>
      <trkpt lat="43.39439" lon="5.86161">
        <ele>348</ele>
        <time>2023-04-05T15:36:53.336Z</time>
      </trkpt>
      <trkpt lat="43.39425" lon="5.86088">
        <ele>350.8</ele>
        <time>2023-04-05T15:37:01.789Z</time>
      </trkpt>
      <trkpt lat="43.39408" lon="5.86001">
        <ele>355</ele>
        <time>2023-04-05T15:37:11.860Z</time>
      </trkpt>
      <trkpt lat="43.39402" lon="5.8597">
        <ele>356</ele>
        <time>2023-04-05T15:37:15.393Z</time>
      </trkpt>
      <trkpt lat="43.39398" lon="5.85941">
        <ele>356.8</ele>
        <time>2023-04-05T15:37:18.701Z</time>
      </trkpt>
      <trkpt lat="43.39396" lon="5.85908">
        <ele>357.5</ele>
        <time>2023-04-05T15:37:22.462Z</time>
      </trkpt>
      <trkpt lat="43.39396" lon="5.85874">
        <ele>357.8</ele>
        <time>2023-04-05T15:37:26.265Z</time>
      </trkpt>
      <trkpt lat="43.39398" lon="5.85824">
        <ele>358</ele>
        <time>2023-04-05T15:37:31.891Z</time>
      </trkpt>
      <trkpt lat="43.39399" lon="5.85776">
        <ele>358</ele>
        <time>2023-04-05T15:37:37.261Z</time>
      </trkpt>
      <trkpt lat="43.39398" lon="5.85722">
        <ele>358.3</ele>
        <time>2023-04-05T15:37:43.247Z</time>
      </trkpt>
      <trkpt lat="43.39391" lon="5.85571">
        <ele>359.8</ele>
        <time>2023-04-05T15:38:00.249Z</time>
      </trkpt>
      <trkpt lat="43.39386" lon="5.85453">
        <ele>360</ele>
        <time>2023-04-05T15:38:13.423Z</time>
      </trkpt>
      <trkpt lat="43.39385" lon="5.85403">
        <ele>358.5</ele>
        <time>2023-04-05T15:38:19.064Z</time>
      </trkpt>
      <trkpt lat="43.39385" lon="5.85371">
        <ele>357.3</ele>
        <time>2023-04-05T15:38:22.623Z</time>
      </trkpt>
      <trkpt lat="43.39392" lon="5.85258">
        <ele>354.5</ele>
        <time>2023-04-05T15:38:35.289Z</time>
      </trkpt>
      <trkpt lat="43.39403" lon="5.85165">
        <ele>355.3</ele>
        <time>2023-04-05T15:38:45.842Z</time>
      </trkpt>
      <trkpt lat="43.39404" lon="5.85136">
        <ele>355.5</ele>
        <time>2023-04-05T15:38:49.071Z</time>
      </trkpt>
      <trkpt lat="43.39405" lon="5.85122">
        <ele>355.8</ele>
        <time>2023-04-05T15:38:50.595Z</time>
      </trkpt>
      <trkpt lat="43.39405" lon="5.85107">
        <ele>355.8</ele>
        <time>2023-04-05T15:38:52.295Z</time>
      </trkpt>
      <trkpt lat="43.39404" lon="5.85052">
        <ele>356</ele>
        <time>2023-04-05T15:38:58.484Z</time>
      </trkpt>
      <trkpt lat="43.39402" lon="5.85034">
        <ele>356.3</ele>
        <time>2023-04-05T15:39:00.534Z</time>
      </trkpt>
      <trkpt lat="43.39387" lon="5.84941">
        <ele>356.3</ele>
        <time>2023-04-05T15:39:11.129Z</time>
      </trkpt>
      <trkpt lat="43.39327" lon="5.84562">
        <ele>357</ele>
        <time>2023-04-05T15:39:54.530Z</time>
      </trkpt>
      <trkpt lat="43.39323" lon="5.84537">
        <ele>358</ele>
        <time>2023-04-05T15:39:57.458Z</time>
      </trkpt>
      <trkpt lat="43.39321" lon="5.84522">
        <ele>358.5</ele>
        <time>2023-04-05T15:39:59.132Z</time>
      </trkpt>
      <trkpt lat="43.393" lon="5.84393">
        <ele>360.8</ele>
        <time>2023-04-05T15:40:13.898Z</time>
      </trkpt>
      <trkpt lat="43.39295" lon="5.84359">
        <ele>359.5</ele>
        <time>2023-04-05T15:40:17.838Z</time>
      </trkpt>
      <trkpt lat="43.39242" lon="5.84158">
        <ele>354</ele>
        <time>2023-04-05T15:40:41.707Z</time>
      </trkpt>
      <trkpt lat="43.39237" lon="5.84132">
        <ele>354</ele>
        <time>2023-04-05T15:40:44.709Z</time>
      </trkpt>
      <trkpt lat="43.39232" lon="5.84096">
        <ele>353.8</ele>
        <time>2023-04-05T15:40:48.806Z</time>
      </trkpt>
      <trkpt lat="43.39222" lon="5.84012">
        <ele>354.5</ele>
        <time>2023-04-05T15:40:58.381Z</time>
      </trkpt>
      <trkpt lat="43.39221" lon="5.8399">
        <ele>354.5</ele>
        <time>2023-04-05T15:41:00.775Z</time>
      </trkpt>
      <trkpt lat="43.39226" lon="5.83865">
        <ele>356</ele>
        <time>2023-04-05T15:41:14.848Z</time>
      </trkpt>
      <trkpt lat="43.39225" lon="5.83835">
        <ele>356.5</ele>
        <time>2023-04-05T15:41:18.230Z</time>
      </trkpt>
      <trkpt lat="43.39219" lon="5.83732">
        <ele>355.5</ele>
        <time>2023-04-05T15:41:29.706Z</time>
      </trkpt>
      <trkpt lat="43.3922" lon="5.83699">
        <ele>354</ele>
        <time>2023-04-05T15:41:33.379Z</time>
      </trkpt>
      <trkpt lat="43.39225" lon="5.83672">
        <ele>352.8</ele>
        <time>2023-04-05T15:41:36.508Z</time>
      </trkpt>
      <trkpt lat="43.39233" lon="5.83626">
        <ele>352.5</ele>
        <time>2023-04-05T15:41:41.803Z</time>
      </trkpt>
      <trkpt lat="43.39235" lon="5.83591">
        <ele>352.5</ele>
        <time>2023-04-05T15:41:45.704Z</time>
      </trkpt>
      <trkpt lat="43.39237" lon="5.83546">
        <ele>353.5</ele>
        <time>2023-04-05T15:41:50.767Z</time>
      </trkpt>
      <trkpt lat="43.39238" lon="5.83479">
        <ele>355.8</ele>
        <time>2023-04-05T15:41:58.252Z</time>
      </trkpt>
      <trkpt lat="43.39239" lon="5.83408">
        <ele>355.5</ele>
        <time>2023-04-05T15:42:06.243Z</time>
      </trkpt>
      <trkpt lat="43.39242" lon="5.83289">
        <ele>355.5</ele>
        <time>2023-04-05T15:42:19.540Z</time>
      </trkpt>
      <trkpt lat="43.39242" lon="5.83249">
        <ele>354.8</ele>
        <time>2023-04-05T15:42:24.004Z</time>
      </trkpt>
      <trkpt lat="43.39234" lon="5.83087">
        <ele>351.3</ele>
        <time>2023-04-05T15:42:42.211Z</time>
      </trkpt>
      <trkpt lat="43.39232" lon="5.82965">
        <ele>348.8</ele>
        <time>2023-04-05T15:42:55.786Z</time>
      </trkpt>
      <trkpt lat="43.39232" lon="5.82748">
        <ele>343.5</ele>
        <time>2023-04-05T15:43:20.153Z</time>
      </trkpt>
      <trkpt lat="43.39233" lon="5.82725">
        <ele>343.5</ele>
        <time>2023-04-05T15:43:22.641Z</time>
      </trkpt>
      <trkpt lat="43.39236" lon="5.82705">
        <ele>343.5</ele>
        <time>2023-04-05T15:43:24.968Z</time>
      </trkpt>
      <trkpt lat="43.3924" lon="5.82681">
        <ele>343.3</ele>
        <time>2023-04-05T15:43:27.684Z</time>
      </trkpt>
      <trkpt lat="43.39252" lon="5.82636">
        <ele>342.5</ele>
        <time>2023-04-05T15:43:33.068Z</time>
      </trkpt>
      <trkpt lat="43.39274" lon="5.82562">
        <ele>341.5</ele>
        <time>2023-04-05T15:43:42.011Z</time>
      </trkpt>
      <trkpt lat="43.39288" lon="5.82509">
        <ele>341</ele>
        <time>2023-04-05T15:43:48.330Z</time>
      </trkpt>
      <trkpt lat="43.39295" lon="5.82483">
        <ele>340.5</ele>
        <time>2023-04-05T15:43:51.365Z</time>
      </trkpt>
      <trkpt lat="43.39298" lon="5.82458">
        <ele>339.8</ele>
        <time>2023-04-05T15:43:54.252Z</time>
      </trkpt>
      <trkpt lat="43.393" lon="5.82433">
        <ele>339</ele>
        <time>2023-04-05T15:43:57.076Z</time>
      </trkpt>
      <trkpt lat="43.39301" lon="5.82402">
        <ele>338.5</ele>
        <time>2023-04-05T15:44:00.593Z</time>
      </trkpt>
      <trkpt lat="43.39305" lon="5.82237">
        <ele>338.8</ele>
        <time>2023-04-05T15:44:19.060Z</time>
      </trkpt>
      <trkpt lat="43.39305" lon="5.82221">
        <ele>339</ele>
        <time>2023-04-05T15:44:20.771Z</time>
      </trkpt>
      <trkpt lat="43.39304" lon="5.82199">
        <ele>339.5</ele>
        <time>2023-04-05T15:44:23.244Z</time>
      </trkpt>
      <trkpt lat="43.39303" lon="5.8218">
        <ele>340</ele>
        <time>2023-04-05T15:44:25.412Z</time>
      </trkpt>
      <trkpt lat="43.393" lon="5.82154">
        <ele>340.8</ele>
        <time>2023-04-05T15:44:28.365Z</time>
      </trkpt>
      <trkpt lat="43.39283" lon="5.81964">
        <ele>348.3</ele>
        <time>2023-04-05T15:44:49.769Z</time>
      </trkpt>
      <trkpt lat="43.39283" lon="5.81932">
        <ele>349</ele>
        <time>2023-04-05T15:44:53.395Z</time>
      </trkpt>
      <trkpt lat="43.39284" lon="5.81905">
        <ele>349.8</ele>
        <time>2023-04-05T15:44:56.368Z</time>
      </trkpt>
      <trkpt lat="43.39289" lon="5.81878">
        <ele>350.5</ele>
        <time>2023-04-05T15:44:59.445Z</time>
      </trkpt>
      <trkpt lat="43.3931" lon="5.81805">
        <ele>351</ele>
        <time>2023-04-05T15:45:08.287Z</time>
      </trkpt>
      <trkpt lat="43.39314" lon="5.81771">
        <ele>350.3</ele>
        <time>2023-04-05T15:45:12.081Z</time>
      </trkpt>
      <trkpt lat="43.39316" lon="5.81739">
        <ele>350.5</ele>
        <time>2023-04-05T15:45:15.722Z</time>
      </trkpt>
      <trkpt lat="43.39314" lon="5.81699">
        <ele>352.3</ele>
        <time>2023-04-05T15:45:20.193Z</time>
      </trkpt>
      <trkpt lat="43.39309" lon="5.81638">
        <ele>356.3</ele>
        <time>2023-04-05T15:45:27.018Z</time>
      </trkpt>
      <trkpt lat="43.39299" lon="5.81547">
        <ele>362.3</ele>
        <time>2023-04-05T15:45:37.365Z</time>
      </trkpt>
      <trkpt lat="43.3929" lon="5.81443">
        <ele>364</ele>
        <time>2023-04-05T15:45:49.129Z</time>
      </trkpt>
      <trkpt lat="43.39287" lon="5.81386">
        <ele>362.8</ele>
        <time>2023-04-05T15:45:55.469Z</time>
      </trkpt>
      <trkpt lat="43.39286" lon="5.81284">
        <ele>363.5</ele>
        <time>2023-04-05T15:46:06.880Z</time>
      </trkpt>
      <trkpt lat="43.39288" lon="5.81217">
        <ele>366.8</ele>
        <time>2023-04-05T15:46:14.437Z</time>
      </trkpt>
      <trkpt lat="43.3929" lon="5.81181">
        <ele>368.5</ele>
        <time>2023-04-05T15:46:18.442Z</time>
      </trkpt>
      <trkpt lat="43.39293" lon="5.81151">
        <ele>368.8</ele>
        <time>2023-04-05T15:46:21.835Z</time>
      </trkpt>
      <trkpt lat="43.39296" lon="5.81122">
        <ele>368.5</ele>
        <time>2023-04-05T15:46:25.148Z</time>
      </trkpt>
      <trkpt lat="43.39301" lon="5.81098">
        <ele>368</ele>
        <time>2023-04-05T15:46:27.909Z</time>
      </trkpt>
      <trkpt lat="43.39306" lon="5.81077">
        <ele>367.8</ele>
        <time>2023-04-05T15:46:30.311Z</time>
      </trkpt>
      <trkpt lat="43.39314" lon="5.81055">
        <ele>368</ele>
        <time>2023-04-05T15:46:33.098Z</time>
      </trkpt>
      <trkpt lat="43.39323" lon="5.81041">
        <ele>367.8</ele>
        <time>2023-04-05T15:46:35.158Z</time>
      </trkpt>
      <trkpt lat="43.39375" lon="5.80971">
        <ele>372.3</ele>
        <time>2023-04-05T15:46:46.396Z</time>
      </trkpt>
      <trkpt lat="43.3939" lon="5.80947">
        <ele>374.3</ele>
        <time>2023-04-05T15:46:49.903Z</time>
      </trkpt>
      <trkpt lat="43.39401" lon="5.80925">
        <ele>376.3</ele>
        <time>2023-04-05T15:46:52.955Z</time>
      </trkpt>
      <trkpt lat="43.39411" lon="5.809">
        <ele>377.3</ele>
        <time>2023-04-05T15:46:56.140Z</time>
      </trkpt>
      <trkpt lat="43.39419" lon="5.80873">
        <ele>378</ele>
        <time>2023-04-05T15:46:59.415Z</time>
      </trkpt>
      <trkpt lat="43.39425" lon="5.80846">
        <ele>378.3</ele>
        <time>2023-04-05T15:47:02.485Z</time>
      </trkpt>
      <trkpt lat="43.39428" lon="5.80815">
        <ele>378.5</ele>
        <time>2023-04-05T15:47:05.981Z</time>
      </trkpt>
      <trkpt lat="43.39429" lon="5.80787">
        <ele>378.3</ele>
        <time>2023-04-05T15:47:09.198Z</time>
      </trkpt>
      <trkpt lat="43.39428" lon="5.80763">
        <ele>378.3</ele>
        <time>2023-04-05T15:47:11.801Z</time>
      </trkpt>
      <trkpt lat="43.39387" lon="5.8052">
        <ele>375.5</ele>
        <time>2023-04-05T15:47:39.765Z</time>
      </trkpt>
      <trkpt lat="43.39381" lon="5.80486">
        <ele>374.3</ele>
        <time>2023-04-05T15:47:43.661Z</time>
      </trkpt>
      <trkpt lat="43.39376" lon="5.80462">
        <ele>373</ele>
        <time>2023-04-05T15:47:46.435Z</time>
      </trkpt>
      <trkpt lat="43.3937" lon="5.80442">
        <ele>372</ele>
        <time>2023-04-05T15:47:48.861Z</time>
      </trkpt>
      <trkpt lat="43.39363" lon="5.80425">
        <ele>371.3</ele>
        <time>2023-04-05T15:47:51.081Z</time>
      </trkpt>
      <trkpt lat="43.39306" lon="5.80288">
        <ele>376</ele>
        <time>2023-04-05T15:48:08.700Z</time>
      </trkpt>
      <trkpt lat="43.39254" lon="5.8016">
        <ele>374.3</ele>
        <time>2023-04-05T15:48:25.099Z</time>
      </trkpt>
      <trkpt lat="43.39246" lon="5.8014">
        <ele>373.3</ele>
        <time>2023-04-05T15:48:27.604Z</time>
      </trkpt>
      <trkpt lat="43.39239" lon="5.80118">
        <ele>372.3</ele>
        <time>2023-04-05T15:48:30.284Z</time>
      </trkpt>
      <trkpt lat="43.39231" lon="5.80085">
        <ele>370.5</ele>
        <time>2023-04-05T15:48:34.248Z</time>
      </trkpt>
      <trkpt lat="43.39226" lon="5.80057">
        <ele>370.5</ele>
        <time>2023-04-05T15:48:37.488Z</time>
      </trkpt>
      <trkpt lat="43.39223" lon="5.80019">
        <ele>370.3</ele>
        <time>2023-04-05T15:48:41.777Z</time>
      </trkpt>
      <trkpt lat="43.39222" lon="5.79992">
        <ele>369.8</ele>
        <time>2023-04-05T15:48:44.799Z</time>
      </trkpt>
      <trkpt lat="43.39223" lon="5.79962">
        <ele>369.5</ele>
        <time>2023-04-05T15:48:48.157Z</time>
      </trkpt>
      <trkpt lat="43.39226" lon="5.79934">
        <ele>369</ele>
        <time>2023-04-05T15:48:51.299Z</time>
      </trkpt>
      <trkpt lat="43.39232" lon="5.799">
        <ele>369</ele>
        <time>2023-04-05T15:48:55.202Z</time>
      </trkpt>
      <trkpt lat="43.39247" lon="5.7985">
        <ele>371</ele>
        <time>2023-04-05T15:49:01.311Z</time>
      </trkpt>
      <trkpt lat="43.39269" lon="5.79803">
        <ele>371</ele>
        <time>2023-04-05T15:49:07.574Z</time>
      </trkpt>
      <trkpt lat="43.39277" lon="5.79794">
        <ele>370.5</ele>
        <time>2023-04-05T15:49:09.141Z</time>
      </trkpt>
      <trkpt lat="43.39282" lon="5.79789">
        <ele>370.3</ele>
        <time>2023-04-05T15:49:10.022Z</time>
      </trkpt>
      <trkpt lat="43.39287" lon="5.79789">
        <ele>369.8</ele>
        <time>2023-04-05T15:49:10.747Z</time>
      </trkpt>
      <trkpt lat="43.39292" lon="5.79787">
        <ele>369.3</ele>
        <time>2023-04-05T15:49:11.537Z</time>
      </trkpt>
      <trkpt lat="43.39296" lon="5.79783">
        <ele>369</ele>
        <time>2023-04-05T15:49:12.317Z</time>
      </trkpt>
      <trkpt lat="43.39299" lon="5.79778">
        <ele>369</ele>
        <time>2023-04-05T15:49:13.099Z</time>
      </trkpt>
      <trkpt lat="43.39301" lon="5.79771">
        <ele>369</ele>
        <time>2023-04-05T15:49:13.897Z</time>
      </trkpt>
      <trkpt lat="43.39302" lon="5.79765">
        <ele>369.3</ele>
        <time>2023-04-05T15:49:14.648Z</time>
      </trkpt>
      <trkpt lat="43.39302" lon="5.79758">
        <ele>369.5</ele>
        <time>2023-04-05T15:49:15.410Z</time>
      </trkpt>
      <trkpt lat="43.393" lon="5.79752">
        <ele>370</ele>
        <time>2023-04-05T15:49:16.167Z</time>
      </trkpt>
      <trkpt lat="43.39298" lon="5.79746">
        <ele>370.3</ele>
        <time>2023-04-05T15:49:16.928Z</time>
      </trkpt>
      <trkpt lat="43.39294" lon="5.79741">
        <ele>370.5</ele>
        <time>2023-04-05T15:49:17.688Z</time>
      </trkpt>
      <trkpt lat="43.3929" lon="5.79738">
        <ele>370.8</ele>
        <time>2023-04-05T15:49:18.449Z</time>
      </trkpt>
      <trkpt lat="43.39286" lon="5.79723">
        <ele>371</ele>
        <time>2023-04-05T15:49:20.284Z</time>
      </trkpt>
      <trkpt lat="43.39284" lon="5.79705">
        <ele>371</ele>
        <time>2023-04-05T15:49:22.243Z</time>
      </trkpt>
      <trkpt lat="43.39282" lon="5.79681">
        <ele>370.8</ele>
        <time>2023-04-05T15:49:24.979Z</time>
      </trkpt>
      <trkpt lat="43.39278" lon="5.7967">
        <ele>370.8</ele>
        <time>2023-04-05T15:49:26.368Z</time>
      </trkpt>
      <trkpt lat="43.39274" lon="5.79616">
        <ele>370.5</ele>
        <time>2023-04-05T15:49:32.429Z</time>
      </trkpt>
      <trkpt lat="43.39272" lon="5.79612">
        <ele>370.5</ele>
        <time>2023-04-05T15:49:32.990Z</time>
      </trkpt>
      <trkpt lat="43.3927" lon="5.79611">
        <ele>370.8</ele>
        <time>2023-04-05T15:49:33.305Z</time>
      </trkpt>
      <trkpt lat="43.39258" lon="5.79613">
        <ele>372</ele>
        <time>2023-04-05T15:49:35.273Z</time>
      </trkpt>
      <trkpt lat="43.39231" lon="5.79618">
        <ele>374.3</ele>
        <time>2023-04-05T15:49:39.476Z</time>
      </trkpt>
      <trkpt lat="43.39221" lon="5.79616">
        <ele>375</ele>
        <time>2023-04-05T15:49:40.915Z</time>
      </trkpt>
      <trkpt lat="43.39117" lon="5.79595">
        <ele>381</ele>
        <time>2023-04-05T15:49:57.118Z</time>
      </trkpt>
      <trkpt lat="43.39095" lon="5.79589">
        <ele>381.5</ele>
        <time>2023-04-05T15:50:00.515Z</time>
      </trkpt>
      <trkpt lat="43.39066" lon="5.7958">
        <ele>381.8</ele>
        <time>2023-04-05T15:50:05.239Z</time>
      </trkpt>
      <trkpt lat="43.39033" lon="5.79567">
        <ele>381.3</ele>
        <time>2023-04-05T15:50:10.503Z</time>
      </trkpt>
      <trkpt lat="43.39" lon="5.79549">
        <ele>379.8</ele>
        <time>2023-04-05T15:50:15.857Z</time>
      </trkpt>
      <trkpt lat="43.38973" lon="5.79532">
        <ele>380</ele>
        <time>2023-04-05T15:50:20.437Z</time>
      </trkpt>
      <trkpt lat="43.38955" lon="5.79517">
        <ele>380</ele>
        <time>2023-04-05T15:50:23.729Z</time>
      </trkpt>
      <trkpt lat="43.38938" lon="5.79501">
        <ele>380</ele>
        <time>2023-04-05T15:50:26.900Z</time>
      </trkpt>
      <trkpt lat="43.38909" lon="5.79471">
        <ele>380</ele>
        <time>2023-04-05T15:50:32.537Z</time>
      </trkpt>
      <trkpt lat="43.3889" lon="5.79448">
        <ele>380.5</ele>
        <time>2023-04-05T15:50:36.410Z</time>
      </trkpt>
      <trkpt lat="43.38869" lon="5.79419">
        <ele>380</ele>
        <time>2023-04-05T15:50:40.966Z</time>
      </trkpt>
      <trkpt lat="43.38833" lon="5.79363">
        <ele>381.8</ele>
        <time>2023-04-05T15:50:49.333Z</time>
      </trkpt>
      <trkpt lat="43.38816" lon="5.79337">
        <ele>383.5</ele>
        <time>2023-04-05T15:50:53.262Z</time>
      </trkpt>
      <trkpt lat="43.38802" lon="5.79319">
        <ele>384.8</ele>
        <time>2023-04-05T15:50:56.234Z</time>
      </trkpt>
      <trkpt lat="43.38773" lon="5.7929">
        <ele>387.5</ele>
        <time>2023-04-05T15:51:01.721Z</time>
      </trkpt>
      <trkpt lat="43.38758" lon="5.7927">
        <ele>388.8</ele>
        <time>2023-04-05T15:51:04.908Z</time>
      </trkpt>
      <trkpt lat="43.38748" lon="5.79254">
        <ele>389.3</ele>
        <time>2023-04-05T15:51:07.238Z</time>
      </trkpt>
      <trkpt lat="43.38709" lon="5.79164">
        <ele>394.3</ele>
        <time>2023-04-05T15:51:19.046Z</time>
      </trkpt>
      <trkpt lat="43.38704" lon="5.79149">
        <ele>394.5</ele>
        <time>2023-04-05T15:51:20.904Z</time>
      </trkpt>
      <trkpt lat="43.38701" lon="5.79134">
        <ele>394.5</ele>
        <time>2023-04-05T15:51:22.590Z</time>
      </trkpt>
      <trkpt lat="43.387" lon="5.79122">
        <ele>394.3</ele>
        <time>2023-04-05T15:51:23.974Z</time>
      </trkpt>
      <trkpt lat="43.38703" lon="5.79075">
        <ele>392.5</ele>
        <time>2023-04-05T15:51:29.204Z</time>
      </trkpt>
      <trkpt lat="43.38701" lon="5.79062">
        <ele>392.3</ele>
        <time>2023-04-05T15:51:30.692Z</time>
      </trkpt>
      <trkpt lat="43.38697" lon="5.79048">
        <ele>392.5</ele>
        <time>2023-04-05T15:51:32.408Z</time>
      </trkpt>
      <trkpt lat="43.38689" lon="5.79035">
        <ele>393</ele>
        <time>2023-04-05T15:51:34.210Z</time>
      </trkpt>
      <trkpt lat="43.3868" lon="5.79026">
        <ele>393.8</ele>
        <time>2023-04-05T15:51:35.944Z</time>
      </trkpt>
      <trkpt lat="43.38661" lon="5.79017">
        <ele>394.8</ele>
        <time>2023-04-05T15:51:39.134Z</time>
      </trkpt>
      <trkpt lat="43.3865" lon="5.79019">
        <ele>394.5</ele>
        <time>2023-04-05T15:51:40.792Z</time>
      </trkpt>
      <trkpt lat="43.38639" lon="5.79024">
        <ele>394.3</ele>
        <time>2023-04-05T15:51:42.526Z</time>
      </trkpt>
      <trkpt lat="43.38623" lon="5.79034">
        <ele>394.3</ele>
        <time>2023-04-05T15:51:45.213Z</time>
      </trkpt>
      <trkpt lat="43.38604" lon="5.79049">
        <ele>394.5</ele>
        <time>2023-04-05T15:51:48.642Z</time>
      </trkpt>
      <trkpt lat="43.38546" lon="5.79118">
        <ele>398</ele>
        <time>2023-04-05T15:52:00.378Z</time>
      </trkpt>
      <trkpt lat="43.38538" lon="5.79125">
        <ele>398</ele>
        <time>2023-04-05T15:52:01.862Z</time>
      </trkpt>
      <trkpt lat="43.38529" lon="5.79131">
        <ele>398.3</ele>
        <time>2023-04-05T15:52:03.466Z</time>
      </trkpt>
      <trkpt lat="43.38517" lon="5.79134">
        <ele>398</ele>
        <time>2023-04-05T15:52:05.341Z</time>
      </trkpt>
      <trkpt lat="43.38508" lon="5.79133">
        <ele>398</ele>
        <time>2023-04-05T15:52:06.780Z</time>
      </trkpt>
      <trkpt lat="43.38497" lon="5.79126">
        <ele>398</ele>
        <time>2023-04-05T15:52:08.664Z</time>
      </trkpt>
      <trkpt lat="43.38486" lon="5.79117">
        <ele>398</ele>
        <time>2023-04-05T15:52:10.549Z</time>
      </trkpt>
      <trkpt lat="43.38431" lon="5.79055">
        <ele>397.8</ele>
        <time>2023-04-05T15:52:21.445Z</time>
      </trkpt>
      <trkpt lat="43.38426" lon="5.79048">
        <ele>397.5</ele>
        <time>2023-04-05T15:52:22.651Z</time>
      </trkpt>
      <trkpt lat="43.38417" lon="5.79038">
        <ele>397.3</ele>
        <time>2023-04-05T15:52:24.413Z</time>
      </trkpt>
      <trkpt lat="43.38411" lon="5.79031">
        <ele>397.3</ele>
        <time>2023-04-05T15:52:25.595Z</time>
      </trkpt>
      <trkpt lat="43.38393" lon="5.7901">
        <ele>396.8</ele>
        <time>2023-04-05T15:52:29.174Z</time>
      </trkpt>
      <trkpt lat="43.38376" lon="5.78989">
        <ele>396</ele>
        <time>2023-04-05T15:52:32.736Z</time>
      </trkpt>
      <trkpt lat="43.38364" lon="5.78977">
        <ele>395.5</ele>
        <time>2023-04-05T15:52:35.021Z</time>
      </trkpt>
      <trkpt lat="43.3832" lon="5.78938">
        <ele>394</ele>
        <time>2023-04-05T15:52:43.114Z</time>
      </trkpt>
      <trkpt lat="43.38256" lon="5.78891">
        <ele>393.5</ele>
        <time>2023-04-05T15:52:54.207Z</time>
      </trkpt>
      <trkpt lat="43.38242" lon="5.78879">
        <ele>393.5</ele>
        <time>2023-04-05T15:52:56.771Z</time>
      </trkpt>
      <trkpt lat="43.38232" lon="5.78867">
        <ele>393.3</ele>
        <time>2023-04-05T15:52:58.870Z</time>
      </trkpt>
      <trkpt lat="43.38215" lon="5.78842">
        <ele>393</ele>
        <time>2023-04-05T15:53:02.689Z</time>
      </trkpt>
      <trkpt lat="43.38202" lon="5.78825">
        <ele>393</ele>
        <time>2023-04-05T15:53:05.450Z</time>
      </trkpt>
      <trkpt lat="43.38192" lon="5.78814">
        <ele>393</ele>
        <time>2023-04-05T15:53:07.406Z</time>
      </trkpt>
      <trkpt lat="43.38169" lon="5.78793">
        <ele>393.3</ele>
        <time>2023-04-05T15:53:11.733Z</time>
      </trkpt>
      <trkpt lat="43.38158" lon="5.78785">
        <ele>394</ele>
        <time>2023-04-05T15:53:13.551Z</time>
      </trkpt>
      <trkpt lat="43.38083" lon="5.78723">
        <ele>397.3</ele>
        <time>2023-04-05T15:53:26.987Z</time>
      </trkpt>
      <trkpt lat="43.38065" lon="5.78706">
        <ele>397.5</ele>
        <time>2023-04-05T15:53:30.430Z</time>
      </trkpt>
      <trkpt lat="43.38053" lon="5.78695">
        <ele>397.5</ele>
        <time>2023-04-05T15:53:32.605Z</time>
      </trkpt>
      <trkpt lat="43.3804" lon="5.78681">
        <ele>397.8</ele>
        <time>2023-04-05T15:53:35.132Z</time>
      </trkpt>
      <trkpt lat="43.38025" lon="5.78661">
        <ele>398</ele>
        <time>2023-04-05T15:53:38.416Z</time>
      </trkpt>
      <trkpt lat="43.38017" lon="5.78648">
        <ele>398</ele>
        <time>2023-04-05T15:53:40.236Z</time>
      </trkpt>
      <trkpt lat="43.38009" lon="5.78635">
        <ele>398</ele>
        <time>2023-04-05T15:53:42.182Z</time>
      </trkpt>
      <trkpt lat="43.37998" lon="5.78618">
        <ele>398</ele>
        <time>2023-04-05T15:53:44.764Z</time>
      </trkpt>
      <trkpt lat="43.3798" lon="5.78594">
        <ele>399</ele>
        <time>2023-04-05T15:53:48.596Z</time>
      </trkpt>
      <trkpt lat="43.37961" lon="5.78577">
        <ele>400.5</ele>
        <time>2023-04-05T15:53:52.046Z</time>
      </trkpt>
      <trkpt lat="43.37946" lon="5.78565">
        <ele>402</ele>
        <time>2023-04-05T15:53:54.792Z</time>
      </trkpt>
      <trkpt lat="43.37912" lon="5.78551">
        <ele>404.5</ele>
        <time>2023-04-05T15:54:00.269Z</time>
      </trkpt>
      <trkpt lat="43.37902" lon="5.78547">
        <ele>404.8</ele>
        <time>2023-04-05T15:54:01.828Z</time>
      </trkpt>
      <trkpt lat="43.37889" lon="5.78541">
        <ele>404.8</ele>
        <time>2023-04-05T15:54:03.871Z</time>
      </trkpt>
      <trkpt lat="43.37821" lon="5.78515">
        <ele>403</ele>
        <time>2023-04-05T15:54:14.772Z</time>
      </trkpt>
      <trkpt lat="43.37785" lon="5.78508">
        <ele>402</ele>
        <time>2023-04-05T15:54:20.333Z</time>
      </trkpt>
      <trkpt lat="43.37741" lon="5.78505">
        <ele>401</ele>
        <time>2023-04-05T15:54:27.162Z</time>
      </trkpt>
      <trkpt lat="43.37734" lon="5.78504">
        <ele>400.8</ele>
        <time>2023-04-05T15:54:28.199Z</time>
      </trkpt>
      <trkpt lat="43.37703" lon="5.78499">
        <ele>399.8</ele>
        <time>2023-04-05T15:54:32.965Z</time>
      </trkpt>
      <trkpt lat="43.37693" lon="5.78496">
        <ele>399.5</ele>
        <time>2023-04-05T15:54:34.648Z</time>
      </trkpt>
      <trkpt lat="43.3767" lon="5.78486">
        <ele>398.8</ele>
        <time>2023-04-05T15:54:38.291Z</time>
      </trkpt>
      <trkpt lat="43.37662" lon="5.78482">
        <ele>398.3</ele>
        <time>2023-04-05T15:54:39.659Z</time>
      </trkpt>
      <trkpt lat="43.37638" lon="5.78472">
        <ele>397</ele>
        <time>2023-04-05T15:54:43.451Z</time>
      </trkpt>
      <trkpt lat="43.37626" lon="5.78468">
        <ele>396.3</ele>
        <time>2023-04-05T15:54:45.459Z</time>
      </trkpt>
      <trkpt lat="43.37553" lon="5.78457">
        <ele>394</ele>
        <time>2023-04-05T15:54:56.634Z</time>
      </trkpt>
      <trkpt lat="43.37522" lon="5.78455">
        <ele>393.5</ele>
        <time>2023-04-05T15:55:01.442Z</time>
      </trkpt>
      <trkpt lat="43.37516" lon="5.78455">
        <ele>393.5</ele>
        <time>2023-04-05T15:55:02.381Z</time>
      </trkpt>
      <trkpt lat="43.37509" lon="5.78457">
        <ele>393.5</ele>
        <time>2023-04-05T15:55:03.456Z</time>
      </trkpt>
      <trkpt lat="43.37499" lon="5.78462">
        <ele>393.5</ele>
        <time>2023-04-05T15:55:05.136Z</time>
      </trkpt>
      <trkpt lat="43.37492" lon="5.7847">
        <ele>394</ele>
        <time>2023-04-05T15:55:06.544Z</time>
      </trkpt>
      <trkpt lat="43.37475" lon="5.78505">
        <ele>395.5</ele>
        <time>2023-04-05T15:55:11.288Z</time>
      </trkpt>
      <trkpt lat="43.37469" lon="5.78514">
        <ele>396.3</ele>
        <time>2023-04-05T15:55:12.673Z</time>
      </trkpt>
      <trkpt lat="43.37463" lon="5.78521">
        <ele>396.8</ele>
        <time>2023-04-05T15:55:13.797Z</time>
      </trkpt>
      <trkpt lat="43.37448" lon="5.78522">
        <ele>397.5</ele>
        <time>2023-04-05T15:55:16.004Z</time>
      </trkpt>
      <trkpt lat="43.3741" lon="5.78514">
        <ele>398.5</ele>
        <time>2023-04-05T15:55:22.047Z</time>
      </trkpt>
      <trkpt lat="43.37393" lon="5.7851">
        <ele>397.8</ele>
        <time>2023-04-05T15:55:24.602Z</time>
      </trkpt>
      <trkpt lat="43.37384" lon="5.7851">
        <ele>397.3</ele>
        <time>2023-04-05T15:55:26.065Z</time>
      </trkpt>
      <trkpt lat="43.37342" lon="5.78528">
        <ele>396.3</ele>
        <time>2023-04-05T15:55:32.823Z</time>
      </trkpt>
      <trkpt lat="43.37319" lon="5.78537">
        <ele>396</ele>
        <time>2023-04-05T15:55:36.431Z</time>
      </trkpt>
      <trkpt lat="43.37308" lon="5.78543">
        <ele>396</ele>
        <time>2023-04-05T15:55:38.272Z</time>
      </trkpt>
      <trkpt lat="43.37253" lon="5.78569">
        <ele>394.5</ele>
        <time>2023-04-05T15:55:47.276Z</time>
      </trkpt>
      <trkpt lat="43.3719" lon="5.78596">
        <ele>395</ele>
        <time>2023-04-05T15:55:57.409Z</time>
      </trkpt>
      <trkpt lat="43.37182" lon="5.78598">
        <ele>395</ele>
        <time>2023-04-05T15:55:58.708Z</time>
      </trkpt>
      <trkpt lat="43.37173" lon="5.78598">
        <ele>394.8</ele>
        <time>2023-04-05T15:56:00.109Z</time>
      </trkpt>
      <trkpt lat="43.37164" lon="5.78595">
        <ele>394.5</ele>
        <time>2023-04-05T15:56:01.403Z</time>
      </trkpt>
      <trkpt lat="43.37152" lon="5.78581">
        <ele>394</ele>
        <time>2023-04-05T15:56:03.799Z</time>
      </trkpt>
      <trkpt lat="43.37033" lon="5.78383">
        <ele>396.8</ele>
        <time>2023-04-05T15:56:32.662Z</time>
      </trkpt>
      <trkpt lat="43.37026" lon="5.78373">
        <ele>397</ele>
        <time>2023-04-05T15:56:34.092Z</time>
      </trkpt>
      <trkpt lat="43.37024" lon="5.78372">
        <ele>397</ele>
        <time>2023-04-05T15:56:34.540Z</time>
      </trkpt>
      <trkpt lat="43.37021" lon="5.78371">
        <ele>397</ele>
        <time>2023-04-05T15:56:34.944Z</time>
      </trkpt>
      <trkpt lat="43.37018" lon="5.78373">
        <ele>397</ele>
        <time>2023-04-05T15:56:35.466Z</time>
      </trkpt>
      <trkpt lat="43.37015" lon="5.78376">
        <ele>397</ele>
        <time>2023-04-05T15:56:36.045Z</time>
      </trkpt>
      <trkpt lat="43.37012" lon="5.78382">
        <ele>397</ele>
        <time>2023-04-05T15:56:36.832Z</time>
      </trkpt>
      <trkpt lat="43.37003" lon="5.78404">
        <ele>397</ele>
        <time>2023-04-05T15:56:39.668Z</time>
      </trkpt>
      <trkpt lat="43.37001" lon="5.78407">
        <ele>397</ele>
        <time>2023-04-05T15:56:40.048Z</time>
      </trkpt>
      <trkpt lat="43.36963" lon="5.78442">
        <ele>395.8</ele>
        <time>2023-04-05T15:56:47.202Z</time>
      </trkpt>
      <trkpt lat="43.36959" lon="5.78446">
        <ele>395.5</ele>
        <time>2023-04-05T15:56:47.963Z</time>
      </trkpt>
      <trkpt lat="43.3695" lon="5.78455">
        <ele>395.3</ele>
        <time>2023-04-05T15:56:49.670Z</time>
      </trkpt>
      <trkpt lat="43.36934" lon="5.78468">
        <ele>395</ele>
        <time>2023-04-05T15:56:52.487Z</time>
      </trkpt>
      <trkpt lat="43.36921" lon="5.78477">
        <ele>395</ele>
        <time>2023-04-05T15:56:54.739Z</time>
      </trkpt>
      <trkpt lat="43.36907" lon="5.78486">
        <ele>394.8</ele>
        <time>2023-04-05T15:56:57.076Z</time>
      </trkpt>
      <trkpt lat="43.36894" lon="5.78493">
        <ele>394.8</ele>
        <time>2023-04-05T15:56:59.286Z</time>
      </trkpt>
      <trkpt lat="43.36865" lon="5.78505">
        <ele>394.3</ele>
        <time>2023-04-05T15:57:03.865Z</time>
      </trkpt>
      <trkpt lat="43.36821" lon="5.78522">
        <ele>394.8</ele>
        <time>2023-04-05T15:57:10.934Z</time>
      </trkpt>
      <trkpt lat="43.36756" lon="5.78556">
        <ele>396.5</ele>
        <time>2023-04-05T15:57:21.668Z</time>
      </trkpt>
      <trkpt lat="43.36702" lon="5.78591">
        <ele>396</ele>
        <time>2023-04-05T15:57:30.914Z</time>
      </trkpt>
      <trkpt lat="43.36688" lon="5.786">
        <ele>395.8</ele>
        <time>2023-04-05T15:57:33.153Z</time>
      </trkpt>
      <trkpt lat="43.36619" lon="5.78662">
        <ele>393.5</ele>
        <time>2023-04-05T15:57:45.962Z</time>
      </trkpt>
      <trkpt lat="43.36596" lon="5.78676">
        <ele>393.3</ele>
        <time>2023-04-05T15:57:49.803Z</time>
      </trkpt>
      <trkpt lat="43.36585" lon="5.78678">
        <ele>393.3</ele>
        <time>2023-04-05T15:57:51.447Z</time>
      </trkpt>
      <trkpt lat="43.36567" lon="5.78675">
        <ele>393</ele>
        <time>2023-04-05T15:57:54.271Z</time>
      </trkpt>
      <trkpt lat="43.3655" lon="5.78658">
        <ele>394.3</ele>
        <time>2023-04-05T15:57:57.477Z</time>
      </trkpt>
      <trkpt lat="43.3653" lon="5.78635">
        <ele>397.3</ele>
        <time>2023-04-05T15:58:01.497Z</time>
      </trkpt>
      <trkpt lat="43.36497" lon="5.786">
        <ele>402.8</ele>
        <time>2023-04-05T15:58:07.957Z</time>
      </trkpt>
      <trkpt lat="43.36483" lon="5.78589">
        <ele>402.8</ele>
        <time>2023-04-05T15:58:10.437Z</time>
      </trkpt>
      <trkpt lat="43.36478" lon="5.78588">
        <ele>402.3</ele>
        <time>2023-04-05T15:58:11.106Z</time>
      </trkpt>
      <trkpt lat="43.36468" lon="5.78586">
        <ele>401.5</ele>
        <time>2023-04-05T15:58:12.666Z</time>
      </trkpt>
      <trkpt lat="43.3643" lon="5.78586">
        <ele>396.5</ele>
        <time>2023-04-05T15:58:18.609Z</time>
      </trkpt>
      <trkpt lat="43.36386" lon="5.78584">
        <ele>394</ele>
        <time>2023-04-05T15:58:25.401Z</time>
      </trkpt>
      <trkpt lat="43.36366" lon="5.78576">
        <ele>394</ele>
        <time>2023-04-05T15:58:28.535Z</time>
      </trkpt>
      <trkpt lat="43.36256" lon="5.78481">
        <ele>394.5</ele>
        <time>2023-04-05T15:58:48.575Z</time>
      </trkpt>
      <trkpt lat="43.36227" lon="5.78456">
        <ele>394.8</ele>
        <time>2023-04-05T15:58:53.858Z</time>
      </trkpt>
      <trkpt lat="43.3614" lon="5.78383">
        <ele>397.5</ele>
        <time>2023-04-05T15:59:09.595Z</time>
      </trkpt>
      <trkpt lat="43.36129" lon="5.78379">
        <ele>397.5</ele>
        <time>2023-04-05T15:59:11.276Z</time>
      </trkpt>
      <trkpt lat="43.36119" lon="5.78388">
        <ele>397</ele>
        <time>2023-04-05T15:59:13.148Z</time>
      </trkpt>
      <trkpt lat="43.36083" lon="5.78464">
        <ele>397</ele>
        <time>2023-04-05T15:59:23.286Z</time>
      </trkpt>
      <trkpt lat="43.36069" lon="5.78486">
        <ele>398.5</ele>
        <time>2023-04-05T15:59:26.558Z</time>
      </trkpt>
      <trkpt lat="43.35993" lon="5.78573">
        <ele>408</ele>
        <time>2023-04-05T15:59:41.798Z</time>
      </trkpt>
      <trkpt lat="43.35981" lon="5.78587">
        <ele>409.5</ele>
        <time>2023-04-05T15:59:44.191Z</time>
      </trkpt>
      <trkpt lat="43.35959" lon="5.78619">
        <ele>412.5</ele>
        <time>2023-04-05T15:59:49.144Z</time>
      </trkpt>
      <trkpt lat="43.35952" lon="5.78624">
        <ele>413</ele>
        <time>2023-04-05T15:59:50.358Z</time>
      </trkpt>
      <trkpt lat="43.35928" lon="5.78637">
        <ele>414.3</ele>
        <time>2023-04-05T15:59:54.286Z</time>
      </trkpt>
      <trkpt lat="43.35916" lon="5.78638">
        <ele>414.8</ele>
        <time>2023-04-05T15:59:56.204Z</time>
      </trkpt>
      <trkpt lat="43.35851" lon="5.78623">
        <ele>422</ele>
        <time>2023-04-05T16:00:06.387Z</time>
      </trkpt>
      <trkpt lat="43.35836" lon="5.78612">
        <ele>423.5</ele>
        <time>2023-04-05T16:00:08.974Z</time>
      </trkpt>
      <trkpt lat="43.35819" lon="5.78602">
        <ele>425.5</ele>
        <time>2023-04-05T16:00:11.745Z</time>
      </trkpt>
      <trkpt lat="43.35802" lon="5.78574">
        <ele>426</ele>
        <time>2023-04-05T16:00:15.846Z</time>
      </trkpt>
      <trkpt lat="43.35782" lon="5.78527">
        <ele>426.3</ele>
        <time>2023-04-05T16:00:21.971Z</time>
      </trkpt>
      <trkpt lat="43.35761" lon="5.785">
        <ele>424.5</ele>
        <time>2023-04-05T16:00:26.332Z</time>
      </trkpt>
      <trkpt lat="43.35722" lon="5.78474">
        <ele>428.5</ele>
        <time>2023-04-05T16:00:33.060Z</time>
      </trkpt>
      <trkpt lat="43.3571" lon="5.78461">
        <ele>429.3</ele>
        <time>2023-04-05T16:00:35.406Z</time>
      </trkpt>
      <trkpt lat="43.357" lon="5.78439">
        <ele>428.8</ele>
        <time>2023-04-05T16:00:38.338Z</time>
      </trkpt>
      <trkpt lat="43.35693" lon="5.784">
        <ele>428.5</ele>
        <time>2023-04-05T16:00:42.844Z</time>
      </trkpt>
      <trkpt lat="43.35686" lon="5.78383">
        <ele>429</ele>
        <time>2023-04-05T16:00:44.936Z</time>
      </trkpt>
      <trkpt lat="43.3568" lon="5.78376">
        <ele>429</ele>
        <time>2023-04-05T16:00:46.211Z</time>
      </trkpt>
      <trkpt lat="43.35672" lon="5.78375">
        <ele>428.8</ele>
        <time>2023-04-05T16:00:47.489Z</time>
      </trkpt>
      <trkpt lat="43.35666" lon="5.7838">
        <ele>428.8</ele>
        <time>2023-04-05T16:00:48.504Z</time>
      </trkpt>
      <trkpt lat="43.35661" lon="5.78389">
        <ele>429.3</ele>
        <time>2023-04-05T16:00:49.781Z</time>
      </trkpt>
      <trkpt lat="43.35661" lon="5.78402">
        <ele>429</ele>
        <time>2023-04-05T16:00:51.238Z</time>
      </trkpt>
      <trkpt lat="43.35664" lon="5.78415">
        <ele>427.8</ele>
        <time>2023-04-05T16:00:52.801Z</time>
      </trkpt>
      <trkpt lat="43.35671" lon="5.78437">
        <ele>429.5</ele>
        <time>2023-04-05T16:00:55.518Z</time>
      </trkpt>
      <trkpt lat="43.3568" lon="5.78458">
        <ele>431.3</ele>
        <time>2023-04-05T16:00:58.254Z</time>
      </trkpt>
      <trkpt lat="43.35689" lon="5.78477">
        <ele>432.3</ele>
        <time>2023-04-05T16:01:00.749Z</time>
      </trkpt>
      <trkpt lat="43.3572" lon="5.78533">
        <ele>433.3</ele>
        <time>2023-04-05T16:01:08.599Z</time>
      </trkpt>
      <trkpt lat="43.35758" lon="5.78611">
        <ele>435</ele>
        <time>2023-04-05T16:01:19.134Z</time>
      </trkpt>
      <trkpt lat="43.3579" lon="5.78663">
        <ele>437.5</ele>
        <time>2023-04-05T16:01:26.760Z</time>
      </trkpt>
      <trkpt lat="43.35829" lon="5.78713">
        <ele>435</ele>
        <time>2023-04-05T16:01:34.968Z</time>
      </trkpt>
      <trkpt lat="43.35847" lon="5.78741">
        <ele>435.5</ele>
        <time>2023-04-05T16:01:39.151Z</time>
      </trkpt>
      <trkpt lat="43.35857" lon="5.78774">
        <ele>435.8</ele>
        <time>2023-04-05T16:01:43.148Z</time>
      </trkpt>
      <trkpt lat="43.35857" lon="5.78781">
        <ele>436.3</ele>
        <time>2023-04-05T16:01:43.931Z</time>
      </trkpt>
      <trkpt lat="43.35853" lon="5.78787">
        <ele>438</ele>
        <time>2023-04-05T16:01:44.853Z</time>
      </trkpt>
      <trkpt lat="43.35847" lon="5.78787">
        <ele>439.8</ele>
        <time>2023-04-05T16:01:45.764Z</time>
      </trkpt>
      <trkpt lat="43.35843" lon="5.78782">
        <ele>440.8</ele>
        <time>2023-04-05T16:01:46.597Z</time>
      </trkpt>
      <trkpt lat="43.35837" lon="5.78747">
        <ele>439.3</ele>
        <time>2023-04-05T16:01:50.611Z</time>
      </trkpt>
      <trkpt lat="43.3583" lon="5.78734">
        <ele>438.8</ele>
        <time>2023-04-05T16:01:52.421Z</time>
      </trkpt>
      <trkpt lat="43.35822" lon="5.78724">
        <ele>439.8</ele>
        <time>2023-04-05T16:01:54.085Z</time>
      </trkpt>
      <trkpt lat="43.35763" lon="5.78676">
        <ele>449</ele>
        <time>2023-04-05T16:02:04.638Z</time>
      </trkpt>
      <trkpt lat="43.35741" lon="5.78652">
        <ele>450.3</ele>
        <time>2023-04-05T16:02:08.961Z</time>
      </trkpt>
      <trkpt lat="43.35688" lon="5.78586">
        <ele>451.3</ele>
        <time>2023-04-05T16:02:19.968Z</time>
      </trkpt>
      <trkpt lat="43.35637" lon="5.78541">
        <ele>460</ele>
        <time>2023-04-05T16:02:29.297Z</time>
      </trkpt>
      <trkpt lat="43.35624" lon="5.78523">
        <ele>461</ele>
        <time>2023-04-05T16:02:32.137Z</time>
      </trkpt>
      <trkpt lat="43.35582" lon="5.7845">
        <ele>462.3</ele>
        <time>2023-04-05T16:02:42.558Z</time>
      </trkpt>
      <trkpt lat="43.35562" lon="5.78422">
        <ele>464.3</ele>
        <time>2023-04-05T16:02:46.951Z</time>
      </trkpt>
      <trkpt lat="43.35545" lon="5.78403">
        <ele>465.8</ele>
        <time>2023-04-05T16:02:50.323Z</time>
      </trkpt>
      <trkpt lat="43.35494" lon="5.78355">
        <ele>470</ele>
        <time>2023-04-05T16:02:59.837Z</time>
      </trkpt>
      <trkpt lat="43.35442" lon="5.78298">
        <ele>473.3</ele>
        <time>2023-04-05T16:03:10.074Z</time>
      </trkpt>
      <trkpt lat="43.35424" lon="5.78285">
        <ele>475.3</ele>
        <time>2023-04-05T16:03:13.204Z</time>
      </trkpt>
      <trkpt lat="43.35405" lon="5.78275">
        <ele>474.8</ele>
        <time>2023-04-05T16:03:16.336Z</time>
      </trkpt>
      <trkpt lat="43.35378" lon="5.78267">
        <ele>473.5</ele>
        <time>2023-04-05T16:03:20.588Z</time>
      </trkpt>
      <trkpt lat="43.35363" lon="5.78265">
        <ele>473.5</ele>
        <time>2023-04-05T16:03:22.908Z</time>
      </trkpt>
      <trkpt lat="43.35355" lon="5.78266">
        <ele>474.3</ele>
        <time>2023-04-05T16:03:24.144Z</time>
      </trkpt>
      <trkpt lat="43.35339" lon="5.78272">
        <ele>477</ele>
        <time>2023-04-05T16:03:26.697Z</time>
      </trkpt>
      <trkpt lat="43.35314" lon="5.78287">
        <ele>478.8</ele>
        <time>2023-04-05T16:03:30.896Z</time>
      </trkpt>
      <trkpt lat="43.35284" lon="5.78317">
        <ele>480.3</ele>
        <time>2023-04-05T16:03:36.606Z</time>
      </trkpt>
      <trkpt lat="43.35265" lon="5.78341">
        <ele>480.5</ele>
        <time>2023-04-05T16:03:40.577Z</time>
      </trkpt>
      <trkpt lat="43.35255" lon="5.78358">
        <ele>480.5</ele>
        <time>2023-04-05T16:03:43.024Z</time>
      </trkpt>
      <trkpt lat="43.35252" lon="5.78367">
        <ele>480.8</ele>
        <time>2023-04-05T16:03:44.132Z</time>
      </trkpt>
      <trkpt lat="43.35248" lon="5.78387">
        <ele>483</ele>
        <time>2023-04-05T16:03:46.454Z</time>
      </trkpt>
      <trkpt lat="43.35246" lon="5.7846">
        <ele>490.5</ele>
        <time>2023-04-05T16:03:54.632Z</time>
      </trkpt>
      <trkpt lat="43.35244" lon="5.78484">
        <ele>491.8</ele>
        <time>2023-04-05T16:03:57.336Z</time>
      </trkpt>
      <trkpt lat="43.35245" lon="5.78581">
        <ele>496.8</ele>
        <time>2023-04-05T16:04:08.196Z</time>
      </trkpt>
      <trkpt lat="43.3525" lon="5.78619">
        <ele>497.8</ele>
        <time>2023-04-05T16:04:12.519Z</time>
      </trkpt>
      <trkpt lat="43.35264" lon="5.78679">
        <ele>504.8</ele>
        <time>2023-04-05T16:04:19.573Z</time>
      </trkpt>
      <trkpt lat="43.35267" lon="5.78693">
        <ele>506.8</ele>
        <time>2023-04-05T16:04:21.162Z</time>
      </trkpt>
      <trkpt lat="43.35265" lon="5.78704">
        <ele>506.8</ele>
        <time>2023-04-05T16:04:22.478Z</time>
      </trkpt>
      <trkpt lat="43.3526" lon="5.7871">
        <ele>505.8</ele>
        <time>2023-04-05T16:04:23.370Z</time>
      </trkpt>
      <trkpt lat="43.35255" lon="5.78713">
        <ele>504.5</ele>
        <time>2023-04-05T16:04:24.275Z</time>
      </trkpt>
      <trkpt lat="43.35246" lon="5.78716">
        <ele>502.3</ele>
        <time>2023-04-05T16:04:25.798Z</time>
      </trkpt>
      <trkpt lat="43.35236" lon="5.78723">
        <ele>501</ele>
        <time>2023-04-05T16:04:27.436Z</time>
      </trkpt>
      <trkpt lat="43.35225" lon="5.78741">
        <ele>500.3</ele>
        <time>2023-04-05T16:04:30.135Z</time>
      </trkpt>
      <trkpt lat="43.35221" lon="5.78762">
        <ele>501.5</ele>
        <time>2023-04-05T16:04:32.496Z</time>
      </trkpt>
      <trkpt lat="43.3522" lon="5.78813">
        <ele>507.5</ele>
        <time>2023-04-05T16:04:38.240Z</time>
      </trkpt>
      <trkpt lat="43.35217" lon="5.78833">
        <ele>509</ele>
        <time>2023-04-05T16:04:40.526Z</time>
      </trkpt>
      <trkpt lat="43.35208" lon="5.78863">
        <ele>509.3</ele>
        <time>2023-04-05T16:04:44.159Z</time>
      </trkpt>
      <trkpt lat="43.35197" lon="5.78891">
        <ele>508.8</ele>
        <time>2023-04-05T16:04:47.690Z</time>
      </trkpt>
      <trkpt lat="43.3519" lon="5.7891">
        <ele>508</ele>
        <time>2023-04-05T16:04:50.149Z</time>
      </trkpt>
      <trkpt lat="43.35186" lon="5.78922">
        <ele>509.5</ele>
        <time>2023-04-05T16:04:51.591Z</time>
      </trkpt>
      <trkpt lat="43.35178" lon="5.78939">
        <ele>513</ele>
        <time>2023-04-05T16:04:53.881Z</time>
      </trkpt>
      <trkpt lat="43.35167" lon="5.7895">
        <ele>514</ele>
        <time>2023-04-05T16:04:55.936Z</time>
      </trkpt>
      <trkpt lat="43.3514" lon="5.78966">
        <ele>517.8</ele>
        <time>2023-04-05T16:05:00.508Z</time>
      </trkpt>
      <trkpt lat="43.3513" lon="5.78969">
        <ele>517.5</ele>
        <time>2023-04-05T16:05:01.993Z</time>
      </trkpt>
      <trkpt lat="43.3511" lon="5.78969">
        <ele>515.3</ele>
        <time>2023-04-05T16:05:05.087Z</time>
      </trkpt>
      <trkpt lat="43.35101" lon="5.7897">
        <ele>514.5</ele>
        <time>2023-04-05T16:05:06.448Z</time>
      </trkpt>
      <trkpt lat="43.35091" lon="5.78976">
        <ele>514.5</ele>
        <time>2023-04-05T16:05:08.143Z</time>
      </trkpt>
      <trkpt lat="43.35059" lon="5.79005">
        <ele>521.3</ele>
        <time>2023-04-05T16:05:14.048Z</time>
      </trkpt>
      <trkpt lat="43.35043" lon="5.79032">
        <ele>527.5</ele>
        <time>2023-04-05T16:05:17.949Z</time>
      </trkpt>
      <trkpt lat="43.3502" lon="5.79086">
        <ele>534</ele>
        <time>2023-04-05T16:05:24.955Z</time>
      </trkpt>
      <trkpt lat="43.34994" lon="5.79129">
        <ele>541</ele>
        <time>2023-04-05T16:05:31.216Z</time>
      </trkpt>
      <trkpt lat="43.34985" lon="5.79142">
        <ele>545.5</ele>
        <time>2023-04-05T16:05:33.225Z</time>
      </trkpt>
      <trkpt lat="43.34968" lon="5.79158">
        <ele>550.5</ele>
        <time>2023-04-05T16:05:36.396Z</time>
      </trkpt>
      <trkpt lat="43.34956" lon="5.79168">
        <ele>553</ele>
        <time>2023-04-05T16:05:38.616Z</time>
      </trkpt>
      <trkpt lat="43.34953" lon="5.79168">
        <ele>553</ele>
        <time>2023-04-05T16:05:39.031Z</time>
      </trkpt>
      <trkpt lat="43.34949" lon="5.79165">
        <ele>553</ele>
        <time>2023-04-05T16:05:39.689Z</time>
      </trkpt>
      <trkpt lat="43.34947" lon="5.79159">
        <ele>553</ele>
        <time>2023-04-05T16:05:40.446Z</time>
      </trkpt>
      <trkpt lat="43.34948" lon="5.79151">
        <ele>554.3</ele>
        <time>2023-04-05T16:05:41.366Z</time>
      </trkpt>
      <trkpt lat="43.34958" lon="5.79121">
        <ele>551.5</ele>
        <time>2023-04-05T16:05:45.056Z</time>
      </trkpt>
      <trkpt lat="43.34973" lon="5.7904">
        <ele>542.5</ele>
        <time>2023-04-05T16:05:54.366Z</time>
      </trkpt>
      <trkpt lat="43.34976" lon="5.7901">
        <ele>539.8</ele>
        <time>2023-04-05T16:05:57.858Z</time>
      </trkpt>
      <trkpt lat="43.34977" lon="5.78981">
        <ele>539.5</ele>
        <time>2023-04-05T16:06:01.027Z</time>
      </trkpt>
      <trkpt lat="43.34976" lon="5.7896">
        <ele>540.5</ele>
        <time>2023-04-05T16:06:03.414Z</time>
      </trkpt>
      <trkpt lat="43.34968" lon="5.78943">
        <ele>544.8</ele>
        <time>2023-04-05T16:06:05.676Z</time>
      </trkpt>
      <trkpt lat="43.34959" lon="5.78917">
        <ele>549.5</ele>
        <time>2023-04-05T16:06:08.923Z</time>
      </trkpt>
      <trkpt lat="43.34956" lon="5.78897">
        <ele>553</ele>
        <time>2023-04-05T16:06:11.215Z</time>
      </trkpt>
      <trkpt lat="43.34955" lon="5.78879">
        <ele>555</ele>
        <time>2023-04-05T16:06:13.199Z</time>
      </trkpt>
      <trkpt lat="43.34961" lon="5.78869">
        <ele>554</ele>
        <time>2023-04-05T16:06:14.629Z</time>
      </trkpt>
      <trkpt lat="43.34979" lon="5.78868">
        <ele>547.8</ele>
        <time>2023-04-05T16:06:17.402Z</time>
      </trkpt>
      <trkpt lat="43.34994" lon="5.7887">
        <ele>542</ele>
        <time>2023-04-05T16:06:19.782Z</time>
      </trkpt>
      <trkpt lat="43.35004" lon="5.78869">
        <ele>538.8</ele>
        <time>2023-04-05T16:06:21.358Z</time>
      </trkpt>
      <trkpt lat="43.35013" lon="5.78862">
        <ele>536.8</ele>
        <time>2023-04-05T16:06:22.893Z</time>
      </trkpt>
      <trkpt lat="43.35022" lon="5.78837">
        <ele>538.3</ele>
        <time>2023-04-05T16:06:25.952Z</time>
      </trkpt>
      <trkpt lat="43.35024" lon="5.78818">
        <ele>540</ele>
        <time>2023-04-05T16:06:28.127Z</time>
      </trkpt>
      <trkpt lat="43.35027" lon="5.78789">
        <ele>543.3</ele>
        <time>2023-04-05T16:06:31.380Z</time>
      </trkpt>
      <trkpt lat="43.35031" lon="5.78747">
        <ele>546.5</ele>
        <time>2023-04-05T16:06:36.177Z</time>
      </trkpt>
      <trkpt lat="43.35032" lon="5.7871">
        <ele>549.3</ele>
        <time>2023-04-05T16:06:40.322Z</time>
      </trkpt>
      <trkpt lat="43.3503" lon="5.78693">
        <ele>551.8</ele>
        <time>2023-04-05T16:06:42.296Z</time>
      </trkpt>
      <trkpt lat="43.35029" lon="5.78678">
        <ele>553.8</ele>
        <time>2023-04-05T16:06:43.933Z</time>
      </trkpt>
      <trkpt lat="43.35029" lon="5.78542">
        <ele>561.8</ele>
        <time>2023-04-05T16:06:59.215Z</time>
      </trkpt>
      <trkpt lat="43.35031" lon="5.78475">
        <ele>564.5</ele>
        <time>2023-04-05T16:07:06.636Z</time>
      </trkpt>
      <trkpt lat="43.3503" lon="5.7842">
        <ele>567.5</ele>
        <time>2023-04-05T16:07:12.829Z</time>
      </trkpt>
      <trkpt lat="43.35031" lon="5.78374">
        <ele>567</ele>
        <time>2023-04-05T16:07:17.981Z</time>
      </trkpt>
      <trkpt lat="43.35031" lon="5.7833">
        <ele>567.5</ele>
        <time>2023-04-05T16:07:22.929Z</time>
      </trkpt>
      <trkpt lat="43.35039" lon="5.7823">
        <ele>571.5</ele>
        <time>2023-04-05T16:07:34.215Z</time>
      </trkpt>
      <trkpt lat="43.35042" lon="5.78195">
        <ele>571.3</ele>
        <time>2023-04-05T16:07:38.101Z</time>
      </trkpt>
      <trkpt lat="43.35042" lon="5.78161">
        <ele>572.8</ele>
        <time>2023-04-05T16:07:41.963Z</time>
      </trkpt>
      <trkpt lat="43.35037" lon="5.78113">
        <ele>572.5</ele>
        <time>2023-04-05T16:07:47.385Z</time>
      </trkpt>
      <trkpt lat="43.35031" lon="5.78082">
        <ele>574</ele>
        <time>2023-04-05T16:07:50.971Z</time>
      </trkpt>
      <trkpt lat="43.35016" lon="5.7804">
        <ele>576.3</ele>
        <time>2023-04-05T16:07:56.200Z</time>
      </trkpt>
      <trkpt lat="43.35006" lon="5.78023">
        <ele>579.3</ele>
        <time>2023-04-05T16:07:58.635Z</time>
      </trkpt>
      <trkpt lat="43.34993" lon="5.78009">
        <ele>584.5</ele>
        <time>2023-04-05T16:08:01.246Z</time>
      </trkpt>
      <trkpt lat="43.34981" lon="5.77997">
        <ele>589</ele>
        <time>2023-04-05T16:08:03.478Z</time>
      </trkpt>
      <trkpt lat="43.34976" lon="5.77988">
        <ele>590.8</ele>
        <time>2023-04-05T16:08:04.767Z</time>
      </trkpt>
      <trkpt lat="43.34976" lon="5.77977">
        <ele>590.5</ele>
        <time>2023-04-05T16:08:05.953Z</time>
      </trkpt>
      <trkpt lat="43.34984" lon="5.77949">
        <ele>585.8</ele>
        <time>2023-04-05T16:08:09.235Z</time>
      </trkpt>
      <trkpt lat="43.34984" lon="5.77931">
        <ele>585</ele>
        <time>2023-04-05T16:08:11.284Z</time>
      </trkpt>
      <trkpt lat="43.34973" lon="5.77857">
        <ele>588</ele>
        <time>2023-04-05T16:08:19.772Z</time>
      </trkpt>
      <trkpt lat="43.34967" lon="5.77804">
        <ele>584</ele>
        <time>2023-04-05T16:08:25.803Z</time>
      </trkpt>
      <trkpt lat="43.34959" lon="5.77783">
        <ele>583.3</ele>
        <time>2023-04-05T16:08:28.379Z</time>
      </trkpt>
      <trkpt lat="43.3494" lon="5.77763">
        <ele>588.3</ele>
        <time>2023-04-05T16:08:32.076Z</time>
      </trkpt>
      <trkpt lat="43.34918" lon="5.77743">
        <ele>594.8</ele>
        <time>2023-04-05T16:08:36.193Z</time>
      </trkpt>
      <trkpt lat="43.34899" lon="5.77731">
        <ele>599.5</ele>
        <time>2023-04-05T16:08:39.360Z</time>
      </trkpt>
      <trkpt lat="43.34866" lon="5.77717">
        <ele>610.8</ele>
        <time>2023-04-05T16:08:44.732Z</time>
      </trkpt>
      <trkpt lat="43.34861" lon="5.77711">
        <ele>612</ele>
        <time>2023-04-05T16:08:45.798Z</time>
      </trkpt>
      <trkpt lat="43.34857" lon="5.77697">
        <ele>612</ele>
        <time>2023-04-05T16:08:47.424Z</time>
      </trkpt>
      <trkpt lat="43.34855" lon="5.77672">
        <ele>610.5</ele>
        <time>2023-04-05T16:08:50.293Z</time>
      </trkpt>
      <trkpt lat="43.34854" lon="5.77647">
        <ele>613.3</ele>
        <time>2023-04-05T16:08:53.049Z</time>
      </trkpt>
      <trkpt lat="43.34857" lon="5.77637">
        <ele>612.8</ele>
        <time>2023-04-05T16:08:54.251Z</time>
      </trkpt>
      <trkpt lat="43.34872" lon="5.77615">
        <ele>608.5</ele>
        <time>2023-04-05T16:08:57.630Z</time>
      </trkpt>
      <trkpt lat="43.34883" lon="5.77581">
        <ele>606.8</ele>
        <time>2023-04-05T16:09:01.743Z</time>
      </trkpt>
      <trkpt lat="43.34906" lon="5.77458">
        <ele>609.3</ele>
        <time>2023-04-05T16:09:15.983Z</time>
      </trkpt>
      <trkpt lat="43.34911" lon="5.77411">
        <ele>610.8</ele>
        <time>2023-04-05T16:09:21.312Z</time>
      </trkpt>
      <trkpt lat="43.34913" lon="5.77355">
        <ele>613.5</ele>
        <time>2023-04-05T16:09:27.534Z</time>
      </trkpt>
      <trkpt lat="43.3491" lon="5.77335">
        <ele>616</ele>
        <time>2023-04-05T16:09:29.880Z</time>
      </trkpt>
      <trkpt lat="43.34897" lon="5.7724">
        <ele>622.8</ele>
        <time>2023-04-05T16:09:40.661Z</time>
      </trkpt>
      <trkpt lat="43.34868" lon="5.77094">
        <ele>626</ele>
        <time>2023-04-05T16:09:57.613Z</time>
      </trkpt>
      <trkpt lat="43.34853" lon="5.77044">
        <ele>627.3</ele>
        <time>2023-04-05T16:10:03.708Z</time>
      </trkpt>
      <trkpt lat="43.34829" lon="5.76987">
        <ele>631</ele>
        <time>2023-04-05T16:10:11.058Z</time>
      </trkpt>
      <trkpt lat="43.34806" lon="5.76937">
        <ele>635.3</ele>
        <time>2023-04-05T16:10:17.683Z</time>
      </trkpt>
      <trkpt lat="43.34787" lon="5.76892">
        <ele>636.8</ele>
        <time>2023-04-05T16:10:23.512Z</time>
      </trkpt>
      <trkpt lat="43.34774" lon="5.76857">
        <ele>635.5</ele>
        <time>2023-04-05T16:10:27.858Z</time>
      </trkpt>
      <trkpt lat="43.34766" lon="5.76844">
        <ele>635.5</ele>
        <time>2023-04-05T16:10:29.799Z</time>
      </trkpt>
      <trkpt lat="43.34758" lon="5.76833">
        <ele>635.8</ele>
        <time>2023-04-05T16:10:31.540Z</time>
      </trkpt>
      <trkpt lat="43.34747" lon="5.76824">
        <ele>635</ele>
        <time>2023-04-05T16:10:33.510Z</time>
      </trkpt>
      <trkpt lat="43.3472" lon="5.76815">
        <ele>634.5</ele>
        <time>2023-04-05T16:10:37.787Z</time>
      </trkpt>
      <trkpt lat="43.34699" lon="5.76815">
        <ele>636.5</ele>
        <time>2023-04-05T16:10:41.035Z</time>
      </trkpt>
      <trkpt lat="43.34652" lon="5.7682">
        <ele>644.3</ele>
        <time>2023-04-05T16:10:48.357Z</time>
      </trkpt>
      <trkpt lat="43.34618" lon="5.76823">
        <ele>650.8</ele>
        <time>2023-04-05T16:10:53.523Z</time>
      </trkpt>
      <trkpt lat="43.34605" lon="5.76823">
        <ele>652.8</ele>
        <time>2023-04-05T16:10:55.524Z</time>
      </trkpt>
      <trkpt lat="43.34601" lon="5.76821">
        <ele>652.8</ele>
        <time>2023-04-05T16:10:56.198Z</time>
      </trkpt>
      <trkpt lat="43.3458" lon="5.7681">
        <ele>651.5</ele>
        <time>2023-04-05T16:10:59.641Z</time>
      </trkpt>
      <trkpt lat="43.34554" lon="5.76798">
        <ele>653.5</ele>
        <time>2023-04-05T16:11:03.838Z</time>
      </trkpt>
      <trkpt lat="43.34546" lon="5.76791">
        <ele>653.5</ele>
        <time>2023-04-05T16:11:05.289Z</time>
      </trkpt>
      <trkpt lat="43.34514" lon="5.76758">
        <ele>652.3</ele>
        <time>2023-04-05T16:11:11.462Z</time>
      </trkpt>
      <trkpt lat="43.34501" lon="5.76749">
        <ele>654.3</ele>
        <time>2023-04-05T16:11:13.739Z</time>
      </trkpt>
      <trkpt lat="43.34455" lon="5.76724">
        <ele>660.8</ele>
        <time>2023-04-05T16:11:21.311Z</time>
      </trkpt>
      <trkpt lat="43.34446" lon="5.76717">
        <ele>662</ele>
        <time>2023-04-05T16:11:22.919Z</time>
      </trkpt>
      <trkpt lat="43.3444" lon="5.76706">
        <ele>661.8</ele>
        <time>2023-04-05T16:11:24.431Z</time>
      </trkpt>
      <trkpt lat="43.34431" lon="5.7666">
        <ele>654.8</ele>
        <time>2023-04-05T16:11:29.809Z</time>
      </trkpt>
      <trkpt lat="43.3442" lon="5.76624">
        <ele>648.5</ele>
        <time>2023-04-05T16:11:34.094Z</time>
      </trkpt>
      <trkpt lat="43.34412" lon="5.7661">
        <ele>645.8</ele>
        <time>2023-04-05T16:11:36.077Z</time>
      </trkpt>
      <trkpt lat="43.34403" lon="5.76604">
        <ele>644.8</ele>
        <time>2023-04-05T16:11:37.672Z</time>
      </trkpt>
      <trkpt lat="43.34395" lon="5.76606">
        <ele>646</ele>
        <time>2023-04-05T16:11:38.859Z</time>
      </trkpt>
      <trkpt lat="43.34385" lon="5.76614">
        <ele>649</ele>
        <time>2023-04-05T16:11:40.667Z</time>
      </trkpt>
      <trkpt lat="43.34365" lon="5.76641">
        <ele>659</ele>
        <time>2023-04-05T16:11:44.999Z</time>
      </trkpt>
      <trkpt lat="43.34358" lon="5.76649">
        <ele>661.8</ele>
        <time>2023-04-05T16:11:46.403Z</time>
      </trkpt>
      <trkpt lat="43.34349" lon="5.76652">
        <ele>663.5</ele>
        <time>2023-04-05T16:11:47.786Z</time>
      </trkpt>
      <trkpt lat="43.34328" lon="5.76652">
        <ele>664.8</ele>
        <time>2023-04-05T16:11:50.957Z</time>
      </trkpt>
      <trkpt lat="43.34309" lon="5.76654">
        <ele>666.3</ele>
        <time>2023-04-05T16:11:53.939Z</time>
      </trkpt>
      <trkpt lat="43.34298" lon="5.76659">
        <ele>668</ele>
        <time>2023-04-05T16:11:55.771Z</time>
      </trkpt>
      <trkpt lat="43.34292" lon="5.76666">
        <ele>669.8</ele>
        <time>2023-04-05T16:11:56.947Z</time>
      </trkpt>
      <trkpt lat="43.34288" lon="5.7668">
        <ele>671.3</ele>
        <time>2023-04-05T16:11:58.580Z</time>
      </trkpt>
      <trkpt lat="43.34285" lon="5.76703">
        <ele>673.5</ele>
        <time>2023-04-05T16:12:01.246Z</time>
      </trkpt>
      <trkpt lat="43.34282" lon="5.76747">
        <ele>677.5</ele>
        <time>2023-04-05T16:12:06.179Z</time>
      </trkpt>
      <trkpt lat="43.34277" lon="5.76756">
        <ele>678</ele>
        <time>2023-04-05T16:12:07.339Z</time>
      </trkpt>
      <trkpt lat="43.34271" lon="5.76758">
        <ele>678</ele>
        <time>2023-04-05T16:12:08.344Z</time>
      </trkpt>
      <trkpt lat="43.34263" lon="5.76752">
        <ele>678</ele>
        <time>2023-04-05T16:12:09.683Z</time>
      </trkpt>
      <trkpt lat="43.34261" lon="5.76749">
        <ele>677.8</ele>
        <time>2023-04-05T16:12:10.198Z</time>
      </trkpt>
      <trkpt lat="43.34227" lon="5.76699">
        <ele>675.5</ele>
        <time>2023-04-05T16:12:17.874Z</time>
      </trkpt>
      <trkpt lat="43.34221" lon="5.76692">
        <ele>675.5</ele>
        <time>2023-04-05T16:12:19.088Z</time>
      </trkpt>
      <trkpt lat="43.34214" lon="5.7669">
        <ele>676</ele>
        <time>2023-04-05T16:12:20.210Z</time>
      </trkpt>
      <trkpt lat="43.34204" lon="5.76691">
        <ele>677</ele>
        <time>2023-04-05T16:12:21.695Z</time>
      </trkpt>
      <trkpt lat="43.34178" lon="5.76703">
        <ele>679.5</ele>
        <time>2023-04-05T16:12:25.873Z</time>
      </trkpt>
      <trkpt lat="43.34161" lon="5.76712">
        <ele>680.5</ele>
        <time>2023-04-05T16:12:28.709Z</time>
      </trkpt>
      <trkpt lat="43.34137" lon="5.76733">
        <ele>680.5</ele>
        <time>2023-04-05T16:12:33.155Z</time>
      </trkpt>
      <trkpt lat="43.34127" lon="5.76739">
        <ele>680.3</ele>
        <time>2023-04-05T16:12:34.778Z</time>
      </trkpt>
      <trkpt lat="43.34106" lon="5.76742">
        <ele>680</ele>
        <time>2023-04-05T16:12:38.057Z</time>
      </trkpt>
      <trkpt lat="43.34087" lon="5.76741">
        <ele>680</ele>
        <time>2023-04-05T16:12:40.890Z</time>
      </trkpt>
      <trkpt lat="43.34045" lon="5.7674">
        <ele>680.3</ele>
        <time>2023-04-05T16:12:47.404Z</time>
      </trkpt>
      <trkpt lat="43.34005" lon="5.76735">
        <ele>680.8</ele>
        <time>2023-04-05T16:12:53.665Z</time>
      </trkpt>
      <trkpt lat="43.33979" lon="5.76726">
        <ele>680</ele>
        <time>2023-04-05T16:12:57.655Z</time>
      </trkpt>
      <trkpt lat="43.3397" lon="5.76721">
        <ele>679.5</ele>
        <time>2023-04-05T16:12:59.151Z</time>
      </trkpt>
      <trkpt lat="43.33942" lon="5.76707">
        <ele>678.5</ele>
        <time>2023-04-05T16:13:03.829Z</time>
      </trkpt>
      <trkpt lat="43.33934" lon="5.76703">
        <ele>678.5</ele>
        <time>2023-04-05T16:13:05.096Z</time>
      </trkpt>
      <trkpt lat="43.339" lon="5.76689">
        <ele>677.8</ele>
        <time>2023-04-05T16:13:10.497Z</time>
      </trkpt>
      <trkpt lat="43.33834" lon="5.76663">
        <ele>677</ele>
        <time>2023-04-05T16:13:21.186Z</time>
      </trkpt>
      <trkpt lat="43.33773" lon="5.76631">
        <ele>677.8</ele>
        <time>2023-04-05T16:13:31.159Z</time>
      </trkpt>
      <trkpt lat="43.3375" lon="5.76622">
        <ele>677.8</ele>
        <time>2023-04-05T16:13:34.810Z</time>
      </trkpt>
      <trkpt lat="43.33712" lon="5.76616">
        <ele>678.8</ele>
        <time>2023-04-05T16:13:40.774Z</time>
      </trkpt>
      <trkpt lat="43.33637" lon="5.76584">
        <ele>679.5</ele>
        <time>2023-04-05T16:13:52.884Z</time>
      </trkpt>
      <trkpt lat="43.33617" lon="5.76573">
        <ele>679.8</ele>
        <time>2023-04-05T16:13:56.159Z</time>
      </trkpt>
      <trkpt lat="43.33603" lon="5.76563">
        <ele>679.8</ele>
        <time>2023-04-05T16:13:58.642Z</time>
      </trkpt>
      <trkpt lat="43.33592" lon="5.76578">
        <ele>680.5</ele>
        <time>2023-04-05T16:14:00.981Z</time>
      </trkpt>
      <trkpt lat="43.33588" lon="5.76586">
        <ele>680.8</ele>
        <time>2023-04-05T16:14:02.094Z</time>
      </trkpt>
      <trkpt lat="43.33586" lon="5.76601">
        <ele>681.5</ele>
        <time>2023-04-05T16:14:03.801Z</time>
      </trkpt>
      <trkpt lat="43.33589" lon="5.76622">
        <ele>682.3</ele>
        <time>2023-04-05T16:14:06.197Z</time>
      </trkpt>
      <trkpt lat="43.336" lon="5.76682">
        <ele>683.8</ele>
        <time>2023-04-05T16:14:13.122Z</time>
      </trkpt>
      <trkpt lat="43.33613" lon="5.76684">
        <ele>683.5</ele>
        <time>2023-04-05T16:14:15.170Z</time>
      </trkpt>
      <trkpt lat="43.33628" lon="5.76714">
        <ele>683.5</ele>
        <time>2023-04-05T16:14:19.264Z</time>
      </trkpt>
      <trkpt lat="43.33644" lon="5.76751">
        <ele>683.5</ele>
        <time>2023-04-05T16:14:24.080Z</time>
      </trkpt>
      <trkpt lat="43.33657" lon="5.7677">
        <ele>683.3</ele>
        <time>2023-04-05T16:14:26.971Z</time>
      </trkpt>
      <trkpt lat="43.33662" lon="5.76793">
        <ele>683</ele>
        <time>2023-04-05T16:14:29.665Z</time>
      </trkpt>
      <trkpt lat="43.33665" lon="5.76829">
        <ele>683</ele>
        <time>2023-04-05T16:14:33.700Z</time>
      </trkpt>
      <trkpt lat="43.33664" lon="5.7685">
        <ele>683.3</ele>
        <time>2023-04-05T16:14:36.096Z</time>
      </trkpt>
      <trkpt lat="43.33665" lon="5.76829">
        <ele>683</ele>
        <time>2023-04-05T16:14:38.492Z</time>
      </trkpt>
      <trkpt lat="43.33662" lon="5.76793">
        <ele>683</ele>
        <time>2023-04-05T16:14:42.527Z</time>
      </trkpt>
      <trkpt lat="43.33657" lon="5.7677">
        <ele>683.3</ele>
        <time>2023-04-05T16:14:45.221Z</time>
      </trkpt>
      <trkpt lat="43.33644" lon="5.76751">
        <ele>683.5</ele>
        <time>2023-04-05T16:14:48.112Z</time>
      </trkpt>
      <trkpt lat="43.33628" lon="5.76714">
        <ele>683.5</ele>
        <time>2023-04-05T16:14:52.928Z</time>
      </trkpt>
      <trkpt lat="43.33613" lon="5.76684">
        <ele>683.5</ele>
        <time>2023-04-05T16:14:57.022Z</time>
      </trkpt>
      <trkpt lat="43.336" lon="5.76682">
        <ele>683.8</ele>
        <time>2023-04-05T16:14:59.070Z</time>
      </trkpt>
      <trkpt lat="43.33602" lon="5.76696">
        <ele>683.8</ele>
        <time>2023-04-05T16:15:00.669Z</time>
      </trkpt>
      <trkpt lat="43.33624" lon="5.76796">
        <ele>684.3</ele>
        <time>2023-04-05T16:15:12.368Z</time>
      </trkpt>
      <trkpt lat="43.33632" lon="5.7683">
        <ele>684</ele>
        <time>2023-04-05T16:15:16.321Z</time>
      </trkpt>
      <trkpt lat="43.33662" lon="5.76954">
        <ele>685.5</ele>
        <time>2023-04-05T16:15:31.003Z</time>
      </trkpt>
      <trkpt lat="43.33682" lon="5.77031">
        <ele>685.5</ele>
        <time>2023-04-05T16:15:40.180Z</time>
      </trkpt>
      <trkpt lat="43.33693" lon="5.77075">
        <ele>685</ele>
        <time>2023-04-05T16:15:45.368Z</time>
      </trkpt>
      <trkpt lat="43.33711" lon="5.77172">
        <ele>686</ele>
        <time>2023-04-05T16:15:56.578Z</time>
      </trkpt>
      <trkpt lat="43.33739" lon="5.77342">
        <ele>687.5</ele>
        <time>2023-04-05T16:16:16.139Z</time>
      </trkpt>
      <trkpt lat="43.3374" lon="5.77349">
        <ele>687.5</ele>
        <time>2023-04-05T16:16:16.882Z</time>
      </trkpt>
      <trkpt lat="43.33743" lon="5.77363">
        <ele>687.3</ele>
        <time>2023-04-05T16:16:18.574Z</time>
      </trkpt>
      <trkpt lat="43.33746" lon="5.77376">
        <ele>687</ele>
        <time>2023-04-05T16:16:20.087Z</time>
      </trkpt>
      <trkpt lat="43.33755" lon="5.77437">
        <ele>686</ele>
        <time>2023-04-05T16:16:26.998Z</time>
      </trkpt>
      <trkpt lat="43.33763" lon="5.77523">
        <ele>687.8</ele>
        <time>2023-04-05T16:16:36.693Z</time>
      </trkpt>
      <trkpt lat="43.33771" lon="5.77601">
        <ele>690</ele>
        <time>2023-04-05T16:16:45.485Z</time>
      </trkpt>
      <trkpt lat="43.33777" lon="5.77629">
        <ele>690.5</ele>
        <time>2023-04-05T16:16:48.758Z</time>
      </trkpt>
      <trkpt lat="43.33818" lon="5.7777">
        <ele>691.8</ele>
        <time>2023-04-05T16:17:05.762Z</time>
      </trkpt>
      <trkpt lat="43.33841" lon="5.7784">
        <ele>692.3</ele>
        <time>2023-04-05T16:17:14.457Z</time>
      </trkpt>
      <trkpt lat="43.33901" lon="5.78042">
        <ele>699.8</ele>
        <time>2023-04-05T16:17:38.903Z</time>
      </trkpt>
      <trkpt lat="43.33922" lon="5.78116">
        <ele>701</ele>
        <time>2023-04-05T16:17:47.797Z</time>
      </trkpt>
      <trkpt lat="43.33946" lon="5.78208">
        <ele>701.8</ele>
        <time>2023-04-05T16:17:58.657Z</time>
      </trkpt>
      <trkpt lat="43.33997" lon="5.78395">
        <ele>703</ele>
        <time>2023-04-05T16:18:21.009Z</time>
      </trkpt>
      <trkpt lat="43.34014" lon="5.78448">
        <ele>703.5</ele>
        <time>2023-04-05T16:18:27.583Z</time>
      </trkpt>
      <trkpt lat="43.34043" lon="5.7851">
        <ele>704.3</ele>
        <time>2023-04-05T16:18:35.815Z</time>
      </trkpt>
      <trkpt lat="43.34066" lon="5.78555">
        <ele>704.5</ele>
        <time>2023-04-05T16:18:41.974Z</time>
      </trkpt>
      <trkpt lat="43.34123" lon="5.78708">
        <ele>705.5</ele>
        <time>2023-04-05T16:19:01.152Z</time>
      </trkpt>
      <trkpt lat="43.34146" lon="5.78791">
        <ele>707.8</ele>
        <time>2023-04-05T16:19:11.166Z</time>
      </trkpt>
      <trkpt lat="43.34158" lon="5.78888">
        <ele>711.3</ele>
        <time>2023-04-05T16:19:22.183Z</time>
      </trkpt>
      <trkpt lat="43.34162" lon="5.78902">
        <ele>711.3</ele>
        <time>2023-04-05T16:19:23.867Z</time>
      </trkpt>
      <trkpt lat="43.34168" lon="5.78915">
        <ele>710.8</ele>
        <time>2023-04-05T16:19:25.591Z</time>
      </trkpt>
      <trkpt lat="43.34176" lon="5.78926">
        <ele>711.3</ele>
        <time>2023-04-05T16:19:27.332Z</time>
      </trkpt>
      <trkpt lat="43.34191" lon="5.7894">
        <ele>711.8</ele>
        <time>2023-04-05T16:19:30.097Z</time>
      </trkpt>
      <trkpt lat="43.34277" lon="5.79024">
        <ele>713.3</ele>
        <time>2023-04-05T16:19:46.299Z</time>
      </trkpt>
      <trkpt lat="43.34325" lon="5.79065">
        <ele>716.5</ele>
        <time>2023-04-05T16:19:55.033Z</time>
      </trkpt>
      <trkpt lat="43.34352" lon="5.79089">
        <ele>718</ele>
        <time>2023-04-05T16:19:59.945Z</time>
      </trkpt>
      <trkpt lat="43.34359" lon="5.79098">
        <ele>718</ele>
        <time>2023-04-05T16:20:01.500Z</time>
      </trkpt>
      <trkpt lat="43.34367" lon="5.79115">
        <ele>718</ele>
        <time>2023-04-05T16:20:03.689Z</time>
      </trkpt>
      <trkpt lat="43.34374" lon="5.79133">
        <ele>718</ele>
        <time>2023-04-05T16:20:06.021Z</time>
      </trkpt>
      <trkpt lat="43.34401" lon="5.79207">
        <ele>718.5</ele>
        <time>2023-04-05T16:20:15.247Z</time>
      </trkpt>
      <trkpt lat="43.34444" lon="5.79291">
        <ele>718.3</ele>
        <time>2023-04-05T16:20:26.821Z</time>
      </trkpt>
      <trkpt lat="43.34501" lon="5.79445">
        <ele>713.3</ele>
        <time>2023-04-05T16:20:46.145Z</time>
      </trkpt>
      <trkpt lat="43.34524" lon="5.79517">
        <ele>711.8</ele>
        <time>2023-04-05T16:20:54.950Z</time>
      </trkpt>
      <trkpt lat="43.34548" lon="5.79605">
        <ele>710.3</ele>
        <time>2023-04-05T16:21:05.473Z</time>
      </trkpt>
      <trkpt lat="43.34559" lon="5.79661">
        <ele>710.5</ele>
        <time>2023-04-05T16:21:11.967Z</time>
      </trkpt>
      <trkpt lat="43.34563" lon="5.79697">
        <ele>711</ele>
        <time>2023-04-05T16:21:16.044Z</time>
      </trkpt>
      <trkpt lat="43.34574" lon="5.79766">
        <ele>711.5</ele>
        <time>2023-04-05T16:21:23.995Z</time>
      </trkpt>
      <trkpt lat="43.34581" lon="5.79795">
        <ele>712.3</ele>
        <time>2023-04-05T16:21:27.328Z</time>
      </trkpt>
      <trkpt lat="43.34583" lon="5.79803">
        <ele>712.5</ele>
        <time>2023-04-05T16:21:28.329Z</time>
      </trkpt>
      <trkpt lat="43.3459" lon="5.79815">
        <ele>712.5</ele>
        <time>2023-04-05T16:21:29.950Z</time>
      </trkpt>
      <trkpt lat="43.34597" lon="5.79826">
        <ele>712.8</ele>
        <time>2023-04-05T16:21:31.687Z</time>
      </trkpt>
      <trkpt lat="43.34611" lon="5.79841">
        <ele>712.8</ele>
        <time>2023-04-05T16:21:34.356Z</time>
      </trkpt>
      <trkpt lat="43.34623" lon="5.79857">
        <ele>713</ele>
        <time>2023-04-05T16:21:36.936Z</time>
      </trkpt>
      <trkpt lat="43.34665" lon="5.79909">
        <ele>716.3</ele>
        <time>2023-04-05T16:21:45.656Z</time>
      </trkpt>
      <trkpt lat="43.34686" lon="5.79937">
        <ele>717.3</ele>
        <time>2023-04-05T16:21:50.159Z</time>
      </trkpt>
      <trkpt lat="43.34711" lon="5.79978">
        <ele>718.5</ele>
        <time>2023-04-05T16:21:56.149Z</time>
      </trkpt>
      <trkpt lat="43.34723" lon="5.80009">
        <ele>719.5</ele>
        <time>2023-04-05T16:22:00.025Z</time>
      </trkpt>
      <trkpt lat="43.34727" lon="5.80021">
        <ele>719.8</ele>
        <time>2023-04-05T16:22:01.556Z</time>
      </trkpt>
      <trkpt lat="43.34737" lon="5.80057">
        <ele>720.5</ele>
        <time>2023-04-05T16:22:05.818Z</time>
      </trkpt>
      <trkpt lat="43.34741" lon="5.80082">
        <ele>720.8</ele>
        <time>2023-04-05T16:22:08.785Z</time>
      </trkpt>
      <trkpt lat="43.3474" lon="5.80119">
        <ele>721.3</ele>
        <time>2023-04-05T16:22:12.878Z</time>
      </trkpt>
      <trkpt lat="43.34737" lon="5.80159">
        <ele>722</ele>
        <time>2023-04-05T16:22:17.435Z</time>
      </trkpt>
      <trkpt lat="43.3472" lon="5.80324">
        <ele>723</ele>
        <time>2023-04-05T16:22:36.040Z</time>
      </trkpt>
      <trkpt lat="43.34721" lon="5.80362">
        <ele>723.3</ele>
        <time>2023-04-05T16:22:40.340Z</time>
      </trkpt>
      <trkpt lat="43.34724" lon="5.80441">
        <ele>723.5</ele>
        <time>2023-04-05T16:22:49.095Z</time>
      </trkpt>
      <trkpt lat="43.34725" lon="5.80537">
        <ele>725.3</ele>
        <time>2023-04-05T16:22:59.924Z</time>
      </trkpt>
      <trkpt lat="43.3473" lon="5.80574">
        <ele>724.8</ele>
        <time>2023-04-05T16:23:04.121Z</time>
      </trkpt>
      <trkpt lat="43.34766" lon="5.80809">
        <ele>731</ele>
        <time>2023-04-05T16:23:30.993Z</time>
      </trkpt>
      <trkpt lat="43.3477" lon="5.8084">
        <ele>732</ele>
        <time>2023-04-05T16:23:34.507Z</time>
      </trkpt>
      <trkpt lat="43.34777" lon="5.80868">
        <ele>732.5</ele>
        <time>2023-04-05T16:23:37.838Z</time>
      </trkpt>
      <trkpt lat="43.3483" lon="5.81035">
        <ele>731.5</ele>
        <time>2023-04-05T16:23:58.238Z</time>
      </trkpt>
      <trkpt lat="43.34852" lon="5.81131">
        <ele>732.5</ele>
        <time>2023-04-05T16:24:09.507Z</time>
      </trkpt>
      <trkpt lat="43.34875" lon="5.81223">
        <ele>735</ele>
        <time>2023-04-05T16:24:20.399Z</time>
      </trkpt>
      <trkpt lat="43.34912" lon="5.81396">
        <ele>738.8</ele>
        <time>2023-04-05T16:24:40.588Z</time>
      </trkpt>
      <trkpt lat="43.34917" lon="5.81414">
        <ele>738.8</ele>
        <time>2023-04-05T16:24:42.745Z</time>
      </trkpt>
      <trkpt lat="43.34951" lon="5.8151">
        <ele>745.3</ele>
        <time>2023-04-05T16:24:54.696Z</time>
      </trkpt>
      <trkpt lat="43.34979" lon="5.81561">
        <ele>746.3</ele>
        <time>2023-04-05T16:25:01.879Z</time>
      </trkpt>
      <trkpt lat="43.35004" lon="5.81601">
        <ele>746.3</ele>
        <time>2023-04-05T16:25:07.787Z</time>
      </trkpt>
      <trkpt lat="43.35019" lon="5.81629">
        <ele>746.8</ele>
        <time>2023-04-05T16:25:11.608Z</time>
      </trkpt>
      <trkpt lat="43.35032" lon="5.81661">
        <ele>747.3</ele>
        <time>2023-04-05T16:25:15.731Z</time>
      </trkpt>
      <trkpt lat="43.35052" lon="5.81714">
        <ele>747.8</ele>
        <time>2023-04-05T16:25:22.416Z</time>
      </trkpt>
      <trkpt lat="43.3506" lon="5.81751">
        <ele>747.8</ele>
        <time>2023-04-05T16:25:26.763Z</time>
      </trkpt>
      <trkpt lat="43.35065" lon="5.81809">
        <ele>747.3</ele>
        <time>2023-04-05T16:25:33.246Z</time>
      </trkpt>
      <trkpt lat="43.35069" lon="5.81865">
        <ele>747.3</ele>
        <time>2023-04-05T16:25:39.601Z</time>
      </trkpt>
      <trkpt lat="43.3507" lon="5.81936">
        <ele>747.3</ele>
        <time>2023-04-05T16:25:47.551Z</time>
      </trkpt>
      <trkpt lat="43.35075" lon="5.81987">
        <ele>745.3</ele>
        <time>2023-04-05T16:25:53.312Z</time>
      </trkpt>
      <trkpt lat="43.35099" lon="5.82117">
        <ele>739</ele>
        <time>2023-04-05T16:26:08.341Z</time>
      </trkpt>
      <trkpt lat="43.35115" lon="5.82179">
        <ele>737.8</ele>
        <time>2023-04-05T16:26:15.658Z</time>
      </trkpt>
      <trkpt lat="43.35156" lon="5.82308">
        <ele>733.3</ele>
        <time>2023-04-05T16:26:31.431Z</time>
      </trkpt>
      <trkpt lat="43.35183" lon="5.82379">
        <ele>730.3</ele>
        <time>2023-04-05T16:26:40.430Z</time>
      </trkpt>
      <trkpt lat="43.35195" lon="5.82414">
        <ele>729</ele>
        <time>2023-04-05T16:26:44.759Z</time>
      </trkpt>
      <trkpt lat="43.35195" lon="5.82415">
        <ele>729</ele>
        <time>2023-04-05T16:26:44.880Z</time>
      </trkpt>
      <trkpt lat="43.35204" lon="5.82445">
        <ele>728.3</ele>
        <time>2023-04-05T16:26:48.479Z</time>
      </trkpt>
      <trkpt lat="43.35213" lon="5.82483">
        <ele>727.3</ele>
        <time>2023-04-05T16:26:52.917Z</time>
      </trkpt>
      <trkpt lat="43.3522" lon="5.82528">
        <ele>725.5</ele>
        <time>2023-04-05T16:26:58.060Z</time>
      </trkpt>
      <trkpt lat="43.35233" lon="5.8258">
        <ele>723.3</ele>
        <time>2023-04-05T16:27:04.295Z</time>
      </trkpt>
      <trkpt lat="43.35249" lon="5.8262">
        <ele>722.5</ele>
        <time>2023-04-05T16:27:09.384Z</time>
      </trkpt>
      <trkpt lat="43.35252" lon="5.82636">
        <ele>722.3</ele>
        <time>2023-04-05T16:27:11.239Z</time>
      </trkpt>
      <trkpt lat="43.35253" lon="5.82652">
        <ele>722.3</ele>
        <time>2023-04-05T16:27:13.032Z</time>
      </trkpt>
      <trkpt lat="43.35251" lon="5.82664">
        <ele>722</ele>
        <time>2023-04-05T16:27:14.451Z</time>
      </trkpt>
      <trkpt lat="43.35239" lon="5.82689">
        <ele>722.5</ele>
        <time>2023-04-05T16:27:17.760Z</time>
      </trkpt>
      <trkpt lat="43.35209" lon="5.82735">
        <ele>724.8</ele>
        <time>2023-04-05T16:27:24.680Z</time>
      </trkpt>
      <trkpt lat="43.35202" lon="5.82751">
        <ele>725.5</ele>
        <time>2023-04-05T16:27:26.745Z</time>
      </trkpt>
      <trkpt lat="43.35198" lon="5.82761">
        <ele>725.8</ele>
        <time>2023-04-05T16:27:28.008Z</time>
      </trkpt>
      <trkpt lat="43.35196" lon="5.82771">
        <ele>725.8</ele>
        <time>2023-04-05T16:27:29.192Z</time>
      </trkpt>
      <trkpt lat="43.352" lon="5.82847">
        <ele>724.8</ele>
        <time>2023-04-05T16:27:37.761Z</time>
      </trkpt>
      <trkpt lat="43.35198" lon="5.82878">
        <ele>725.3</ele>
        <time>2023-04-05T16:27:41.219Z</time>
      </trkpt>
      <trkpt lat="43.35195" lon="5.82917">
        <ele>726.3</ele>
        <time>2023-04-05T16:27:45.640Z</time>
      </trkpt>
      <trkpt lat="43.35195" lon="5.82932">
        <ele>726</ele>
        <time>2023-04-05T16:27:47.300Z</time>
      </trkpt>
      <trkpt lat="43.35198" lon="5.82944">
        <ele>725.5</ele>
        <time>2023-04-05T16:27:48.736Z</time>
      </trkpt>
      <trkpt lat="43.35215" lon="5.82983">
        <ele>722.5</ele>
        <time>2023-04-05T16:27:53.726Z</time>
      </trkpt>
      <trkpt lat="43.35242" lon="5.83043">
        <ele>717.8</ele>
        <time>2023-04-05T16:28:01.689Z</time>
      </trkpt>
      <trkpt lat="43.35247" lon="5.8306">
        <ele>717.3</ele>
        <time>2023-04-05T16:28:03.682Z</time>
      </trkpt>
      <trkpt lat="43.35248" lon="5.83068">
        <ele>717</ele>
        <time>2023-04-05T16:28:04.661Z</time>
      </trkpt>
      <trkpt lat="43.35247" lon="5.83265">
        <ele>709.3</ele>
        <time>2023-04-05T16:28:26.715Z</time>
      </trkpt>
      <trkpt lat="43.35259" lon="5.83356">
        <ele>705.3</ele>
        <time>2023-04-05T16:28:37.035Z</time>
      </trkpt>
      <trkpt lat="43.35262" lon="5.83406">
        <ele>704.3</ele>
        <time>2023-04-05T16:28:42.651Z</time>
      </trkpt>
      <trkpt lat="43.35269" lon="5.83471">
        <ele>701.8</ele>
        <time>2023-04-05T16:28:50.033Z</time>
      </trkpt>
      <trkpt lat="43.35269" lon="5.83496">
        <ele>700.8</ele>
        <time>2023-04-05T16:28:52.765Z</time>
      </trkpt>
      <trkpt lat="43.35262" lon="5.83546">
        <ele>697.3</ele>
        <time>2023-04-05T16:28:58.534Z</time>
      </trkpt>
      <trkpt lat="43.35263" lon="5.8358">
        <ele>695.8</ele>
        <time>2023-04-05T16:29:02.253Z</time>
      </trkpt>
      <trkpt lat="43.35263" lon="5.83602">
        <ele>694.5</ele>
        <time>2023-04-05T16:29:04.716Z</time>
      </trkpt>
      <trkpt lat="43.3526" lon="5.8362">
        <ele>693.5</ele>
        <time>2023-04-05T16:29:06.825Z</time>
      </trkpt>
      <trkpt lat="43.35256" lon="5.83635">
        <ele>692.3</ele>
        <time>2023-04-05T16:29:08.624Z</time>
      </trkpt>
      <trkpt lat="43.35248" lon="5.83656">
        <ele>690.5</ele>
        <time>2023-04-05T16:29:11.250Z</time>
      </trkpt>
      <trkpt lat="43.35224" lon="5.8371">
        <ele>687.8</ele>
        <time>2023-04-05T16:29:18.359Z</time>
      </trkpt>
      <trkpt lat="43.35216" lon="5.83732">
        <ele>686.3</ele>
        <time>2023-04-05T16:29:21.112Z</time>
      </trkpt>
      <trkpt lat="43.35213" lon="5.83749">
        <ele>684.8</ele>
        <time>2023-04-05T16:29:23.085Z</time>
      </trkpt>
      <trkpt lat="43.35223" lon="5.83802">
        <ele>681.8</ele>
        <time>2023-04-05T16:29:29.148Z</time>
      </trkpt>
      <trkpt lat="43.35225" lon="5.8383">
        <ele>680.3</ele>
        <time>2023-04-05T16:29:32.300Z</time>
      </trkpt>
      <trkpt lat="43.35226" lon="5.83871">
        <ele>679.3</ele>
        <time>2023-04-05T16:29:36.949Z</time>
      </trkpt>
      <trkpt lat="43.35224" lon="5.83912">
        <ele>678</ele>
        <time>2023-04-05T16:29:41.475Z</time>
      </trkpt>
      <trkpt lat="43.35221" lon="5.83922">
        <ele>677.8</ele>
        <time>2023-04-05T16:29:42.653Z</time>
      </trkpt>
      <trkpt lat="43.35213" lon="5.83935">
        <ele>677.5</ele>
        <time>2023-04-05T16:29:44.613Z</time>
      </trkpt>
      <trkpt lat="43.35208" lon="5.83945">
        <ele>677</ele>
        <time>2023-04-05T16:29:45.971Z</time>
      </trkpt>
      <trkpt lat="43.35183" lon="5.83979">
        <ele>674</ele>
        <time>2023-04-05T16:29:51.384Z</time>
      </trkpt>
      <trkpt lat="43.35167" lon="5.84006">
        <ele>670.8</ele>
        <time>2023-04-05T16:29:55.283Z</time>
      </trkpt>
      <trkpt lat="43.35164" lon="5.84017">
        <ele>670.3</ele>
        <time>2023-04-05T16:29:56.598Z</time>
      </trkpt>
      <trkpt lat="43.35164" lon="5.8403">
        <ele>669.5</ele>
        <time>2023-04-05T16:29:58.053Z</time>
      </trkpt>
      <trkpt lat="43.35179" lon="5.84175">
        <ele>664.3</ele>
        <time>2023-04-05T16:30:14.449Z</time>
      </trkpt>
      <trkpt lat="43.35182" lon="5.84245">
        <ele>662</ele>
        <time>2023-04-05T16:30:22.299Z</time>
      </trkpt>
      <trkpt lat="43.35185" lon="5.84269">
        <ele>661</ele>
        <time>2023-04-05T16:30:25.025Z</time>
      </trkpt>
      <trkpt lat="43.35188" lon="5.8428">
        <ele>660.8</ele>
        <time>2023-04-05T16:30:26.340Z</time>
      </trkpt>
      <trkpt lat="43.35205" lon="5.84314">
        <ele>660</ele>
        <time>2023-04-05T16:30:30.959Z</time>
      </trkpt>
      <trkpt lat="43.35215" lon="5.84343">
        <ele>659</ele>
        <time>2023-04-05T16:30:34.552Z</time>
      </trkpt>
      <trkpt lat="43.35243" lon="5.84526">
        <ele>650.5</ele>
        <time>2023-04-05T16:30:55.488Z</time>
      </trkpt>
      <trkpt lat="43.35247" lon="5.84575">
        <ele>647</ele>
        <time>2023-04-05T16:31:01.008Z</time>
      </trkpt>
      <trkpt lat="43.35247" lon="5.84606">
        <ele>645.5</ele>
        <time>2023-04-05T16:31:04.478Z</time>
      </trkpt>
      <trkpt lat="43.35249" lon="5.84637">
        <ele>644</ele>
        <time>2023-04-05T16:31:07.962Z</time>
      </trkpt>
      <trkpt lat="43.35268" lon="5.84755">
        <ele>639.8</ele>
        <time>2023-04-05T16:31:21.492Z</time>
      </trkpt>
      <trkpt lat="43.35274" lon="5.84789">
        <ele>638.5</ele>
        <time>2023-04-05T16:31:25.408Z</time>
      </trkpt>
      <trkpt lat="43.35287" lon="5.84821">
        <ele>637.8</ele>
        <time>2023-04-05T16:31:29.454Z</time>
      </trkpt>
      <trkpt lat="43.35297" lon="5.84851">
        <ele>637</ele>
        <time>2023-04-05T16:31:33.225Z</time>
      </trkpt>
      <trkpt lat="43.35316" lon="5.84895">
        <ele>635.5</ele>
        <time>2023-04-05T16:31:38.926Z</time>
      </trkpt>
      <trkpt lat="43.35316" lon="5.8491">
        <ele>634.5</ele>
        <time>2023-04-05T16:31:40.565Z</time>
      </trkpt>
      <trkpt lat="43.35314" lon="5.84923">
        <ele>634</ele>
        <time>2023-04-05T16:31:42.031Z</time>
      </trkpt>
      <trkpt lat="43.35301" lon="5.84971">
        <ele>634.3</ele>
        <time>2023-04-05T16:31:47.754Z</time>
      </trkpt>
      <trkpt lat="43.35291" lon="5.85008">
        <ele>635.5</ele>
        <time>2023-04-05T16:31:52.225Z</time>
      </trkpt>
      <trkpt lat="43.35286" lon="5.85046">
        <ele>637</ele>
        <time>2023-04-05T16:31:56.548Z</time>
      </trkpt>
      <trkpt lat="43.35287" lon="5.85071">
        <ele>637.5</ele>
        <time>2023-04-05T16:31:59.351Z</time>
      </trkpt>
      <trkpt lat="43.3529" lon="5.85088">
        <ele>636.8</ele>
        <time>2023-04-05T16:32:01.270Z</time>
      </trkpt>
      <trkpt lat="43.35293" lon="5.85111">
        <ele>634.3</ele>
        <time>2023-04-05T16:32:03.922Z</time>
      </trkpt>
      <trkpt lat="43.35291" lon="5.85134">
        <ele>632.8</ele>
        <time>2023-04-05T16:32:06.515Z</time>
      </trkpt>
      <trkpt lat="43.35291" lon="5.85159">
        <ele>630.5</ele>
        <time>2023-04-05T16:32:09.313Z</time>
      </trkpt>
      <trkpt lat="43.35293" lon="5.85172">
        <ele>629.3</ele>
        <time>2023-04-05T16:32:10.800Z</time>
      </trkpt>
      <trkpt lat="43.35314" lon="5.8523">
        <ele>623.3</ele>
        <time>2023-04-05T16:32:18.046Z</time>
      </trkpt>
      <trkpt lat="43.35317" lon="5.8524">
        <ele>622.5</ele>
        <time>2023-04-05T16:32:19.278Z</time>
      </trkpt>
      <trkpt lat="43.35329" lon="5.85272">
        <ele>620</ele>
        <time>2023-04-05T16:32:23.290Z</time>
      </trkpt>
      <trkpt lat="43.35332" lon="5.8528">
        <ele>619.5</ele>
        <time>2023-04-05T16:32:24.307Z</time>
      </trkpt>
      <trkpt lat="43.35338" lon="5.85302">
        <ele>618.3</ele>
        <time>2023-04-05T16:32:26.926Z</time>
      </trkpt>
      <trkpt lat="43.35346" lon="5.85351">
        <ele>615.3</ele>
        <time>2023-04-05T16:32:32.518Z</time>
      </trkpt>
      <trkpt lat="43.3535" lon="5.85405">
        <ele>611</ele>
        <time>2023-04-05T16:32:38.616Z</time>
      </trkpt>
      <trkpt lat="43.3535" lon="5.85417">
        <ele>610</ele>
        <time>2023-04-05T16:32:39.960Z</time>
      </trkpt>
      <trkpt lat="43.35348" lon="5.85427">
        <ele>609.8</ele>
        <time>2023-04-05T16:32:41.109Z</time>
      </trkpt>
      <trkpt lat="43.35345" lon="5.85436">
        <ele>609.8</ele>
        <time>2023-04-05T16:32:42.274Z</time>
      </trkpt>
      <trkpt lat="43.35341" lon="5.85443">
        <ele>610</ele>
        <time>2023-04-05T16:32:43.261Z</time>
      </trkpt>
      <trkpt lat="43.35295" lon="5.85491">
        <ele>616.5</ele>
        <time>2023-04-05T16:32:52.141Z</time>
      </trkpt>
      <trkpt lat="43.35284" lon="5.85505">
        <ele>618</ele>
        <time>2023-04-05T16:32:54.442Z</time>
      </trkpt>
      <trkpt lat="43.35276" lon="5.85521">
        <ele>618.5</ele>
        <time>2023-04-05T16:32:56.643Z</time>
      </trkpt>
      <trkpt lat="43.35271" lon="5.85534">
        <ele>618.5</ele>
        <time>2023-04-05T16:32:58.244Z</time>
      </trkpt>
      <trkpt lat="43.35269" lon="5.8555">
        <ele>618</ele>
        <time>2023-04-05T16:32:59.999Z</time>
      </trkpt>
      <trkpt lat="43.35265" lon="5.85585">
        <ele>616</ele>
        <time>2023-04-05T16:33:04.007Z</time>
      </trkpt>
      <trkpt lat="43.35244" lon="5.85634">
        <ele>613.5</ele>
        <time>2023-04-05T16:33:10.374Z</time>
      </trkpt>
      <trkpt lat="43.35221" lon="5.8571">
        <ele>613.3</ele>
        <time>2023-04-05T16:33:19.589Z</time>
      </trkpt>
      <trkpt lat="43.35212" lon="5.85729">
        <ele>614.5</ele>
        <time>2023-04-05T16:33:22.127Z</time>
      </trkpt>
      <trkpt lat="43.3521" lon="5.85737">
        <ele>614.5</ele>
        <time>2023-04-05T16:33:23.074Z</time>
      </trkpt>
      <trkpt lat="43.35212" lon="5.85754">
        <ele>613.8</ele>
        <time>2023-04-05T16:33:25.001Z</time>
      </trkpt>
      <trkpt lat="43.35216" lon="5.85763">
        <ele>613.3</ele>
        <time>2023-04-05T16:33:26.181Z</time>
      </trkpt>
      <trkpt lat="43.3524" lon="5.85792">
        <ele>608.3</ele>
        <time>2023-04-05T16:33:31.099Z</time>
      </trkpt>
      <trkpt lat="43.35247" lon="5.85799">
        <ele>606.3</ele>
        <time>2023-04-05T16:33:32.431Z</time>
      </trkpt>
      <trkpt lat="43.35271" lon="5.85814">
        <ele>602.3</ele>
        <time>2023-04-05T16:33:36.489Z</time>
      </trkpt>
      <trkpt lat="43.35277" lon="5.8582">
        <ele>601.5</ele>
        <time>2023-04-05T16:33:37.631Z</time>
      </trkpt>
      <trkpt lat="43.35285" lon="5.85834">
        <ele>600</ele>
        <time>2023-04-05T16:33:39.624Z</time>
      </trkpt>
      <trkpt lat="43.35287" lon="5.85842">
        <ele>599.5</ele>
        <time>2023-04-05T16:33:40.571Z</time>
      </trkpt>
      <trkpt lat="43.35287" lon="5.8585">
        <ele>599.3</ele>
        <time>2023-04-05T16:33:41.466Z</time>
      </trkpt>
      <trkpt lat="43.35279" lon="5.85873">
        <ele>600.3</ele>
        <time>2023-04-05T16:33:44.320Z</time>
      </trkpt>
      <trkpt lat="43.35271" lon="5.85888">
        <ele>601.8</ele>
        <time>2023-04-05T16:33:46.402Z</time>
      </trkpt>
      <trkpt lat="43.35268" lon="5.85903">
        <ele>602.5</ele>
        <time>2023-04-05T16:33:48.143Z</time>
      </trkpt>
      <trkpt lat="43.35271" lon="5.85919">
        <ele>601.5</ele>
        <time>2023-04-05T16:33:49.992Z</time>
      </trkpt>
      <trkpt lat="43.35297" lon="5.85961">
        <ele>593.8</ele>
        <time>2023-04-05T16:33:56.167Z</time>
      </trkpt>
      <trkpt lat="43.353" lon="5.85972">
        <ele>592.5</ele>
        <time>2023-04-05T16:33:57.482Z</time>
      </trkpt>
      <trkpt lat="43.35306" lon="5.86003">
        <ele>589.8</ele>
        <time>2023-04-05T16:34:01.073Z</time>
      </trkpt>
      <trkpt lat="43.3531" lon="5.86034">
        <ele>588.8</ele>
        <time>2023-04-05T16:34:04.597Z</time>
      </trkpt>
      <trkpt lat="43.35309" lon="5.86063">
        <ele>589.5</ele>
        <time>2023-04-05T16:34:07.847Z</time>
      </trkpt>
      <trkpt lat="43.35311" lon="5.86069">
        <ele>589</ele>
        <time>2023-04-05T16:34:08.585Z</time>
      </trkpt>
      <trkpt lat="43.3532" lon="5.8608">
        <ele>586.3</ele>
        <time>2023-04-05T16:34:10.438Z</time>
      </trkpt>
      <trkpt lat="43.35333" lon="5.86101">
        <ele>581.3</ele>
        <time>2023-04-05T16:34:13.525Z</time>
      </trkpt>
      <trkpt lat="43.35347" lon="5.86144">
        <ele>576</ele>
        <time>2023-04-05T16:34:18.799Z</time>
      </trkpt>
      <trkpt lat="43.35351" lon="5.86165">
        <ele>574.3</ele>
        <time>2023-04-05T16:34:21.229Z</time>
      </trkpt>
      <trkpt lat="43.35351" lon="5.86186">
        <ele>573.8</ele>
        <time>2023-04-05T16:34:23.579Z</time>
      </trkpt>
      <trkpt lat="43.35356" lon="5.86221">
        <ele>571.8</ele>
        <time>2023-04-05T16:34:27.572Z</time>
      </trkpt>
      <trkpt lat="43.35374" lon="5.86292">
        <ele>564</ele>
        <time>2023-04-05T16:34:35.989Z</time>
      </trkpt>
      <trkpt lat="43.35378" lon="5.86303">
        <ele>562.5</ele>
        <time>2023-04-05T16:34:37.365Z</time>
      </trkpt>
      <trkpt lat="43.3538" lon="5.86315">
        <ele>561.3</ele>
        <time>2023-04-05T16:34:38.743Z</time>
      </trkpt>
      <trkpt lat="43.35381" lon="5.86326">
        <ele>560.3</ele>
        <time>2023-04-05T16:34:39.984Z</time>
      </trkpt>
      <trkpt lat="43.3538" lon="5.86348">
        <ele>559.8</ele>
        <time>2023-04-05T16:34:42.451Z</time>
      </trkpt>
      <trkpt lat="43.35374" lon="5.86374">
        <ele>560.8</ele>
        <time>2023-04-05T16:34:45.504Z</time>
      </trkpt>
      <trkpt lat="43.35372" lon="5.86392">
        <ele>561.3</ele>
        <time>2023-04-05T16:34:47.542Z</time>
      </trkpt>
      <trkpt lat="43.35375" lon="5.86408">
        <ele>560.5</ele>
        <time>2023-04-05T16:34:49.391Z</time>
      </trkpt>
      <trkpt lat="43.35383" lon="5.86422">
        <ele>558.8</ele>
        <time>2023-04-05T16:34:51.384Z</time>
      </trkpt>
      <trkpt lat="43.35417" lon="5.86453">
        <ele>551.3</ele>
        <time>2023-04-05T16:34:57.709Z</time>
      </trkpt>
      <trkpt lat="43.3543" lon="5.86474">
        <ele>548.5</ele>
        <time>2023-04-05T16:35:00.768Z</time>
      </trkpt>
      <trkpt lat="43.3544" lon="5.86504">
        <ele>546</ele>
        <time>2023-04-05T16:35:04.482Z</time>
      </trkpt>
      <trkpt lat="43.35444" lon="5.86538">
        <ele>544</ele>
        <time>2023-04-05T16:35:08.288Z</time>
      </trkpt>
      <trkpt lat="43.35443" lon="5.86551">
        <ele>543.8</ele>
        <time>2023-04-05T16:35:09.784Z</time>
      </trkpt>
      <trkpt lat="43.3544" lon="5.86573">
        <ele>543.8</ele>
        <time>2023-04-05T16:35:12.312Z</time>
      </trkpt>
      <trkpt lat="43.35445" lon="5.86593">
        <ele>542.3</ele>
        <time>2023-04-05T16:35:14.658Z</time>
      </trkpt>
      <trkpt lat="43.35454" lon="5.8662">
        <ele>540.8</ele>
        <time>2023-04-05T16:35:17.997Z</time>
      </trkpt>
      <trkpt lat="43.35469" lon="5.86637">
        <ele>538</ele>
        <time>2023-04-05T16:35:20.958Z</time>
      </trkpt>
      <trkpt lat="43.3549" lon="5.86658">
        <ele>533.8</ele>
        <time>2023-04-05T16:35:25.068Z</time>
      </trkpt>
      <trkpt lat="43.35499" lon="5.86678">
        <ele>532.3</ele>
        <time>2023-04-05T16:35:27.637Z</time>
      </trkpt>
      <trkpt lat="43.35521" lon="5.86719">
        <ele>529.5</ele>
        <time>2023-04-05T16:35:33.386Z</time>
      </trkpt>
      <trkpt lat="43.35538" lon="5.86748">
        <ele>528.3</ele>
        <time>2023-04-05T16:35:37.549Z</time>
      </trkpt>
      <trkpt lat="43.35563" lon="5.86776">
        <ele>524.3</ele>
        <time>2023-04-05T16:35:42.427Z</time>
      </trkpt>
      <trkpt lat="43.35575" lon="5.86802">
        <ele>522</ele>
        <time>2023-04-05T16:35:45.873Z</time>
      </trkpt>
      <trkpt lat="43.35584" lon="5.86828">
        <ele>520</ele>
        <time>2023-04-05T16:35:49.093Z</time>
      </trkpt>
      <trkpt lat="43.35587" lon="5.86867">
        <ele>517.5</ele>
        <time>2023-04-05T16:35:53.553Z</time>
      </trkpt>
      <trkpt lat="43.35588" lon="5.8687">
        <ele>517.3</ele>
        <time>2023-04-05T16:35:53.889Z</time>
      </trkpt>
      <trkpt lat="43.35592" lon="5.86878">
        <ele>516.3</ele>
        <time>2023-04-05T16:35:54.908Z</time>
      </trkpt>
      <trkpt lat="43.356" lon="5.86882">
        <ele>514.8</ele>
        <time>2023-04-05T16:35:56.243Z</time>
      </trkpt>
      <trkpt lat="43.35607" lon="5.86876">
        <ele>514</ele>
        <time>2023-04-05T16:35:57.520Z</time>
      </trkpt>
      <trkpt lat="43.35608" lon="5.86829">
        <ele>515.5</ele>
        <time>2023-04-05T16:36:02.816Z</time>
      </trkpt>
      <trkpt lat="43.35615" lon="5.86803">
        <ele>515</ele>
        <time>2023-04-05T16:36:05.914Z</time>
      </trkpt>
      <trkpt lat="43.35623" lon="5.86777">
        <ele>514.5</ele>
        <time>2023-04-05T16:36:09.101Z</time>
      </trkpt>
      <trkpt lat="43.35638" lon="5.86762">
        <ele>512.5</ele>
        <time>2023-04-05T16:36:11.869Z</time>
      </trkpt>
      <trkpt lat="43.35652" lon="5.86759">
        <ele>510</ele>
        <time>2023-04-05T16:36:14.128Z</time>
      </trkpt>
      <trkpt lat="43.35703" lon="5.86755">
        <ele>505.3</ele>
        <time>2023-04-05T16:36:21.993Z</time>
      </trkpt>
      <trkpt lat="43.35749" lon="5.86728">
        <ele>500.8</ele>
        <time>2023-04-05T16:36:29.693Z</time>
      </trkpt>
      <trkpt lat="43.35759" lon="5.86726">
        <ele>499</ele>
        <time>2023-04-05T16:36:31.248Z</time>
      </trkpt>
      <trkpt lat="43.35787" lon="5.86725">
        <ele>494</ele>
        <time>2023-04-05T16:36:35.560Z</time>
      </trkpt>
      <trkpt lat="43.35803" lon="5.86727">
        <ele>491.5</ele>
        <time>2023-04-05T16:36:38.033Z</time>
      </trkpt>
      <trkpt lat="43.35826" lon="5.86736">
        <ele>488</ele>
        <time>2023-04-05T16:36:41.714Z</time>
      </trkpt>
      <trkpt lat="43.35832" lon="5.86748">
        <ele>488</ele>
        <time>2023-04-05T16:36:43.319Z</time>
      </trkpt>
      <trkpt lat="43.35858" lon="5.86777">
        <ele>482.8</ele>
        <time>2023-04-05T16:36:48.543Z</time>
      </trkpt>
      <trkpt lat="43.35886" lon="5.86797">
        <ele>478.3</ele>
        <time>2023-04-05T16:36:53.340Z</time>
      </trkpt>
      <trkpt lat="43.35911" lon="5.86816">
        <ele>475.8</ele>
        <time>2023-04-05T16:36:57.761Z</time>
      </trkpt>
      <trkpt lat="43.35917" lon="5.86825">
        <ele>476.3</ele>
        <time>2023-04-05T16:36:59.127Z</time>
      </trkpt>
      <trkpt lat="43.35925" lon="5.86849">
        <ele>475.5</ele>
        <time>2023-04-05T16:37:02.082Z</time>
      </trkpt>
      <trkpt lat="43.35954" lon="5.86985">
        <ele>468.3</ele>
        <time>2023-04-05T16:37:17.906Z</time>
      </trkpt>
      <trkpt lat="43.35982" lon="5.87113">
        <ele>468.5</ele>
        <time>2023-04-05T16:37:32.909Z</time>
      </trkpt>
      <trkpt lat="43.3599" lon="5.87146">
        <ele>467</ele>
        <time>2023-04-05T16:37:36.782Z</time>
      </trkpt>
      <trkpt lat="43.35997" lon="5.87176">
        <ele>465.8</ele>
        <time>2023-04-05T16:37:40.329Z</time>
      </trkpt>
      <trkpt lat="43.36021" lon="5.8725">
        <ele>463</ele>
        <time>2023-04-05T16:37:49.399Z</time>
      </trkpt>
      <trkpt lat="43.36066" lon="5.87375">
        <ele>460</ele>
        <time>2023-04-05T16:38:04.982Z</time>
      </trkpt>
      <trkpt lat="43.36073" lon="5.87394">
        <ele>459.8</ele>
        <time>2023-04-05T16:38:07.396Z</time>
      </trkpt>
      <trkpt lat="43.36083" lon="5.87426">
        <ele>459.5</ele>
        <time>2023-04-05T16:38:11.294Z</time>
      </trkpt>
      <trkpt lat="43.36085" lon="5.87438">
        <ele>459</ele>
        <time>2023-04-05T16:38:12.639Z</time>
      </trkpt>
      <trkpt lat="43.36086" lon="5.87441">
        <ele>458.8</ele>
        <time>2023-04-05T16:38:13.034Z</time>
      </trkpt>
      <trkpt lat="43.36089" lon="5.87524">
        <ele>455.8</ele>
        <time>2023-04-05T16:38:22.347Z</time>
      </trkpt>
      <trkpt lat="43.3609" lon="5.87551">
        <ele>454.8</ele>
        <time>2023-04-05T16:38:25.362Z</time>
      </trkpt>
      <trkpt lat="43.3609" lon="5.87603">
        <ele>453.3</ele>
        <time>2023-04-05T16:38:31.182Z</time>
      </trkpt>
      <trkpt lat="43.36081" lon="5.87736">
        <ele>448.8</ele>
        <time>2023-04-05T16:38:46.134Z</time>
      </trkpt>
      <trkpt lat="43.36081" lon="5.87753">
        <ele>448</ele>
        <time>2023-04-05T16:38:48.026Z</time>
      </trkpt>
      <trkpt lat="43.3608" lon="5.87778">
        <ele>447.3</ele>
        <time>2023-04-05T16:38:50.825Z</time>
      </trkpt>
      <trkpt lat="43.36086" lon="5.87834">
        <ele>446</ele>
        <time>2023-04-05T16:38:57.099Z</time>
      </trkpt>
      <trkpt lat="43.3609" lon="5.87891">
        <ele>445.3</ele>
        <time>2023-04-05T16:39:03.585Z</time>
      </trkpt>
      <trkpt lat="43.36108" lon="5.87959">
        <ele>443.5</ele>
        <time>2023-04-05T16:39:11.669Z</time>
      </trkpt>
      <trkpt lat="43.36134" lon="5.88073">
        <ele>439.3</ele>
        <time>2023-04-05T16:39:25.042Z</time>
      </trkpt>
      <trkpt lat="43.36139" lon="5.88115">
        <ele>437.3</ele>
        <time>2023-04-05T16:39:29.805Z</time>
      </trkpt>
      <trkpt lat="43.36138" lon="5.88128">
        <ele>436.8</ele>
        <time>2023-04-05T16:39:31.268Z</time>
      </trkpt>
      <trkpt lat="43.36128" lon="5.88156">
        <ele>435</ele>
        <time>2023-04-05T16:39:34.759Z</time>
      </trkpt>
      <trkpt lat="43.36113" lon="5.88183">
        <ele>434</ele>
        <time>2023-04-05T16:39:38.579Z</time>
      </trkpt>
      <trkpt lat="43.36081" lon="5.88225">
        <ele>433</ele>
        <time>2023-04-05T16:39:45.403Z</time>
      </trkpt>
      <trkpt lat="43.36061" lon="5.88255">
        <ele>433</ele>
        <time>2023-04-05T16:39:49.872Z</time>
      </trkpt>
      <trkpt lat="43.3601" lon="5.88353">
        <ele>431.5</ele>
        <time>2023-04-05T16:40:03.425Z</time>
      </trkpt>
      <trkpt lat="43.35996" lon="5.8839">
        <ele>431.5</ele>
        <time>2023-04-05T16:40:08.094Z</time>
      </trkpt>
      <trkpt lat="43.35989" lon="5.88414">
        <ele>431.3</ele>
        <time>2023-04-05T16:40:10.992Z</time>
      </trkpt>
      <trkpt lat="43.35981" lon="5.88444">
        <ele>430.5</ele>
        <time>2023-04-05T16:40:14.564Z</time>
      </trkpt>
      <trkpt lat="43.35973" lon="5.88481">
        <ele>429.3</ele>
        <time>2023-04-05T16:40:18.885Z</time>
      </trkpt>
      <trkpt lat="43.35967" lon="5.88519">
        <ele>428</ele>
        <time>2023-04-05T16:40:23.237Z</time>
      </trkpt>
      <trkpt lat="43.35961" lon="5.88602">
        <ele>426</ele>
        <time>2023-04-05T16:40:32.573Z</time>
      </trkpt>
      <trkpt lat="43.3596" lon="5.88663">
        <ele>425.5</ele>
        <time>2023-04-05T16:40:39.403Z</time>
      </trkpt>
      <trkpt lat="43.3597" lon="5.88808">
        <ele>420.8</ele>
        <time>2023-04-05T16:40:55.707Z</time>
      </trkpt>
      <trkpt lat="43.35971" lon="5.8885">
        <ele>420</ele>
        <time>2023-04-05T16:41:00.410Z</time>
      </trkpt>
      <trkpt lat="43.3597" lon="5.8887">
        <ele>420</ele>
        <time>2023-04-05T16:41:02.654Z</time>
      </trkpt>
      <trkpt lat="43.35965" lon="5.88913">
        <ele>420</ele>
        <time>2023-04-05T16:41:07.528Z</time>
      </trkpt>
      <trkpt lat="43.35963" lon="5.88926">
        <ele>419.5</ele>
        <time>2023-04-05T16:41:08.993Z</time>
      </trkpt>
      <trkpt lat="43.35961" lon="5.88937">
        <ele>419.3</ele>
        <time>2023-04-05T16:41:10.298Z</time>
      </trkpt>
      <trkpt lat="43.3594" lon="5.89048">
        <ele>415.5</ele>
        <time>2023-04-05T16:41:23.121Z</time>
      </trkpt>
      <trkpt lat="43.35929" lon="5.8915">
        <ele>410.3</ele>
        <time>2023-04-05T16:41:34.663Z</time>
      </trkpt>
      <trkpt lat="43.35927" lon="5.8921">
        <ele>408.3</ele>
        <time>2023-04-05T16:41:41.386Z</time>
      </trkpt>
      <trkpt lat="43.35916" lon="5.8933">
        <ele>403</ele>
        <time>2023-04-05T16:41:54.962Z</time>
      </trkpt>
      <trkpt lat="43.35914" lon="5.89396">
        <ele>402.3</ele>
        <time>2023-04-05T16:42:02.313Z</time>
      </trkpt>
      <trkpt lat="43.35914" lon="5.89407">
        <ele>402.3</ele>
        <time>2023-04-05T16:42:03.557Z</time>
      </trkpt>
      <trkpt lat="43.35913" lon="5.89454">
        <ele>404</ele>
        <time>2023-04-05T16:42:08.753Z</time>
      </trkpt>
      <trkpt lat="43.35911" lon="5.89509">
        <ele>405.8</ele>
        <time>2023-04-05T16:42:14.974Z</time>
      </trkpt>
      <trkpt lat="43.35908" lon="5.89531">
        <ele>405</ele>
        <time>2023-04-05T16:42:17.433Z</time>
      </trkpt>
      <trkpt lat="43.35884" lon="5.89661">
        <ele>401.5</ele>
        <time>2023-04-05T16:42:32.436Z</time>
      </trkpt>
      <trkpt lat="43.35876" lon="5.89705">
        <ele>399.3</ele>
        <time>2023-04-05T16:42:37.542Z</time>
      </trkpt>
      <trkpt lat="43.35861" lon="5.89787">
        <ele>395.5</ele>
        <time>2023-04-05T16:42:46.974Z</time>
      </trkpt>
      <trkpt lat="43.35852" lon="5.89828">
        <ele>393.8</ele>
        <time>2023-04-05T16:42:51.819Z</time>
      </trkpt>
      <trkpt lat="43.35851" lon="5.89835">
        <ele>393.8</ele>
        <time>2023-04-05T16:42:52.657Z</time>
      </trkpt>
      <trkpt lat="43.35848" lon="5.89855">
        <ele>393.8</ele>
        <time>2023-04-05T16:42:54.934Z</time>
      </trkpt>
      <trkpt lat="43.35854" lon="5.89905">
        <ele>393.8</ele>
        <time>2023-04-05T16:43:00.573Z</time>
      </trkpt>
      <trkpt lat="43.35855" lon="5.89915">
        <ele>393.8</ele>
        <time>2023-04-05T16:43:01.647Z</time>
      </trkpt>
      <trkpt lat="43.35856" lon="5.89945">
        <ele>393.8</ele>
        <time>2023-04-05T16:43:05.019Z</time>
      </trkpt>
      <trkpt lat="43.35855" lon="5.89963">
        <ele>393.8</ele>
        <time>2023-04-05T16:43:07.127Z</time>
      </trkpt>
      <trkpt lat="43.35851" lon="5.90015">
        <ele>393.3</ele>
        <time>2023-04-05T16:43:12.874Z</time>
      </trkpt>
      <trkpt lat="43.35847" lon="5.90029">
        <ele>393</ele>
        <time>2023-04-05T16:43:14.583Z</time>
      </trkpt>
      <trkpt lat="43.3584" lon="5.90042">
        <ele>393</ele>
        <time>2023-04-05T16:43:16.467Z</time>
      </trkpt>
      <trkpt lat="43.35821" lon="5.90079">
        <ele>392.5</ele>
        <time>2023-04-05T16:43:21.503Z</time>
      </trkpt>
      <trkpt lat="43.35817" lon="5.90091">
        <ele>392.3</ele>
        <time>2023-04-05T16:43:22.940Z</time>
      </trkpt>
      <trkpt lat="43.35751" lon="5.90267">
        <ele>388.3</ele>
        <time>2023-04-05T16:43:45.130Z</time>
      </trkpt>
      <trkpt lat="43.35738" lon="5.90299">
        <ele>388</ele>
        <time>2023-04-05T16:43:49.245Z</time>
      </trkpt>
      <trkpt lat="43.35703" lon="5.9038">
        <ele>388.8</ele>
        <time>2023-04-05T16:43:59.792Z</time>
      </trkpt>
      <trkpt lat="43.35689" lon="5.90409">
        <ele>389.3</ele>
        <time>2023-04-05T16:44:03.688Z</time>
      </trkpt>
      <trkpt lat="43.35658" lon="5.90465">
        <ele>389.8</ele>
        <time>2023-04-05T16:44:11.567Z</time>
      </trkpt>
      <trkpt lat="43.3565" lon="5.90476">
        <ele>390</ele>
        <time>2023-04-05T16:44:13.371Z</time>
      </trkpt>
      <trkpt lat="43.35622" lon="5.90512">
        <ele>390</ele>
        <time>2023-04-05T16:44:19.208Z</time>
      </trkpt>
      <trkpt lat="43.35574" lon="5.9057">
        <ele>390.3</ele>
        <time>2023-04-05T16:44:29.045Z</time>
      </trkpt>
      <trkpt lat="43.35541" lon="5.90613">
        <ele>392.5</ele>
        <time>2023-04-05T16:44:36.043Z</time>
      </trkpt>
      <trkpt lat="43.35535" lon="5.90623">
        <ele>392.8</ele>
        <time>2023-04-05T16:44:37.494Z</time>
      </trkpt>
      <trkpt lat="43.35526" lon="5.90641">
        <ele>392.8</ele>
        <time>2023-04-05T16:44:39.939Z</time>
      </trkpt>
      <trkpt lat="43.35513" lon="5.9072">
        <ele>389</ele>
        <time>2023-04-05T16:44:49.006Z</time>
      </trkpt>
      <trkpt lat="43.35504" lon="5.9074">
        <ele>388.3</ele>
        <time>2023-04-05T16:44:51.639Z</time>
      </trkpt>
      <trkpt lat="43.35456" lon="5.90811">
        <ele>388.5</ele>
        <time>2023-04-05T16:45:02.492Z</time>
      </trkpt>
      <trkpt lat="43.3544" lon="5.9084">
        <ele>389</ele>
        <time>2023-04-05T16:45:06.567Z</time>
      </trkpt>
      <trkpt lat="43.35419" lon="5.90886">
        <ele>388.8</ele>
        <time>2023-04-05T16:45:12.647Z</time>
      </trkpt>
      <trkpt lat="43.35408" lon="5.90916">
        <ele>388.5</ele>
        <time>2023-04-05T16:45:16.408Z</time>
      </trkpt>
      <trkpt lat="43.35389" lon="5.90979">
        <ele>388.5</ele>
        <time>2023-04-05T16:45:24.043Z</time>
      </trkpt>
      <trkpt lat="43.35381" lon="5.91011">
        <ele>388.3</ele>
        <time>2023-04-05T16:45:27.831Z</time>
      </trkpt>
      <trkpt lat="43.35375" lon="5.91045">
        <ele>387.8</ele>
        <time>2023-04-05T16:45:31.747Z</time>
      </trkpt>
      <trkpt lat="43.3537" lon="5.91093">
        <ele>387</ele>
        <time>2023-04-05T16:45:37.175Z</time>
      </trkpt>
      <trkpt lat="43.35368" lon="5.91138">
        <ele>386.5</ele>
        <time>2023-04-05T16:45:42.222Z</time>
      </trkpt>
      <trkpt lat="43.35363" lon="5.91164">
        <ele>386.5</ele>
        <time>2023-04-05T16:45:45.232Z</time>
      </trkpt>
      <trkpt lat="43.35311" lon="5.91282">
        <ele>386.5</ele>
        <time>2023-04-05T16:46:00.672Z</time>
      </trkpt>
      <trkpt lat="43.35309" lon="5.91292">
        <ele>386.5</ele>
        <time>2023-04-05T16:46:01.813Z</time>
      </trkpt>
      <trkpt lat="43.35257" lon="5.91318">
        <ele>386.8</ele>
        <time>2023-04-05T16:46:10.306Z</time>
      </trkpt>
      <trkpt lat="43.35243" lon="5.91326">
        <ele>387</ele>
        <time>2023-04-05T16:46:12.620Z</time>
      </trkpt>
      <trkpt lat="43.35177" lon="5.91378">
        <ele>387.3</ele>
        <time>2023-04-05T16:46:24.416Z</time>
      </trkpt>
      <trkpt lat="43.35166" lon="5.91384">
        <ele>387.5</ele>
        <time>2023-04-05T16:46:26.225Z</time>
      </trkpt>
      <trkpt lat="43.35136" lon="5.91393">
        <ele>388.3</ele>
        <time>2023-04-05T16:46:30.914Z</time>
      </trkpt>
      <trkpt lat="43.35128" lon="5.91398">
        <ele>388.3</ele>
        <time>2023-04-05T16:46:32.196Z</time>
      </trkpt>
      <trkpt lat="43.35123" lon="5.91407">
        <ele>388.5</ele>
        <time>2023-04-05T16:46:33.445Z</time>
      </trkpt>
      <trkpt lat="43.35043" lon="5.91573">
        <ele>394</ele>
        <time>2023-04-05T16:46:55.760Z</time>
      </trkpt>
      <trkpt lat="43.35025" lon="5.91611">
        <ele>396.3</ele>
        <time>2023-04-05T16:47:00.906Z</time>
      </trkpt>
      <trkpt lat="43.35016" lon="5.91629">
        <ele>397</ele>
        <time>2023-04-05T16:47:03.279Z</time>
      </trkpt>
      <trkpt lat="43.35014" lon="5.91634">
        <ele>397.3</ele>
        <time>2023-04-05T16:47:03.976Z</time>
      </trkpt>
      <trkpt lat="43.34974" lon="5.91724">
        <ele>398.5</ele>
        <time>2023-04-05T16:47:15.813Z</time>
      </trkpt>
      <trkpt lat="43.34954" lon="5.91771">
        <ele>398.5</ele>
        <time>2023-04-05T16:47:21.873Z</time>
      </trkpt>
      <trkpt lat="43.34937" lon="5.91812">
        <ele>398.5</ele>
        <time>2023-04-05T16:47:27.139Z</time>
      </trkpt>
      <trkpt lat="43.34918" lon="5.91856">
        <ele>399.5</ele>
        <time>2023-04-05T16:47:32.866Z</time>
      </trkpt>
      <trkpt lat="43.34876" lon="5.91959">
        <ele>407</ele>
        <time>2023-04-05T16:47:46.065Z</time>
      </trkpt>
      <trkpt lat="43.3481" lon="5.92117">
        <ele>412.5</ele>
        <time>2023-04-05T16:48:06.475Z</time>
      </trkpt>
      <trkpt lat="43.34805" lon="5.92126">
        <ele>412.8</ele>
        <time>2023-04-05T16:48:07.765Z</time>
      </trkpt>
      <trkpt lat="43.3478" lon="5.92147">
        <ele>414.5</ele>
        <time>2023-04-05T16:48:12.288Z</time>
      </trkpt>
      <trkpt lat="43.34766" lon="5.92155">
        <ele>415.3</ele>
        <time>2023-04-05T16:48:14.522Z</time>
      </trkpt>
      <trkpt lat="43.34755" lon="5.92164">
        <ele>415.8</ele>
        <time>2023-04-05T16:48:16.583Z</time>
      </trkpt>
      <trkpt lat="43.34747" lon="5.92174">
        <ele>416.8</ele>
        <time>2023-04-05T16:48:18.241Z</time>
      </trkpt>
      <trkpt lat="43.34737" lon="5.92182">
        <ele>418.5</ele>
        <time>2023-04-05T16:48:19.991Z</time>
      </trkpt>
      <trkpt lat="43.34718" lon="5.92196">
        <ele>421.8</ele>
        <time>2023-04-05T16:48:23.294Z</time>
      </trkpt>
      <trkpt lat="43.34722" lon="5.92202">
        <ele>420.8</ele>
        <time>2023-04-05T16:48:24.163Z</time>
      </trkpt>
      <trkpt lat="43.34724" lon="5.92214">
        <ele>420.3</ele>
        <time>2023-04-05T16:48:25.490Z</time>
      </trkpt>
      <trkpt lat="43.34725" lon="5.9222">
        <ele>419.8</ele>
        <time>2023-04-05T16:48:26.190Z</time>
      </trkpt>
      <trkpt lat="43.34725" lon="5.92232">
        <ele>419.5</ele>
        <time>2023-04-05T16:48:27.596Z</time>
      </trkpt>
      <trkpt lat="43.34729" lon="5.92242">
        <ele>418.8</ele>
        <time>2023-04-05T16:48:28.873Z</time>
      </trkpt>
      <trkpt lat="43.34738" lon="5.92262">
        <ele>419.3</ele>
        <time>2023-04-05T16:48:31.522Z</time>
      </trkpt>
      <trkpt lat="43.34751" lon="5.92257">
        <ele>417.5</ele>
        <time>2023-04-05T16:48:33.576Z</time>
      </trkpt>
      <trkpt lat="43.34756" lon="5.92256">
        <ele>417.3</ele>
        <time>2023-04-05T16:48:34.454Z</time>
      </trkpt>
      <trkpt lat="43.34758" lon="5.92262">
        <ele>417.8</ele>
        <time>2023-04-05T16:48:35.143Z</time>
      </trkpt>
      <trkpt lat="43.34762" lon="5.92267">
        <ele>418</ele>
        <time>2023-04-05T16:48:35.949Z</time>
      </trkpt>
      <trkpt lat="43.34763" lon="5.92267">
        <ele>418</ele>
        <time>2023-04-05T16:48:36.065Z</time>
      </trkpt>
      <trkpt lat="43.34771" lon="5.92271">
        <ele>418</ele>
        <time>2023-04-05T16:48:37.416Z</time>
      </trkpt>
      <trkpt lat="43.3479" lon="5.92278">
        <ele>417.8</ele>
        <time>2023-04-05T16:48:40.502Z</time>
      </trkpt>
      <trkpt lat="43.34876" lon="5.92298">
        <ele>419</ele>
        <time>2023-04-05T16:48:53.851Z</time>
      </trkpt>
      <trkpt lat="43.34895" lon="5.92301">
        <ele>419.5</ele>
        <time>2023-04-05T16:48:56.871Z</time>
      </trkpt>
      <trkpt lat="43.34903" lon="5.92304">
        <ele>419.8</ele>
        <time>2023-04-05T16:48:58.069Z</time>
      </trkpt>
      <trkpt lat="43.34911" lon="5.92312">
        <ele>420.8</ele>
        <time>2023-04-05T16:48:59.579Z</time>
      </trkpt>
      <trkpt lat="43.34914" lon="5.92319">
        <ele>421.5</ele>
        <time>2023-04-05T16:49:00.581Z</time>
      </trkpt>
      <trkpt lat="43.34916" lon="5.92341">
        <ele>424.5</ele>
        <time>2023-04-05T16:49:02.996Z</time>
      </trkpt>
      <trkpt lat="43.34916" lon="5.92369">
        <ele>431.3</ele>
        <time>2023-04-05T16:49:06.122Z</time>
      </trkpt>
      <trkpt lat="43.34919" lon="5.92381">
        <ele>434</ele>
        <time>2023-04-05T16:49:07.581Z</time>
      </trkpt>
      <trkpt lat="43.34929" lon="5.92391">
        <ele>435.3</ele>
        <time>2023-04-05T16:49:09.447Z</time>
      </trkpt>
      <trkpt lat="43.34946" lon="5.92397">
        <ele>434.8</ele>
        <time>2023-04-05T16:49:12.154Z</time>
      </trkpt>
      <trkpt lat="43.34956" lon="5.924">
        <ele>434</ele>
        <time>2023-04-05T16:49:13.749Z</time>
      </trkpt>
      <trkpt lat="43.3497" lon="5.92405">
        <ele>433.3</ele>
        <time>2023-04-05T16:49:15.928Z</time>
      </trkpt>
      <trkpt lat="43.34982" lon="5.92412">
        <ele>432.8</ele>
        <time>2023-04-05T16:49:17.952Z</time>
      </trkpt>
      <trkpt lat="43.35005" lon="5.92433">
        <ele>433.5</ele>
        <time>2023-04-05T16:49:22.246Z</time>
      </trkpt>
      <trkpt lat="43.35013" lon="5.92443">
        <ele>434.3</ele>
        <time>2023-04-05T16:49:23.850Z</time>
      </trkpt>
      <trkpt lat="43.35015" lon="5.92447">
        <ele>434.8</ele>
        <time>2023-04-05T16:49:24.349Z</time>
      </trkpt>
      <trkpt lat="43.35014" lon="5.92452">
        <ele>435.8</ele>
        <time>2023-04-05T16:49:24.927Z</time>
      </trkpt>
      <trkpt lat="43.35012" lon="5.92456">
        <ele>437</ele>
        <time>2023-04-05T16:49:25.461Z</time>
      </trkpt>
      <trkpt lat="43.35009" lon="5.92456">
        <ele>437.5</ele>
        <time>2023-04-05T16:49:25.853Z</time>
      </trkpt>
      <trkpt lat="43.35005" lon="5.92455">
        <ele>438</ele>
        <time>2023-04-05T16:49:26.478Z</time>
      </trkpt>
      <trkpt lat="43.34998" lon="5.92449">
        <ele>437.8</ele>
        <time>2023-04-05T16:49:27.787Z</time>
      </trkpt>
      <trkpt lat="43.34986" lon="5.92437">
        <ele>437.3</ele>
        <time>2023-04-05T16:49:30.047Z</time>
      </trkpt>
      <trkpt lat="43.34981" lon="5.92434">
        <ele>437.3</ele>
        <time>2023-04-05T16:49:31.026Z</time>
      </trkpt>
      <trkpt lat="43.34976" lon="5.92433">
        <ele>437.8</ele>
        <time>2023-04-05T16:49:31.773Z</time>
      </trkpt>
      <trkpt lat="43.34972" lon="5.92433">
        <ele>438.5</ele>
        <time>2023-04-05T16:49:32.424Z</time>
      </trkpt>
      <trkpt lat="43.34968" lon="5.92436">
        <ele>439.8</ele>
        <time>2023-04-05T16:49:33.052Z</time>
      </trkpt>
      <trkpt lat="43.34966" lon="5.92444">
        <ele>441.8</ele>
        <time>2023-04-05T16:49:33.941Z</time>
      </trkpt>
      <trkpt lat="43.34968" lon="5.9245">
        <ele>442.8</ele>
        <time>2023-04-05T16:49:34.651Z</time>
      </trkpt>
      <trkpt lat="43.34973" lon="5.92455">
        <ele>443.3</ele>
        <time>2023-04-05T16:49:35.570Z</time>
      </trkpt>
      <trkpt lat="43.35004" lon="5.92478">
        <ele>442.8</ele>
        <time>2023-04-05T16:49:40.994Z</time>
      </trkpt>
      <trkpt lat="43.35039" lon="5.92508">
        <ele>443</ele>
        <time>2023-04-05T16:49:47.372Z</time>
      </trkpt>
      <trkpt lat="43.35043" lon="5.92514">
        <ele>443.3</ele>
        <time>2023-04-05T16:49:48.242Z</time>
      </trkpt>
      <trkpt lat="43.35045" lon="5.92518">
        <ele>443.8</ele>
        <time>2023-04-05T16:49:48.875Z</time>
      </trkpt>
      <trkpt lat="43.35046" lon="5.92521">
        <ele>444.3</ele>
        <time>2023-04-05T16:49:49.185Z</time>
      </trkpt>
      <trkpt lat="43.35045" lon="5.92524">
        <ele>445</ele>
        <time>2023-04-05T16:49:49.584Z</time>
      </trkpt>
      <trkpt lat="43.35044" lon="5.92527">
        <ele>445.5</ele>
        <time>2023-04-05T16:49:49.940Z</time>
      </trkpt>
      <trkpt lat="43.35042" lon="5.92528">
        <ele>446.3</ele>
        <time>2023-04-05T16:49:50.247Z</time>
      </trkpt>
      <trkpt lat="43.35039" lon="5.92529">
        <ele>446.8</ele>
        <time>2023-04-05T16:49:50.754Z</time>
      </trkpt>
      <trkpt lat="43.35036" lon="5.92528">
        <ele>447.3</ele>
        <time>2023-04-05T16:49:51.244Z</time>
      </trkpt>
      <trkpt lat="43.35028" lon="5.92521">
        <ele>447.3</ele>
        <time>2023-04-05T16:49:52.655Z</time>
      </trkpt>
      <trkpt lat="43.35012" lon="5.92511">
        <ele>447.8</ele>
        <time>2023-04-05T16:49:55.376Z</time>
      </trkpt>
      <trkpt lat="43.34997" lon="5.92502">
        <ele>448.8</ele>
        <time>2023-04-05T16:49:57.831Z</time>
      </trkpt>
      <trkpt lat="43.34971" lon="5.92489">
        <ele>451</ele>
        <time>2023-04-05T16:50:02.115Z</time>
      </trkpt>
      <trkpt lat="43.34927" lon="5.92472">
        <ele>455</ele>
        <time>2023-04-05T16:50:09.202Z</time>
      </trkpt>
      <trkpt lat="43.34912" lon="5.92461">
        <ele>454.5</ele>
        <time>2023-04-05T16:50:11.771Z</time>
      </trkpt>
      <trkpt lat="43.34892" lon="5.92441">
        <ele>451</ele>
        <time>2023-04-05T16:50:15.603Z</time>
      </trkpt>
      <trkpt lat="43.34886" lon="5.92437">
        <ele>450.3</ele>
        <time>2023-04-05T16:50:16.590Z</time>
      </trkpt>
      <trkpt lat="43.34879" lon="5.92433">
        <ele>449.8</ele>
        <time>2023-04-05T16:50:17.791Z</time>
      </trkpt>
      <trkpt lat="43.34868" lon="5.92433">
        <ele>450.5</ele>
        <time>2023-04-05T16:50:19.470Z</time>
      </trkpt>
      <trkpt lat="43.34857" lon="5.92436">
        <ele>452</ele>
        <time>2023-04-05T16:50:21.179Z</time>
      </trkpt>
      <trkpt lat="43.34822" lon="5.92448">
        <ele>455.3</ele>
        <time>2023-04-05T16:50:26.722Z</time>
      </trkpt>
      <trkpt lat="43.34793" lon="5.92452">
        <ele>450.5</ele>
        <time>2023-04-05T16:50:31.192Z</time>
      </trkpt>
      <trkpt lat="43.34788" lon="5.92455">
        <ele>449.8</ele>
        <time>2023-04-05T16:50:32.124Z</time>
      </trkpt>
      <trkpt lat="43.34784" lon="5.92458">
        <ele>449.8</ele>
        <time>2023-04-05T16:50:32.860Z</time>
      </trkpt>
      <trkpt lat="43.34781" lon="5.92462">
        <ele>449.8</ele>
        <time>2023-04-05T16:50:33.439Z</time>
      </trkpt>
      <trkpt lat="43.34779" lon="5.92467">
        <ele>450.3</ele>
        <time>2023-04-05T16:50:34.091Z</time>
      </trkpt>
      <trkpt lat="43.34777" lon="5.92473">
        <ele>451</ele>
        <time>2023-04-05T16:50:34.859Z</time>
      </trkpt>
      <trkpt lat="43.34776" lon="5.92481">
        <ele>452.3</ele>
        <time>2023-04-05T16:50:35.692Z</time>
      </trkpt>
      <trkpt lat="43.34777" lon="5.9249">
        <ele>454.3</ele>
        <time>2023-04-05T16:50:36.773Z</time>
      </trkpt>
      <trkpt lat="43.34779" lon="5.92499">
        <ele>456.3</ele>
        <time>2023-04-05T16:50:37.800Z</time>
      </trkpt>
      <trkpt lat="43.34782" lon="5.92508">
        <ele>458.3</ele>
        <time>2023-04-05T16:50:38.871Z</time>
      </trkpt>
      <trkpt lat="43.34796" lon="5.92541">
        <ele>465.5</ele>
        <time>2023-04-05T16:50:43.152Z</time>
      </trkpt>
      <trkpt lat="43.34798" lon="5.92552">
        <ele>467.3</ele>
        <time>2023-04-05T16:50:44.420Z</time>
      </trkpt>
      <trkpt lat="43.348" lon="5.92563">
        <ele>468.8</ele>
        <time>2023-04-05T16:50:45.711Z</time>
      </trkpt>
      <trkpt lat="43.34801" lon="5.92582">
        <ele>471</ele>
        <time>2023-04-05T16:50:47.828Z</time>
      </trkpt>
      <trkpt lat="43.34799" lon="5.92604">
        <ele>473.5</ele>
        <time>2023-04-05T16:50:50.319Z</time>
      </trkpt>
      <trkpt lat="43.34795" lon="5.92657">
        <ele>479.3</ele>
        <time>2023-04-05T16:50:56.262Z</time>
      </trkpt>
      <trkpt lat="43.34795" lon="5.92687">
        <ele>481.5</ele>
        <time>2023-04-05T16:50:59.688Z</time>
      </trkpt>
      <trkpt lat="43.34798" lon="5.92707">
        <ele>482.8</ele>
        <time>2023-04-05T16:51:01.957Z</time>
      </trkpt>
      <trkpt lat="43.34812" lon="5.92763">
        <ele>486</ele>
        <time>2023-04-05T16:51:08.572Z</time>
      </trkpt>
      <trkpt lat="43.34815" lon="5.92792">
        <ele>487.5</ele>
        <time>2023-04-05T16:51:11.854Z</time>
      </trkpt>
      <trkpt lat="43.34815" lon="5.92844">
        <ele>489.5</ele>
        <time>2023-04-05T16:51:17.687Z</time>
      </trkpt>
      <trkpt lat="43.34813" lon="5.92896">
        <ele>492</ele>
        <time>2023-04-05T16:51:23.519Z</time>
      </trkpt>
      <trkpt lat="43.34807" lon="5.9292">
        <ele>493</ele>
        <time>2023-04-05T16:51:26.314Z</time>
      </trkpt>
      <trkpt lat="43.34796" lon="5.92932">
        <ele>492.5</ele>
        <time>2023-04-05T16:51:28.547Z</time>
      </trkpt>
      <trkpt lat="43.34765" lon="5.92947">
        <ele>491.3</ele>
        <time>2023-04-05T16:51:33.505Z</time>
      </trkpt>
      <trkpt lat="43.34755" lon="5.92961">
        <ele>491.5</ele>
        <time>2023-04-05T16:51:35.783Z</time>
      </trkpt>
      <trkpt lat="43.34748" lon="5.92981">
        <ele>492.5</ele>
        <time>2023-04-05T16:51:38.241Z</time>
      </trkpt>
      <trkpt lat="43.34718" lon="5.93073">
        <ele>498.5</ele>
        <time>2023-04-05T16:51:49.592Z</time>
      </trkpt>
      <trkpt lat="43.34697" lon="5.93127">
        <ele>499.8</ele>
        <time>2023-04-05T16:51:56.443Z</time>
      </trkpt>
      <trkpt lat="43.34692" lon="5.93146">
        <ele>500.3</ele>
        <time>2023-04-05T16:51:58.652Z</time>
      </trkpt>
      <trkpt lat="43.34691" lon="5.9316">
        <ele>500.5</ele>
        <time>2023-04-05T16:52:00.268Z</time>
      </trkpt>
      <trkpt lat="43.34694" lon="5.93175">
        <ele>501</ele>
        <time>2023-04-05T16:52:01.954Z</time>
      </trkpt>
      <trkpt lat="43.34703" lon="5.932">
        <ele>502</ele>
        <time>2023-04-05T16:52:05.050Z</time>
      </trkpt>
      <trkpt lat="43.34705" lon="5.93208">
        <ele>502.5</ele>
        <time>2023-04-05T16:52:06.033Z</time>
      </trkpt>
      <trkpt lat="43.34704" lon="5.93216">
        <ele>502.8</ele>
        <time>2023-04-05T16:52:06.983Z</time>
      </trkpt>
      <trkpt lat="43.347" lon="5.93226">
        <ele>502.5</ele>
        <time>2023-04-05T16:52:08.189Z</time>
      </trkpt>
      <trkpt lat="43.34697" lon="5.9323">
        <ele>502.3</ele>
        <time>2023-04-05T16:52:08.805Z</time>
      </trkpt>
      <trkpt lat="43.34681" lon="5.93246">
        <ele>500.3</ele>
        <time>2023-04-05T16:52:11.843Z</time>
      </trkpt>
      <trkpt lat="43.34639" lon="5.9328">
        <ele>496</ele>
        <time>2023-04-05T16:52:19.432Z</time>
      </trkpt>
      <trkpt lat="43.34631" lon="5.93293">
        <ele>495.5</ele>
        <time>2023-04-05T16:52:21.352Z</time>
      </trkpt>
      <trkpt lat="43.3462" lon="5.93337">
        <ele>494.8</ele>
        <time>2023-04-05T16:52:26.503Z</time>
      </trkpt>
      <trkpt lat="43.34614" lon="5.93373">
        <ele>493.3</ele>
        <time>2023-04-05T16:52:30.631Z</time>
      </trkpt>
      <trkpt lat="43.34608" lon="5.93428">
        <ele>490.8</ele>
        <time>2023-04-05T16:52:36.877Z</time>
      </trkpt>
      <trkpt lat="43.34606" lon="5.93462">
        <ele>487.5</ele>
        <time>2023-04-05T16:52:40.760Z</time>
      </trkpt>
      <trkpt lat="43.34608" lon="5.93488">
        <ele>486.3</ele>
        <time>2023-04-05T16:52:43.585Z</time>
      </trkpt>
      <trkpt lat="43.3461" lon="5.93546">
        <ele>480.5</ele>
        <time>2023-04-05T16:52:50.149Z</time>
      </trkpt>
      <trkpt lat="43.34609" lon="5.93609">
        <ele>474.8</ele>
        <time>2023-04-05T16:52:57.192Z</time>
      </trkpt>
      <trkpt lat="43.34606" lon="5.93634">
        <ele>472.8</ele>
        <time>2023-04-05T16:53:00.008Z</time>
      </trkpt>
      <trkpt lat="43.34605" lon="5.93638">
        <ele>472.3</ele>
        <time>2023-04-05T16:53:00.513Z</time>
      </trkpt>
      <trkpt lat="43.34603" lon="5.93647">
        <ele>471.3</ele>
        <time>2023-04-05T16:53:01.529Z</time>
      </trkpt>
      <trkpt lat="43.34595" lon="5.93658">
        <ele>468.8</ele>
        <time>2023-04-05T16:53:03.345Z</time>
      </trkpt>
      <trkpt lat="43.34577" lon="5.93672">
        <ele>466.8</ele>
        <time>2023-04-05T16:53:06.445Z</time>
      </trkpt>
      <trkpt lat="43.34567" lon="5.93685">
        <ele>467.8</ele>
        <time>2023-04-05T16:53:08.613Z</time>
      </trkpt>
      <trkpt lat="43.34546" lon="5.93743">
        <ele>467.8</ele>
        <time>2023-04-05T16:53:15.826Z</time>
      </trkpt>
      <trkpt lat="43.34539" lon="5.93768">
        <ele>466.8</ele>
        <time>2023-04-05T16:53:18.862Z</time>
      </trkpt>
      <trkpt lat="43.34523" lon="5.93819">
        <ele>463.8</ele>
        <time>2023-04-05T16:53:25.062Z</time>
      </trkpt>
      <trkpt lat="43.34491" lon="5.93913">
        <ele>458.3</ele>
        <time>2023-04-05T16:53:36.706Z</time>
      </trkpt>
      <trkpt lat="43.34446" lon="5.94033">
        <ele>452.8</ele>
        <time>2023-04-05T16:53:51.847Z</time>
      </trkpt>
      <trkpt lat="43.34436" lon="5.94051">
        <ele>450.5</ele>
        <time>2023-04-05T16:53:54.310Z</time>
      </trkpt>
      <trkpt lat="43.34409" lon="5.94081">
        <ele>447</ele>
        <time>2023-04-05T16:53:59.667Z</time>
      </trkpt>
      <trkpt lat="43.34395" lon="5.94107">
        <ele>448</ele>
        <time>2023-04-05T16:54:03.334Z</time>
      </trkpt>
      <trkpt lat="43.34373" lon="5.94165">
        <ele>447</ele>
        <time>2023-04-05T16:54:10.677Z</time>
      </trkpt>
      <trkpt lat="43.34351" lon="5.94215">
        <ele>442.5</ele>
        <time>2023-04-05T16:54:17.247Z</time>
      </trkpt>
      <trkpt lat="43.3434" lon="5.94238">
        <ele>439.8</ele>
        <time>2023-04-05T16:54:20.274Z</time>
      </trkpt>
      <trkpt lat="43.3433" lon="5.94252">
        <ele>438</ele>
        <time>2023-04-05T16:54:22.509Z</time>
      </trkpt>
      <trkpt lat="43.34321" lon="5.94257">
        <ele>438.5</ele>
        <time>2023-04-05T16:54:23.892Z</time>
      </trkpt>
      <trkpt lat="43.34305" lon="5.94257">
        <ele>439.5</ele>
        <time>2023-04-05T16:54:26.432Z</time>
      </trkpt>
      <trkpt lat="43.34298" lon="5.94258">
        <ele>440</ele>
        <time>2023-04-05T16:54:27.437Z</time>
      </trkpt>
      <trkpt lat="43.34296" lon="5.9426">
        <ele>440</ele>
        <time>2023-04-05T16:54:27.946Z</time>
      </trkpt>
      <trkpt lat="43.34288" lon="5.94266">
        <ele>440.5</ele>
        <time>2023-04-05T16:54:29.308Z</time>
      </trkpt>
      <trkpt lat="43.34269" lon="5.94288">
        <ele>441.8</ele>
        <time>2023-04-05T16:54:33.113Z</time>
      </trkpt>
      <trkpt lat="43.34265" lon="5.94299">
        <ele>442</ele>
        <time>2023-04-05T16:54:34.521Z</time>
      </trkpt>
      <trkpt lat="43.34263" lon="5.94308">
        <ele>442</ele>
        <time>2023-04-05T16:54:35.609Z</time>
      </trkpt>
      <trkpt lat="43.34263" lon="5.94327">
        <ele>442</ele>
        <time>2023-04-05T16:54:37.747Z</time>
      </trkpt>
      <trkpt lat="43.34268" lon="5.94369">
        <ele>441.5</ele>
        <time>2023-04-05T16:54:42.479Z</time>
      </trkpt>
      <trkpt lat="43.3427" lon="5.94426">
        <ele>441</ele>
        <time>2023-04-05T16:54:48.868Z</time>
      </trkpt>
      <trkpt lat="43.34271" lon="5.94546">
        <ele>438.8</ele>
        <time>2023-04-05T16:55:02.305Z</time>
      </trkpt>
      <trkpt lat="43.3427" lon="5.94593">
        <ele>437.3</ele>
        <time>2023-04-05T16:55:07.568Z</time>
      </trkpt>
      <trkpt lat="43.34266" lon="5.94623">
        <ele>435.5</ele>
        <time>2023-04-05T16:55:10.994Z</time>
      </trkpt>
      <trkpt lat="43.34258" lon="5.94658">
        <ele>433.8</ele>
        <time>2023-04-05T16:55:15.151Z</time>
      </trkpt>
      <trkpt lat="43.34244" lon="5.94699">
        <ele>432</ele>
        <time>2023-04-05T16:55:20.159Z</time>
      </trkpt>
      <trkpt lat="43.34216" lon="5.94781">
        <ele>429.5</ele>
        <time>2023-04-05T16:55:30.375Z</time>
      </trkpt>
      <trkpt lat="43.34206" lon="5.94802">
        <ele>428.8</ele>
        <time>2023-04-05T16:55:33.153Z</time>
      </trkpt>
      <trkpt lat="43.34191" lon="5.94824">
        <ele>428</ele>
        <time>2023-04-05T16:55:36.513Z</time>
      </trkpt>
      <trkpt lat="43.34132" lon="5.94886">
        <ele>428.8</ele>
        <time>2023-04-05T16:55:47.952Z</time>
      </trkpt>
      <trkpt lat="43.341" lon="5.94924">
        <ele>428.3</ele>
        <time>2023-04-05T16:55:54.447Z</time>
      </trkpt>
      <trkpt lat="43.34086" lon="5.94946">
        <ele>426.8</ele>
        <time>2023-04-05T16:55:57.741Z</time>
      </trkpt>
      <trkpt lat="43.34067" lon="5.95">
        <ele>422</ele>
        <time>2023-04-05T16:56:04.411Z</time>
      </trkpt>
      <trkpt lat="43.34063" lon="5.95018">
        <ele>421.8</ele>
        <time>2023-04-05T16:56:06.576Z</time>
      </trkpt>
      <trkpt lat="43.34062" lon="5.95022">
        <ele>421.8</ele>
        <time>2023-04-05T16:56:07.029Z</time>
      </trkpt>
      <trkpt lat="43.3406" lon="5.95042">
        <ele>421.3</ele>
        <time>2023-04-05T16:56:09.239Z</time>
      </trkpt>
      <trkpt lat="43.34056" lon="5.95131">
        <ele>420.3</ele>
        <time>2023-04-05T16:56:19.244Z</time>
      </trkpt>
      <trkpt lat="43.34042" lon="5.95217">
        <ele>422.3</ele>
        <time>2023-04-05T16:56:29.107Z</time>
      </trkpt>
      <trkpt lat="43.34038" lon="5.95256">
        <ele>422</ele>
        <time>2023-04-05T16:56:33.559Z</time>
      </trkpt>
      <trkpt lat="43.34028" lon="5.95456">
        <ele>421.3</ele>
        <time>2023-04-05T16:56:55.972Z</time>
      </trkpt>
      <trkpt lat="43.34025" lon="5.95489">
        <ele>420.8</ele>
        <time>2023-04-05T16:56:59.713Z</time>
      </trkpt>
      <trkpt lat="43.34022" lon="5.95514">
        <ele>420.8</ele>
        <time>2023-04-05T16:57:02.516Z</time>
      </trkpt>
      <trkpt lat="43.34019" lon="5.95547">
        <ele>420.8</ele>
        <time>2023-04-05T16:57:06.266Z</time>
      </trkpt>
      <trkpt lat="43.34015" lon="5.95609">
        <ele>420.5</ele>
        <time>2023-04-05T16:57:13.287Z</time>
      </trkpt>
      <trkpt lat="43.34012" lon="5.95678">
        <ele>419.8</ele>
        <time>2023-04-05T16:57:21.028Z</time>
      </trkpt>
      <trkpt lat="43.34008" lon="5.95708">
        <ele>419</ele>
        <time>2023-04-05T16:57:24.443Z</time>
      </trkpt>
      <trkpt lat="43.33987" lon="5.95788">
        <ele>420</ele>
        <time>2023-04-05T16:57:33.966Z</time>
      </trkpt>
      <trkpt lat="43.3398" lon="5.95805">
        <ele>420.5</ele>
        <time>2023-04-05T16:57:36.153Z</time>
      </trkpt>
      <trkpt lat="43.33961" lon="5.95819">
        <ele>422</ele>
        <time>2023-04-05T16:57:39.464Z</time>
      </trkpt>
      <trkpt lat="43.3392" lon="5.9586">
        <ele>420</ele>
        <time>2023-04-05T16:57:47.289Z</time>
      </trkpt>
      <trkpt lat="43.33915" lon="5.95867">
        <ele>419.3</ele>
        <time>2023-04-05T16:57:48.352Z</time>
      </trkpt>
      <trkpt lat="43.33912" lon="5.95874">
        <ele>418.8</ele>
        <time>2023-04-05T16:57:49.286Z</time>
      </trkpt>
      <trkpt lat="43.3391" lon="5.95882">
        <ele>417.8</ele>
        <time>2023-04-05T16:57:50.266Z</time>
      </trkpt>
      <trkpt lat="43.33913" lon="5.959">
        <ele>415</ele>
        <time>2023-04-05T16:57:52.219Z</time>
      </trkpt>
      <trkpt lat="43.33917" lon="5.95937">
        <ele>411.8</ele>
        <time>2023-04-05T16:57:56.508Z</time>
      </trkpt>
      <trkpt lat="43.33924" lon="5.95962">
        <ele>411.5</ele>
        <time>2023-04-05T16:57:59.462Z</time>
      </trkpt>
      <trkpt lat="43.33936" lon="5.95991">
        <ele>410.3</ele>
        <time>2023-04-05T16:58:03.204Z</time>
      </trkpt>
      <trkpt lat="43.33947" lon="5.96003">
        <ele>409.5</ele>
        <time>2023-04-05T16:58:05.365Z</time>
      </trkpt>
      <trkpt lat="43.3396" lon="5.96005">
        <ele>409</ele>
        <time>2023-04-05T16:58:07.378Z</time>
      </trkpt>
      <trkpt lat="43.33987" lon="5.95989">
        <ele>408.5</ele>
        <time>2023-04-05T16:58:11.904Z</time>
      </trkpt>
      <trkpt lat="43.33995" lon="5.95986">
        <ele>408.8</ele>
        <time>2023-04-05T16:58:13.180Z</time>
      </trkpt>
      <trkpt lat="43.34004" lon="5.95987">
        <ele>408.8</ele>
        <time>2023-04-05T16:58:14.570Z</time>
      </trkpt>
      <trkpt lat="43.34018" lon="5.95994">
        <ele>408.8</ele>
        <time>2023-04-05T16:58:16.863Z</time>
      </trkpt>
      <trkpt lat="43.34032" lon="5.96005">
        <ele>408.8</ele>
        <time>2023-04-05T16:58:19.345Z</time>
      </trkpt>
      <trkpt lat="43.34046" lon="5.9602">
        <ele>409.8</ele>
        <time>2023-04-05T16:58:22.077Z</time>
      </trkpt>
      <trkpt lat="43.34058" lon="5.96039">
        <ele>409.8</ele>
        <time>2023-04-05T16:58:24.894Z</time>
      </trkpt>
      <trkpt lat="43.34089" lon="5.96109">
        <ele>406</ele>
        <time>2023-04-05T16:58:34.071Z</time>
      </trkpt>
      <trkpt lat="43.34101" lon="5.9613">
        <ele>407.5</ele>
        <time>2023-04-05T16:58:37.061Z</time>
      </trkpt>
      <trkpt lat="43.34109" lon="5.96143">
        <ele>407.8</ele>
        <time>2023-04-05T16:58:38.954Z</time>
      </trkpt>
      <trkpt lat="43.34114" lon="5.9615">
        <ele>407.8</ele>
        <time>2023-04-05T16:58:40.064Z</time>
      </trkpt>
      <trkpt lat="43.34148" lon="5.96194">
        <ele>407.3</ele>
        <time>2023-04-05T16:58:47.252Z</time>
      </trkpt>
      <trkpt lat="43.34162" lon="5.96223">
        <ele>405.8</ele>
        <time>2023-04-05T16:58:51.149Z</time>
      </trkpt>
      <trkpt lat="43.34175" lon="5.96269">
        <ele>406.5</ele>
        <time>2023-04-05T16:58:56.674Z</time>
      </trkpt>
      <trkpt lat="43.34178" lon="5.96293">
        <ele>406.8</ele>
        <time>2023-04-05T16:58:59.400Z</time>
      </trkpt>
      <trkpt lat="43.34178" lon="5.96305">
        <ele>406.3</ele>
        <time>2023-04-05T16:59:00.743Z</time>
      </trkpt>
      <trkpt lat="43.34162" lon="5.96375">
        <ele>399.5</ele>
        <time>2023-04-05T16:59:08.959Z</time>
      </trkpt>
      <trkpt lat="43.34157" lon="5.96431">
        <ele>398.5</ele>
        <time>2023-04-05T16:59:15.276Z</time>
      </trkpt>
      <trkpt lat="43.34156" lon="5.9649">
        <ele>397.8</ele>
        <time>2023-04-05T16:59:21.884Z</time>
      </trkpt>
      <trkpt lat="43.34159" lon="5.96532">
        <ele>395.5</ele>
        <time>2023-04-05T16:59:26.609Z</time>
      </trkpt>
      <trkpt lat="43.34161" lon="5.96548">
        <ele>394.3</ele>
        <time>2023-04-05T16:59:28.426Z</time>
      </trkpt>
      <trkpt lat="43.3417" lon="5.9659">
        <ele>391.8</ele>
        <time>2023-04-05T16:59:33.328Z</time>
      </trkpt>
      <trkpt lat="43.34182" lon="5.96631">
        <ele>394.3</ele>
        <time>2023-04-05T16:59:38.276Z</time>
      </trkpt>
      <trkpt lat="43.34218" lon="5.96707">
        <ele>398</ele>
        <time>2023-04-05T16:59:48.431Z</time>
      </trkpt>
      <trkpt lat="43.34222" lon="5.96729">
        <ele>397</ele>
        <time>2023-04-05T16:59:50.970Z</time>
      </trkpt>
      <trkpt lat="43.34226" lon="5.96761">
        <ele>395.8</ele>
        <time>2023-04-05T16:59:54.636Z</time>
      </trkpt>
      <trkpt lat="43.34225" lon="5.96778">
        <ele>395</ele>
        <time>2023-04-05T16:59:56.518Z</time>
      </trkpt>
      <trkpt lat="43.34218" lon="5.96798">
        <ele>393.5</ele>
        <time>2023-04-05T16:59:58.919Z</time>
      </trkpt>
      <trkpt lat="43.34202" lon="5.96835">
        <ele>390.5</ele>
        <time>2023-04-05T17:00:03.774Z</time>
      </trkpt>
      <trkpt lat="43.34165" lon="5.96895">
        <ele>386.3</ele>
        <time>2023-04-05T17:00:12.632Z</time>
      </trkpt>
      <trkpt lat="43.34149" lon="5.96929">
        <ele>386</ele>
        <time>2023-04-05T17:00:17.096Z</time>
      </trkpt>
      <trkpt lat="43.34135" lon="5.96971">
        <ele>383</ele>
        <time>2023-04-05T17:00:22.288Z</time>
      </trkpt>
      <trkpt lat="43.34127" lon="5.97007">
        <ele>380.3</ele>
        <time>2023-04-05T17:00:26.478Z</time>
      </trkpt>
      <trkpt lat="43.34124" lon="5.97018">
        <ele>379.8</ele>
        <time>2023-04-05T17:00:27.820Z</time>
      </trkpt>
      <trkpt lat="43.3412" lon="5.97036">
        <ele>379</ele>
        <time>2023-04-05T17:00:29.869Z</time>
      </trkpt>
      <trkpt lat="43.34116" lon="5.97054">
        <ele>378.3</ele>
        <time>2023-04-05T17:00:32.013Z</time>
      </trkpt>
      <trkpt lat="43.34111" lon="5.97089">
        <ele>376.3</ele>
        <time>2023-04-05T17:00:35.968Z</time>
      </trkpt>
      <trkpt lat="43.34111" lon="5.97092">
        <ele>376.3</ele>
        <time>2023-04-05T17:00:36.393Z</time>
      </trkpt>
      <trkpt lat="43.34111" lon="5.97104">
        <ele>375.8</ele>
        <time>2023-04-05T17:00:37.703Z</time>
      </trkpt>
      <trkpt lat="43.34111" lon="5.97109">
        <ele>375.5</ele>
        <time>2023-04-05T17:00:38.274Z</time>
      </trkpt>
      <trkpt lat="43.34111" lon="5.9712">
        <ele>375</ele>
        <time>2023-04-05T17:00:39.438Z</time>
      </trkpt>
      <trkpt lat="43.34112" lon="5.97135">
        <ele>374.5</ele>
        <time>2023-04-05T17:00:41.112Z</time>
      </trkpt>
      <trkpt lat="43.34113" lon="5.9715">
        <ele>374</ele>
        <time>2023-04-05T17:00:42.811Z</time>
      </trkpt>
      <trkpt lat="43.34113" lon="5.97156">
        <ele>373.8</ele>
        <time>2023-04-05T17:00:43.561Z</time>
      </trkpt>
      <trkpt lat="43.34113" lon="5.97183">
        <ele>373.3</ele>
        <time>2023-04-05T17:00:46.495Z</time>
      </trkpt>
      <trkpt lat="43.3411" lon="5.97207">
        <ele>373</ele>
        <time>2023-04-05T17:00:49.307Z</time>
      </trkpt>
      <trkpt lat="43.34108" lon="5.97215">
        <ele>373</ele>
        <time>2023-04-05T17:00:50.227Z</time>
      </trkpt>
      <trkpt lat="43.34095" lon="5.97259">
        <ele>372.8</ele>
        <time>2023-04-05T17:00:55.485Z</time>
      </trkpt>
      <trkpt lat="43.34084" lon="5.97281">
        <ele>372.5</ele>
        <time>2023-04-05T17:00:58.573Z</time>
      </trkpt>
      <trkpt lat="43.34079" lon="5.9729">
        <ele>372.5</ele>
        <time>2023-04-05T17:00:59.771Z</time>
      </trkpt>
      <trkpt lat="43.34075" lon="5.97295">
        <ele>372.5</ele>
        <time>2023-04-05T17:01:00.614Z</time>
      </trkpt>
      <trkpt lat="43.34072" lon="5.97298">
        <ele>372.8</ele>
        <time>2023-04-05T17:01:01.216Z</time>
      </trkpt>
      <trkpt lat="43.34069" lon="5.97301">
        <ele>372.8</ele>
        <time>2023-04-05T17:01:01.795Z</time>
      </trkpt>
      <trkpt lat="43.34066" lon="5.97305">
        <ele>372.8</ele>
        <time>2023-04-05T17:01:02.392Z</time>
      </trkpt>
      <trkpt lat="43.34065" lon="5.97311">
        <ele>372.5</ele>
        <time>2023-04-05T17:01:03.108Z</time>
      </trkpt>
      <trkpt lat="43.34065" lon="5.97318">
        <ele>372.3</ele>
        <time>2023-04-05T17:01:03.824Z</time>
      </trkpt>
      <trkpt lat="43.34067" lon="5.97324">
        <ele>372.3</ele>
        <time>2023-04-05T17:01:04.534Z</time>
      </trkpt>
      <trkpt lat="43.34069" lon="5.97329">
        <ele>372</ele>
        <time>2023-04-05T17:01:05.267Z</time>
      </trkpt>
      <trkpt lat="43.34032" lon="5.97319">
        <ele>370.6</ele>
        <time>2023-04-05T17:01:06.812Z</time>
      </trkpt>
      <trkpt lat="43.33974" lon="5.97328">
        <ele>371</ele>
      </trkpt>
      <trkpt lat="43.33884" lon="5.97381">
        <ele>370.5</ele>
      </trkpt>
      <trkpt lat="43.33835" lon="5.97429">
        <ele>370.5</ele>
      </trkpt>
      <trkpt lat="43.33619" lon="5.97891">
        <ele>360.3</ele>
        <time>2023-04-05T17:02:53.046Z</time>
      </trkpt>
      <trkpt lat="43.33615" lon="5.97893">
        <ele>360.3</ele>
        <time>2023-04-05T17:02:53.701Z</time>
      </trkpt>
      <trkpt lat="43.33612" lon="5.97896">
        <ele>360.3</ele>
        <time>2023-04-05T17:02:54.354Z</time>
      </trkpt>
      <trkpt lat="43.33609" lon="5.97901">
        <ele>360.3</ele>
        <time>2023-04-05T17:02:55.006Z</time>
      </trkpt>
      <trkpt lat="43.33608" lon="5.97906">
        <ele>360.3</ele>
        <time>2023-04-05T17:02:55.653Z</time>
      </trkpt>
      <trkpt lat="43.33516" lon="5.98115">
        <ele>356.5</ele>
        <time>2023-04-05T17:03:27.132Z</time>
      </trkpt>
      <trkpt lat="43.33484" lon="5.98164">
        <ele>355.5</ele>
        <time>2023-04-05T17:03:34.399Z</time>
      </trkpt>
      <trkpt lat="43.33463" lon="5.98201">
        <ele>354.8</ele>
        <time>2023-04-05T17:03:39.702Z</time>
      </trkpt>
      <trkpt lat="43.33428" lon="5.98263">
        <ele>353.3</ele>
        <time>2023-04-05T17:03:48.479Z</time>
      </trkpt>
      <trkpt lat="43.33421" lon="5.98282">
        <ele>353</ele>
        <time>2023-04-05T17:03:50.905Z</time>
      </trkpt>
      <trkpt lat="43.33416" lon="5.98297">
        <ele>352.8</ele>
        <time>2023-04-05T17:03:52.713Z</time>
      </trkpt>
      <trkpt lat="43.33413" lon="5.98311">
        <ele>352.8</ele>
        <time>2023-04-05T17:03:54.356Z</time>
      </trkpt>
      <trkpt lat="43.3341" lon="5.98327">
        <ele>352.8</ele>
        <time>2023-04-05T17:03:56.173Z</time>
      </trkpt>
      <trkpt lat="43.33409" lon="5.98344">
        <ele>352.5</ele>
        <time>2023-04-05T17:03:58.088Z</time>
      </trkpt>
      <trkpt lat="43.33409" lon="5.98377">
        <ele>352.3</ele>
        <time>2023-04-05T17:04:01.850Z</time>
      </trkpt>
      <trkpt lat="43.33409" lon="5.98385">
        <ele>352</ele>
        <time>2023-04-05T17:04:02.679Z</time>
      </trkpt>
      <trkpt lat="43.33421" lon="5.98679">
        <ele>350.5</ele>
        <time>2023-04-05T17:04:35.638Z</time>
      </trkpt>
      <trkpt lat="43.33419" lon="5.98723">
        <ele>349.5</ele>
        <time>2023-04-05T17:04:40.605Z</time>
      </trkpt>
      <trkpt lat="43.33416" lon="5.98756">
        <ele>348.8</ele>
        <time>2023-04-05T17:04:44.375Z</time>
      </trkpt>
      <trkpt lat="43.33412" lon="5.98772">
        <ele>348.8</ele>
        <time>2023-04-05T17:04:46.263Z</time>
      </trkpt>
      <trkpt lat="43.33408" lon="5.98791">
        <ele>348.8</ele>
        <time>2023-04-05T17:04:48.488Z</time>
      </trkpt>
      <trkpt lat="43.33398" lon="5.98827">
        <ele>348.8</ele>
        <time>2023-04-05T17:04:52.783Z</time>
      </trkpt>
      <trkpt lat="43.33384" lon="5.9886">
        <ele>348.3</ele>
        <time>2023-04-05T17:04:57.070Z</time>
      </trkpt>
      <trkpt lat="43.33318" lon="5.98995">
        <ele>344.5</ele>
        <time>2023-04-05T17:05:15.313Z</time>
      </trkpt>
      <trkpt lat="43.33305" lon="5.99036">
        <ele>344</ele>
        <time>2023-04-05T17:05:20.303Z</time>
      </trkpt>
      <trkpt lat="43.33296" lon="5.99076">
        <ele>343.8</ele>
        <time>2023-04-05T17:05:24.946Z</time>
      </trkpt>
      <trkpt lat="43.3327" lon="5.99292">
        <ele>344.8</ele>
        <time>2023-04-05T17:05:49.448Z</time>
      </trkpt>
      <trkpt lat="43.33265" lon="5.99316">
        <ele>345.5</ele>
        <time>2023-04-05T17:05:52.331Z</time>
      </trkpt>
      <trkpt lat="43.33258" lon="5.99344">
        <ele>346.3</ele>
        <time>2023-04-05T17:05:55.567Z</time>
      </trkpt>
      <trkpt lat="43.33244" lon="5.99397">
        <ele>348</ele>
        <time>2023-04-05T17:06:01.850Z</time>
      </trkpt>
      <trkpt lat="43.33234" lon="5.99446">
        <ele>348.8</ele>
        <time>2023-04-05T17:06:07.575Z</time>
      </trkpt>
      <trkpt lat="43.33228" lon="5.99495">
        <ele>349</ele>
        <time>2023-04-05T17:06:13.203Z</time>
      </trkpt>
      <trkpt lat="43.33219" lon="5.99661">
        <ele>348.5</ele>
        <time>2023-04-05T17:06:31.751Z</time>
      </trkpt>
      <trkpt lat="43.33215" lon="5.99725">
        <ele>348.5</ele>
        <time>2023-04-05T17:06:39.046Z</time>
      </trkpt>
      <trkpt lat="43.33214" lon="5.9974">
        <ele>348.5</ele>
        <time>2023-04-05T17:06:40.724Z</time>
      </trkpt>
      <trkpt lat="43.3321" lon="5.99803">
        <ele>348.8</ele>
        <time>2023-04-05T17:06:47.732Z</time>
      </trkpt>
      <trkpt lat="43.33206" lon="5.99841">
        <ele>348.8</ele>
        <time>2023-04-05T17:06:52.058Z</time>
      </trkpt>
      <trkpt lat="43.33197" lon="5.99881">
        <ele>348.5</ele>
        <time>2023-04-05T17:06:56.768Z</time>
      </trkpt>
      <trkpt lat="43.33164" lon="5.99976">
        <ele>347</ele>
        <time>2023-04-05T17:07:08.519Z</time>
      </trkpt>
      <trkpt lat="43.33112" lon="6.00132">
        <ele>343.8</ele>
        <time>2023-04-05T17:07:27.746Z</time>
      </trkpt>
      <trkpt lat="43.33096" lon="6.00194">
        <ele>343.3</ele>
        <time>2023-04-05T17:07:35.050Z</time>
      </trkpt>
      <trkpt lat="43.3309" lon="6.00246">
        <ele>343</ele>
        <time>2023-04-05T17:07:40.966Z</time>
      </trkpt>
      <trkpt lat="43.3308" lon="6.00372">
        <ele>341.3</ele>
        <time>2023-04-05T17:07:55.206Z</time>
      </trkpt>
      <trkpt lat="43.33074" lon="6.0041">
        <ele>340.5</ele>
        <time>2023-04-05T17:07:59.585Z</time>
      </trkpt>
      <trkpt lat="43.33065" lon="6.00443">
        <ele>340.3</ele>
        <time>2023-04-05T17:08:03.484Z</time>
      </trkpt>
      <trkpt lat="43.33039" lon="6.00505">
        <ele>339.3</ele>
        <time>2023-04-05T17:08:11.576Z</time>
      </trkpt>
      <trkpt lat="43.33024" lon="6.00551">
        <ele>337.8</ele>
        <time>2023-04-05T17:08:17.197Z</time>
      </trkpt>
      <trkpt lat="43.33017" lon="6.00598">
        <ele>337</ele>
        <time>2023-04-05T17:08:22.544Z</time>
      </trkpt>
      <trkpt lat="43.33015" lon="6.00654">
        <ele>337.3</ele>
        <time>2023-04-05T17:08:28.788Z</time>
      </trkpt>
      <trkpt lat="43.33024" lon="6.00713">
        <ele>338</ele>
        <time>2023-04-05T17:08:35.567Z</time>
      </trkpt>
      <trkpt lat="43.33063" lon="6.0089">
        <ele>333.8</ele>
        <time>2023-04-05T17:08:56.355Z</time>
      </trkpt>
      <trkpt lat="43.33064" lon="6.00917">
        <ele>331.8</ele>
        <time>2023-04-05T17:08:59.393Z</time>
      </trkpt>
      <trkpt lat="43.33061" lon="6.0095">
        <ele>331.5</ele>
        <time>2023-04-05T17:09:03.068Z</time>
      </trkpt>
      <trkpt lat="43.33029" lon="6.01133">
        <ele>335.8</ele>
        <time>2023-04-05T17:09:24.121Z</time>
      </trkpt>
      <trkpt lat="43.33025" lon="6.01196">
        <ele>337</ele>
        <time>2023-04-05T17:09:31.259Z</time>
      </trkpt>
      <trkpt lat="43.33027" lon="6.01252">
        <ele>337.5</ele>
        <time>2023-04-05T17:09:37.475Z</time>
      </trkpt>
      <trkpt lat="43.33057" lon="6.01473">
        <ele>340.5</ele>
        <time>2023-04-05T17:10:02.666Z</time>
      </trkpt>
      <trkpt lat="43.3309" lon="6.01687">
        <ele>341</ele>
        <time>2023-04-05T17:10:27.129Z</time>
      </trkpt>
      <trkpt lat="43.33095" lon="6.01731">
        <ele>340.3</ele>
        <time>2023-04-05T17:10:32.134Z</time>
      </trkpt>
      <trkpt lat="43.33118" lon="6.01857">
        <ele>342</ele>
        <time>2023-04-05T17:10:46.732Z</time>
      </trkpt>
      <trkpt lat="43.33184" lon="6.02064">
        <ele>346.3</ele>
        <time>2023-04-05T17:11:12.022Z</time>
      </trkpt>
      <trkpt lat="43.33192" lon="6.02109">
        <ele>346.5</ele>
        <time>2023-04-05T17:11:17.177Z</time>
      </trkpt>
      <trkpt lat="43.33195" lon="6.02144">
        <ele>346.3</ele>
        <time>2023-04-05T17:11:21.163Z</time>
      </trkpt>
      <trkpt lat="43.33194" lon="6.02183">
        <ele>345.5</ele>
        <time>2023-04-05T17:11:25.498Z</time>
      </trkpt>
      <trkpt lat="43.33187" lon="6.0223">
        <ele>344</ele>
        <time>2023-04-05T17:11:30.861Z</time>
      </trkpt>
      <trkpt lat="43.3314" lon="6.02371">
        <ele>342</ele>
        <time>2023-04-05T17:11:48.294Z</time>
      </trkpt>
      <trkpt lat="43.33104" lon="6.0248">
        <ele>339.5</ele>
        <time>2023-04-05T17:12:01.666Z</time>
      </trkpt>
      <trkpt lat="43.33071" lon="6.02578">
        <ele>336.8</ele>
        <time>2023-04-05T17:12:13.795Z</time>
      </trkpt>
      <trkpt lat="43.33045" lon="6.02658">
        <ele>336.3</ele>
        <time>2023-04-05T17:12:23.558Z</time>
      </trkpt>
      <trkpt lat="43.33029" lon="6.02738">
        <ele>334.5</ele>
        <time>2023-04-05T17:12:32.821Z</time>
      </trkpt>
      <trkpt lat="43.3301" lon="6.0287">
        <ele>331.8</ele>
        <time>2023-04-05T17:12:47.937Z</time>
      </trkpt>
      <trkpt lat="43.33002" lon="6.02988">
        <ele>330</ele>
        <time>2023-04-05T17:13:01.187Z</time>
      </trkpt>
      <trkpt lat="43.32997" lon="6.0311">
        <ele>328.3</ele>
        <time>2023-04-05T17:13:14.923Z</time>
      </trkpt>
      <trkpt lat="43.32956" lon="6.03345">
        <ele>325</ele>
        <time>2023-04-05T17:13:41.948Z</time>
      </trkpt>
      <trkpt lat="43.3294" lon="6.03431">
        <ele>323.3</ele>
        <time>2023-04-05T17:13:51.925Z</time>
      </trkpt>
      <trkpt lat="43.32925" lon="6.03479">
        <ele>322.3</ele>
        <time>2023-04-05T17:13:57.771Z</time>
      </trkpt>
      <trkpt lat="43.32924" lon="6.03491">
        <ele>322</ele>
        <time>2023-04-05T17:13:59.034Z</time>
      </trkpt>
      <trkpt lat="43.32922" lon="6.03497">
        <ele>321.8</ele>
        <time>2023-04-05T17:13:59.824Z</time>
      </trkpt>
      <trkpt lat="43.32909" lon="6.03525">
        <ele>321</ele>
        <time>2023-04-05T17:14:03.554Z</time>
      </trkpt>
      <trkpt lat="43.32909" lon="6.03536">
        <ele>320.8</ele>
        <time>2023-04-05T17:14:04.736Z</time>
      </trkpt>
      <trkpt lat="43.32915" lon="6.03542">
        <ele>320.8</ele>
        <time>2023-04-05T17:14:05.936Z</time>
      </trkpt>
      <trkpt lat="43.32922" lon="6.03552">
        <ele>320.5</ele>
        <time>2023-04-05T17:14:07.536Z</time>
      </trkpt>
      <trkpt lat="43.32924" lon="6.03564">
        <ele>320.3</ele>
        <time>2023-04-05T17:14:08.864Z</time>
      </trkpt>
      <trkpt lat="43.32924" lon="6.03582">
        <ele>320</ele>
        <time>2023-04-05T17:14:10.891Z</time>
      </trkpt>
      <trkpt lat="43.32921" lon="6.03629">
        <ele>318.3</ele>
        <time>2023-04-05T17:14:16.197Z</time>
      </trkpt>
      <trkpt lat="43.32917" lon="6.03672">
        <ele>317</ele>
        <time>2023-04-05T17:14:21.064Z</time>
      </trkpt>
      <trkpt lat="43.329" lon="6.03753">
        <ele>317.8</ele>
        <time>2023-04-05T17:14:30.448Z</time>
      </trkpt>
      <trkpt lat="43.32891" lon="6.03791">
        <ele>316.8</ele>
        <time>2023-04-05T17:14:35.016Z</time>
      </trkpt>
      <trkpt lat="43.32819" lon="6.04038">
        <ele>311</ele>
        <time>2023-04-05T17:15:04.721Z</time>
      </trkpt>
      <trkpt lat="43.32813" lon="6.04061">
        <ele>311</ele>
        <time>2023-04-05T17:15:07.552Z</time>
      </trkpt>
      <trkpt lat="43.32809" lon="6.0407">
        <ele>311</ele>
        <time>2023-04-05T17:15:08.631Z</time>
      </trkpt>
      <trkpt lat="43.32807" lon="6.04072">
        <ele>311</ele>
        <time>2023-04-05T17:15:09.032Z</time>
      </trkpt>
      <trkpt lat="43.32805" lon="6.04076">
        <ele>311</ele>
        <time>2023-04-05T17:15:09.573Z</time>
      </trkpt>
      <trkpt lat="43.32814" lon="6.04096">
        <ele>311</ele>
        <time>2023-04-05T17:15:12.301Z</time>
      </trkpt>
      <trkpt lat="43.32821" lon="6.04111">
        <ele>311</ele>
        <time>2023-04-05T17:15:14.285Z</time>
      </trkpt>
      <trkpt lat="43.32838" lon="6.04139">
        <ele>310.8</ele>
        <time>2023-04-05T17:15:18.337Z</time>
      </trkpt>
      <trkpt lat="43.32969" lon="6.04327">
        <ele>308.3</ele>
        <time>2023-04-05T17:15:47.509Z</time>
      </trkpt>
      <trkpt lat="43.32974" lon="6.04336">
        <ele>308.3</ele>
        <time>2023-04-05T17:15:48.777Z</time>
      </trkpt>
      <trkpt lat="43.32978" lon="6.04343">
        <ele>308.3</ele>
        <time>2023-04-05T17:15:49.728Z</time>
      </trkpt>
      <trkpt lat="43.32979" lon="6.04345">
        <ele>308.3</ele>
        <time>2023-04-05T17:15:50.072Z</time>
      </trkpt>
      <trkpt lat="43.32979" lon="6.04349">
        <ele>308.3</ele>
        <time>2023-04-05T17:15:50.431Z</time>
      </trkpt>
      <trkpt lat="43.3298" lon="6.04354">
        <ele>308.3</ele>
        <time>2023-04-05T17:15:51.057Z</time>
      </trkpt>
      <trkpt lat="43.32982" lon="6.04356">
        <ele>308.3</ele>
        <time>2023-04-05T17:15:51.375Z</time>
      </trkpt>
      <trkpt lat="43.32983" lon="6.04357">
        <ele>308.3</ele>
        <time>2023-04-05T17:15:51.659Z</time>
      </trkpt>
      <trkpt lat="43.32987" lon="6.04357">
        <ele>308</ele>
        <time>2023-04-05T17:15:52.197Z</time>
      </trkpt>
      <trkpt lat="43.32992" lon="6.04361">
        <ele>308</ele>
        <time>2023-04-05T17:15:53.174Z</time>
      </trkpt>
      <trkpt lat="43.32998" lon="6.04368">
        <ele>308</ele>
        <time>2023-04-05T17:15:54.390Z</time>
      </trkpt>
      <trkpt lat="43.33021" lon="6.04403">
        <ele>308.3</ele>
        <time>2023-04-05T17:15:59.660Z</time>
      </trkpt>
      <trkpt lat="43.33034" lon="6.04426">
        <ele>308.5</ele>
        <time>2023-04-05T17:16:02.823Z</time>
      </trkpt>
      <trkpt lat="43.33045" lon="6.0445">
        <ele>308.3</ele>
        <time>2023-04-05T17:16:05.990Z</time>
      </trkpt>
      <trkpt lat="43.33056" lon="6.04476">
        <ele>308</ele>
        <time>2023-04-05T17:16:09.382Z</time>
      </trkpt>
      <trkpt lat="43.33064" lon="6.045">
        <ele>307.8</ele>
        <time>2023-04-05T17:16:12.415Z</time>
      </trkpt>
      <trkpt lat="43.33073" lon="6.04539">
        <ele>307.3</ele>
        <time>2023-04-05T17:16:16.901Z</time>
      </trkpt>
      <trkpt lat="43.33077" lon="6.04559">
        <ele>307</ele>
        <time>2023-04-05T17:16:19.284Z</time>
      </trkpt>
      <trkpt lat="43.33081" lon="6.04594">
        <ele>306.8</ele>
        <time>2023-04-05T17:16:23.195Z</time>
      </trkpt>
      <trkpt lat="43.33083" lon="6.04628">
        <ele>306.8</ele>
        <time>2023-04-05T17:16:27.033Z</time>
      </trkpt>
      <trkpt lat="43.33082" lon="6.04643">
        <ele>306.8</ele>
        <time>2023-04-05T17:16:28.789Z</time>
      </trkpt>
      <trkpt lat="43.3308" lon="6.0465">
        <ele>306.8</ele>
        <time>2023-04-05T17:16:29.576Z</time>
      </trkpt>
      <trkpt lat="43.33079" lon="6.04657">
        <ele>306.8</ele>
        <time>2023-04-05T17:16:30.374Z</time>
      </trkpt>
      <trkpt lat="43.33077" lon="6.0466">
        <ele>306.8</ele>
        <time>2023-04-05T17:16:30.775Z</time>
      </trkpt>
      <trkpt lat="43.33076" lon="6.04664">
        <ele>306.8</ele>
        <time>2023-04-05T17:16:31.319Z</time>
      </trkpt>
      <trkpt lat="43.33076" lon="6.04669">
        <ele>306.8</ele>
        <time>2023-04-05T17:16:31.858Z</time>
      </trkpt>
      <trkpt lat="43.33076" lon="6.04674">
        <ele>306.8</ele>
        <time>2023-04-05T17:16:32.398Z</time>
      </trkpt>
      <trkpt lat="43.33078" lon="6.04677">
        <ele>306.5</ele>
        <time>2023-04-05T17:16:32.869Z</time>
      </trkpt>
      <trkpt lat="43.33079" lon="6.04691">
        <ele>306.3</ele>
        <time>2023-04-05T17:16:34.438Z</time>
      </trkpt>
      <trkpt lat="43.33079" lon="6.0471">
        <ele>305.8</ele>
        <time>2023-04-05T17:16:36.522Z</time>
      </trkpt>
      <trkpt lat="43.33059" lon="6.04819">
        <ele>304.5</ele>
        <time>2023-04-05T17:16:49.191Z</time>
      </trkpt>
      <trkpt lat="43.33049" lon="6.04862">
        <ele>304.8</ele>
        <time>2023-04-05T17:16:54.223Z</time>
      </trkpt>
      <trkpt lat="43.33036" lon="6.04912">
        <ele>305</ele>
        <time>2023-04-05T17:17:00.111Z</time>
      </trkpt>
      <trkpt lat="43.33022" lon="6.04961">
        <ele>304.5</ele>
        <time>2023-04-05T17:17:06.017Z</time>
      </trkpt>
      <trkpt lat="43.3302" lon="6.04976">
        <ele>304.3</ele>
        <time>2023-04-05T17:17:07.722Z</time>
      </trkpt>
      <trkpt lat="43.33019" lon="6.04992">
        <ele>304</ele>
        <time>2023-04-05T17:17:09.528Z</time>
      </trkpt>
      <trkpt lat="43.3302" lon="6.05014">
        <ele>303.8</ele>
        <time>2023-04-05T17:17:11.995Z</time>
      </trkpt>
      <trkpt lat="43.33023" lon="6.0503">
        <ele>303.8</ele>
        <time>2023-04-05T17:17:13.841Z</time>
      </trkpt>
      <trkpt lat="43.33039" lon="6.05089">
        <ele>303.5</ele>
        <time>2023-04-05T17:17:20.908Z</time>
      </trkpt>
      <trkpt lat="43.33042" lon="6.05105">
        <ele>303.3</ele>
        <time>2023-04-05T17:17:22.798Z</time>
      </trkpt>
      <trkpt lat="43.33045" lon="6.05123">
        <ele>303</ele>
        <time>2023-04-05T17:17:24.887Z</time>
      </trkpt>
      <trkpt lat="43.33047" lon="6.05139">
        <ele>303</ele>
        <time>2023-04-05T17:17:26.642Z</time>
      </trkpt>
      <trkpt lat="43.33049" lon="6.05165">
        <ele>303</ele>
        <time>2023-04-05T17:17:29.549Z</time>
      </trkpt>
      <trkpt lat="43.33052" lon="6.05228">
        <ele>303.8</ele>
        <time>2023-04-05T17:17:36.629Z</time>
      </trkpt>
      <trkpt lat="43.33056" lon="6.05318">
        <ele>302.3</ele>
        <time>2023-04-05T17:17:46.792Z</time>
      </trkpt>
      <trkpt lat="43.33058" lon="6.05344">
        <ele>302</ele>
        <time>2023-04-05T17:17:49.640Z</time>
      </trkpt>
      <trkpt lat="43.33061" lon="6.05366">
        <ele>302.5</ele>
        <time>2023-04-05T17:17:52.190Z</time>
      </trkpt>
      <trkpt lat="43.33065" lon="6.05386">
        <ele>302.8</ele>
        <time>2023-04-05T17:17:54.515Z</time>
      </trkpt>
      <trkpt lat="43.3307" lon="6.05405">
        <ele>303.3</ele>
        <time>2023-04-05T17:17:56.783Z</time>
      </trkpt>
      <trkpt lat="43.33076" lon="6.05421">
        <ele>303.8</ele>
        <time>2023-04-05T17:17:58.764Z</time>
      </trkpt>
      <trkpt lat="43.33089" lon="6.05444">
        <ele>303.8</ele>
        <time>2023-04-05T17:18:02.053Z</time>
      </trkpt>
      <trkpt lat="43.33091" lon="6.05456">
        <ele>303.8</ele>
        <time>2023-04-05T17:18:03.475Z</time>
      </trkpt>
      <trkpt lat="43.33092" lon="6.05462">
        <ele>303.8</ele>
        <time>2023-04-05T17:18:04.108Z</time>
      </trkpt>
      <trkpt lat="43.33093" lon="6.05468">
        <ele>303.8</ele>
        <time>2023-04-05T17:18:04.788Z</time>
      </trkpt>
      <trkpt lat="43.33091" lon="6.0547">
        <ele>303.8</ele>
        <time>2023-04-05T17:18:05.114Z</time>
      </trkpt>
      <trkpt lat="43.33091" lon="6.05476">
        <ele>303.8</ele>
        <time>2023-04-05T17:18:05.753Z</time>
      </trkpt>
      <trkpt lat="43.33092" lon="6.05481">
        <ele>303.8</ele>
        <time>2023-04-05T17:18:06.390Z</time>
      </trkpt>
      <trkpt lat="43.33095" lon="6.05485">
        <ele>303.8</ele>
        <time>2023-04-05T17:18:07.033Z</time>
      </trkpt>
      <trkpt lat="43.33099" lon="6.05498">
        <ele>303.8</ele>
        <time>2023-04-05T17:18:08.634Z</time>
      </trkpt>
      <trkpt lat="43.33102" lon="6.0551">
        <ele>303.5</ele>
        <time>2023-04-05T17:18:10.049Z</time>
      </trkpt>
      <trkpt lat="43.33104" lon="6.05522">
        <ele>303</ele>
        <time>2023-04-05T17:18:11.413Z</time>
      </trkpt>
      <trkpt lat="43.3311" lon="6.05545">
        <ele>302.5</ele>
        <time>2023-04-05T17:18:14.150Z</time>
      </trkpt>
      <trkpt lat="43.33128" lon="6.05602">
        <ele>302.8</ele>
        <time>2023-04-05T17:18:21.115Z</time>
      </trkpt>
      <trkpt lat="43.33141" lon="6.05652">
        <ele>303.8</ele>
        <time>2023-04-05T17:18:27.035Z</time>
      </trkpt>
      <trkpt lat="43.33151" lon="6.05693">
        <ele>304</ele>
        <time>2023-04-05T17:18:31.864Z</time>
      </trkpt>
      <trkpt lat="43.33168" lon="6.05772">
        <ele>304</ele>
        <time>2023-04-05T17:18:41.172Z</time>
      </trkpt>
      <trkpt lat="43.33182" lon="6.05839">
        <ele>304</ele>
        <time>2023-04-05T17:18:48.961Z</time>
      </trkpt>
      <trkpt lat="43.33186" lon="6.05863">
        <ele>303.8</ele>
        <time>2023-04-05T17:18:51.751Z</time>
      </trkpt>
      <trkpt lat="43.33191" lon="6.05897">
        <ele>303.5</ele>
        <time>2023-04-05T17:18:55.527Z</time>
      </trkpt>
      <trkpt lat="43.33206" lon="6.06102">
        <ele>304.5</ele>
        <time>2023-04-05T17:19:18.645Z</time>
      </trkpt>
      <trkpt lat="43.3321" lon="6.06126">
        <ele>304.3</ele>
        <time>2023-04-05T17:19:21.400Z</time>
      </trkpt>
      <trkpt lat="43.33213" lon="6.06142">
        <ele>304</ele>
        <time>2023-04-05T17:19:23.240Z</time>
      </trkpt>
      <trkpt lat="43.33218" lon="6.06155">
        <ele>303.8</ele>
        <time>2023-04-05T17:19:24.863Z</time>
      </trkpt>
      <trkpt lat="43.33225" lon="6.06173">
        <ele>303.5</ele>
        <time>2023-04-05T17:19:27.136Z</time>
      </trkpt>
      <trkpt lat="43.33242" lon="6.06208">
        <ele>302.5</ele>
        <time>2023-04-05T17:19:31.858Z</time>
      </trkpt>
      <trkpt lat="43.33262" lon="6.06248">
        <ele>302.3</ele>
        <time>2023-04-05T17:19:37.319Z</time>
      </trkpt>
      <trkpt lat="43.33271" lon="6.06268">
        <ele>303.3</ele>
        <time>2023-04-05T17:19:39.960Z</time>
      </trkpt>
      <trkpt lat="43.3328" lon="6.06296">
        <ele>304.3</ele>
        <time>2023-04-05T17:19:43.400Z</time>
      </trkpt>
      <trkpt lat="43.33287" lon="6.06334">
        <ele>305.3</ele>
        <time>2023-04-05T17:19:47.731Z</time>
      </trkpt>
      <trkpt lat="43.33308" lon="6.06634">
        <ele>311</ele>
        <time>2023-04-05T17:20:21.487Z</time>
      </trkpt>
      <trkpt lat="43.33307" lon="6.06669">
        <ele>311.5</ele>
        <time>2023-04-05T17:20:25.409Z</time>
      </trkpt>
      <trkpt lat="43.33304" lon="6.06737">
        <ele>311.5</ele>
        <time>2023-04-05T17:20:33.073Z</time>
      </trkpt>
      <trkpt lat="43.33305" lon="6.06767">
        <ele>311.5</ele>
        <time>2023-04-05T17:20:36.414Z</time>
      </trkpt>
      <trkpt lat="43.33308" lon="6.06798">
        <ele>311</ele>
        <time>2023-04-05T17:20:39.927Z</time>
      </trkpt>
      <trkpt lat="43.33316" lon="6.06832">
        <ele>310.8</ele>
        <time>2023-04-05T17:20:43.940Z</time>
      </trkpt>
      <trkpt lat="43.33326" lon="6.06866">
        <ele>310.3</ele>
        <time>2023-04-05T17:20:48.041Z</time>
      </trkpt>
      <trkpt lat="43.33338" lon="6.06897">
        <ele>309.8</ele>
        <time>2023-04-05T17:20:52.033Z</time>
      </trkpt>
      <trkpt lat="43.33383" lon="6.06996">
        <ele>304.5</ele>
        <time>2023-04-05T17:21:05.046Z</time>
      </trkpt>
      <trkpt lat="43.33385" lon="6.07003">
        <ele>304.3</ele>
        <time>2023-04-05T17:21:05.855Z</time>
      </trkpt>
      <trkpt lat="43.33386" lon="6.07009">
        <ele>304</ele>
        <time>2023-04-05T17:21:06.638Z</time>
      </trkpt>
      <trkpt lat="43.33386" lon="6.07014">
        <ele>303.8</ele>
        <time>2023-04-05T17:21:07.153Z</time>
      </trkpt>
      <trkpt lat="43.33386" lon="6.07018">
        <ele>303.8</ele>
        <time>2023-04-05T17:21:07.639Z</time>
      </trkpt>
      <trkpt lat="43.33357" lon="6.0708">
        <ele>302.5</ele>
        <time>2023-04-05T17:21:15.880Z</time>
      </trkpt>
      <trkpt lat="43.33347" lon="6.07107">
        <ele>301.8</ele>
        <time>2023-04-05T17:21:19.270Z</time>
      </trkpt>
      <trkpt lat="43.33341" lon="6.07128">
        <ele>301.3</ele>
        <time>2023-04-05T17:21:21.749Z</time>
      </trkpt>
      <trkpt lat="43.33336" lon="6.07155">
        <ele>300.3</ele>
        <time>2023-04-05T17:21:24.927Z</time>
      </trkpt>
      <trkpt lat="43.33331" lon="6.07301">
        <ele>304.8</ele>
        <time>2023-04-05T17:21:41.196Z</time>
      </trkpt>
      <trkpt lat="43.33331" lon="6.07387">
        <ele>306</ele>
        <time>2023-04-05T17:21:50.871Z</time>
      </trkpt>
      <trkpt lat="43.33334" lon="6.07453">
        <ele>306.3</ele>
        <time>2023-04-05T17:21:58.290Z</time>
      </trkpt>
      <trkpt lat="43.33339" lon="6.07525">
        <ele>307.5</ele>
        <time>2023-04-05T17:22:06.428Z</time>
      </trkpt>
      <trkpt lat="43.33348" lon="6.07588">
        <ele>308</ele>
        <time>2023-04-05T17:22:13.540Z</time>
      </trkpt>
      <trkpt lat="43.33357" lon="6.07639">
        <ele>307.5</ele>
        <time>2023-04-05T17:22:19.421Z</time>
      </trkpt>
      <trkpt lat="43.33359" lon="6.07645">
        <ele>307.5</ele>
        <time>2023-04-05T17:22:20.178Z</time>
      </trkpt>
      <trkpt lat="43.33364" lon="6.07664">
        <ele>307.3</ele>
        <time>2023-04-05T17:22:22.472Z</time>
      </trkpt>
      <trkpt lat="43.33367" lon="6.07674">
        <ele>307</ele>
        <time>2023-04-05T17:22:23.683Z</time>
      </trkpt>
      <trkpt lat="43.33363" lon="6.07692">
        <ele>306.8</ele>
        <time>2023-04-05T17:22:25.703Z</time>
      </trkpt>
      <trkpt lat="43.33359" lon="6.07702">
        <ele>306.5</ele>
        <time>2023-04-05T17:22:26.941Z</time>
      </trkpt>
      <trkpt lat="43.33351" lon="6.0771">
        <ele>306.3</ele>
        <time>2023-04-05T17:22:28.518Z</time>
      </trkpt>
      <trkpt lat="43.33343" lon="6.07716">
        <ele>306.3</ele>
        <time>2023-04-05T17:22:29.969Z</time>
      </trkpt>
      <trkpt lat="43.33323" lon="6.07723">
        <ele>306.8</ele>
        <time>2023-04-05T17:22:33.190Z</time>
      </trkpt>
      <trkpt lat="43.33274" lon="6.07712">
        <ele>310</ele>
        <time>2023-04-05T17:22:40.752Z</time>
      </trkpt>
      <trkpt lat="43.33263" lon="6.07712">
        <ele>310.5</ele>
        <time>2023-04-05T17:22:42.522Z</time>
      </trkpt>
      <trkpt lat="43.33252" lon="6.07714">
        <ele>311.3</ele>
        <time>2023-04-05T17:22:44.216Z</time>
      </trkpt>
      <trkpt lat="43.33242" lon="6.07717">
        <ele>311.5</ele>
        <time>2023-04-05T17:22:45.762Z</time>
      </trkpt>
      <trkpt lat="43.33231" lon="6.07721">
        <ele>311.8</ele>
        <time>2023-04-05T17:22:47.498Z</time>
      </trkpt>
      <trkpt lat="43.33217" lon="6.07727">
        <ele>312</ele>
        <time>2023-04-05T17:22:49.825Z</time>
      </trkpt>
      <trkpt lat="43.33201" lon="6.07733">
        <ele>312</ele>
        <time>2023-04-05T17:22:52.280Z</time>
      </trkpt>
      <trkpt lat="43.33186" lon="6.07738">
        <ele>312</ele>
        <time>2023-04-05T17:22:54.652Z</time>
      </trkpt>
      <trkpt lat="43.33069" lon="6.07783">
        <ele>308.8</ele>
        <time>2023-04-05T17:23:13.422Z</time>
      </trkpt>
      <trkpt lat="43.33005" lon="6.07807">
        <ele>307</ele>
        <time>2023-04-05T17:23:23.694Z</time>
      </trkpt>
      <trkpt lat="43.32865" lon="6.07862">
        <ele>308.3</ele>
        <time>2023-04-05T17:23:46.004Z</time>
      </trkpt>
      <trkpt lat="43.32693" lon="6.07926">
        <ele>311.8</ele>
        <time>2023-04-05T17:24:13.411Z</time>
      </trkpt>
      <trkpt lat="43.32675" lon="6.07929">
        <ele>312.5</ele>
        <time>2023-04-05T17:24:16.272Z</time>
      </trkpt>
      <trkpt lat="43.32655" lon="6.07931">
        <ele>313.3</ele>
        <time>2023-04-05T17:24:19.390Z</time>
      </trkpt>
      <trkpt lat="43.32637" lon="6.07932">
        <ele>314</ele>
        <time>2023-04-05T17:24:22.084Z</time>
      </trkpt>
      <trkpt lat="43.32624" lon="6.07931">
        <ele>314.3</ele>
        <time>2023-04-05T17:24:24.196Z</time>
      </trkpt>
      <trkpt lat="43.32612" lon="6.07926">
        <ele>314.3</ele>
        <time>2023-04-05T17:24:26.034Z</time>
      </trkpt>
      <trkpt lat="43.32606" lon="6.07925">
        <ele>314.3</ele>
        <time>2023-04-05T17:24:27.042Z</time>
      </trkpt>
      <trkpt lat="43.32594" lon="6.07925">
        <ele>314.8</ele>
        <time>2023-04-05T17:24:28.798Z</time>
      </trkpt>
      <trkpt lat="43.32587" lon="6.07925">
        <ele>314.8</ele>
        <time>2023-04-05T17:24:29.864Z</time>
      </trkpt>
      <trkpt lat="43.32584" lon="6.07923">
        <ele>314.5</ele>
        <time>2023-04-05T17:24:30.396Z</time>
      </trkpt>
      <trkpt lat="43.32581" lon="6.07922">
        <ele>314.5</ele>
        <time>2023-04-05T17:24:30.916Z</time>
      </trkpt>
      <trkpt lat="43.32578" lon="6.07922">
        <ele>314.5</ele>
        <time>2023-04-05T17:24:31.424Z</time>
      </trkpt>
      <trkpt lat="43.32574" lon="6.07923">
        <ele>314.5</ele>
        <time>2023-04-05T17:24:31.949Z</time>
      </trkpt>
      <trkpt lat="43.32564" lon="6.07923">
        <ele>314.3</ele>
        <time>2023-04-05T17:24:33.504Z</time>
      </trkpt>
      <trkpt lat="43.32532" lon="6.07908">
        <ele>313</ele>
        <time>2023-04-05T17:24:38.772Z</time>
      </trkpt>
      <trkpt lat="43.32497" lon="6.07887">
        <ele>312.3</ele>
        <time>2023-04-05T17:24:44.594Z</time>
      </trkpt>
      <trkpt lat="43.3246" lon="6.0787">
        <ele>312.8</ele>
        <time>2023-04-05T17:24:50.629Z</time>
      </trkpt>
      <trkpt lat="43.32404" lon="6.07849">
        <ele>313</ele>
        <time>2023-04-05T17:24:59.557Z</time>
      </trkpt>
      <trkpt lat="43.32277" lon="6.07809">
        <ele>313.5</ele>
        <time>2023-04-05T17:25:19.669Z</time>
      </trkpt>
      <trkpt lat="43.32226" lon="6.07789">
        <ele>315.5</ele>
        <time>2023-04-05T17:25:27.736Z</time>
      </trkpt>
      <trkpt lat="43.32193" lon="6.07773">
        <ele>317.3</ele>
        <time>2023-04-05T17:25:33.127Z</time>
      </trkpt>
      <trkpt lat="43.31969" lon="6.0765">
        <ele>321.5</ele>
        <time>2023-04-05T17:26:10.342Z</time>
      </trkpt>
      <trkpt lat="43.31877" lon="6.076">
        <ele>320.8</ele>
        <time>2023-04-05T17:26:25.608Z</time>
      </trkpt>
      <trkpt lat="43.31746" lon="6.07537">
        <ele>321</ele>
        <time>2023-04-05T17:26:46.943Z</time>
      </trkpt>
      <trkpt lat="43.31738" lon="6.07534">
        <ele>321</ele>
        <time>2023-04-05T17:26:48.130Z</time>
      </trkpt>
      <trkpt lat="43.3171" lon="6.07517">
        <ele>321.3</ele>
        <time>2023-04-05T17:26:52.959Z</time>
      </trkpt>
      <trkpt lat="43.31696" lon="6.07507">
        <ele>321.5</ele>
        <time>2023-04-05T17:26:55.266Z</time>
      </trkpt>
      <trkpt lat="43.31688" lon="6.075">
        <ele>321.8</ele>
        <time>2023-04-05T17:26:56.769Z</time>
      </trkpt>
      <trkpt lat="43.31685" lon="6.07496">
        <ele>321.8</ele>
        <time>2023-04-05T17:26:57.427Z</time>
      </trkpt>
      <trkpt lat="43.31684" lon="6.07488">
        <ele>322.3</ele>
        <time>2023-04-05T17:26:58.292Z</time>
      </trkpt>
      <trkpt lat="43.31682" lon="6.07481">
        <ele>322.5</ele>
        <time>2023-04-05T17:26:59.135Z</time>
      </trkpt>
      <trkpt lat="43.31679" lon="6.07475">
        <ele>323</ele>
        <time>2023-04-05T17:26:59.986Z</time>
      </trkpt>
      <trkpt lat="43.31674" lon="6.0747">
        <ele>323.5</ele>
        <time>2023-04-05T17:27:00.838Z</time>
      </trkpt>
      <trkpt lat="43.31669" lon="6.07467">
        <ele>323.8</ele>
        <time>2023-04-05T17:27:01.705Z</time>
      </trkpt>
      <trkpt lat="43.31666" lon="6.07466">
        <ele>324</ele>
        <time>2023-04-05T17:27:02.200Z</time>
      </trkpt>
      <trkpt lat="43.31661" lon="6.07465">
        <ele>324</ele>
        <time>2023-04-05T17:27:02.942Z</time>
      </trkpt>
      <trkpt lat="43.31657" lon="6.07466">
        <ele>324.3</ele>
        <time>2023-04-05T17:27:03.671Z</time>
      </trkpt>
      <trkpt lat="43.31652" lon="6.07468">
        <ele>324.3</ele>
        <time>2023-04-05T17:27:04.417Z</time>
      </trkpt>
      <trkpt lat="43.31648" lon="6.07471">
        <ele>324</ele>
        <time>2023-04-05T17:27:05.142Z</time>
      </trkpt>
      <trkpt lat="43.31644" lon="6.07477">
        <ele>324</ele>
        <time>2023-04-05T17:27:06.061Z</time>
      </trkpt>
      <trkpt lat="43.3164" lon="6.07484">
        <ele>323.8</ele>
        <time>2023-04-05T17:27:06.985Z</time>
      </trkpt>
      <trkpt lat="43.31639" lon="6.07492">
        <ele>323.3</ele>
        <time>2023-04-05T17:27:07.912Z</time>
      </trkpt>
      <trkpt lat="43.31638" lon="6.075">
        <ele>323</ele>
        <time>2023-04-05T17:27:08.842Z</time>
      </trkpt>
      <trkpt lat="43.31639" lon="6.07506">
        <ele>322.8</ele>
        <time>2023-04-05T17:27:09.536Z</time>
      </trkpt>
      <trkpt lat="43.31641" lon="6.07512">
        <ele>322.8</ele>
        <time>2023-04-05T17:27:10.220Z</time>
      </trkpt>
      <trkpt lat="43.31639" lon="6.07527">
        <ele>322.5</ele>
        <time>2023-04-05T17:27:11.969Z</time>
      </trkpt>
      <trkpt lat="43.31637" lon="6.07533">
        <ele>322.5</ele>
        <time>2023-04-05T17:27:12.724Z</time>
      </trkpt>
      <trkpt lat="43.31628" lon="6.07556">
        <ele>322.3</ele>
        <time>2023-04-05T17:27:15.619Z</time>
      </trkpt>
      <trkpt lat="43.31599" lon="6.07596">
        <ele>322.3</ele>
        <time>2023-04-05T17:27:21.858Z</time>
      </trkpt>
      <trkpt lat="43.3159" lon="6.07602">
        <ele>322.3</ele>
        <time>2023-04-05T17:27:23.491Z</time>
      </trkpt>
      <trkpt lat="43.31584" lon="6.07604">
        <ele>322.3</ele>
        <time>2023-04-05T17:27:24.352Z</time>
      </trkpt>
      <trkpt lat="43.31581" lon="6.07603">
        <ele>322.5</ele>
        <time>2023-04-05T17:27:24.898Z</time>
      </trkpt>
      <trkpt lat="43.31577" lon="6.07604">
        <ele>322.5</ele>
        <time>2023-04-05T17:27:25.439Z</time>
      </trkpt>
      <trkpt lat="43.31574" lon="6.07606">
        <ele>322.5</ele>
        <time>2023-04-05T17:27:25.981Z</time>
      </trkpt>
      <trkpt lat="43.31571" lon="6.07608">
        <ele>322.5</ele>
        <time>2023-04-05T17:27:26.526Z</time>
      </trkpt>
      <trkpt lat="43.31568" lon="6.07613">
        <ele>322.5</ele>
        <time>2023-04-05T17:27:27.223Z</time>
      </trkpt>
      <trkpt lat="43.31567" lon="6.07619">
        <ele>322.3</ele>
        <time>2023-04-05T17:27:27.913Z</time>
      </trkpt>
      <trkpt lat="43.31567" lon="6.07625">
        <ele>322.3</ele>
        <time>2023-04-05T17:27:28.608Z</time>
      </trkpt>
      <trkpt lat="43.31566" lon="6.07631">
        <ele>322</ele>
        <time>2023-04-05T17:27:29.277Z</time>
      </trkpt>
      <trkpt lat="43.31559" lon="6.07645">
        <ele>322</ele>
        <time>2023-04-05T17:27:31.134Z</time>
      </trkpt>
      <trkpt lat="43.3153" lon="6.07678">
        <ele>322.5</ele>
        <time>2023-04-05T17:27:36.916Z</time>
      </trkpt>
      <trkpt lat="43.31508" lon="6.07706">
        <ele>323.3</ele>
        <time>2023-04-05T17:27:41.596Z</time>
      </trkpt>
      <trkpt lat="43.31496" lon="6.07723">
        <ele>323.8</ele>
        <time>2023-04-05T17:27:44.242Z</time>
      </trkpt>
      <trkpt lat="43.31491" lon="6.07729">
        <ele>324.3</ele>
        <time>2023-04-05T17:27:45.215Z</time>
      </trkpt>
      <trkpt lat="43.31476" lon="6.07752">
        <ele>325.5</ele>
        <time>2023-04-05T17:27:48.759Z</time>
      </trkpt>
      <trkpt lat="43.31466" lon="6.07771">
        <ele>326.3</ele>
        <time>2023-04-05T17:27:51.304Z</time>
      </trkpt>
      <trkpt lat="43.31426" lon="6.07856">
        <ele>328</ele>
        <time>2023-04-05T17:28:02.645Z</time>
      </trkpt>
      <trkpt lat="43.31416" lon="6.07872">
        <ele>328.3</ele>
        <time>2023-04-05T17:28:04.949Z</time>
      </trkpt>
      <trkpt lat="43.31394" lon="6.07905">
        <ele>330</ele>
        <time>2023-04-05T17:28:10.014Z</time>
      </trkpt>
      <trkpt lat="43.31375" lon="6.07931">
        <ele>330.8</ele>
        <time>2023-04-05T17:28:14.193Z</time>
      </trkpt>
      <trkpt lat="43.31365" lon="6.07944">
        <ele>331.3</ele>
        <time>2023-04-05T17:28:16.232Z</time>
      </trkpt>
      <trkpt lat="43.31352" lon="6.07963">
        <ele>331.5</ele>
        <time>2023-04-05T17:28:19.228Z</time>
      </trkpt>
      <trkpt lat="43.31324" lon="6.08001">
        <ele>332.8</ele>
        <time>2023-04-05T17:28:25.349Z</time>
      </trkpt>
      <trkpt lat="43.31304" lon="6.08027">
        <ele>334</ele>
        <time>2023-04-05T17:28:29.527Z</time>
      </trkpt>
      <trkpt lat="43.31227" lon="6.08122">
        <ele>337.3</ele>
        <time>2023-04-05T17:28:45.423Z</time>
      </trkpt>
      <trkpt lat="43.31199" lon="6.08158">
        <ele>338.5</ele>
        <time>2023-04-05T17:28:51.371Z</time>
      </trkpt>
      <trkpt lat="43.31179" lon="6.08181">
        <ele>339</ele>
        <time>2023-04-05T17:28:55.368Z</time>
      </trkpt>
      <trkpt lat="43.31166" lon="6.08195">
        <ele>339.3</ele>
        <time>2023-04-05T17:28:57.936Z</time>
      </trkpt>
      <trkpt lat="43.31151" lon="6.08209">
        <ele>339.3</ele>
        <time>2023-04-05T17:29:00.626Z</time>
      </trkpt>
      <trkpt lat="43.31138" lon="6.08221">
        <ele>339.3</ele>
        <time>2023-04-05T17:29:03.120Z</time>
      </trkpt>
      <trkpt lat="43.31114" lon="6.0824">
        <ele>339.8</ele>
        <time>2023-04-05T17:29:07.321Z</time>
      </trkpt>
      <trkpt lat="43.31101" lon="6.08247">
        <ele>340</ele>
        <time>2023-04-05T17:29:09.575Z</time>
      </trkpt>
      <trkpt lat="43.31069" lon="6.08264">
        <ele>341</ele>
        <time>2023-04-05T17:29:14.818Z</time>
      </trkpt>
      <trkpt lat="43.31044" lon="6.08275">
        <ele>342</ele>
        <time>2023-04-05T17:29:18.841Z</time>
      </trkpt>
      <trkpt lat="43.31032" lon="6.0828">
        <ele>342.3</ele>
        <time>2023-04-05T17:29:20.680Z</time>
      </trkpt>
      <trkpt lat="43.31004" lon="6.08291">
        <ele>343.3</ele>
        <time>2023-04-05T17:29:25.273Z</time>
      </trkpt>
      <trkpt lat="43.30998" lon="6.08293">
        <ele>343.3</ele>
        <time>2023-04-05T17:29:26.137Z</time>
      </trkpt>
      <trkpt lat="43.30985" lon="6.08298">
        <ele>343.5</ele>
        <time>2023-04-05T17:29:28.262Z</time>
      </trkpt>
      <trkpt lat="43.30958" lon="6.08309">
        <ele>343.8</ele>
        <time>2023-04-05T17:29:32.632Z</time>
      </trkpt>
      <trkpt lat="43.30947" lon="6.08316">
        <ele>343.8</ele>
        <time>2023-04-05T17:29:34.503Z</time>
      </trkpt>
      <trkpt lat="43.30939" lon="6.08322">
        <ele>343.8</ele>
        <time>2023-04-05T17:29:35.899Z</time>
      </trkpt>
      <trkpt lat="43.3093" lon="6.0833">
        <ele>343.8</ele>
        <time>2023-04-05T17:29:37.549Z</time>
      </trkpt>
      <trkpt lat="43.30921" lon="6.08339">
        <ele>343.8</ele>
        <time>2023-04-05T17:29:39.273Z</time>
      </trkpt>
      <trkpt lat="43.30894" lon="6.08375">
        <ele>344.5</ele>
        <time>2023-04-05T17:29:45.083Z</time>
      </trkpt>
      <trkpt lat="43.30866" lon="6.08415">
        <ele>344.8</ele>
        <time>2023-04-05T17:29:51.263Z</time>
      </trkpt>
      <trkpt lat="43.30847" lon="6.08441">
        <ele>345.5</ele>
        <time>2023-04-05T17:29:55.431Z</time>
      </trkpt>
      <trkpt lat="43.30827" lon="6.08465">
        <ele>346.3</ele>
        <time>2023-04-05T17:29:59.476Z</time>
      </trkpt>
      <trkpt lat="43.30823" lon="6.0847">
        <ele>346.5</ele>
        <time>2023-04-05T17:30:00.324Z</time>
      </trkpt>
      <trkpt lat="43.3082" lon="6.08475">
        <ele>346.5</ele>
        <time>2023-04-05T17:30:01.046Z</time>
      </trkpt>
      <trkpt lat="43.30754" lon="6.08549">
        <ele>351.8</ele>
        <time>2023-04-05T17:30:14.046Z</time>
      </trkpt>
      <trkpt lat="43.30732" lon="6.08576">
        <ele>353.8</ele>
        <time>2023-04-05T17:30:18.678Z</time>
      </trkpt>
      <trkpt lat="43.30719" lon="6.08592">
        <ele>354.8</ele>
        <time>2023-04-05T17:30:21.361Z</time>
      </trkpt>
      <trkpt lat="43.30706" lon="6.08604">
        <ele>355.3</ele>
        <time>2023-04-05T17:30:23.703Z</time>
      </trkpt>
      <trkpt lat="43.30693" lon="6.08615">
        <ele>355.8</ele>
        <time>2023-04-05T17:30:26.157Z</time>
      </trkpt>
      <trkpt lat="43.30677" lon="6.08625">
        <ele>356</ele>
        <time>2023-04-05T17:30:28.793Z</time>
      </trkpt>
      <trkpt lat="43.30659" lon="6.08634">
        <ele>356.5</ele>
        <time>2023-04-05T17:30:31.818Z</time>
      </trkpt>
      <trkpt lat="43.30628" lon="6.08649">
        <ele>357.5</ele>
        <time>2023-04-05T17:30:36.813Z</time>
      </trkpt>
      <trkpt lat="43.30618" lon="6.08657">
        <ele>357.8</ele>
        <time>2023-04-05T17:30:38.605Z</time>
      </trkpt>
      <trkpt lat="43.30608" lon="6.08664">
        <ele>358.3</ele>
        <time>2023-04-05T17:30:40.289Z</time>
      </trkpt>
      <trkpt lat="43.30601" lon="6.08672">
        <ele>358.5</ele>
        <time>2023-04-05T17:30:41.695Z</time>
      </trkpt>
      <trkpt lat="43.30594" lon="6.08683">
        <ele>359</ele>
        <time>2023-04-05T17:30:43.322Z</time>
      </trkpt>
      <trkpt lat="43.30589" lon="6.08692">
        <ele>359.3</ele>
        <time>2023-04-05T17:30:44.662Z</time>
      </trkpt>
      <trkpt lat="43.30565" lon="6.08741">
        <ele>360.8</ele>
        <time>2023-04-05T17:30:51.233Z</time>
      </trkpt>
      <trkpt lat="43.30554" lon="6.08757">
        <ele>361.5</ele>
        <time>2023-04-05T17:30:53.669Z</time>
      </trkpt>
      <trkpt lat="43.30535" lon="6.08779">
        <ele>362.8</ele>
        <time>2023-04-05T17:30:57.552Z</time>
      </trkpt>
      <trkpt lat="43.30512" lon="6.0881">
        <ele>364.5</ele>
        <time>2023-04-05T17:31:02.544Z</time>
      </trkpt>
      <trkpt lat="43.30495" lon="6.08834">
        <ele>366</ele>
        <time>2023-04-05T17:31:06.232Z</time>
      </trkpt>
      <trkpt lat="43.30476" lon="6.08863">
        <ele>367.5</ele>
        <time>2023-04-05T17:31:10.593Z</time>
      </trkpt>
      <trkpt lat="43.30468" lon="6.08868">
        <ele>367.8</ele>
        <time>2023-04-05T17:31:11.891Z</time>
      </trkpt>
      <trkpt lat="43.30466" lon="6.08869">
        <ele>367.8</ele>
        <time>2023-04-05T17:31:12.353Z</time>
      </trkpt>
      <trkpt lat="43.30463" lon="6.08868">
        <ele>367.8</ele>
        <time>2023-04-05T17:31:12.753Z</time>
      </trkpt>
      <trkpt lat="43.30461" lon="6.08869">
        <ele>367.8</ele>
        <time>2023-04-05T17:31:13.143Z</time>
      </trkpt>
      <trkpt lat="43.30459" lon="6.08871">
        <ele>368</ele>
        <time>2023-04-05T17:31:13.542Z</time>
      </trkpt>
      <trkpt lat="43.30447" lon="6.08876">
        <ele>368.3</ele>
        <time>2023-04-05T17:31:15.436Z</time>
      </trkpt>
      <trkpt lat="43.3044" lon="6.08879">
        <ele>368.5</ele>
        <time>2023-04-05T17:31:16.539Z</time>
      </trkpt>
      <trkpt lat="43.30436" lon="6.0888">
        <ele>368.5</ele>
        <time>2023-04-05T17:31:17.231Z</time>
      </trkpt>
      <trkpt lat="43.3043" lon="6.08883">
        <ele>368.8</ele>
        <time>2023-04-05T17:31:18.141Z</time>
      </trkpt>
      <trkpt lat="43.30409" lon="6.08893">
        <ele>369.5</ele>
        <time>2023-04-05T17:31:21.610Z</time>
      </trkpt>
      <trkpt lat="43.30398" lon="6.08903">
        <ele>370</ele>
        <time>2023-04-05T17:31:23.608Z</time>
      </trkpt>
      <trkpt lat="43.30392" lon="6.08909">
        <ele>370.3</ele>
        <time>2023-04-05T17:31:24.774Z</time>
      </trkpt>
      <trkpt lat="43.30383" lon="6.08916">
        <ele>370.5</ele>
        <time>2023-04-05T17:31:26.328Z</time>
      </trkpt>
      <trkpt lat="43.30366" lon="6.08926">
        <ele>370.8</ele>
        <time>2023-04-05T17:31:29.139Z</time>
      </trkpt>
      <trkpt lat="43.3036" lon="6.08928">
        <ele>370.8</ele>
        <time>2023-04-05T17:31:30.077Z</time>
      </trkpt>
      <trkpt lat="43.3035" lon="6.08928">
        <ele>370.5</ele>
        <time>2023-04-05T17:31:31.616Z</time>
      </trkpt>
      <trkpt lat="43.30341" lon="6.08923">
        <ele>370.3</ele>
        <time>2023-04-05T17:31:33.229Z</time>
      </trkpt>
      <trkpt lat="43.30333" lon="6.08919">
        <ele>370</ele>
        <time>2023-04-05T17:31:34.438Z</time>
      </trkpt>
      <trkpt lat="43.30329" lon="6.08918">
        <ele>370.3</ele>
        <time>2023-04-05T17:31:35.075Z</time>
      </trkpt>
      <trkpt lat="43.30321" lon="6.08917">
        <ele>370.8</ele>
        <time>2023-04-05T17:31:36.324Z</time>
      </trkpt>
      <trkpt lat="43.30297" lon="6.0892">
        <ele>372.3</ele>
        <time>2023-04-05T17:31:40.125Z</time>
      </trkpt>
      <trkpt lat="43.30263" lon="6.08926">
        <ele>374.5</ele>
        <time>2023-04-05T17:31:45.383Z</time>
      </trkpt>
      <trkpt lat="43.30246" lon="6.08931">
        <ele>375.3</ele>
        <time>2023-04-05T17:31:48.004Z</time>
      </trkpt>
      <trkpt lat="43.3024" lon="6.08935">
        <ele>375.5</ele>
        <time>2023-04-05T17:31:49.082Z</time>
      </trkpt>
      <trkpt lat="43.30186" lon="6.08974">
        <ele>377.5</ele>
        <time>2023-04-05T17:31:58.484Z</time>
      </trkpt>
      <trkpt lat="43.30179" lon="6.08978">
        <ele>378</ele>
        <time>2023-04-05T17:31:59.582Z</time>
      </trkpt>
      <trkpt lat="43.30133" lon="6.09012">
        <ele>380</ele>
        <time>2023-04-05T17:32:07.589Z</time>
      </trkpt>
      <trkpt lat="43.3012" lon="6.0902">
        <ele>380.5</ele>
        <time>2023-04-05T17:32:09.758Z</time>
      </trkpt>
      <trkpt lat="43.30115" lon="6.09025">
        <ele>381.3</ele>
        <time>2023-04-05T17:32:10.855Z</time>
      </trkpt>
      <trkpt lat="43.30108" lon="6.09033">
        <ele>382</ele>
        <time>2023-04-05T17:32:12.169Z</time>
      </trkpt>
      <trkpt lat="43.30104" lon="6.09042">
        <ele>383.3</ele>
        <time>2023-04-05T17:32:13.374Z</time>
      </trkpt>
      <trkpt lat="43.301" lon="6.09053">
        <ele>384.8</ele>
        <time>2023-04-05T17:32:14.705Z</time>
      </trkpt>
      <trkpt lat="43.30095" lon="6.09074">
        <ele>388</ele>
        <time>2023-04-05T17:32:17.223Z</time>
      </trkpt>
      <trkpt lat="43.30089" lon="6.09084">
        <ele>389.8</ele>
        <time>2023-04-05T17:32:18.690Z</time>
      </trkpt>
      <trkpt lat="43.30083" lon="6.09092">
        <ele>391.3</ele>
        <time>2023-04-05T17:32:19.954Z</time>
      </trkpt>
      <trkpt lat="43.30057" lon="6.09116">
        <ele>393.3</ele>
        <time>2023-04-05T17:32:24.770Z</time>
      </trkpt>
      <trkpt lat="43.30007" lon="6.09152">
        <ele>394.5</ele>
        <time>2023-04-05T17:32:33.449Z</time>
      </trkpt>
      <trkpt lat="43.29956" lon="6.09195">
        <ele>396</ele>
        <time>2023-04-05T17:32:42.740Z</time>
      </trkpt>
      <trkpt lat="43.29925" lon="6.09224">
        <ele>396.5</ele>
        <time>2023-04-05T17:32:48.438Z</time>
      </trkpt>
      <trkpt lat="43.2991" lon="6.09244">
        <ele>397.3</ele>
        <time>2023-04-05T17:32:51.700Z</time>
      </trkpt>
      <trkpt lat="43.29908" lon="6.09246">
        <ele>397.3</ele>
        <time>2023-04-05T17:32:52.106Z</time>
      </trkpt>
      <trkpt lat="43.29776" lon="6.09468">
        <ele>405.3</ele>
        <time>2023-04-05T17:33:24.195Z</time>
      </trkpt>
      <trkpt lat="43.29757" lon="6.09489">
        <ele>404</ele>
        <time>2023-04-05T17:33:27.920Z</time>
      </trkpt>
      <trkpt lat="43.29727" lon="6.09512">
        <ele>405</ele>
        <time>2023-04-05T17:33:33.204Z</time>
      </trkpt>
      <trkpt lat="43.29694" lon="6.09548">
        <ele>407.5</ele>
        <time>2023-04-05T17:33:39.709Z</time>
      </trkpt>
      <trkpt lat="43.29672" lon="6.09588">
        <ele>409.8</ele>
        <time>2023-04-05T17:33:45.380Z</time>
      </trkpt>
      <trkpt lat="43.29516" lon="6.09899">
        <ele>429.3</ele>
        <time>2023-04-05T17:34:27.623Z</time>
      </trkpt>
      <trkpt lat="43.29457" lon="6.1">
        <ele>435.5</ele>
        <time>2023-04-05T17:34:42.097Z</time>
      </trkpt>
      <trkpt lat="43.294" lon="6.10094">
        <ele>440</ele>
        <time>2023-04-05T17:34:55.808Z</time>
      </trkpt>
      <trkpt lat="43.29372" lon="6.10128">
        <ele>440</ele>
        <time>2023-04-05T17:35:01.602Z</time>
      </trkpt>
      <trkpt lat="43.2933" lon="6.10158">
        <ele>440.3</ele>
        <time>2023-04-05T17:35:08.924Z</time>
      </trkpt>
      <trkpt lat="43.2932" lon="6.10173">
        <ele>440</ele>
        <time>2023-04-05T17:35:11.203Z</time>
      </trkpt>
      <trkpt lat="43.29303" lon="6.10214">
        <ele>437.5</ele>
        <time>2023-04-05T17:35:16.492Z</time>
      </trkpt>
      <trkpt lat="43.29303" lon="6.10253">
        <ele>433.8</ele>
        <time>2023-04-05T17:35:20.873Z</time>
      </trkpt>
      <trkpt lat="43.29312" lon="6.10299">
        <ele>432.8</ele>
        <time>2023-04-05T17:35:26.216Z</time>
      </trkpt>
      <trkpt lat="43.29306" lon="6.10332">
        <ele>431</ele>
        <time>2023-04-05T17:35:29.984Z</time>
      </trkpt>
      <trkpt lat="43.29297" lon="6.10363">
        <ele>430.8</ele>
        <time>2023-04-05T17:35:33.695Z</time>
      </trkpt>
      <trkpt lat="43.29259" lon="6.10426">
        <ele>423.8</ele>
        <time>2023-04-05T17:35:42.928Z</time>
      </trkpt>
      <trkpt lat="43.29239" lon="6.10457">
        <ele>421.3</ele>
        <time>2023-04-05T17:35:47.546Z</time>
      </trkpt>
      <trkpt lat="43.29221" lon="6.10521">
        <ele>415.5</ele>
        <time>2023-04-05T17:35:55.172Z</time>
      </trkpt>
      <trkpt lat="43.29223" lon="6.10546">
        <ele>414.5</ele>
        <time>2023-04-05T17:35:58.073Z</time>
      </trkpt>
      <trkpt lat="43.29239" lon="6.1068">
        <ele>407.3</ele>
        <time>2023-04-05T17:36:13.267Z</time>
      </trkpt>
      <trkpt lat="43.29244" lon="6.10698">
        <ele>406.5</ele>
        <time>2023-04-05T17:36:15.410Z</time>
      </trkpt>
      <trkpt lat="43.29272" lon="6.10757">
        <ele>399</ele>
        <time>2023-04-05T17:36:23.291Z</time>
      </trkpt>
      <trkpt lat="43.29283" lon="6.10761">
        <ele>397.5</ele>
        <time>2023-04-05T17:36:25.049Z</time>
      </trkpt>
      <trkpt lat="43.29298" lon="6.1076">
        <ele>397.5</ele>
        <time>2023-04-05T17:36:27.350Z</time>
      </trkpt>
      <trkpt lat="43.2931" lon="6.10752">
        <ele>399</ele>
        <time>2023-04-05T17:36:29.463Z</time>
      </trkpt>
      <trkpt lat="43.29326" lon="6.10733">
        <ele>402.8</ele>
        <time>2023-04-05T17:36:32.710Z</time>
      </trkpt>
      <trkpt lat="43.29392" lon="6.10643">
        <ele>402.3</ele>
        <time>2023-04-05T17:36:46.994Z</time>
      </trkpt>
      <trkpt lat="43.29438" lon="6.10601">
        <ele>399</ele>
        <time>2023-04-05T17:36:55.486Z</time>
      </trkpt>
      <trkpt lat="43.29514" lon="6.10546">
        <ele>390.8</ele>
        <time>2023-04-05T17:37:08.715Z</time>
      </trkpt>
      <trkpt lat="43.29531" lon="6.10519">
        <ele>392.5</ele>
        <time>2023-04-05T17:37:12.702Z</time>
      </trkpt>
      <trkpt lat="43.29566" lon="6.10424">
        <ele>394.8</ele>
        <time>2023-04-05T17:37:24.607Z</time>
      </trkpt>
      <trkpt lat="43.2958" lon="6.10406">
        <ele>391.8</ele>
        <time>2023-04-05T17:37:27.632Z</time>
      </trkpt>
      <trkpt lat="43.29591" lon="6.10401">
        <ele>389.8</ele>
        <time>2023-04-05T17:37:29.405Z</time>
      </trkpt>
      <trkpt lat="43.29612" lon="6.10407">
        <ele>385.3</ele>
        <time>2023-04-05T17:37:32.729Z</time>
      </trkpt>
      <trkpt lat="43.29626" lon="6.10414">
        <ele>381.8</ele>
        <time>2023-04-05T17:37:34.921Z</time>
      </trkpt>
      <trkpt lat="43.29636" lon="6.10417">
        <ele>379.5</ele>
        <time>2023-04-05T17:37:36.499Z</time>
      </trkpt>
      <trkpt lat="43.29647" lon="6.10409">
        <ele>378.8</ele>
        <time>2023-04-05T17:37:38.404Z</time>
      </trkpt>
      <trkpt lat="43.29658" lon="6.1039">
        <ele>380</ele>
        <time>2023-04-05T17:37:41.097Z</time>
      </trkpt>
      <trkpt lat="43.29665" lon="6.10366">
        <ele>382.8</ele>
        <time>2023-04-05T17:37:44.031Z</time>
      </trkpt>
      <trkpt lat="43.29672" lon="6.10348">
        <ele>385</ele>
        <time>2023-04-05T17:37:46.317Z</time>
      </trkpt>
      <trkpt lat="43.2969" lon="6.10313">
        <ele>387.5</ele>
        <time>2023-04-05T17:37:51.128Z</time>
      </trkpt>
      <trkpt lat="43.29702" lon="6.10296">
        <ele>387.8</ele>
        <time>2023-04-05T17:37:53.796Z</time>
      </trkpt>
      <trkpt lat="43.29716" lon="6.10292">
        <ele>386</ele>
        <time>2023-04-05T17:37:56.010Z</time>
      </trkpt>
      <trkpt lat="43.29734" lon="6.10293">
        <ele>383.3</ele>
        <time>2023-04-05T17:37:58.782Z</time>
      </trkpt>
      <trkpt lat="43.29754" lon="6.103">
        <ele>380.8</ele>
        <time>2023-04-05T17:38:01.885Z</time>
      </trkpt>
      <trkpt lat="43.29769" lon="6.10311">
        <ele>382.3</ele>
        <time>2023-04-05T17:38:04.489Z</time>
      </trkpt>
      <trkpt lat="43.29778" lon="6.10326">
        <ele>382.8</ele>
        <time>2023-04-05T17:38:06.690Z</time>
      </trkpt>
      <trkpt lat="43.29783" lon="6.10359">
        <ele>382</ele>
        <time>2023-04-05T17:38:10.446Z</time>
      </trkpt>
      <trkpt lat="43.29779" lon="6.10382">
        <ele>380</ele>
        <time>2023-04-05T17:38:13.157Z</time>
      </trkpt>
      <trkpt lat="43.29778" lon="6.10388">
        <ele>379.8</ele>
        <time>2023-04-05T17:38:13.763Z</time>
      </trkpt>
      <trkpt lat="43.29772" lon="6.10409">
        <ele>377.3</ele>
        <time>2023-04-05T17:38:16.328Z</time>
      </trkpt>
      <trkpt lat="43.29755" lon="6.10437">
        <ele>372.8</ele>
        <time>2023-04-05T17:38:20.442Z</time>
      </trkpt>
      <trkpt lat="43.29728" lon="6.10456">
        <ele>370.8</ele>
        <time>2023-04-05T17:38:25.047Z</time>
      </trkpt>
      <trkpt lat="43.29718" lon="6.10477">
        <ele>369</ele>
        <time>2023-04-05T17:38:27.876Z</time>
      </trkpt>
      <trkpt lat="43.29705" lon="6.10524">
        <ele>363.8</ele>
        <time>2023-04-05T17:38:33.516Z</time>
      </trkpt>
      <trkpt lat="43.29691" lon="6.10601">
        <ele>355.8</ele>
        <time>2023-04-05T17:38:42.438Z</time>
      </trkpt>
      <trkpt lat="43.29677" lon="6.10648">
        <ele>353</ele>
        <time>2023-04-05T17:38:48.124Z</time>
      </trkpt>
      <trkpt lat="43.29685" lon="6.10677">
        <ele>352.5</ele>
        <time>2023-04-05T17:38:51.577Z</time>
      </trkpt>
      <trkpt lat="43.29695" lon="6.10683">
        <ele>352.5</ele>
        <time>2023-04-05T17:38:53.298Z</time>
      </trkpt>
      <trkpt lat="43.29708" lon="6.10684">
        <ele>353</ele>
        <time>2023-04-05T17:38:55.224Z</time>
      </trkpt>
      <trkpt lat="43.29718" lon="6.1068">
        <ele>353.8</ele>
        <time>2023-04-05T17:38:56.857Z</time>
      </trkpt>
      <trkpt lat="43.2973" lon="6.10666">
        <ele>355.8</ele>
        <time>2023-04-05T17:38:59.339Z</time>
      </trkpt>
      <trkpt lat="43.29744" lon="6.10657">
        <ele>357.5</ele>
        <time>2023-04-05T17:39:01.641Z</time>
      </trkpt>
      <trkpt lat="43.2976" lon="6.10654">
        <ele>358.5</ele>
        <time>2023-04-05T17:39:04.180Z</time>
      </trkpt>
      <trkpt lat="43.29771" lon="6.10663">
        <ele>358</ele>
        <time>2023-04-05T17:39:06.115Z</time>
      </trkpt>
      <trkpt lat="43.29774" lon="6.10674">
        <ele>357</ele>
        <time>2023-04-05T17:39:07.442Z</time>
      </trkpt>
      <trkpt lat="43.29778" lon="6.10693">
        <ele>355.5</ele>
        <time>2023-04-05T17:39:09.632Z</time>
      </trkpt>
      <trkpt lat="43.29764" lon="6.10725">
        <ele>351.5</ele>
        <time>2023-04-05T17:39:13.900Z</time>
      </trkpt>
      <trkpt lat="43.29743" lon="6.10766">
        <ele>346.8</ele>
        <time>2023-04-05T17:39:19.499Z</time>
      </trkpt>
      <trkpt lat="43.29733" lon="6.10818">
        <ele>342.5</ele>
        <time>2023-04-05T17:39:25.459Z</time>
      </trkpt>
      <trkpt lat="43.29738" lon="6.10833">
        <ele>341.3</ele>
        <time>2023-04-05T17:39:27.278Z</time>
      </trkpt>
      <trkpt lat="43.29761" lon="6.10854">
        <ele>341.8</ele>
        <time>2023-04-05T17:39:31.497Z</time>
      </trkpt>
      <trkpt lat="43.29777" lon="6.10868">
        <ele>342.3</ele>
        <time>2023-04-05T17:39:34.475Z</time>
      </trkpt>
      <trkpt lat="43.29786" lon="6.10883">
        <ele>342.5</ele>
        <time>2023-04-05T17:39:36.597Z</time>
      </trkpt>
      <trkpt lat="43.29785" lon="6.10898">
        <ele>341.8</ele>
        <time>2023-04-05T17:39:38.360Z</time>
      </trkpt>
      <trkpt lat="43.29777" lon="6.10913">
        <ele>340.5</ele>
        <time>2023-04-05T17:39:40.407Z</time>
      </trkpt>
      <trkpt lat="43.29758" lon="6.1093">
        <ele>339.8</ele>
        <time>2023-04-05T17:39:43.987Z</time>
      </trkpt>
      <trkpt lat="43.2972" lon="6.10947">
        <ele>335.5</ele>
        <time>2023-04-05T17:39:50.049Z</time>
      </trkpt>
      <trkpt lat="43.29683" lon="6.10969">
        <ele>330.8</ele>
        <time>2023-04-05T17:39:56.223Z</time>
      </trkpt>
      <trkpt lat="43.29678" lon="6.10981">
        <ele>330.3</ele>
        <time>2023-04-05T17:39:57.851Z</time>
      </trkpt>
      <trkpt lat="43.29672" lon="6.11006">
        <ele>330.3</ele>
        <time>2023-04-05T17:40:00.815Z</time>
      </trkpt>
      <trkpt lat="43.29667" lon="6.11042">
        <ele>332</ele>
        <time>2023-04-05T17:40:04.913Z</time>
      </trkpt>
      <trkpt lat="43.29658" lon="6.11067">
        <ele>331.5</ele>
        <time>2023-04-05T17:40:08.011Z</time>
      </trkpt>
      <trkpt lat="43.29636" lon="6.11109">
        <ele>328.5</ele>
        <time>2023-04-05T17:40:13.828Z</time>
      </trkpt>
      <trkpt lat="43.2955" lon="6.11182">
        <ele>314.5</ele>
        <time>2023-04-05T17:40:29.421Z</time>
      </trkpt>
      <trkpt lat="43.29539" lon="6.11205">
        <ele>313.5</ele>
        <time>2023-04-05T17:40:32.468Z</time>
      </trkpt>
      <trkpt lat="43.29537" lon="6.11224">
        <ele>314.5</ele>
        <time>2023-04-05T17:40:34.577Z</time>
      </trkpt>
      <trkpt lat="43.2954" lon="6.11241">
        <ele>316.8</ele>
        <time>2023-04-05T17:40:36.562Z</time>
      </trkpt>
      <trkpt lat="43.29545" lon="6.11253">
        <ele>319</ele>
        <time>2023-04-05T17:40:38.138Z</time>
      </trkpt>
      <trkpt lat="43.29543" lon="6.11269">
        <ele>320.3</ele>
        <time>2023-04-05T17:40:39.932Z</time>
      </trkpt>
      <trkpt lat="43.29536" lon="6.11283">
        <ele>320.5</ele>
        <time>2023-04-05T17:40:41.853Z</time>
      </trkpt>
      <trkpt lat="43.29519" lon="6.11297">
        <ele>318.8</ele>
        <time>2023-04-05T17:40:44.825Z</time>
      </trkpt>
      <trkpt lat="43.29498" lon="6.11303">
        <ele>315.3</ele>
        <time>2023-04-05T17:40:48.149Z</time>
      </trkpt>
      <trkpt lat="43.29493" lon="6.11306">
        <ele>314.3</ele>
        <time>2023-04-05T17:40:48.909Z</time>
      </trkpt>
      <trkpt lat="43.29511" lon="6.11346">
        <ele>325.8</ele>
        <time>2023-04-05T17:40:54.225Z</time>
      </trkpt>
      <trkpt lat="43.29514" lon="6.11356">
        <ele>328.5</ele>
        <time>2023-04-05T17:40:55.455Z</time>
      </trkpt>
      <trkpt lat="43.29511" lon="6.11346">
        <ele>325.8</ele>
        <time>2023-04-05T17:40:56.685Z</time>
      </trkpt>
      <trkpt lat="43.29493" lon="6.11306">
        <ele>314.3</ele>
        <time>2023-04-05T17:41:02.001Z</time>
      </trkpt>
      <trkpt lat="43.29486" lon="6.11309">
        <ele>312.5</ele>
        <time>2023-04-05T17:41:03.260Z</time>
      </trkpt>
      <trkpt lat="43.29465" lon="6.11332">
        <ele>309.3</ele>
        <time>2023-04-05T17:41:07.301Z</time>
      </trkpt>
      <trkpt lat="43.29445" lon="6.11362">
        <ele>307.8</ele>
        <time>2023-04-05T17:41:11.932Z</time>
      </trkpt>
      <trkpt lat="43.29423" lon="6.11429">
        <ele>309.5</ele>
        <time>2023-04-05T17:41:20.101Z</time>
      </trkpt>
      <trkpt lat="43.29392" lon="6.11498">
        <ele>306.8</ele>
        <time>2023-04-05T17:41:29.269Z</time>
      </trkpt>
      <trkpt lat="43.29387" lon="6.11549">
        <ele>311.3</ele>
        <time>2023-04-05T17:41:35.018Z</time>
      </trkpt>
      <trkpt lat="43.29373" lon="6.11594">
        <ele>310.8</ele>
        <time>2023-04-05T17:41:40.467Z</time>
      </trkpt>
      <trkpt lat="43.2936" lon="6.11611">
        <ele>307</ele>
        <time>2023-04-05T17:41:43.267Z</time>
      </trkpt>
      <trkpt lat="43.29331" lon="6.11638">
        <ele>298</ele>
        <time>2023-04-05T17:41:48.679Z</time>
      </trkpt>
      <trkpt lat="43.2932" lon="6.1167">
        <ele>297.8</ele>
        <time>2023-04-05T17:41:52.648Z</time>
      </trkpt>
      <trkpt lat="43.29317" lon="6.11702">
        <ele>296.8</ele>
        <time>2023-04-05T17:41:56.264Z</time>
      </trkpt>
      <trkpt lat="43.29317" lon="6.11749">
        <ele>297</ele>
        <time>2023-04-05T17:42:01.519Z</time>
      </trkpt>
      <trkpt lat="43.29331" lon="6.11827">
        <ele>294.8</ele>
        <time>2023-04-05T17:42:10.547Z</time>
      </trkpt>
      <trkpt lat="43.29335" lon="6.11875">
        <ele>290.8</ele>
        <time>2023-04-05T17:42:15.925Z</time>
      </trkpt>
      <trkpt lat="43.29342" lon="6.11913">
        <ele>289.3</ele>
        <time>2023-04-05T17:42:20.274Z</time>
      </trkpt>
      <trkpt lat="43.29358" lon="6.11964">
        <ele>285.3</ele>
        <time>2023-04-05T17:42:26.458Z</time>
      </trkpt>
      <trkpt lat="43.29377" lon="6.12007">
        <ele>282.5</ele>
        <time>2023-04-05T17:42:32.079Z</time>
      </trkpt>
      <trkpt lat="43.29401" lon="6.12037">
        <ele>282</ele>
        <time>2023-04-05T17:42:37.135Z</time>
      </trkpt>
      <trkpt lat="43.29492" lon="6.12063">
        <ele>282.3</ele>
        <time>2023-04-05T17:42:51.452Z</time>
      </trkpt>
      <trkpt lat="43.29521" lon="6.12065">
        <ele>280.3</ele>
        <time>2023-04-05T17:42:55.858Z</time>
      </trkpt>
      <trkpt lat="43.29557" lon="6.12063">
        <ele>277.3</ele>
        <time>2023-04-05T17:43:01.450Z</time>
      </trkpt>
      <trkpt lat="43.29584" lon="6.12058">
        <ele>276.3</ele>
        <time>2023-04-05T17:43:05.618Z</time>
      </trkpt>
      <trkpt lat="43.29621" lon="6.12028">
        <ele>280</ele>
        <time>2023-04-05T17:43:12.257Z</time>
      </trkpt>
      <trkpt lat="43.29664" lon="6.12005">
        <ele>277.8</ele>
        <time>2023-04-05T17:43:19.345Z</time>
      </trkpt>
      <trkpt lat="43.29673" lon="6.12002">
        <ele>277.5</ele>
        <time>2023-04-05T17:43:20.836Z</time>
      </trkpt>
      <trkpt lat="43.29682" lon="6.12002">
        <ele>277.3</ele>
        <time>2023-04-05T17:43:22.206Z</time>
      </trkpt>
      <trkpt lat="43.2969" lon="6.12006">
        <ele>276.8</ele>
        <time>2023-04-05T17:43:23.416Z</time>
      </trkpt>
      <trkpt lat="43.29696" lon="6.12013">
        <ele>276</ele>
        <time>2023-04-05T17:43:24.677Z</time>
      </trkpt>
      <trkpt lat="43.29703" lon="6.12025">
        <ele>275.3</ele>
        <time>2023-04-05T17:43:26.373Z</time>
      </trkpt>
      <trkpt lat="43.29709" lon="6.12042">
        <ele>274.5</ele>
        <time>2023-04-05T17:43:28.443Z</time>
      </trkpt>
      <trkpt lat="43.29712" lon="6.12059">
        <ele>273.5</ele>
        <time>2023-04-05T17:43:30.482Z</time>
      </trkpt>
      <trkpt lat="43.29712" lon="6.12073">
        <ele>272.8</ele>
        <time>2023-04-05T17:43:32.040Z</time>
      </trkpt>
      <trkpt lat="43.29707" lon="6.12091">
        <ele>273.3</ele>
        <time>2023-04-05T17:43:34.178Z</time>
      </trkpt>
      <trkpt lat="43.29694" lon="6.12102">
        <ele>274</ele>
        <time>2023-04-05T17:43:36.530Z</time>
      </trkpt>
      <trkpt lat="43.29679" lon="6.12106">
        <ele>272.8</ele>
        <time>2023-04-05T17:43:38.876Z</time>
      </trkpt>
      <trkpt lat="43.29646" lon="6.12112">
        <ele>271.5</ele>
        <time>2023-04-05T17:43:43.941Z</time>
      </trkpt>
      <trkpt lat="43.2962" lon="6.12124">
        <ele>270.8</ele>
        <time>2023-04-05T17:43:48.145Z</time>
      </trkpt>
      <trkpt lat="43.29608" lon="6.12139">
        <ele>270.3</ele>
        <time>2023-04-05T17:43:50.692Z</time>
      </trkpt>
      <trkpt lat="43.29597" lon="6.12153">
        <ele>268.8</ele>
        <time>2023-04-05T17:43:53.053Z</time>
      </trkpt>
      <trkpt lat="43.29567" lon="6.12176">
        <ele>265.8</ele>
        <time>2023-04-05T17:43:58.324Z</time>
      </trkpt>
      <trkpt lat="43.29556" lon="6.12183">
        <ele>265.5</ele>
        <time>2023-04-05T17:44:00.200Z</time>
      </trkpt>
      <trkpt lat="43.29545" lon="6.1221">
        <ele>268</ele>
        <time>2023-04-05T17:44:03.654Z</time>
      </trkpt>
      <trkpt lat="43.2953" lon="6.12226">
        <ele>267</ele>
        <time>2023-04-05T17:44:06.525Z</time>
      </trkpt>
      <trkpt lat="43.29506" lon="6.12244">
        <ele>263</ele>
        <time>2023-04-05T17:44:10.775Z</time>
      </trkpt>
      <trkpt lat="43.2946" lon="6.12259">
        <ele>256</ele>
        <time>2023-04-05T17:44:17.980Z</time>
      </trkpt>
      <trkpt lat="43.29438" lon="6.12285">
        <ele>254.3</ele>
        <time>2023-04-05T17:44:22.511Z</time>
      </trkpt>
      <trkpt lat="43.29413" lon="6.12334">
        <ele>252.3</ele>
        <time>2023-04-05T17:44:29.243Z</time>
      </trkpt>
      <trkpt lat="43.29387" lon="6.12366">
        <ele>249.5</ele>
        <time>2023-04-05T17:44:34.601Z</time>
      </trkpt>
      <trkpt lat="43.29284" lon="6.12446">
        <ele>238.5</ele>
        <time>2023-04-05T17:44:52.843Z</time>
      </trkpt>
      <trkpt lat="43.29262" lon="6.12463">
        <ele>237</ele>
        <time>2023-04-05T17:44:56.672Z</time>
      </trkpt>
      <trkpt lat="43.29227" lon="6.12485">
        <ele>234.8</ele>
        <time>2023-04-05T17:45:02.547Z</time>
      </trkpt>
      <trkpt lat="43.29206" lon="6.12491">
        <ele>233.3</ele>
        <time>2023-04-05T17:45:05.914Z</time>
      </trkpt>
      <trkpt lat="43.29164" lon="6.12502">
        <ele>230.5</ele>
        <time>2023-04-05T17:45:12.527Z</time>
      </trkpt>
      <trkpt lat="43.29161" lon="6.12502">
        <ele>230.3</ele>
        <time>2023-04-05T17:45:12.965Z</time>
      </trkpt>
      <trkpt lat="43.29147" lon="6.1251">
        <ele>229.3</ele>
        <time>2023-04-05T17:45:15.305Z</time>
      </trkpt>
      <trkpt lat="43.2912" lon="6.12535">
        <ele>228</ele>
        <time>2023-04-05T17:45:20.223Z</time>
      </trkpt>
      <trkpt lat="43.29114" lon="6.12563">
        <ele>228.5</ele>
        <time>2023-04-05T17:45:23.560Z</time>
      </trkpt>
      <trkpt lat="43.29112" lon="6.12573">
        <ele>228.8</ele>
        <time>2023-04-05T17:45:24.679Z</time>
      </trkpt>
      <trkpt lat="43.29115" lon="6.12606">
        <ele>228.5</ele>
        <time>2023-04-05T17:45:28.371Z</time>
      </trkpt>
      <trkpt lat="43.29177" lon="6.12865">
        <ele>220</ele>
        <time>2023-04-05T17:45:58.943Z</time>
      </trkpt>
      <trkpt lat="43.29182" lon="6.12891">
        <ele>220</ele>
        <time>2023-04-05T17:46:02.003Z</time>
      </trkpt>
      <trkpt lat="43.29182" lon="6.12917">
        <ele>219.8</ele>
        <time>2023-04-05T17:46:04.905Z</time>
      </trkpt>
      <trkpt lat="43.29173" lon="6.12961">
        <ele>217.8</ele>
        <time>2023-04-05T17:46:09.984Z</time>
      </trkpt>
      <trkpt lat="43.29168" lon="6.12982">
        <ele>216.5</ele>
        <time>2023-04-05T17:46:12.516Z</time>
      </trkpt>
      <trkpt lat="43.29154" lon="6.13034">
        <ele>214.8</ele>
        <time>2023-04-05T17:46:18.734Z</time>
      </trkpt>
      <trkpt lat="43.29055" lon="6.13398">
        <ele>200.3</ele>
        <time>2023-04-05T17:47:02.243Z</time>
      </trkpt>
      <trkpt lat="43.29044" lon="6.13426">
        <ele>199.8</ele>
        <time>2023-04-05T17:47:05.821Z</time>
      </trkpt>
      <trkpt lat="43.29027" lon="6.13445">
        <ele>199.3</ele>
        <time>2023-04-05T17:47:09.198Z</time>
      </trkpt>
      <trkpt lat="43.29009" lon="6.13461">
        <ele>198.8</ele>
        <time>2023-04-05T17:47:12.523Z</time>
      </trkpt>
      <trkpt lat="43.28998" lon="6.13471">
        <ele>198.5</ele>
        <time>2023-04-05T17:47:14.619Z</time>
      </trkpt>
      <trkpt lat="43.28976" lon="6.1349">
        <ele>198</ele>
        <time>2023-04-05T17:47:18.607Z</time>
      </trkpt>
      <trkpt lat="43.28962" lon="6.13498">
        <ele>198</ele>
        <time>2023-04-05T17:47:20.866Z</time>
      </trkpt>
      <trkpt lat="43.28927" lon="6.13517">
        <ele>197.3</ele>
        <time>2023-04-05T17:47:26.752Z</time>
      </trkpt>
      <trkpt lat="43.28918" lon="6.1352">
        <ele>197.3</ele>
        <time>2023-04-05T17:47:28.056Z</time>
      </trkpt>
      <trkpt lat="43.28904" lon="6.13526">
        <ele>196.3</ele>
        <time>2023-04-05T17:47:30.390Z</time>
      </trkpt>
      <trkpt lat="43.289" lon="6.13527">
        <ele>196</ele>
        <time>2023-04-05T17:47:31.058Z</time>
      </trkpt>
      <trkpt lat="43.28896" lon="6.1352">
        <ele>196</ele>
        <time>2023-04-05T17:47:32.000Z</time>
      </trkpt>
      <trkpt lat="43.28886" lon="6.13514">
        <ele>195.5</ele>
        <time>2023-04-05T17:47:33.721Z</time>
      </trkpt>
      <trkpt lat="43.28871" lon="6.13508">
        <ele>194.5</ele>
        <time>2023-04-05T17:47:36.054Z</time>
      </trkpt>
      <trkpt lat="43.28861" lon="6.13506">
        <ele>193.8</ele>
        <time>2023-04-05T17:47:37.638Z</time>
      </trkpt>
      <trkpt lat="43.28853" lon="6.13499">
        <ele>193.3</ele>
        <time>2023-04-05T17:47:39.048Z</time>
      </trkpt>
      <trkpt lat="43.28831" lon="6.13451">
        <ele>191.8</ele>
        <time>2023-04-05T17:47:45.475Z</time>
      </trkpt>
      <trkpt lat="43.28815" lon="6.13414">
        <ele>190.8</ele>
        <time>2023-04-05T17:47:50.282Z</time>
      </trkpt>
      <trkpt lat="43.28803" lon="6.13394">
        <ele>190.3</ele>
        <time>2023-04-05T17:47:53.229Z</time>
      </trkpt>
      <trkpt lat="43.28786" lon="6.13384">
        <ele>189.5</ele>
        <time>2023-04-05T17:47:56.056Z</time>
      </trkpt>
      <trkpt lat="43.2867" lon="6.13343">
        <ele>189.3</ele>
        <time>2023-04-05T17:48:14.449Z</time>
      </trkpt>
      <trkpt lat="43.28666" lon="6.13341">
        <ele>189.3</ele>
        <time>2023-04-05T17:48:15.169Z</time>
      </trkpt>
      <trkpt lat="43.28662" lon="6.13345">
        <ele>189</ele>
        <time>2023-04-05T17:48:15.880Z</time>
      </trkpt>
      <trkpt lat="43.28611" lon="6.13418">
        <ele>184.5</ele>
        <time>2023-04-05T17:48:27.174Z</time>
      </trkpt>
      <trkpt lat="43.2858" lon="6.13467">
        <ele>183</ele>
        <time>2023-04-05T17:48:34.470Z</time>
      </trkpt>
      <trkpt lat="43.28565" lon="6.13479">
        <ele>182.5</ele>
        <time>2023-04-05T17:48:37.169Z</time>
      </trkpt>
      <trkpt lat="43.2856" lon="6.13478">
        <ele>182.5</ele>
        <time>2023-04-05T17:48:37.958Z</time>
      </trkpt>
      <trkpt lat="43.28556" lon="6.1348">
        <ele>182.5</ele>
        <time>2023-04-05T17:48:38.563Z</time>
      </trkpt>
      <trkpt lat="43.28553" lon="6.13483">
        <ele>182.3</ele>
        <time>2023-04-05T17:48:39.153Z</time>
      </trkpt>
      <trkpt lat="43.2855" lon="6.13487">
        <ele>182.3</ele>
        <time>2023-04-05T17:48:39.752Z</time>
      </trkpt>
      <trkpt lat="43.28549" lon="6.13491">
        <ele>182</ele>
        <time>2023-04-05T17:48:40.232Z</time>
      </trkpt>
      <trkpt lat="43.28548" lon="6.13499">
        <ele>182</ele>
        <time>2023-04-05T17:48:41.185Z</time>
      </trkpt>
      <trkpt lat="43.28537" lon="6.13526">
        <ele>181</ele>
        <time>2023-04-05T17:48:44.710Z</time>
      </trkpt>
      <trkpt lat="43.28504" lon="6.13569">
        <ele>180.3</ele>
        <time>2023-04-05T17:48:51.690Z</time>
      </trkpt>
      <trkpt lat="43.28496" lon="6.13581">
        <ele>179.8</ele>
        <time>2023-04-05T17:48:53.451Z</time>
      </trkpt>
      <trkpt lat="43.28494" lon="6.13584">
        <ele>179.5</ele>
        <time>2023-04-05T17:48:53.989Z</time>
      </trkpt>
      <trkpt lat="43.28485" lon="6.13598">
        <ele>178.5</ele>
        <time>2023-04-05T17:48:56.030Z</time>
      </trkpt>
      <trkpt lat="43.28478" lon="6.1361">
        <ele>177.5</ele>
        <time>2023-04-05T17:48:57.733Z</time>
      </trkpt>
      <trkpt lat="43.28475" lon="6.13616">
        <ele>177</ele>
        <time>2023-04-05T17:48:58.521Z</time>
      </trkpt>
      <trkpt lat="43.28463" lon="6.13646">
        <ele>175.3</ele>
        <time>2023-04-05T17:49:02.455Z</time>
      </trkpt>
      <trkpt lat="43.28447" lon="6.13682">
        <ele>173.5</ele>
        <time>2023-04-05T17:49:07.125Z</time>
      </trkpt>
      <trkpt lat="43.28423" lon="6.13727">
        <ele>171</ele>
        <time>2023-04-05T17:49:13.458Z</time>
      </trkpt>
      <trkpt lat="43.28404" lon="6.13763">
        <ele>169.3</ele>
        <time>2023-04-05T17:49:18.441Z</time>
      </trkpt>
      <trkpt lat="43.28381" lon="6.13795">
        <ele>168.3</ele>
        <time>2023-04-05T17:49:23.472Z</time>
      </trkpt>
      <trkpt lat="43.28363" lon="6.13822">
        <ele>167.8</ele>
        <time>2023-04-05T17:49:27.536Z</time>
      </trkpt>
      <trkpt lat="43.2836" lon="6.13832">
        <ele>167.5</ele>
        <time>2023-04-05T17:49:28.732Z</time>
      </trkpt>
      <trkpt lat="43.2836" lon="6.13842">
        <ele>167.3</ele>
        <time>2023-04-05T17:49:29.864Z</time>
      </trkpt>
      <trkpt lat="43.28366" lon="6.13876">
        <ele>166.5</ele>
        <time>2023-04-05T17:49:33.767Z</time>
      </trkpt>
      <trkpt lat="43.28366" lon="6.13882">
        <ele>166.3</ele>
        <time>2023-04-05T17:49:34.499Z</time>
      </trkpt>
      <trkpt lat="43.28365" lon="6.1389">
        <ele>166.3</ele>
        <time>2023-04-05T17:49:35.364Z</time>
      </trkpt>
      <trkpt lat="43.28363" lon="6.13896">
        <ele>166</ele>
        <time>2023-04-05T17:49:36.117Z</time>
      </trkpt>
      <trkpt lat="43.28353" lon="6.13913">
        <ele>165.8</ele>
        <time>2023-04-05T17:49:38.544Z</time>
      </trkpt>
      <trkpt lat="43.2835" lon="6.13915">
        <ele>165.8</ele>
        <time>2023-04-05T17:49:39.100Z</time>
      </trkpt>
      <trkpt lat="43.28345" lon="6.13917">
        <ele>165.8</ele>
        <time>2023-04-05T17:49:39.836Z</time>
      </trkpt>
      <trkpt lat="43.28337" lon="6.13918">
        <ele>165.8</ele>
        <time>2023-04-05T17:49:41.129Z</time>
      </trkpt>
      <trkpt lat="43.28324" lon="6.13917">
        <ele>165.8</ele>
        <time>2023-04-05T17:49:43.028Z</time>
      </trkpt>
      <trkpt lat="43.28299" lon="6.13918">
        <ele>165</ele>
        <time>2023-04-05T17:49:46.923Z</time>
      </trkpt>
      <trkpt lat="43.28292" lon="6.1392">
        <ele>164.8</ele>
        <time>2023-04-05T17:49:48.097Z</time>
      </trkpt>
      <trkpt lat="43.28283" lon="6.13925">
        <ele>164.3</ele>
        <time>2023-04-05T17:49:49.501Z</time>
      </trkpt>
      <trkpt lat="43.28277" lon="6.13931">
        <ele>164</ele>
        <time>2023-04-05T17:49:50.708Z</time>
      </trkpt>
      <trkpt lat="43.28269" lon="6.13942">
        <ele>163.3</ele>
        <time>2023-04-05T17:49:52.469Z</time>
      </trkpt>
      <trkpt lat="43.28197" lon="6.14064">
        <ele>158</ele>
        <time>2023-04-05T17:50:10.005Z</time>
      </trkpt>
      <trkpt lat="43.28038" lon="6.1428">
        <ele>151</ele>
        <time>2023-04-05T17:50:44.485Z</time>
      </trkpt>
      <trkpt lat="43.28002" lon="6.14319">
        <ele>150</ele>
        <time>2023-04-05T17:50:51.552Z</time>
      </trkpt>
      <trkpt lat="43.27961" lon="6.14347">
        <ele>149</ele>
        <time>2023-04-05T17:50:58.558Z</time>
      </trkpt>
      <trkpt lat="43.27926" lon="6.14363">
        <ele>148.3</ele>
        <time>2023-04-05T17:51:04.256Z</time>
      </trkpt>
      <trkpt lat="43.27886" lon="6.14394">
        <ele>146.5</ele>
        <time>2023-04-05T17:51:11.311Z</time>
      </trkpt>
      <trkpt lat="43.27832" lon="6.14474">
        <ele>144.3</ele>
        <time>2023-04-05T17:51:23.585Z</time>
      </trkpt>
      <trkpt lat="43.27757" lon="6.14582">
        <ele>140</ele>
        <time>2023-04-05T17:51:40.319Z</time>
      </trkpt>
      <trkpt lat="43.277" lon="6.1466">
        <ele>138.8</ele>
        <time>2023-04-05T17:51:52.617Z</time>
      </trkpt>
      <trkpt lat="43.27637" lon="6.14726">
        <ele>137.3</ele>
        <time>2023-04-05T17:52:04.826Z</time>
      </trkpt>
      <trkpt lat="43.27611" lon="6.14752">
        <ele>136.5</ele>
        <time>2023-04-05T17:52:09.866Z</time>
      </trkpt>
      <trkpt lat="43.27584" lon="6.14768">
        <ele>135.8</ele>
        <time>2023-04-05T17:52:14.403Z</time>
      </trkpt>
      <trkpt lat="43.27505" lon="6.14801">
        <ele>132.8</ele>
        <time>2023-04-05T17:52:27.057Z</time>
      </trkpt>
      <trkpt lat="43.27415" lon="6.14837">
        <ele>129.8</ele>
        <time>2023-04-05T17:52:41.414Z</time>
      </trkpt>
      <trkpt lat="43.27332" lon="6.14854">
        <ele>127.8</ele>
        <time>2023-04-05T17:52:54.388Z</time>
      </trkpt>
      <trkpt lat="43.27256" lon="6.14868">
        <ele>126</ele>
        <time>2023-04-05T17:53:06.190Z</time>
      </trkpt>
      <trkpt lat="43.27213" lon="6.14879">
        <ele>124.5</ele>
        <time>2023-04-05T17:53:12.977Z</time>
      </trkpt>
      <trkpt lat="43.27006" lon="6.14975">
        <ele>121</ele>
        <time>2023-04-05T17:53:46.542Z</time>
      </trkpt>
      <trkpt lat="43.2697" lon="6.14996">
        <ele>119.5</ele>
        <time>2023-04-05T17:53:52.663Z</time>
      </trkpt>
      <trkpt lat="43.26884" lon="6.15087">
        <ele>116</ele>
        <time>2023-04-05T17:54:09.292Z</time>
      </trkpt>
      <trkpt lat="43.26871" lon="6.15096">
        <ele>115.8</ele>
        <time>2023-04-05T17:54:11.560Z</time>
      </trkpt>
      <trkpt lat="43.26723" lon="6.15165">
        <ele>113.8</ele>
        <time>2023-04-05T17:54:35.663Z</time>
      </trkpt>
      <trkpt lat="43.26684" lon="6.15182">
        <ele>112.3</ele>
        <time>2023-04-05T17:54:41.887Z</time>
      </trkpt>
      <trkpt lat="43.26627" lon="6.15203">
        <ele>110.5</ele>
        <time>2023-04-05T17:54:51.047Z</time>
      </trkpt>
      <trkpt lat="43.26571" lon="6.15218">
        <ele>109</ele>
        <time>2023-04-05T17:54:59.833Z</time>
      </trkpt>
      <trkpt lat="43.26555" lon="6.15224">
        <ele>108.8</ele>
        <time>2023-04-05T17:55:02.395Z</time>
      </trkpt>
      <trkpt lat="43.26251" lon="6.15371">
        <ele>101</ele>
        <time>2023-04-05T17:55:51.933Z</time>
      </trkpt>
      <trkpt lat="43.2618" lon="6.15406">
        <ele>99.3</ele>
        <time>2023-04-05T17:56:03.579Z</time>
      </trkpt>
      <trkpt lat="43.26134" lon="6.15424">
        <ele>98.5</ele>
        <time>2023-04-05T17:56:10.871Z</time>
      </trkpt>
      <trkpt lat="43.26101" lon="6.1543">
        <ele>98.3</ele>
        <time>2023-04-05T17:56:16.139Z</time>
      </trkpt>
      <trkpt lat="43.26065" lon="6.15424">
        <ele>97.3</ele>
        <time>2023-04-05T17:56:21.640Z</time>
      </trkpt>
      <trkpt lat="43.2603" lon="6.15408">
        <ele>96</ele>
        <time>2023-04-05T17:56:27.406Z</time>
      </trkpt>
      <trkpt lat="43.25982" lon="6.15375">
        <ele>94.5</ele>
        <time>2023-04-05T17:56:35.585Z</time>
      </trkpt>
      <trkpt lat="43.25832" lon="6.15258">
        <ele>91.8</ele>
        <time>2023-04-05T17:57:02.183Z</time>
      </trkpt>
      <trkpt lat="43.2581" lon="6.15253">
        <ele>91</ele>
        <time>2023-04-05T17:57:05.565Z</time>
      </trkpt>
      <trkpt lat="43.25606" lon="6.15231">
        <ele>85.5</ele>
        <time>2023-04-05T17:57:37.098Z</time>
      </trkpt>
      <trkpt lat="43.25569" lon="6.15226">
        <ele>84.5</ele>
        <time>2023-04-05T17:57:42.794Z</time>
      </trkpt>
      <trkpt lat="43.25436" lon="6.15173">
        <ele>84</ele>
        <time>2023-04-05T17:58:04.193Z</time>
      </trkpt>
      <trkpt lat="43.25385" lon="6.15148">
        <ele>86</ele>
        <time>2023-04-05T17:58:12.455Z</time>
      </trkpt>
      <trkpt lat="43.25366" lon="6.15128">
        <ele>85.8</ele>
        <time>2023-04-05T17:58:16.163Z</time>
      </trkpt>
      <trkpt lat="43.2534" lon="6.15107">
        <ele>84.5</ele>
        <time>2023-04-05T17:58:20.783Z</time>
      </trkpt>
      <trkpt lat="43.25316" lon="6.15098">
        <ele>83.3</ele>
        <time>2023-04-05T17:58:24.586Z</time>
      </trkpt>
      <trkpt lat="43.2529" lon="6.15096">
        <ele>82.5</ele>
        <time>2023-04-05T17:58:28.577Z</time>
      </trkpt>
      <trkpt lat="43.25208" lon="6.15111">
        <ele>81.5</ele>
        <time>2023-04-05T17:58:41.318Z</time>
      </trkpt>
      <trkpt lat="43.25178" lon="6.15108">
        <ele>79.5</ele>
        <time>2023-04-05T17:58:46.025Z</time>
      </trkpt>
      <trkpt lat="43.25161" lon="6.15103">
        <ele>78.5</ele>
        <time>2023-04-05T17:58:48.735Z</time>
      </trkpt>
      <trkpt lat="43.25116" lon="6.15085">
        <ele>76.8</ele>
        <time>2023-04-05T17:58:55.831Z</time>
      </trkpt>
      <trkpt lat="43.25111" lon="6.15083">
        <ele>76.5</ele>
        <time>2023-04-05T17:58:56.745Z</time>
      </trkpt>
      <trkpt lat="43.25049" lon="6.15061">
        <ele>76</ele>
        <time>2023-04-05T17:59:06.620Z</time>
      </trkpt>
      <trkpt lat="43.25015" lon="6.15058">
        <ele>75.8</ele>
        <time>2023-04-05T17:59:11.847Z</time>
      </trkpt>
      <trkpt lat="43.24993" lon="6.15061">
        <ele>75.3</ele>
        <time>2023-04-05T17:59:15.246Z</time>
      </trkpt>
      <trkpt lat="43.24969" lon="6.15074">
        <ele>75</ele>
        <time>2023-04-05T17:59:19.230Z</time>
      </trkpt>
      <trkpt lat="43.24941" lon="6.15101">
        <ele>74.8</ele>
        <time>2023-04-05T17:59:24.504Z</time>
      </trkpt>
      <trkpt lat="43.2493" lon="6.15117">
        <ele>74.8</ele>
        <time>2023-04-05T17:59:26.933Z</time>
      </trkpt>
      <trkpt lat="43.24904" lon="6.15129">
        <ele>74.3</ele>
        <time>2023-04-05T17:59:31.072Z</time>
      </trkpt>
      <trkpt lat="43.24845" lon="6.15132">
        <ele>72</ele>
        <time>2023-04-05T17:59:40.238Z</time>
      </trkpt>
      <trkpt lat="43.24821" lon="6.15125">
        <ele>71.3</ele>
        <time>2023-04-05T17:59:44.048Z</time>
      </trkpt>
      <trkpt lat="43.24777" lon="6.15107">
        <ele>70.3</ele>
        <time>2023-04-05T17:59:51.062Z</time>
      </trkpt>
      <trkpt lat="43.24759" lon="6.15099">
        <ele>70</ele>
        <time>2023-04-05T17:59:53.942Z</time>
      </trkpt>
      <trkpt lat="43.24738" lon="6.15092">
        <ele>69.8</ele>
        <time>2023-04-05T17:59:57.263Z</time>
      </trkpt>
      <trkpt lat="43.24719" lon="6.15088">
        <ele>69.5</ele>
        <time>2023-04-05T18:00:00.210Z</time>
      </trkpt>
      <trkpt lat="43.24709" lon="6.15087">
        <ele>69.5</ele>
        <time>2023-04-05T18:00:01.788Z</time>
      </trkpt>
      <trkpt lat="43.24696" lon="6.15086">
        <ele>69.3</ele>
        <time>2023-04-05T18:00:03.820Z</time>
      </trkpt>
      <trkpt lat="43.24686" lon="6.15088">
        <ele>69</ele>
        <time>2023-04-05T18:00:05.396Z</time>
      </trkpt>
      <trkpt lat="43.24672" lon="6.15091">
        <ele>69</ele>
        <time>2023-04-05T18:00:07.565Z</time>
      </trkpt>
      <trkpt lat="43.24661" lon="6.15096">
        <ele>68.8</ele>
        <time>2023-04-05T18:00:09.255Z</time>
      </trkpt>
      <trkpt lat="43.24627" lon="6.15117">
        <ele>68.8</ele>
        <time>2023-04-05T18:00:15.070Z</time>
      </trkpt>
      <trkpt lat="43.24617" lon="6.15121">
        <ele>68.8</ele>
        <time>2023-04-05T18:00:16.610Z</time>
      </trkpt>
      <trkpt lat="43.24608" lon="6.15124">
        <ele>68.8</ele>
        <time>2023-04-05T18:00:18.086Z</time>
      </trkpt>
      <trkpt lat="43.24598" lon="6.15125">
        <ele>69</ele>
        <time>2023-04-05T18:00:19.667Z</time>
      </trkpt>
      <trkpt lat="43.24526" lon="6.15123">
        <ele>66.8</ele>
        <time>2023-04-05T18:00:30.694Z</time>
      </trkpt>
      <trkpt lat="43.2432" lon="6.15112">
        <ele>65</ele>
        <time>2023-04-05T18:01:02.417Z</time>
      </trkpt>
      <trkpt lat="43.24218" lon="6.15109">
        <ele>64.5</ele>
        <time>2023-04-05T18:01:18.216Z</time>
      </trkpt>
      <trkpt lat="43.24105" lon="6.15103">
        <ele>63.3</ele>
        <time>2023-04-05T18:01:35.520Z</time>
      </trkpt>
      <trkpt lat="43.24037" lon="6.15082">
        <ele>61.8</ele>
        <time>2023-04-05T18:01:46.213Z</time>
      </trkpt>
      <trkpt lat="43.23878" lon="6.15038">
        <ele>60.5</ele>
        <time>2023-04-05T18:02:11.234Z</time>
      </trkpt>
      <trkpt lat="43.23842" lon="6.15027">
        <ele>60.5</ele>
        <time>2023-04-05T18:02:16.934Z</time>
      </trkpt>
      <trkpt lat="43.23798" lon="6.15005">
        <ele>60</ele>
        <time>2023-04-05T18:02:24.087Z</time>
      </trkpt>
      <trkpt lat="43.23753" lon="6.14977">
        <ele>59.3</ele>
        <time>2023-04-05T18:02:31.661Z</time>
      </trkpt>
      <trkpt lat="43.23738" lon="6.14967">
        <ele>59.5</ele>
        <time>2023-04-05T18:02:34.356Z</time>
      </trkpt>
      <trkpt lat="43.23722" lon="6.14968">
        <ele>60</ele>
        <time>2023-04-05T18:02:36.857Z</time>
      </trkpt>
      <trkpt lat="43.23702" lon="6.14989">
        <ele>60.8</ele>
        <time>2023-04-05T18:02:40.619Z</time>
      </trkpt>
      <trkpt lat="43.23684" lon="6.15015">
        <ele>61.8</ele>
        <time>2023-04-05T18:02:44.762Z</time>
      </trkpt>
      <trkpt lat="43.23672" lon="6.15029">
        <ele>62.5</ele>
        <time>2023-04-05T18:02:47.112Z</time>
      </trkpt>
      <trkpt lat="43.23658" lon="6.15034">
        <ele>62.8</ele>
        <time>2023-04-05T18:02:49.285Z</time>
      </trkpt>
      <trkpt lat="43.23653" lon="6.15035">
        <ele>62.8</ele>
        <time>2023-04-05T18:02:50.150Z</time>
      </trkpt>
      <trkpt lat="43.23645" lon="6.15036">
        <ele>62.8</ele>
        <time>2023-04-05T18:02:51.264Z</time>
      </trkpt>
      <trkpt lat="43.23557" lon="6.15021">
        <ele>62.8</ele>
        <time>2023-04-05T18:03:04.961Z</time>
      </trkpt>
      <trkpt lat="43.23407" lon="6.14993">
        <ele>65.3</ele>
        <time>2023-04-05T18:03:28.357Z</time>
      </trkpt>
      <trkpt lat="43.23233" lon="6.1496">
        <ele>70.8</ele>
        <time>2023-04-05T18:03:55.368Z</time>
      </trkpt>
      <trkpt lat="43.23166" lon="6.14948">
        <ele>75.5</ele>
        <time>2023-04-05T18:04:05.662Z</time>
      </trkpt>
      <trkpt lat="43.23159" lon="6.14949">
        <ele>76</ele>
        <time>2023-04-05T18:04:06.850Z</time>
      </trkpt>
      <trkpt lat="43.23139" lon="6.14951">
        <ele>78</ele>
        <time>2023-04-05T18:04:09.975Z</time>
      </trkpt>
      <trkpt lat="43.23132" lon="6.14951">
        <ele>78.5</ele>
        <time>2023-04-05T18:04:10.962Z</time>
      </trkpt>
      <trkpt lat="43.23128" lon="6.14948">
        <ele>78.8</ele>
        <time>2023-04-05T18:04:11.727Z</time>
      </trkpt>
      <trkpt lat="43.23125" lon="6.14945">
        <ele>79</ele>
        <time>2023-04-05T18:04:12.245Z</time>
      </trkpt>
      <trkpt lat="43.23122" lon="6.14944">
        <ele>79</ele>
        <time>2023-04-05T18:04:12.711Z</time>
      </trkpt>
      <trkpt lat="43.23119" lon="6.14943">
        <ele>79.3</ele>
        <time>2023-04-05T18:04:13.174Z</time>
      </trkpt>
      <trkpt lat="43.23113" lon="6.1494">
        <ele>79.8</ele>
        <time>2023-04-05T18:04:14.179Z</time>
      </trkpt>
      <trkpt lat="43.23107" lon="6.14935">
        <ele>80.3</ele>
        <time>2023-04-05T18:04:15.226Z</time>
      </trkpt>
      <trkpt lat="43.23088" lon="6.1491">
        <ele>81.3</ele>
        <time>2023-04-05T18:04:19.239Z</time>
      </trkpt>
      <trkpt lat="43.23084" lon="6.149">
        <ele>81.3</ele>
        <time>2023-04-05T18:04:20.582Z</time>
      </trkpt>
      <trkpt lat="43.23056" lon="6.1483">
        <ele>86.5</ele>
        <time>2023-04-05T18:04:29.606Z</time>
      </trkpt>
      <trkpt lat="43.2299" lon="6.14669">
        <ele>93</ele>
        <time>2023-04-05T18:04:50.246Z</time>
      </trkpt>
      <trkpt lat="43.2298" lon="6.14645">
        <ele>93</ele>
        <time>2023-04-05T18:04:53.349Z</time>
      </trkpt>
      <trkpt lat="43.22971" lon="6.14629">
        <ele>93.3</ele>
        <time>2023-04-05T18:04:55.661Z</time>
      </trkpt>
      <trkpt lat="43.22963" lon="6.14615">
        <ele>94</ele>
        <time>2023-04-05T18:04:57.645Z</time>
      </trkpt>
      <trkpt lat="43.22916" lon="6.14547">
        <ele>97.8</ele>
        <time>2023-04-05T18:05:08.186Z</time>
      </trkpt>
      <trkpt lat="43.22907" lon="6.14534">
        <ele>97.3</ele>
        <time>2023-04-05T18:05:10.152Z</time>
      </trkpt>
      <trkpt lat="43.22892" lon="6.14506">
        <ele>96.3</ele>
        <time>2023-04-05T18:05:14.051Z</time>
      </trkpt>
      <trkpt lat="43.22877" lon="6.14477">
        <ele>96.8</ele>
        <time>2023-04-05T18:05:18.042Z</time>
      </trkpt>
      <trkpt lat="43.22871" lon="6.14462">
        <ele>96.8</ele>
        <time>2023-04-05T18:05:19.939Z</time>
      </trkpt>
      <trkpt lat="43.22858" lon="6.14415">
        <ele>96</ele>
        <time>2023-04-05T18:05:25.605Z</time>
      </trkpt>
      <trkpt lat="43.22852" lon="6.144">
        <ele>96</ele>
        <time>2023-04-05T18:05:27.492Z</time>
      </trkpt>
      <trkpt lat="43.22844" lon="6.14383">
        <ele>96.8</ele>
        <time>2023-04-05T18:05:29.868Z</time>
      </trkpt>
      <trkpt lat="43.22839" lon="6.14374">
        <ele>97.3</ele>
        <time>2023-04-05T18:05:31.084Z</time>
      </trkpt>
      <trkpt lat="43.22831" lon="6.14364">
        <ele>97.5</ele>
        <time>2023-04-05T18:05:32.752Z</time>
      </trkpt>
      <trkpt lat="43.22823" lon="6.14354">
        <ele>96.8</ele>
        <time>2023-04-05T18:05:34.413Z</time>
      </trkpt>
      <trkpt lat="43.2281" lon="6.14345">
        <ele>96.8</ele>
        <time>2023-04-05T18:05:36.597Z</time>
      </trkpt>
      <trkpt lat="43.22806" lon="6.14342">
        <ele>97</ele>
        <time>2023-04-05T18:05:37.289Z</time>
      </trkpt>
      <trkpt lat="43.22791" lon="6.14336">
        <ele>98.3</ele>
        <time>2023-04-05T18:05:39.728Z</time>
      </trkpt>
      <trkpt lat="43.22771" lon="6.14328">
        <ele>100.5</ele>
        <time>2023-04-05T18:05:42.855Z</time>
      </trkpt>
      <trkpt lat="43.22732" lon="6.14311">
        <ele>103.3</ele>
        <time>2023-04-05T18:05:49.200Z</time>
      </trkpt>
      <trkpt lat="43.22724" lon="6.14309">
        <ele>103</ele>
        <time>2023-04-05T18:05:50.493Z</time>
      </trkpt>
      <trkpt lat="43.22709" lon="6.14302">
        <ele>103.3</ele>
        <time>2023-04-05T18:05:52.867Z</time>
      </trkpt>
      <trkpt lat="43.22689" lon="6.14295">
        <ele>104.3</ele>
        <time>2023-04-05T18:05:56.086Z</time>
      </trkpt>
      <trkpt lat="43.22686" lon="6.14292">
        <ele>104.5</ele>
        <time>2023-04-05T18:05:56.666Z</time>
      </trkpt>
      <trkpt lat="43.22671" lon="6.14288">
        <ele>105.3</ele>
        <time>2023-04-05T18:05:58.999Z</time>
      </trkpt>
      <trkpt lat="43.22666" lon="6.14288">
        <ele>105.3</ele>
        <time>2023-04-05T18:05:59.815Z</time>
      </trkpt>
      <trkpt lat="43.2266" lon="6.14289">
        <ele>104.5</ele>
        <time>2023-04-05T18:06:00.657Z</time>
      </trkpt>
      <trkpt lat="43.2264" lon="6.14301">
        <ele>99.8</ele>
        <time>2023-04-05T18:06:04.069Z</time>
      </trkpt>
      <trkpt lat="43.22632" lon="6.14301">
        <ele>98.8</ele>
        <time>2023-04-05T18:06:05.254Z</time>
      </trkpt>
      <trkpt lat="43.22622" lon="6.14297">
        <ele>98</ele>
        <time>2023-04-05T18:06:06.813Z</time>
      </trkpt>
      <trkpt lat="43.22602" lon="6.14288">
        <ele>97</ele>
        <time>2023-04-05T18:06:10.133Z</time>
      </trkpt>
      <trkpt lat="43.22585" lon="6.14278">
        <ele>96.3</ele>
        <time>2023-04-05T18:06:13.000Z</time>
      </trkpt>
      <trkpt lat="43.22561" lon="6.14262">
        <ele>95</ele>
        <time>2023-04-05T18:06:17.023Z</time>
      </trkpt>
      <trkpt lat="43.22536" lon="6.14239">
        <ele>93</ele>
        <time>2023-04-05T18:06:21.727Z</time>
      </trkpt>
      <trkpt lat="43.22532" lon="6.14235">
        <ele>92.5</ele>
        <time>2023-04-05T18:06:22.368Z</time>
      </trkpt>
      <trkpt lat="43.22471" lon="6.14164">
        <ele>85.8</ele>
        <time>2023-04-05T18:06:34.811Z</time>
      </trkpt>
      <trkpt lat="43.22458" lon="6.14145">
        <ele>84</ele>
        <time>2023-04-05T18:06:37.670Z</time>
      </trkpt>
      <trkpt lat="43.22444" lon="6.14117">
        <ele>82.5</ele>
        <time>2023-04-05T18:06:41.443Z</time>
      </trkpt>
      <trkpt lat="43.2244" lon="6.14104">
        <ele>82</ele>
        <time>2023-04-05T18:06:43.040Z</time>
      </trkpt>
      <trkpt lat="43.22439" lon="6.14099">
        <ele>81.8</ele>
        <time>2023-04-05T18:06:43.614Z</time>
      </trkpt>
    </trkseg>
  </trk>
</gpx>